<?xml version='1.0' encoding='UTF-8'?><gpx version="1.1" creator="JPX - https://github.com/jenetics/jpx" xmlns="http://www.topografix.com/GPX/1/1"><trk><trkseg><trkpt lat="44.35297309448662" lon="11.566292943420446"><ele>95.0</ele><time>2026-05-03T08:44:16.003Z</time></trkpt><trkpt lat="44.35302164760892" lon="11.566205554872633"><ele>95.0</ele><time>2026-05-03T08:44:17.003Z</time></trkpt><trkpt lat="44.3531148639774" lon="11.566089686348848"><ele>95.0</ele><time>2026-05-03T08:44:18.003Z</time></trkpt><trkpt lat="44.35316767182344" lon="11.565995165514515"><ele>95.0</ele><time>2026-05-03T08:44:19.002Z</time></trkpt><trkpt lat="44.35323553012785" lon="11.565926313131"><ele>95.0</ele><time>2026-05-03T08:44:20.002Z</time></trkpt><trkpt lat="44.35329652536873" lon="11.565848277589055"><ele>94.85714285714286</ele><time>2026-05-03T08:44:21.002Z</time></trkpt><trkpt lat="44.35334570414244" lon="11.565777246079646"><ele>94.71428571428572</ele><time>2026-05-03T08:44:22.002Z</time></trkpt><trkpt lat="44.35338873275393" lon="11.565706657868942"><ele>94.57142857142857</ele><time>2026-05-03T08:44:23.002Z</time></trkpt><trkpt lat="44.35343875310716" lon="11.565629473168128"><ele>94.42857142857143</ele><time>2026-05-03T08:44:24.002Z</time></trkpt><trkpt lat="44.35348253445905" lon="11.565547897568388"><ele>94.28571428571428</ele><time>2026-05-03T08:44:25.002Z</time></trkpt><trkpt lat="44.35353622030107" lon="11.565481813399972"><ele>94.14285714285714</ele><time>2026-05-03T08:44:26.002Z</time></trkpt><trkpt lat="44.35358673103985" lon="11.56540884245968"><ele>94.0</ele><time>2026-05-03T08:44:27.001Z</time></trkpt><trkpt lat="44.35364077949309" lon="11.565331491465278"><ele>94.0</ele><time>2026-05-03T08:44:28.001Z</time></trkpt><trkpt lat="44.35371250380133" lon="11.565231839998233"><ele>94.0</ele><time>2026-05-03T08:44:29.001Z</time></trkpt><trkpt lat="44.35377100973323" lon="11.565149629597919"><ele>94.0</ele><time>2026-05-03T08:44:30.001Z</time></trkpt><trkpt lat="44.353842272049675" lon="11.565046249786073"><ele>94.0</ele><time>2026-05-03T08:44:31.001Z</time></trkpt><trkpt lat="44.3538945508017" lon="11.564892022111826"><ele>94.0</ele><time>2026-05-03T08:44:32.001Z</time></trkpt><trkpt lat="44.35393253154529" lon="11.564701529198201"><ele>93.5</ele><time>2026-05-03T08:44:33.001Z</time></trkpt><trkpt lat="44.35394146695953" lon="11.564491043634286"><ele>93.0</ele><time>2026-05-03T08:44:34.001Z</time></trkpt><trkpt lat="44.3539308345251" lon="11.564277056996685"><ele>92.5</ele><time>2026-05-03T08:44:35.001Z</time></trkpt><trkpt lat="44.35391742628853" lon="11.564079366571203"><ele>92.0</ele><time>2026-05-03T08:44:36.001Z</time></trkpt><trkpt lat="44.353913317230685" lon="11.5639008222306"><ele>92.0</ele><time>2026-05-03T08:44:37.001Z</time></trkpt><trkpt lat="44.35390942902208" lon="11.563760856707662"><ele>92.0</ele><time>2026-05-03T08:44:38.001Z</time></trkpt><trkpt lat="44.35391171455309" lon="11.563664998431861"><ele>92.0</ele><time>2026-05-03T08:44:39.001Z</time></trkpt><trkpt lat="44.353918274750605" lon="11.563548409850613"><ele>92.0</ele><time>2026-05-03T08:44:41Z</time></trkpt><trkpt lat="44.35387077876768" lon="11.563475406002723"><ele>92.0</ele><time>2026-05-03T08:44:42Z</time></trkpt><trkpt lat="44.353789679309735" lon="11.563396262050757"><ele>92.0</ele><time>2026-05-03T08:44:43Z</time></trkpt><trkpt lat="44.353670752615294" lon="11.563290171663075"><ele>94.5</ele><time>2026-05-03T08:44:44Z</time></trkpt><trkpt lat="44.35356316999518" lon="11.563162125382625"><ele>97.0</ele><time>2026-05-03T08:44:45Z</time></trkpt><trkpt lat="44.35346250798362" lon="11.563012776926744"><ele>99.5</ele><time>2026-05-03T08:44:46Z</time></trkpt><trkpt lat="44.35336402961868" lon="11.562851019191463"><ele>102.0</ele><time>2026-05-03T08:44:47Z</time></trkpt><trkpt lat="44.3532786486544" lon="11.562709768168183"><ele>101.5</ele><time>2026-05-03T08:44:48Z</time></trkpt><trkpt lat="44.35320281894713" lon="11.562581101232626"><ele>101.0</ele><time>2026-05-03T08:44:49Z</time></trkpt><trkpt lat="44.35312859044884" lon="11.562437499152264"><ele>100.5</ele><time>2026-05-03T08:44:50Z</time></trkpt><trkpt lat="44.35304426477578" lon="11.562283657409715"><ele>100.0</ele><time>2026-05-03T08:44:51Z</time></trkpt><trkpt lat="44.352957581108335" lon="11.562131824304062"><ele>101.0</ele><time>2026-05-03T08:44:52Z</time></trkpt><trkpt lat="44.352871263897924" lon="11.561965535139324"><ele>102.0</ele><time>2026-05-03T08:44:53Z</time></trkpt><trkpt lat="44.352782396578235" lon="11.561801809224134"><ele>103.0</ele><time>2026-05-03T08:44:54Z</time></trkpt><trkpt lat="44.352692206775295" lon="11.561644825760194"><ele>104.0</ele><time>2026-05-03T08:44:55Z</time></trkpt><trkpt lat="44.35260387223229" lon="11.561477418822289"><ele>104.0</ele><time>2026-05-03T08:44:56Z</time></trkpt><trkpt lat="44.35251131881384" lon="11.561307382215713"><ele>104.0</ele><time>2026-05-03T08:44:57Z</time></trkpt><trkpt lat="44.352419548095625" lon="11.561134569752406"><ele>104.0</ele><time>2026-05-03T08:44:58Z</time></trkpt><trkpt lat="44.352333046331545" lon="11.560972336222514"><ele>104.0</ele><time>2026-05-03T08:44:59Z</time></trkpt><trkpt lat="44.35223984268267" lon="11.560803813929484"><ele>104.0</ele><time>2026-05-03T08:45:00Z</time></trkpt><trkpt lat="44.35213509237028" lon="11.560618679639035"><ele>104.0</ele><time>2026-05-03T08:45:01Z</time></trkpt><trkpt lat="44.352026726770106" lon="11.560433467949137"><ele>103.33333333333333</ele><time>2026-05-03T08:45:02Z</time></trkpt><trkpt lat="44.35191397240344" lon="11.560268208512253"><ele>102.66666666666666</ele><time>2026-05-03T08:45:03Z</time></trkpt><trkpt lat="44.35176740154627" lon="11.560127894250092"><ele>102.0</ele><time>2026-05-03T08:45:04Z</time></trkpt><trkpt lat="44.35160431396486" lon="11.559998206972834"><ele>102.0</ele><time>2026-05-03T08:45:05Z</time></trkpt><trkpt lat="44.351438661807634" lon="11.559868251223772"><ele>102.0</ele><time>2026-05-03T08:45:06Z</time></trkpt><trkpt lat="44.35127561954794" lon="11.559743534177983"><ele>102.0</ele><time>2026-05-03T08:45:07Z</time></trkpt><trkpt lat="44.35110446402837" lon="11.559613372454626"><ele>101.0</ele><time>2026-05-03T08:45:08Z</time></trkpt><trkpt lat="44.35093187873003" lon="11.559475274677006"><ele>100.0</ele><time>2026-05-03T08:45:09Z</time></trkpt><trkpt lat="44.350756948477205" lon="11.559336879068542"><ele>99.0</ele><time>2026-05-03T08:45:10Z</time></trkpt><trkpt lat="44.35058410483759" lon="11.559192061880207"><ele>99.33333333333334</ele><time>2026-05-03T08:45:11Z</time></trkpt><trkpt lat="44.35040939065487" lon="11.559056604521539"><ele>99.66666666666667</ele><time>2026-05-03T08:45:12Z</time></trkpt><trkpt lat="44.350241964363256" lon="11.558929594336595"><ele>100.0</ele><time>2026-05-03T08:45:13Z</time></trkpt><trkpt lat="44.35007205893395" lon="11.558798639374574"><ele>100.33333333333334</ele><time>2026-05-03T08:45:14Z</time></trkpt><trkpt lat="44.34990153919253" lon="11.558666491017897"><ele>100.66666666666666</ele><time>2026-05-03T08:45:15Z</time></trkpt><trkpt lat="44.34973019603924" lon="11.558529381052871"><ele>101.0</ele><time>2026-05-03T08:45:16Z</time></trkpt><trkpt lat="44.34956054495507" lon="11.558392965504602"><ele>101.0</ele><time>2026-05-03T08:45:17Z</time></trkpt><trkpt lat="44.349388332445095" lon="11.55825194535274"><ele>101.0</ele><time>2026-05-03T08:45:18Z</time></trkpt><trkpt lat="44.34921464095458" lon="11.558112765813963"><ele>101.0</ele><time>2026-05-03T08:45:19Z</time></trkpt><trkpt lat="44.349039998786985" lon="11.557971914672228"><ele>101.33333333333333</ele><time>2026-05-03T08:45:20Z</time></trkpt><trkpt lat="44.34886330216383" lon="11.557832399298887"><ele>101.66666666666666</ele><time>2026-05-03T08:45:21Z</time></trkpt><trkpt lat="44.34868325815912" lon="11.557691671435517"><ele>102.0</ele><time>2026-05-03T08:45:22Z</time></trkpt><trkpt lat="44.348505235216315" lon="11.557555626889869"><ele>102.0</ele><time>2026-05-03T08:45:23Z</time></trkpt><trkpt lat="44.34834212619661" lon="11.557421873369856"><ele>102.0</ele><time>2026-05-03T08:45:24Z</time></trkpt><trkpt lat="44.34816912914657" lon="11.55729415426401"><ele>102.0</ele><time>2026-05-03T08:45:25Z</time></trkpt><trkpt lat="44.347968886095906" lon="11.557186448752363"><ele>102.5</ele><time>2026-05-03T08:45:26Z</time></trkpt><trkpt lat="44.347737871290285" lon="11.557115223088887"><ele>103.0</ele><time>2026-05-03T08:45:27Z</time></trkpt><trkpt lat="44.347513856855294" lon="11.55704697355946"><ele>103.33333333333334</ele><time>2026-05-03T08:45:28Z</time></trkpt><trkpt lat="44.347310675395455" lon="11.556983728216727"><ele>103.66666666666666</ele><time>2026-05-03T08:45:29Z</time></trkpt><trkpt lat="44.34712321682951" lon="11.556904521424686"><ele>104.0</ele><time>2026-05-03T08:45:30Z</time></trkpt><trkpt lat="44.34694291929011" lon="11.556798129374538"><ele>104.0</ele><time>2026-05-03T08:45:31Z</time></trkpt><trkpt lat="44.34677426008801" lon="11.556667498490523"><ele>104.0</ele><time>2026-05-03T08:45:32Z</time></trkpt><trkpt lat="44.34661462276876" lon="11.55647459702957"><ele>104.0</ele><time>2026-05-03T08:45:33Z</time></trkpt><trkpt lat="44.34645159144667" lon="11.556245441347665"><ele>104.0</ele><time>2026-05-03T08:45:34Z</time></trkpt><trkpt lat="44.346289456692205" lon="11.55601278294819"><ele>104.0</ele><time>2026-05-03T08:45:35Z</time></trkpt><trkpt lat="44.34613054590147" lon="11.555785878228367"><ele>104.0</ele><time>2026-05-03T08:45:36Z</time></trkpt><trkpt lat="44.345968208520326" lon="11.555562043701189"><ele>104.0</ele><time>2026-05-03T08:45:37Z</time></trkpt><trkpt lat="44.34580538297777" lon="11.55533872093354"><ele>104.0</ele><time>2026-05-03T08:45:38Z</time></trkpt><trkpt lat="44.34564190013415" lon="11.555114258192006"><ele>104.0</ele><time>2026-05-03T08:45:39Z</time></trkpt><trkpt lat="44.34547659670065" lon="11.55489315859459"><ele>104.0</ele><time>2026-05-03T08:45:40Z</time></trkpt><trkpt lat="44.345310483224885" lon="11.554674563249607"><ele>104.0</ele><time>2026-05-03T08:45:41Z</time></trkpt><trkpt lat="44.345146467309924" lon="11.554458837336771"><ele>104.66666666666666</ele><time>2026-05-03T08:45:42Z</time></trkpt><trkpt lat="44.3449858702034" lon="11.554243010151314"><ele>105.33333333333334</ele><time>2026-05-03T08:45:43Z</time></trkpt><trkpt lat="44.34483055749381" lon="11.554031561923324"><ele>106.0</ele><time>2026-05-03T08:45:44Z</time></trkpt><trkpt lat="44.34467742561642" lon="11.553820585036062"><ele>106.66666666666667</ele><time>2026-05-03T08:45:45Z</time></trkpt><trkpt lat="44.344527948582055" lon="11.553611141510578"><ele>107.33333333333334</ele><time>2026-05-03T08:45:46Z</time></trkpt><trkpt lat="44.344380807048985" lon="11.553401611463064"><ele>108.0</ele><time>2026-05-03T08:45:47Z</time></trkpt><trkpt lat="44.34423622105852" lon="11.55319601598493"><ele>108.0</ele><time>2026-05-03T08:45:48Z</time></trkpt><trkpt lat="44.34408720299476" lon="11.552996713728838"><ele>108.0</ele><time>2026-05-03T08:45:49Z</time></trkpt><trkpt lat="44.34395059559387" lon="11.552810477084476"><ele>108.0</ele><time>2026-05-03T08:45:50Z</time></trkpt><trkpt lat="44.343841487578345" lon="11.552618499290324"><ele>108.33333333333334</ele><time>2026-05-03T08:45:51Z</time></trkpt><trkpt lat="44.34376171201244" lon="11.55239765357546"><ele>108.66666666666667</ele><time>2026-05-03T08:45:52Z</time></trkpt><trkpt lat="44.34370974691034" lon="11.552131891792808"><ele>109.0</ele><time>2026-05-03T08:45:53Z</time></trkpt><trkpt lat="44.34367893370029" lon="11.551845440179141"><ele>109.66666666666667</ele><time>2026-05-03T08:45:54Z</time></trkpt><trkpt lat="44.343665773386576" lon="11.551541673072323"><ele>110.33333333333334</ele><time>2026-05-03T08:45:55Z</time></trkpt><trkpt lat="44.34366132263995" lon="11.55122477057725"><ele>111.0</ele><time>2026-05-03T08:45:56Z</time></trkpt><trkpt lat="44.34366162520707" lon="11.550903906946914"><ele>111.0</ele><time>2026-05-03T08:45:57Z</time></trkpt><trkpt lat="44.343667826010254" lon="11.550580918813049"><ele>111.0</ele><time>2026-05-03T08:45:58Z</time></trkpt><trkpt lat="44.34368576354884" lon="11.550257001917696"><ele>112.5</ele><time>2026-05-03T08:45:59Z</time></trkpt><trkpt lat="44.34371753253812" lon="11.54993378044482"><ele>114.0</ele><time>2026-05-03T08:46:00Z</time></trkpt><trkpt lat="44.34376818052765" lon="11.549621948545623"><ele>114.0</ele><time>2026-05-03T08:46:01Z</time></trkpt><trkpt lat="44.34382856567762" lon="11.54932381363231"><ele>114.0</ele><time>2026-05-03T08:46:02Z</time></trkpt><trkpt lat="44.34388820317077" lon="11.549034743659437"><ele>114.0</ele><time>2026-05-03T08:46:03Z</time></trkpt><trkpt lat="44.34393899895992" lon="11.548748830244289"><ele>115.66666666666666</ele><time>2026-05-03T08:46:04Z</time></trkpt><trkpt lat="44.34396575980344" lon="11.548460456360996"><ele>117.33333333333333</ele><time>2026-05-03T08:46:05Z</time></trkpt><trkpt lat="44.343957193874346" lon="11.548161354811512"><ele>119.0</ele><time>2026-05-03T08:46:06Z</time></trkpt><trkpt lat="44.343929676324144" lon="11.547860202857947"><ele>119.0</ele><time>2026-05-03T08:46:07Z</time></trkpt><trkpt lat="44.34391167722366" lon="11.547567884382026"><ele>119.0</ele><time>2026-05-03T08:46:08Z</time></trkpt><trkpt lat="44.34390129079312" lon="11.547299397728688"><ele>119.0</ele><time>2026-05-03T08:46:09Z</time></trkpt><trkpt lat="44.34389972489551" lon="11.5470528447879"><ele>121.66666666666666</ele><time>2026-05-03T08:46:10Z</time></trkpt><trkpt lat="44.34391843459423" lon="11.546808695407035"><ele>124.33333333333334</ele><time>2026-05-03T08:46:11Z</time></trkpt><trkpt lat="44.343970469838105" lon="11.546578484344439"><ele>127.0</ele><time>2026-05-03T08:46:12Z</time></trkpt><trkpt lat="44.34405904235491" lon="11.546368212807002"><ele>127.0</ele><time>2026-05-03T08:46:13Z</time></trkpt><trkpt lat="44.34415928428042" lon="11.546176943550083"><ele>127.0</ele><time>2026-05-03T08:46:14Z</time></trkpt><trkpt lat="44.344218511948206" lon="11.545999696480175"><ele>127.0</ele><time>2026-05-03T08:46:15Z</time></trkpt><trkpt lat="44.34423030317564" lon="11.545795602112145"><ele>127.0</ele><time>2026-05-03T08:46:16Z</time></trkpt><trkpt lat="44.344193202227935" lon="11.54560326958939"><ele>127.0</ele><time>2026-05-03T08:46:17Z</time></trkpt><trkpt lat="44.34411129679526" lon="11.545439065727054"><ele>127.0</ele><time>2026-05-03T08:46:18Z</time></trkpt><trkpt lat="44.3439870436765" lon="11.545300331334198"><ele>127.0</ele><time>2026-05-03T08:46:19Z</time></trkpt><trkpt lat="44.343813427746674" lon="11.545191672805714"><ele>126.33333333333334</ele><time>2026-05-03T08:46:20Z</time></trkpt><trkpt lat="44.34361209986948" lon="11.545100872409414"><ele>125.66666666666666</ele><time>2026-05-03T08:46:21Z</time></trkpt><trkpt lat="44.34340293089798" lon="11.544974872584433"><ele>125.0</ele><time>2026-05-03T08:46:22Z</time></trkpt><trkpt lat="44.343203463508054" lon="11.544799992796595"><ele>128.5</ele><time>2026-05-03T08:46:23Z</time></trkpt><trkpt lat="44.34301590004142" lon="11.544599001869404"><ele>132.0</ele><time>2026-05-03T08:46:24Z</time></trkpt><trkpt lat="44.34283811499154" lon="11.54434982256226"><ele>133.5</ele><time>2026-05-03T08:46:25Z</time></trkpt><trkpt lat="44.34264817183812" lon="11.544118379620308"><ele>135.0</ele><time>2026-05-03T08:46:26Z</time></trkpt><trkpt lat="44.342460600899884" lon="11.543895938619512"><ele>135.0</ele><time>2026-05-03T08:46:27Z</time></trkpt><trkpt lat="44.34226460853215" lon="11.54367275923488"><ele>135.0</ele><time>2026-05-03T08:46:28Z</time></trkpt><trkpt lat="44.34208128948699" lon="11.543448780486168"><ele>135.0</ele><time>2026-05-03T08:46:29Z</time></trkpt><trkpt lat="44.3418942556518" lon="11.543226180372859"><ele>135.0</ele><time>2026-05-03T08:46:30Z</time></trkpt><trkpt lat="44.341708956632985" lon="11.543004439028907"><ele>134.66666666666666</ele><time>2026-05-03T08:46:31Z</time></trkpt><trkpt lat="44.34153279990342" lon="11.542798735038437"><ele>134.33333333333331</ele><time>2026-05-03T08:46:32Z</time></trkpt><trkpt lat="44.34137647088362" lon="11.542607346004486"><ele>134.0</ele><time>2026-05-03T08:46:33Z</time></trkpt><trkpt lat="44.34123041497315" lon="11.542425759861986"><ele>134.0</ele><time>2026-05-03T08:46:34Z</time></trkpt><trkpt lat="44.341081458398186" lon="11.542243684990071"><ele>134.0</ele><time>2026-05-03T08:46:35Z</time></trkpt><trkpt lat="44.34092512539774" lon="11.542059597695511"><ele>134.0</ele><time>2026-05-03T08:46:36Z</time></trkpt><trkpt lat="44.340757276092155" lon="11.541884017192672"><ele>135.66666666666666</ele><time>2026-05-03T08:46:37Z</time></trkpt><trkpt lat="44.34057324551716" lon="11.541721755062596"><ele>137.33333333333334</ele><time>2026-05-03T08:46:38Z</time></trkpt><trkpt lat="44.340386116527675" lon="11.54155313808531"><ele>139.0</ele><time>2026-05-03T08:46:39Z</time></trkpt><trkpt lat="44.34020533674607" lon="11.541376122452704"><ele>140.66666666666669</ele><time>2026-05-03T08:46:40Z</time></trkpt><trkpt lat="44.340024045309946" lon="11.541200424089137"><ele>142.33333333333334</ele><time>2026-05-03T08:46:41Z</time></trkpt><trkpt lat="44.339854266505014" lon="11.541036542002633"><ele>144.0</ele><time>2026-05-03T08:46:42Z</time></trkpt><trkpt lat="44.33969690644538" lon="11.540882616125014"><ele>144.0</ele><time>2026-05-03T08:46:43Z</time></trkpt><trkpt lat="44.339554562024425" lon="11.540749089162002"><ele>144.0</ele><time>2026-05-03T08:46:44Z</time></trkpt><trkpt lat="44.33941456635676" lon="11.540638813823756"><ele>144.0</ele><time>2026-05-03T08:46:45Z</time></trkpt><trkpt lat="44.33926623387821" lon="11.54056911638141"><ele>144.0</ele><time>2026-05-03T08:46:46Z</time></trkpt><trkpt lat="44.339104187900915" lon="11.540555173630457"><ele>144.0</ele><time>2026-05-03T08:46:47Z</time></trkpt><trkpt lat="44.338915840122425" lon="11.540610889803972"><ele>144.0</ele><time>2026-05-03T08:46:48Z</time></trkpt><trkpt lat="44.33872184522294" lon="11.540706311401562"><ele>144.0</ele><time>2026-05-03T08:46:49Z</time></trkpt><trkpt lat="44.33854406230081" lon="11.540748005102799"><ele>144.0</ele><time>2026-05-03T08:46:50Z</time></trkpt><trkpt lat="44.33835310210686" lon="11.540720704590553"><ele>144.0</ele><time>2026-05-03T08:46:51Z</time></trkpt><trkpt lat="44.33816201414603" lon="11.540647091791987"><ele>144.33333333333334</ele><time>2026-05-03T08:46:52Z</time></trkpt><trkpt lat="44.33796047023737" lon="11.540523732705365"><ele>144.66666666666669</ele><time>2026-05-03T08:46:53Z</time></trkpt><trkpt lat="44.33775860702991" lon="11.540401511437377"><ele>145.0</ele><time>2026-05-03T08:46:54Z</time></trkpt><trkpt lat="44.337557629547184" lon="11.540295920380093"><ele>145.0</ele><time>2026-05-03T08:46:55Z</time></trkpt><trkpt lat="44.337364904706575" lon="11.540174618056326"><ele>145.0</ele><time>2026-05-03T08:46:56Z</time></trkpt><trkpt lat="44.337180525180344" lon="11.540033531718402"><ele>145.0</ele><time>2026-05-03T08:46:57Z</time></trkpt><trkpt lat="44.3370126338296" lon="11.539898612197678"><ele>142.0</ele><time>2026-05-03T08:46:58Z</time></trkpt><trkpt lat="44.33685574331684" lon="11.539764195666395"><ele>139.0</ele><time>2026-05-03T08:46:59Z</time></trkpt><trkpt lat="44.336723673992424" lon="11.539635024428897"><ele>136.0</ele><time>2026-05-03T08:47:00Z</time></trkpt><trkpt lat="44.33660793233323" lon="11.539488931056871"><ele>136.0</ele><time>2026-05-03T08:47:01Z</time></trkpt><trkpt lat="44.33651609244317" lon="11.539312391526217"><ele>136.0</ele><time>2026-05-03T08:47:02Z</time></trkpt><trkpt lat="44.33645912059554" lon="11.539116432829907"><ele>136.0</ele><time>2026-05-03T08:47:03Z</time></trkpt><trkpt lat="44.336431350515475" lon="11.538884643450453"><ele>135.66666666666669</ele><time>2026-05-03T08:47:04Z</time></trkpt><trkpt lat="44.336427325986264" lon="11.538605878006289"><ele>135.33333333333334</ele><time>2026-05-03T08:47:05Z</time></trkpt><trkpt lat="44.33643903872854" lon="11.53829847061869"><ele>135.0</ele><time>2026-05-03T08:47:06Z</time></trkpt><trkpt lat="44.3364534211054" lon="11.537989968561833"><ele>134.66666666666666</ele><time>2026-05-03T08:47:07Z</time></trkpt><trkpt lat="44.33646265764483" lon="11.53768227923907"><ele>134.33333333333331</ele><time>2026-05-03T08:47:08Z</time></trkpt><trkpt lat="44.33646795067229" lon="11.53738111036264"><ele>134.0</ele><time>2026-05-03T08:47:09Z</time></trkpt><trkpt lat="44.33647189183468" lon="11.537089655716661"><ele>135.0</ele><time>2026-05-03T08:47:10Z</time></trkpt><trkpt lat="44.336480587229055" lon="11.536827504732651"><ele>136.0</ele><time>2026-05-03T08:47:11Z</time></trkpt><trkpt lat="44.33648432831067" lon="11.536560702475345"><ele>137.0</ele><time>2026-05-03T08:47:12Z</time></trkpt><trkpt lat="44.33647130604329" lon="11.536293987819542"><ele>136.66666666666666</ele><time>2026-05-03T08:47:13Z</time></trkpt><trkpt lat="44.33642424327603" lon="11.536059987403418"><ele>136.33333333333334</ele><time>2026-05-03T08:47:14Z</time></trkpt><trkpt lat="44.33635084413766" lon="11.535864002120404"><ele>136.0</ele><time>2026-05-03T08:47:15Z</time></trkpt><trkpt lat="44.336255113513346" lon="11.535692210642452"><ele>135.0</ele><time>2026-05-03T08:47:16Z</time></trkpt><trkpt lat="44.33614923436433" lon="11.535540792122871"><ele>134.0</ele><time>2026-05-03T08:47:17Z</time></trkpt><trkpt lat="44.3360245064103" lon="11.535395119601295"><ele>133.0</ele><time>2026-05-03T08:47:18Z</time></trkpt><trkpt lat="44.33587965959362" lon="11.535246482561197"><ele>133.0</ele><time>2026-05-03T08:47:19Z</time></trkpt><trkpt lat="44.33572778117375" lon="11.535083303334172"><ele>133.0</ele><time>2026-05-03T08:47:20Z</time></trkpt><trkpt lat="44.33557506131366" lon="11.534910575775342"><ele>133.0</ele><time>2026-05-03T08:47:21Z</time></trkpt><trkpt lat="44.33541996535555" lon="11.534737907388678"><ele>132.33333333333334</ele><time>2026-05-03T08:47:22Z</time></trkpt><trkpt lat="44.335264065312224" lon="11.534567326485426"><ele>131.66666666666666</ele><time>2026-05-03T08:47:23Z</time></trkpt><trkpt lat="44.3351040991797" lon="11.534395638449274"><ele>131.0</ele><time>2026-05-03T08:47:24Z</time></trkpt><trkpt lat="44.33493277296826" lon="11.534225323360065"><ele>131.0</ele><time>2026-05-03T08:47:25Z</time></trkpt><trkpt lat="44.334760938997114" lon="11.534055905121038"><ele>131.0</ele><time>2026-05-03T08:47:26Z</time></trkpt><trkpt lat="44.33459082855715" lon="11.533889169954097"><ele>131.0</ele><time>2026-05-03T08:47:27Z</time></trkpt><trkpt lat="44.33443570024247" lon="11.533730785131603"><ele>131.66666666666666</ele><time>2026-05-03T08:47:28Z</time></trkpt><trkpt lat="44.3342849273055" lon="11.533574934915473"><ele>132.33333333333334</ele><time>2026-05-03T08:47:29Z</time></trkpt><trkpt lat="44.3341344600444" lon="11.53344288050229"><ele>133.0</ele><time>2026-05-03T08:47:30Z</time></trkpt><trkpt lat="44.33396864486116" lon="11.533340535648282"><ele>131.0</ele><time>2026-05-03T08:47:31Z</time></trkpt><trkpt lat="44.33379525376042" lon="11.533262354033312"><ele>129.0</ele><time>2026-05-03T08:47:32Z</time></trkpt><trkpt lat="44.333622910356645" lon="11.53319200024671"><ele>127.0</ele><time>2026-05-03T08:47:33Z</time></trkpt><trkpt lat="44.33345751088086" lon="11.533127180676583"><ele>127.0</ele><time>2026-05-03T08:47:34Z</time></trkpt><trkpt lat="44.3332960907376" lon="11.53307678430513"><ele>127.0</ele><time>2026-05-03T08:47:35Z</time></trkpt><trkpt lat="44.33313315382401" lon="11.533078741426932"><ele>127.0</ele><time>2026-05-03T08:47:36Z</time></trkpt><trkpt lat="44.332967583104804" lon="11.533110621363978"><ele>127.66666666666667</ele><time>2026-05-03T08:47:37Z</time></trkpt><trkpt lat="44.3328054370488" lon="11.533139184867705"><ele>128.33333333333334</ele><time>2026-05-03T08:47:38Z</time></trkpt><trkpt lat="44.33264735936471" lon="11.533121323918095"><ele>129.0</ele><time>2026-05-03T08:47:39Z</time></trkpt><trkpt lat="44.332477214615146" lon="11.533048454911595"><ele>129.0</ele><time>2026-05-03T08:47:40Z</time></trkpt><trkpt lat="44.332322199181746" lon="11.532940810081197"><ele>129.0</ele><time>2026-05-03T08:47:41Z</time></trkpt><trkpt lat="44.3321794029543" lon="11.532810868341087"><ele>129.0</ele><time>2026-05-03T08:47:42Z</time></trkpt><trkpt lat="44.332047189746056" lon="11.53267474519481"><ele>129.0</ele><time>2026-05-03T08:47:43Z</time></trkpt><trkpt lat="44.33192912804427" lon="11.532541785410624"><ele>129.0</ele><time>2026-05-03T08:47:44Z</time></trkpt><trkpt lat="44.331819880148245" lon="11.532420587898267"><ele>129.0</ele><time>2026-05-03T08:47:45Z</time></trkpt><trkpt lat="44.33171978521436" lon="11.53230097082565"><ele>129.0</ele><time>2026-05-03T08:47:46Z</time></trkpt><trkpt lat="44.33163198717595" lon="11.53217633924401"><ele>129.5</ele><time>2026-05-03T08:47:47Z</time></trkpt><trkpt lat="44.33156333808076" lon="11.53203203433215"><ele>130.0</ele><time>2026-05-03T08:47:48Z</time></trkpt><trkpt lat="44.33152511443624" lon="11.531863814688506"><ele>130.5</ele><time>2026-05-03T08:47:49Z</time></trkpt><trkpt lat="44.331518753894585" lon="11.531695676331248"><ele>131.0</ele><time>2026-05-03T08:47:50Z</time></trkpt><trkpt lat="44.3315225296023" lon="11.531502682565982"><ele>131.0</ele><time>2026-05-03T08:47:51Z</time></trkpt><trkpt lat="44.3315248743549" lon="11.53129823278432"><ele>131.0</ele><time>2026-05-03T08:47:52Z</time></trkpt><trkpt lat="44.331519949760924" lon="11.531079257941363"><ele>131.0</ele><time>2026-05-03T08:47:53Z</time></trkpt><trkpt lat="44.33152055213661" lon="11.5308489767073"><ele>131.33333333333331</ele><time>2026-05-03T08:47:54Z</time></trkpt><trkpt lat="44.33152450999978" lon="11.530607868084997"><ele>131.66666666666666</ele><time>2026-05-03T08:47:55Z</time></trkpt><trkpt lat="44.33152848247119" lon="11.530357662404263"><ele>132.0</ele><time>2026-05-03T08:47:56Z</time></trkpt><trkpt lat="44.331534023515985" lon="11.530104319543057"><ele>132.0</ele><time>2026-05-03T08:47:57Z</time></trkpt><trkpt lat="44.33153904845862" lon="11.529854486808743"><ele>132.0</ele><time>2026-05-03T08:47:58Z</time></trkpt><trkpt lat="44.33154111166855" lon="11.529596839488349"><ele>132.0</ele><time>2026-05-03T08:47:59Z</time></trkpt><trkpt lat="44.33154128437274" lon="11.5293330427921"><ele>132.33333333333334</ele><time>2026-05-03T08:48:00Z</time></trkpt><trkpt lat="44.33152464356984" lon="11.529065340104426"><ele>132.66666666666669</ele><time>2026-05-03T08:48:01Z</time></trkpt><trkpt lat="44.33147899250362" lon="11.528802918933298"><ele>133.0</ele><time>2026-05-03T08:48:02Z</time></trkpt><trkpt lat="44.33141343190996" lon="11.528537375178772"><ele>132.0</ele><time>2026-05-03T08:48:03Z</time></trkpt><trkpt lat="44.33134098102137" lon="11.528279967692669"><ele>131.0</ele><time>2026-05-03T08:48:04Z</time></trkpt><trkpt lat="44.33125344948126" lon="11.528044749467073"><ele>130.0</ele><time>2026-05-03T08:48:05Z</time></trkpt><trkpt lat="44.33114890193858" lon="11.527825979700571"><ele>130.0</ele><time>2026-05-03T08:48:06Z</time></trkpt><trkpt lat="44.33104805670133" lon="11.527630491060567"><ele>130.0</ele><time>2026-05-03T08:48:07Z</time></trkpt><trkpt lat="44.330925739881934" lon="11.527445403500016"><ele>130.0</ele><time>2026-05-03T08:48:08Z</time></trkpt><trkpt lat="44.330784120549225" lon="11.52726069983909"><ele>130.0</ele><time>2026-05-03T08:48:09Z</time></trkpt><trkpt lat="44.33063098644268" lon="11.527078874632556"><ele>130.0</ele><time>2026-05-03T08:48:10Z</time></trkpt><trkpt lat="44.33047440987241" lon="11.526899067448523"><ele>130.0</ele><time>2026-05-03T08:48:11Z</time></trkpt><trkpt lat="44.33032100086514" lon="11.526720399622718"><ele>130.0</ele><time>2026-05-03T08:48:12Z</time></trkpt><trkpt lat="44.330173842652194" lon="11.526551892459294"><ele>130.0</ele><time>2026-05-03T08:48:13Z</time></trkpt><trkpt lat="44.33003511849454" lon="11.526385873393144"><ele>130.0</ele><time>2026-05-03T08:48:14Z</time></trkpt><trkpt lat="44.32990863453173" lon="11.52620221280273"><ele>131.0</ele><time>2026-05-03T08:48:15Z</time></trkpt><trkpt lat="44.32979742724942" lon="11.525999150476085"><ele>132.0</ele><time>2026-05-03T08:48:16Z</time></trkpt><trkpt lat="44.32971331420982" lon="11.525792282636823"><ele>133.0</ele><time>2026-05-03T08:48:17Z</time></trkpt><trkpt lat="44.329651881255884" lon="11.525585450261653"><ele>133.5</ele><time>2026-05-03T08:48:18Z</time></trkpt><trkpt lat="44.32959276208731" lon="11.52537258324381"><ele>134.0</ele><time>2026-05-03T08:48:19Z</time></trkpt><trkpt lat="44.32953164574709" lon="11.525192771922411"><ele>134.5</ele><time>2026-05-03T08:48:20Z</time></trkpt><trkpt lat="44.32945208172839" lon="11.525052096320396"><ele>135.0</ele><time>2026-05-03T08:48:21Z</time></trkpt><trkpt lat="44.32934975920821" lon="11.524962499235567"><ele>135.0</ele><time>2026-05-03T08:48:22Z</time></trkpt><trkpt lat="44.32921443037525" lon="11.524896446184075"><ele>135.0</ele><time>2026-05-03T08:48:23Z</time></trkpt><trkpt lat="44.329051897098466" lon="11.524836527530054"><ele>135.0</ele><time>2026-05-03T08:48:24Z</time></trkpt><trkpt lat="44.328869017274165" lon="11.524773360564495"><ele>136.0</ele><time>2026-05-03T08:48:25Z</time></trkpt><trkpt lat="44.328668589074915" lon="11.524757452515132"><ele>137.0</ele><time>2026-05-03T08:48:26Z</time></trkpt><trkpt lat="44.328473448789985" lon="11.524751375439433"><ele>138.0</ele><time>2026-05-03T08:48:27Z</time></trkpt><trkpt lat="44.3282936625514" lon="11.52468864895082"><ele>141.66666666666666</ele><time>2026-05-03T08:48:28Z</time></trkpt><trkpt lat="44.32809946317512" lon="11.524562038672451"><ele>145.33333333333331</ele><time>2026-05-03T08:48:29Z</time></trkpt><trkpt lat="44.32788929055861" lon="11.524441459556654"><ele>149.0</ele><time>2026-05-03T08:48:30Z</time></trkpt><trkpt lat="44.32764635429344" lon="11.524391994601348"><ele>149.0</ele><time>2026-05-03T08:48:31Z</time></trkpt><trkpt lat="44.327390659504616" lon="11.52437410038"><ele>149.0</ele><time>2026-05-03T08:48:32Z</time></trkpt><trkpt lat="44.327135965757655" lon="11.524354096337975"><ele>149.0</ele><time>2026-05-03T08:48:33Z</time></trkpt><trkpt lat="44.326896338995375" lon="11.524321662950399"><ele>149.0</ele><time>2026-05-03T08:48:34Z</time></trkpt><trkpt lat="44.326678994621986" lon="11.524305387100025"><ele>149.0</ele><time>2026-05-03T08:48:35Z</time></trkpt><trkpt lat="44.3264764552571" lon="11.524327030933813"><ele>149.0</ele><time>2026-05-03T08:48:36Z</time></trkpt><trkpt lat="44.32629867720468" lon="11.524379247312158"><ele>149.0</ele><time>2026-05-03T08:48:37Z</time></trkpt><trkpt lat="44.32615402812334" lon="11.52443007077925"><ele>148.0</ele><time>2026-05-03T08:48:38Z</time></trkpt><trkpt lat="44.326045698718474" lon="11.524461585413842"><ele>147.0</ele><time>2026-05-03T08:48:39Z</time></trkpt><trkpt lat="44.32593998064185" lon="11.52445410126023"><ele>146.0</ele><time>2026-05-03T08:48:40Z</time></trkpt><trkpt lat="44.325843267873275" lon="11.524385629003072"><ele>145.0</ele><time>2026-05-03T08:48:41Z</time></trkpt><trkpt lat="44.32577853347283" lon="11.524278576627387"><ele>144.0</ele><time>2026-05-03T08:48:42Z</time></trkpt><trkpt lat="44.32575948528427" lon="11.524125256576113"><ele>144.0</ele><time>2026-05-03T08:48:43Z</time></trkpt><trkpt lat="44.32579631209397" lon="11.523951451625212"><ele>144.0</ele><time>2026-05-03T08:48:44Z</time></trkpt><trkpt lat="44.325891921504756" lon="11.523768033948077"><ele>144.0</ele><time>2026-05-03T08:48:45Z</time></trkpt><trkpt lat="44.3260340861539" lon="11.523560849267612"><ele>143.0</ele><time>2026-05-03T08:48:46Z</time></trkpt><trkpt lat="44.32619007080179" lon="11.523337638865055"><ele>142.0</ele><time>2026-05-03T08:48:47Z</time></trkpt><trkpt lat="44.32633753895658" lon="11.523166853561342"><ele>141.0</ele><time>2026-05-03T08:48:48Z</time></trkpt><trkpt lat="44.32646385726778" lon="11.523041911063347"><ele>144.25</ele><time>2026-05-03T08:48:49Z</time></trkpt><trkpt lat="44.32653424009178" lon="11.522890908038306"><ele>147.5</ele><time>2026-05-03T08:48:50Z</time></trkpt><trkpt lat="44.3265559203935" lon="11.522711395777899"><ele>150.75</ele><time>2026-05-03T08:48:51Z</time></trkpt><trkpt lat="44.32653647780065" lon="11.522518292255572"><ele>154.0</ele><time>2026-05-03T08:48:52Z</time></trkpt><trkpt lat="44.32646828293643" lon="11.52231003559207"><ele>151.0</ele><time>2026-05-03T08:48:53Z</time></trkpt><trkpt lat="44.32637544164656" lon="11.52210605296513"><ele>148.0</ele><time>2026-05-03T08:48:54Z</time></trkpt><trkpt lat="44.32624546374744" lon="11.52189829955257"><ele>145.0</ele><time>2026-05-03T08:48:55Z</time></trkpt><trkpt lat="44.326081579390106" lon="11.521703264467549"><ele>145.0</ele><time>2026-05-03T08:48:56Z</time></trkpt><trkpt lat="44.3259150014824" lon="11.521525937570651"><ele>145.0</ele><time>2026-05-03T08:48:57Z</time></trkpt><trkpt lat="44.325776928446246" lon="11.521339072139755"><ele>145.0</ele><time>2026-05-03T08:48:58Z</time></trkpt><trkpt lat="44.325656505893384" lon="11.521068353543354"><ele>145.33333333333334</ele><time>2026-05-03T08:48:59Z</time></trkpt><trkpt lat="44.32553356792571" lon="11.520803012066764"><ele>145.66666666666666</ele><time>2026-05-03T08:49:00Z</time></trkpt><trkpt lat="44.32542229394857" lon="11.520572016883246"><ele>146.0</ele><time>2026-05-03T08:49:01Z</time></trkpt><trkpt lat="44.32534187057037" lon="11.520326974659163"><ele>146.0</ele><time>2026-05-03T08:49:02Z</time></trkpt><trkpt lat="44.32528073620281" lon="11.520057032623688"><ele>146.0</ele><time>2026-05-03T08:49:03Z</time></trkpt><trkpt lat="44.32523899226943" lon="11.51979176728992"><ele>146.0</ele><time>2026-05-03T08:49:04Z</time></trkpt><trkpt lat="44.32517306268972" lon="11.51956302141029"><ele>147.33333333333331</ele><time>2026-05-03T08:49:05Z</time></trkpt><trkpt lat="44.32506705959244" lon="11.519371485590545"><ele>148.66666666666666</ele><time>2026-05-03T08:49:06Z</time></trkpt><trkpt lat="44.324929061551806" lon="11.519194334445956"><ele>150.0</ele><time>2026-05-03T08:49:07Z</time></trkpt><trkpt lat="44.32474666686183" lon="11.519041268006273"><ele>149.5</ele><time>2026-05-03T08:49:08Z</time></trkpt><trkpt lat="44.32452843989771" lon="11.518896069551122"><ele>149.0</ele><time>2026-05-03T08:49:09Z</time></trkpt><trkpt lat="44.32432401751924" lon="11.51873394046118"><ele>151.0</ele><time>2026-05-03T08:49:10Z</time></trkpt><trkpt lat="44.324128867493" lon="11.518603351523138"><ele>153.0</ele><time>2026-05-03T08:49:11Z</time></trkpt><trkpt lat="44.32392606747281" lon="11.518526298377004"><ele>155.0</ele><time>2026-05-03T08:49:12Z</time></trkpt><trkpt lat="44.323713258200684" lon="11.518494290943813"><ele>156.33333333333331</ele><time>2026-05-03T08:49:13Z</time></trkpt><trkpt lat="44.32351865572063" lon="11.518511693336139"><ele>157.66666666666666</ele><time>2026-05-03T08:49:14Z</time></trkpt><trkpt lat="44.32334329622684" lon="11.518535535054582"><ele>159.0</ele><time>2026-05-03T08:49:15Z</time></trkpt><trkpt lat="44.32318920431697" lon="11.518498341933993"><ele>159.0</ele><time>2026-05-03T08:49:16Z</time></trkpt><trkpt lat="44.32305259696358" lon="11.518392501299305"><ele>159.0</ele><time>2026-05-03T08:49:17Z</time></trkpt><trkpt lat="44.322904680111904" lon="11.518233531683519"><ele>159.0</ele><time>2026-05-03T08:49:18Z</time></trkpt><trkpt lat="44.32274280632214" lon="11.518161640020724"><ele>159.0</ele><time>2026-05-03T08:49:19Z</time></trkpt><trkpt lat="44.32255975280995" lon="11.518162755306061"><ele>159.0</ele><time>2026-05-03T08:49:20Z</time></trkpt><trkpt lat="44.32238677924166" lon="11.518194311661716"><ele>159.0</ele><time>2026-05-03T08:49:21Z</time></trkpt><trkpt lat="44.32226295908979" lon="11.518207523232427"><ele>158.75</ele><time>2026-05-03T08:49:22Z</time></trkpt><trkpt lat="44.32217378109157" lon="11.518150886147906"><ele>158.5</ele><time>2026-05-03T08:49:23Z</time></trkpt><trkpt lat="44.3220841795315" lon="11.518009334059037"><ele>158.25</ele><time>2026-05-03T08:49:24Z</time></trkpt><trkpt lat="44.321992629972385" lon="11.51779378154434"><ele>158.0</ele><time>2026-05-03T08:49:25Z</time></trkpt><trkpt lat="44.32189514482086" lon="11.51752657523961"><ele>158.0</ele><time>2026-05-03T08:49:26Z</time></trkpt><trkpt lat="44.3217901326908" lon="11.517242551897835"><ele>158.0</ele><time>2026-05-03T08:49:27Z</time></trkpt><trkpt lat="44.321677906195234" lon="11.516999590397633"><ele>158.0</ele><time>2026-05-03T08:49:28Z</time></trkpt><trkpt lat="44.321591676608904" lon="11.516811166928983"><ele>159.33333333333331</ele><time>2026-05-03T08:49:29Z</time></trkpt><trkpt lat="44.321542481935154" lon="11.516613854045678"><ele>160.66666666666666</ele><time>2026-05-03T08:49:30Z</time></trkpt><trkpt lat="44.32151281093434" lon="11.516379067781767"><ele>162.0</ele><time>2026-05-03T08:49:31Z</time></trkpt><trkpt lat="44.32148374699066" lon="11.516145903548434"><ele>162.66666666666666</ele><time>2026-05-03T08:49:32Z</time></trkpt><trkpt lat="44.32146232385198" lon="11.515926604541914"><ele>163.33333333333331</ele><time>2026-05-03T08:49:33Z</time></trkpt><trkpt lat="44.32145376066676" lon="11.515700038043342"><ele>164.0</ele><time>2026-05-03T08:49:34Z</time></trkpt><trkpt lat="44.32144971545004" lon="11.51546686555647"><ele>163.66666666666666</ele><time>2026-05-03T08:49:35Z</time></trkpt><trkpt lat="44.32144913651809" lon="11.515202300931879"><ele>163.33333333333334</ele><time>2026-05-03T08:49:36Z</time></trkpt><trkpt lat="44.3214679883082" lon="11.514925754188647"><ele>163.0</ele><time>2026-05-03T08:49:37Z</time></trkpt><trkpt lat="44.32149933214384" lon="11.514640163738191"><ele>162.33333333333334</ele><time>2026-05-03T08:49:38Z</time></trkpt><trkpt lat="44.321527850434364" lon="11.514355678854923"><ele>161.66666666666666</ele><time>2026-05-03T08:49:39Z</time></trkpt><trkpt lat="44.3215462040453" lon="11.514076827635735"><ele>161.0</ele><time>2026-05-03T08:49:40Z</time></trkpt><trkpt lat="44.32155277809062" lon="11.513820607176177"><ele>160.33333333333331</ele><time>2026-05-03T08:49:41Z</time></trkpt><trkpt lat="44.32155366773719" lon="11.513583270787226"><ele>159.66666666666666</ele><time>2026-05-03T08:49:42Z</time></trkpt><trkpt lat="44.321555827372485" lon="11.513362670257736"><ele>159.0</ele><time>2026-05-03T08:49:43Z</time></trkpt><trkpt lat="44.32158944652519" lon="11.513160472293935"><ele>159.0</ele><time>2026-05-03T08:49:44Z</time></trkpt><trkpt lat="44.32166623742017" lon="11.512972203925742"><ele>159.0</ele><time>2026-05-03T08:49:45Z</time></trkpt><trkpt lat="44.32174901193225" lon="11.512776304930254"><ele>159.0</ele><time>2026-05-03T08:49:46Z</time></trkpt><trkpt lat="44.3218054138061" lon="11.512553577602919"><ele>158.75</ele><time>2026-05-03T08:49:47Z</time></trkpt><trkpt lat="44.321838027711294" lon="11.512355132734907"><ele>158.5</ele><time>2026-05-03T08:49:48Z</time></trkpt><trkpt lat="44.321837426233735" lon="11.512166799495791"><ele>158.25</ele><time>2026-05-03T08:49:49Z</time></trkpt><trkpt lat="44.32181430283314" lon="11.51199278645437"><ele>158.0</ele><time>2026-05-03T08:49:50Z</time></trkpt><trkpt lat="44.32175299514305" lon="11.511843009709036"><ele>158.5</ele><time>2026-05-03T08:49:51Z</time></trkpt><trkpt lat="44.321667454368836" lon="11.511704571970835"><ele>159.0</ele><time>2026-05-03T08:49:52Z</time></trkpt><trkpt lat="44.321550259297446" lon="11.511575761051398"><ele>159.5</ele><time>2026-05-03T08:49:53Z</time></trkpt><trkpt lat="44.321427583611104" lon="11.511431674042816"><ele>160.0</ele><time>2026-05-03T08:49:54Z</time></trkpt><trkpt lat="44.32129461252565" lon="11.511275116310209"><ele>158.33333333333334</ele><time>2026-05-03T08:49:55Z</time></trkpt><trkpt lat="44.321156055051674" lon="11.51112040587199"><ele>156.66666666666666</ele><time>2026-05-03T08:49:56Z</time></trkpt><trkpt lat="44.32099745757291" lon="11.510978742210236"><ele>155.0</ele><time>2026-05-03T08:49:57Z</time></trkpt><trkpt lat="44.320829316992814" lon="11.510846319437716"><ele>155.0</ele><time>2026-05-03T08:49:58Z</time></trkpt><trkpt lat="44.32067765312475" lon="11.510652752681898"><ele>155.0</ele><time>2026-05-03T08:49:59Z</time></trkpt><trkpt lat="44.320535048553225" lon="11.510419698390248"><ele>155.0</ele><time>2026-05-03T08:50:00Z</time></trkpt><trkpt lat="44.3203774429046" lon="11.510198250613197"><ele>153.66666666666666</ele><time>2026-05-03T08:50:01Z</time></trkpt><trkpt lat="44.320222472564794" lon="11.510035486400898"><ele>152.33333333333334</ele><time>2026-05-03T08:50:02Z</time></trkpt><trkpt lat="44.320098956881175" lon="11.509895472958679"><ele>151.0</ele><time>2026-05-03T08:50:03Z</time></trkpt><trkpt lat="44.32002768838288" lon="11.509765144655026"><ele>151.0</ele><time>2026-05-03T08:50:04Z</time></trkpt><trkpt lat="44.31998855985593" lon="11.509631382688077"><ele>151.0</ele><time>2026-05-03T08:50:05Z</time></trkpt><trkpt lat="44.31997813747867" lon="11.509448592306931"><ele>151.0</ele><time>2026-05-03T08:50:06Z</time></trkpt><trkpt lat="44.320010809518806" lon="11.50926383010944"><ele>151.0</ele><time>2026-05-03T08:50:07Z</time></trkpt><trkpt lat="44.320069845811645" lon="11.509060134484953"><ele>151.66666666666669</ele><time>2026-05-03T08:50:08Z</time></trkpt><trkpt lat="44.32011051407007" lon="11.508847298120617"><ele>152.33333333333334</ele><time>2026-05-03T08:50:09Z</time></trkpt><trkpt lat="44.32008929558358" lon="11.508607591307706"><ele>153.0</ele><time>2026-05-03T08:50:10Z</time></trkpt><trkpt lat="44.32002936009624" lon="11.5083267689714"><ele>153.0</ele><time>2026-05-03T08:50:11Z</time></trkpt><trkpt lat="44.31997419862117" lon="11.508033233089614"><ele>153.0</ele><time>2026-05-03T08:50:12Z</time></trkpt><trkpt lat="44.31992639371076" lon="11.507744428608952"><ele>153.0</ele><time>2026-05-03T08:50:13Z</time></trkpt><trkpt lat="44.31987759579621" lon="11.50744733889564"><ele>154.33333333333334</ele><time>2026-05-03T08:50:14Z</time></trkpt><trkpt lat="44.31983000645678" lon="11.50714754839071"><ele>155.66666666666669</ele><time>2026-05-03T08:50:15Z</time></trkpt><trkpt lat="44.31977760707516" lon="11.506840610211707"><ele>157.0</ele><time>2026-05-03T08:50:16Z</time></trkpt><trkpt lat="44.31972551580283" lon="11.506539809975417"><ele>154.66666666666669</ele><time>2026-05-03T08:50:17Z</time></trkpt><trkpt lat="44.31967353620322" lon="11.506241182151179"><ele>152.33333333333334</ele><time>2026-05-03T08:50:18Z</time></trkpt><trkpt lat="44.31961818995677" lon="11.505944742597004"><ele>150.0</ele><time>2026-05-03T08:50:19Z</time></trkpt><trkpt lat="44.3195671025497" lon="11.505649183140722"><ele>150.33333333333334</ele><time>2026-05-03T08:50:20Z</time></trkpt><trkpt lat="44.31952098511653" lon="11.50536105364256"><ele>150.66666666666669</ele><time>2026-05-03T08:50:21Z</time></trkpt><trkpt lat="44.31947250861636" lon="11.505070891474908"><ele>151.0</ele><time>2026-05-03T08:50:22Z</time></trkpt><trkpt lat="44.319427228148065" lon="11.50478631904848"><ele>151.33333333333334</ele><time>2026-05-03T08:50:23Z</time></trkpt><trkpt lat="44.31938829460328" lon="11.50449976291036"><ele>151.66666666666666</ele><time>2026-05-03T08:50:24Z</time></trkpt><trkpt lat="44.31935700463324" lon="11.504218689371648"><ele>152.0</ele><time>2026-05-03T08:50:25Z</time></trkpt><trkpt lat="44.319336237470395" lon="11.503948689283343"><ele>153.33333333333331</ele><time>2026-05-03T08:50:26Z</time></trkpt><trkpt lat="44.319331837522455" lon="11.503690865187718"><ele>154.66666666666666</ele><time>2026-05-03T08:50:27Z</time></trkpt><trkpt lat="44.31935373331037" lon="11.503435722018146"><ele>156.0</ele><time>2026-05-03T08:50:28Z</time></trkpt><trkpt lat="44.319405034535976" lon="11.50318091102453"><ele>156.0</ele><time>2026-05-03T08:50:29Z</time></trkpt><trkpt lat="44.319482482653555" lon="11.502931997011114"><ele>156.0</ele><time>2026-05-03T08:50:30Z</time></trkpt><trkpt lat="44.3195801604078" lon="11.502697990626578"><ele>156.0</ele><time>2026-05-03T08:50:31Z</time></trkpt><trkpt lat="44.319670338628775" lon="11.502490622754014"><ele>157.33333333333334</ele><time>2026-05-03T08:50:32Z</time></trkpt><trkpt lat="44.3197413592675" lon="11.502285150490994"><ele>158.66666666666669</ele><time>2026-05-03T08:50:33Z</time></trkpt><trkpt lat="44.31978718689209" lon="11.502055629135858"><ele>160.0</ele><time>2026-05-03T08:50:34Z</time></trkpt><trkpt lat="44.319803366898554" lon="11.501807317481509"><ele>160.0</ele><time>2026-05-03T08:50:35Z</time></trkpt><trkpt lat="44.319797605164766" lon="11.501567501824606"><ele>160.0</ele><time>2026-05-03T08:50:36Z</time></trkpt><trkpt lat="44.31977110984821" lon="11.501339068834884"><ele>160.0</ele><time>2026-05-03T08:50:37Z</time></trkpt><trkpt lat="44.31974845072829" lon="11.501100528687832"><ele>161.0</ele><time>2026-05-03T08:50:38Z</time></trkpt><trkpt lat="44.31976921631095" lon="11.500842272368555"><ele>162.0</ele><time>2026-05-03T08:50:39Z</time></trkpt><trkpt lat="44.319798515191415" lon="11.50057196442246"><ele>163.0</ele><time>2026-05-03T08:50:40Z</time></trkpt><trkpt lat="44.31977751226006" lon="11.500280091050525"><ele>161.33333333333334</ele><time>2026-05-03T08:50:41Z</time></trkpt><trkpt lat="44.319719012297554" lon="11.499969079866313"><ele>159.66666666666666</ele><time>2026-05-03T08:50:42Z</time></trkpt><trkpt lat="44.31967586711917" lon="11.4996775919267"><ele>158.0</ele><time>2026-05-03T08:50:43Z</time></trkpt><trkpt lat="44.31963940309224" lon="11.499415142611292"><ele>158.0</ele><time>2026-05-03T08:50:44Z</time></trkpt><trkpt lat="44.319572263461495" lon="11.49918194432472"><ele>158.0</ele><time>2026-05-03T08:50:45Z</time></trkpt><trkpt lat="44.319466807371796" lon="11.498974066917816"><ele>158.0</ele><time>2026-05-03T08:50:46Z</time></trkpt><trkpt lat="44.3193481508769" lon="11.498784253791126"><ele>158.66666666666666</ele><time>2026-05-03T08:50:47Z</time></trkpt><trkpt lat="44.31926549461965" lon="11.49858214854487"><ele>159.33333333333334</ele><time>2026-05-03T08:50:48Z</time></trkpt><trkpt lat="44.31922924428408" lon="11.49834834071532"><ele>160.0</ele><time>2026-05-03T08:50:49Z</time></trkpt><trkpt lat="44.31922637816563" lon="11.498088761909772"><ele>159.66666666666669</ele><time>2026-05-03T08:50:50Z</time></trkpt><trkpt lat="44.319240735387645" lon="11.49781642472"><ele>159.33333333333334</ele><time>2026-05-03T08:50:51Z</time></trkpt><trkpt lat="44.31927396384106" lon="11.497564008244929"><ele>159.0</ele><time>2026-05-03T08:50:52Z</time></trkpt><trkpt lat="44.319318977102995" lon="11.497323995952607"><ele>159.0</ele><time>2026-05-03T08:50:53Z</time></trkpt><trkpt lat="44.31937263664457" lon="11.497061302026891"><ele>159.0</ele><time>2026-05-03T08:50:54Z</time></trkpt><trkpt lat="44.319445870037235" lon="11.49676674454665"><ele>159.0</ele><time>2026-05-03T08:50:55Z</time></trkpt><trkpt lat="44.319518336192935" lon="11.496463878306356"><ele>159.33333333333334</ele><time>2026-05-03T08:50:56Z</time></trkpt><trkpt lat="44.319556140479726" lon="11.496170293735712"><ele>159.66666666666669</ele><time>2026-05-03T08:50:57Z</time></trkpt><trkpt lat="44.3195539563675" lon="11.49586351929797"><ele>160.0</ele><time>2026-05-03T08:50:58Z</time></trkpt><trkpt lat="44.31952209161828" lon="11.49557982761183"><ele>160.33333333333334</ele><time>2026-05-03T08:50:59Z</time></trkpt><trkpt lat="44.319510883075125" lon="11.495323907940667"><ele>160.66666666666666</ele><time>2026-05-03T08:51:00Z</time></trkpt><trkpt lat="44.31955858784737" lon="11.495068822203185"><ele>161.0</ele><time>2026-05-03T08:51:01Z</time></trkpt><trkpt lat="44.319627778259566" lon="11.494780968424413"><ele>161.66666666666666</ele><time>2026-05-03T08:51:02Z</time></trkpt><trkpt lat="44.319709634117906" lon="11.494492761403647"><ele>162.33333333333334</ele><time>2026-05-03T08:51:03Z</time></trkpt><trkpt lat="44.319791907094434" lon="11.49421094158867"><ele>163.0</ele><time>2026-05-03T08:51:04Z</time></trkpt><trkpt lat="44.319834012064774" lon="11.49394853830199"><ele>164.33333333333334</ele><time>2026-05-03T08:51:05Z</time></trkpt><trkpt lat="44.31983101224178" lon="11.493703691345168"><ele>165.66666666666666</ele><time>2026-05-03T08:51:06Z</time></trkpt><trkpt lat="44.31978705023816" lon="11.4934835879947"><ele>167.0</ele><time>2026-05-03T08:51:07Z</time></trkpt><trkpt lat="44.31969803316312" lon="11.493261674003941"><ele>167.0</ele><time>2026-05-03T08:51:08Z</time></trkpt><trkpt lat="44.3195741388788" lon="11.493022008341017"><ele>167.0</ele><time>2026-05-03T08:51:09Z</time></trkpt><trkpt lat="44.31947244041805" lon="11.492765740234454"><ele>167.0</ele><time>2026-05-03T08:51:10Z</time></trkpt><trkpt lat="44.3194162478225" lon="11.492505225391836"><ele>168.33333333333331</ele><time>2026-05-03T08:51:11Z</time></trkpt><trkpt lat="44.31937128347491" lon="11.492251772066274"><ele>169.66666666666666</ele><time>2026-05-03T08:51:12Z</time></trkpt><trkpt lat="44.31934304943305" lon="11.492045483936211"><ele>171.0</ele><time>2026-05-03T08:51:13Z</time></trkpt><trkpt lat="44.319349037085054" lon="11.491881662424946"><ele>171.0</ele><time>2026-05-03T08:51:14Z</time></trkpt><trkpt lat="44.31935124043315" lon="11.491708641424726"><ele>171.0</ele><time>2026-05-03T08:51:15Z</time></trkpt><trkpt lat="44.31935131318936" lon="11.49154330516886"><ele>171.0</ele><time>2026-05-03T08:51:16Z</time></trkpt><trkpt lat="44.31935614326451" lon="11.4913571467699"><ele>171.0</ele><time>2026-05-03T08:51:17Z</time></trkpt><trkpt lat="44.319373793231705" lon="11.491124133158682"><ele>169.33333333333334</ele><time>2026-05-03T08:51:18Z</time></trkpt><trkpt lat="44.319409114681605" lon="11.4908747556991"><ele>167.66666666666669</ele><time>2026-05-03T08:51:19Z</time></trkpt><trkpt lat="44.319462711645414" lon="11.49059465334796"><ele>166.0</ele><time>2026-05-03T08:51:20Z</time></trkpt><trkpt lat="44.31950184479607" lon="11.49028703248738"><ele>166.0</ele><time>2026-05-03T08:51:21Z</time></trkpt><trkpt lat="44.319498999271175" lon="11.4899651114863"><ele>166.0</ele><time>2026-05-03T08:51:22Z</time></trkpt><trkpt lat="44.319483141386634" lon="11.48967539718223"><ele>166.0</ele><time>2026-05-03T08:51:23Z</time></trkpt><trkpt lat="44.31948913990889" lon="11.489413238419859"><ele>166.0</ele><time>2026-05-03T08:51:24Z</time></trkpt><trkpt lat="44.31952055844445" lon="11.489185092073255"><ele>166.0</ele><time>2026-05-03T08:51:25Z</time></trkpt><trkpt lat="44.31958964918211" lon="11.488942286140867"><ele>166.0</ele><time>2026-05-03T08:51:26Z</time></trkpt><trkpt lat="44.31967970586986" lon="11.488672385344497"><ele>172.0</ele><time>2026-05-03T08:51:27Z</time></trkpt><trkpt lat="44.31974516312653" lon="11.48838449791949"><ele>178.0</ele><time>2026-05-03T08:51:28Z</time></trkpt><trkpt lat="44.31976004186584" lon="11.488057046676474"><ele>179.0</ele><time>2026-05-03T08:51:29Z</time></trkpt><trkpt lat="44.31974028615402" lon="11.487704180784363"><ele>180.0</ele><time>2026-05-03T08:51:30Z</time></trkpt><trkpt lat="44.31971691568616" lon="11.487407941305714"><ele>179.0</ele><time>2026-05-03T08:51:31Z</time></trkpt><trkpt lat="44.319720163906496" lon="11.48716978682304"><ele>178.0</ele><time>2026-05-03T08:51:32Z</time></trkpt><trkpt lat="44.31974874387169" lon="11.486961432023703"><ele>177.0</ele><time>2026-05-03T08:51:33Z</time></trkpt><trkpt lat="44.31980510347511" lon="11.486775887978064"><ele>177.0</ele><time>2026-05-03T08:51:34Z</time></trkpt><trkpt lat="44.319897616914474" lon="11.486618925411678"><ele>177.0</ele><time>2026-05-03T08:51:35Z</time></trkpt><trkpt lat="44.32001539614352" lon="11.486467177436205"><ele>177.0</ele><time>2026-05-03T08:51:36Z</time></trkpt><trkpt lat="44.320130118506185" lon="11.486297167454337"><ele>176.0</ele><time>2026-05-03T08:51:37Z</time></trkpt><trkpt lat="44.32020527040046" lon="11.48609535927735"><ele>175.0</ele><time>2026-05-03T08:51:38Z</time></trkpt><trkpt lat="44.320243513232036" lon="11.485887316386531"><ele>174.0</ele><time>2026-05-03T08:51:39Z</time></trkpt><trkpt lat="44.32024719550559" lon="11.485682889398051"><ele>174.0</ele><time>2026-05-03T08:51:40Z</time></trkpt><trkpt lat="44.32023830993917" lon="11.485479492990567"><ele>174.0</ele><time>2026-05-03T08:51:41Z</time></trkpt><trkpt lat="44.3202347036529" lon="11.485276366039857"><ele>174.0</ele><time>2026-05-03T08:51:42Z</time></trkpt><trkpt lat="44.32023230979083" lon="11.485079603931123"><ele>174.0</ele><time>2026-05-03T08:51:43Z</time></trkpt><trkpt lat="44.320237798250595" lon="11.484895529134993"><ele>173.75</ele><time>2026-05-03T08:51:44Z</time></trkpt><trkpt lat="44.32023723075047" lon="11.484706898505467"><ele>173.5</ele><time>2026-05-03T08:51:45Z</time></trkpt><trkpt lat="44.320239345599795" lon="11.484523330990177"><ele>173.25</ele><time>2026-05-03T08:51:46Z</time></trkpt><trkpt lat="44.320242194427095" lon="11.484331618127507"><ele>173.0</ele><time>2026-05-03T08:51:47Z</time></trkpt><trkpt lat="44.320244611082835" lon="11.484139019364898"><ele>172.75</ele><time>2026-05-03T08:51:48Z</time></trkpt><trkpt lat="44.32023201387981" lon="11.483952722607127"><ele>172.5</ele><time>2026-05-03T08:51:49Z</time></trkpt><trkpt lat="44.320211754142115" lon="11.483759373265123"><ele>172.25</ele><time>2026-05-03T08:51:50Z</time></trkpt><trkpt lat="44.320181865638006" lon="11.483566785678759"><ele>172.0</ele><time>2026-05-03T08:51:51Z</time></trkpt><trkpt lat="44.32014010078271" lon="11.483376905428557"><ele>173.33333333333334</ele><time>2026-05-03T08:51:52Z</time></trkpt><trkpt lat="44.32008591042561" lon="11.483187420264738"><ele>174.66666666666666</ele><time>2026-05-03T08:51:53Z</time></trkpt><trkpt lat="44.32001917245422" lon="11.483003173534655"><ele>176.0</ele><time>2026-05-03T08:51:54Z</time></trkpt><trkpt lat="44.31993818507592" lon="11.482808719790762"><ele>177.0</ele><time>2026-05-03T08:51:55Z</time></trkpt><trkpt lat="44.319847130856864" lon="11.482596092032791"><ele>178.0</ele><time>2026-05-03T08:51:56Z</time></trkpt><trkpt lat="44.31975204226814" lon="11.482385296638846"><ele>179.0</ele><time>2026-05-03T08:51:57Z</time></trkpt><trkpt lat="44.31964946220819" lon="11.482165833021265"><ele>177.66666666666666</ele><time>2026-05-03T08:51:58Z</time></trkpt><trkpt lat="44.31954592648079" lon="11.481945149749682"><ele>176.33333333333334</ele><time>2026-05-03T08:51:59Z</time></trkpt><trkpt lat="44.31943678073059" lon="11.481725747180871"><ele>175.0</ele><time>2026-05-03T08:52:00Z</time></trkpt><trkpt lat="44.3193252859367" lon="11.481504927590938"><ele>175.0</ele><time>2026-05-03T08:52:01Z</time></trkpt><trkpt lat="44.319216382462564" lon="11.481286684299652"><ele>175.0</ele><time>2026-05-03T08:52:02Z</time></trkpt><trkpt lat="44.319114615711655" lon="11.481085358511981"><ele>175.0</ele><time>2026-05-03T08:52:03Z</time></trkpt><trkpt lat="44.31900843494467" lon="11.480890306644433"><ele>175.33333333333334</ele><time>2026-05-03T08:52:04Z</time></trkpt><trkpt lat="44.318898980359414" lon="11.480702663388817"><ele>175.66666666666666</ele><time>2026-05-03T08:52:05Z</time></trkpt><trkpt lat="44.31878941174794" lon="11.480535795532203"><ele>176.0</ele><time>2026-05-03T08:52:06Z</time></trkpt><trkpt lat="44.31866995486375" lon="11.48038448196561"><ele>177.33333333333331</ele><time>2026-05-03T08:52:07Z</time></trkpt><trkpt lat="44.318546887706106" lon="11.480246555954615"><ele>178.66666666666666</ele><time>2026-05-03T08:52:08Z</time></trkpt><trkpt lat="44.318418657288404" lon="11.48012959380629"><ele>180.0</ele><time>2026-05-03T08:52:09Z</time></trkpt><trkpt lat="44.318284202797656" lon="11.480029968042748"><ele>180.0</ele><time>2026-05-03T08:52:10Z</time></trkpt><trkpt lat="44.318156847206446" lon="11.479923456521963"><ele>180.0</ele><time>2026-05-03T08:52:11Z</time></trkpt><trkpt lat="44.318042301615414" lon="11.47979306849489"><ele>180.0</ele><time>2026-05-03T08:52:12Z</time></trkpt><trkpt lat="44.31794744555622" lon="11.479652435588031"><ele>180.0</ele><time>2026-05-03T08:52:13Z</time></trkpt><trkpt lat="44.31786549061712" lon="11.47947587068719"><ele>178.33333333333334</ele><time>2026-05-03T08:52:14Z</time></trkpt><trkpt lat="44.317787000037804" lon="11.479288412927117"><ele>176.66666666666669</ele><time>2026-05-03T08:52:15Z</time></trkpt><trkpt lat="44.317685055591106" lon="11.479117457642884"><ele>175.0</ele><time>2026-05-03T08:52:16Z</time></trkpt><trkpt lat="44.31755937291728" lon="11.478972711890822"><ele>175.0</ele><time>2026-05-03T08:52:17Z</time></trkpt><trkpt lat="44.31742316171149" lon="11.478854157895768"><ele>175.0</ele><time>2026-05-03T08:52:18Z</time></trkpt><trkpt lat="44.31728972191043" lon="11.478729355883065"><ele>175.0</ele><time>2026-05-03T08:52:19Z</time></trkpt><trkpt lat="44.31716111197137" lon="11.478589879787451"><ele>175.33333333333334</ele><time>2026-05-03T08:52:20Z</time></trkpt><trkpt lat="44.3170461119744" lon="11.47844384376239"><ele>175.66666666666666</ele><time>2026-05-03T08:52:21Z</time></trkpt><trkpt lat="44.31695077359104" lon="11.478286393480369"><ele>176.0</ele><time>2026-05-03T08:52:22Z</time></trkpt><trkpt lat="44.316870461562324" lon="11.478109374660358"><ele>177.25</ele><time>2026-05-03T08:52:23Z</time></trkpt><trkpt lat="44.31680340478856" lon="11.477922487992085"><ele>178.5</ele><time>2026-05-03T08:52:24Z</time></trkpt><trkpt lat="44.31673781458105" lon="11.477744324686405"><ele>179.75</ele><time>2026-05-03T08:52:25Z</time></trkpt><trkpt lat="44.316652516645206" lon="11.477585843239442"><ele>181.0</ele><time>2026-05-03T08:52:26Z</time></trkpt><trkpt lat="44.31653883458043" lon="11.477450025627638"><ele>181.0</ele><time>2026-05-03T08:52:27Z</time></trkpt><trkpt lat="44.31640477946794" lon="11.477336059112933"><ele>181.0</ele><time>2026-05-03T08:52:28Z</time></trkpt><trkpt lat="44.31626228929062" lon="11.477226207511933"><ele>181.0</ele><time>2026-05-03T08:52:29Z</time></trkpt><trkpt lat="44.316130743168195" lon="11.477114232433857"><ele>180.75</ele><time>2026-05-03T08:52:30Z</time></trkpt><trkpt lat="44.31602215408274" lon="11.47699264413757"><ele>180.5</ele><time>2026-05-03T08:52:31Z</time></trkpt><trkpt lat="44.315931360770165" lon="11.476846821513318"><ele>180.25</ele><time>2026-05-03T08:52:32Z</time></trkpt><trkpt lat="44.31585509927603" lon="11.476663125434937"><ele>180.0</ele><time>2026-05-03T08:52:33Z</time></trkpt><trkpt lat="44.31577944319928" lon="11.476463714642014"><ele>177.66666666666666</ele><time>2026-05-03T08:52:34Z</time></trkpt><trkpt lat="44.31569990679165" lon="11.476257753817297"><ele>175.33333333333331</ele><time>2026-05-03T08:52:35Z</time></trkpt><trkpt lat="44.3156147728309" lon="11.47604694016262"><ele>173.0</ele><time>2026-05-03T08:52:36Z</time></trkpt><trkpt lat="44.3155302341895" lon="11.475837034812756"><ele>173.0</ele><time>2026-05-03T08:52:37Z</time></trkpt><trkpt lat="44.315457160642296" lon="11.47563771469266"><ele>173.0</ele><time>2026-05-03T08:52:38Z</time></trkpt><trkpt lat="44.31538759668509" lon="11.475434349415522"><ele>173.0</ele><time>2026-05-03T08:52:39Z</time></trkpt><trkpt lat="44.315323735452424" lon="11.475227525372595"><ele>174.33333333333331</ele><time>2026-05-03T08:52:40Z</time></trkpt><trkpt lat="44.31526580766844" lon="11.475017086094661"><ele>175.66666666666666</ele><time>2026-05-03T08:52:41Z</time></trkpt><trkpt lat="44.31521127658677" lon="11.47480916455358"><ele>177.0</ele><time>2026-05-03T08:52:42Z</time></trkpt><trkpt lat="44.31516283486873" lon="11.474601828821214"><ele>179.0</ele><time>2026-05-03T08:52:43Z</time></trkpt><trkpt lat="44.315116920397834" lon="11.47438692369162"><ele>181.0</ele><time>2026-05-03T08:52:44Z</time></trkpt><trkpt lat="44.31507414470173" lon="11.474164948334172"><ele>183.0</ele><time>2026-05-03T08:52:45Z</time></trkpt><trkpt lat="44.3150333594108" lon="11.473934672252193"><ele>184.33333333333334</ele><time>2026-05-03T08:52:46Z</time></trkpt><trkpt lat="44.31500385148872" lon="11.473695346751589"><ele>185.66666666666669</ele><time>2026-05-03T08:52:47Z</time></trkpt><trkpt lat="44.31498625078517" lon="11.47345416690053"><ele>187.0</ele><time>2026-05-03T08:52:48Z</time></trkpt><trkpt lat="44.314964075447826" lon="11.47321226037035"><ele>187.0</ele><time>2026-05-03T08:52:49Z</time></trkpt><trkpt lat="44.31492849364749" lon="11.47298702438887"><ele>187.0</ele><time>2026-05-03T08:52:50Z</time></trkpt><trkpt lat="44.31486909633573" lon="11.472777541216628"><ele>187.0</ele><time>2026-05-03T08:52:51Z</time></trkpt><trkpt lat="44.31479084943193" lon="11.47259912455932"><ele>184.25</ele><time>2026-05-03T08:52:52Z</time></trkpt><trkpt lat="44.31472100697602" lon="11.47243066629729"><ele>181.5</ele><time>2026-05-03T08:52:53Z</time></trkpt><trkpt lat="44.314683014886874" lon="11.472258350116824"><ele>178.75</ele><time>2026-05-03T08:52:54Z</time></trkpt><trkpt lat="44.31467237600365" lon="11.472072966033565"><ele>176.0</ele><time>2026-05-03T08:52:55Z</time></trkpt><trkpt lat="44.314689582474074" lon="11.471865688377214"><ele>176.0</ele><time>2026-05-03T08:52:56Z</time></trkpt><trkpt lat="44.314729743614144" lon="11.471649252013462"><ele>176.0</ele><time>2026-05-03T08:52:57Z</time></trkpt><trkpt lat="44.314775256697146" lon="11.471426484419812"><ele>176.0</ele><time>2026-05-03T08:52:58Z</time></trkpt><trkpt lat="44.31482343814623" lon="11.471198993284574"><ele>180.33333333333331</ele><time>2026-05-03T08:52:59Z</time></trkpt><trkpt lat="44.3148756352544" lon="11.470973074000494"><ele>184.66666666666666</ele><time>2026-05-03T08:53:00Z</time></trkpt><trkpt lat="44.31493214655999" lon="11.470746787972352"><ele>189.0</ele><time>2026-05-03T08:53:01Z</time></trkpt><trkpt lat="44.3149886266831" lon="11.47051857036688"><ele>188.0</ele><time>2026-05-03T08:53:02Z</time></trkpt><trkpt lat="44.315043666725046" lon="11.47029319549151"><ele>187.0</ele><time>2026-05-03T08:53:03Z</time></trkpt><trkpt lat="44.315097684022405" lon="11.470068311040059"><ele>186.0</ele><time>2026-05-03T08:53:04Z</time></trkpt><trkpt lat="44.31515396907565" lon="11.469848545884322"><ele>186.0</ele><time>2026-05-03T08:53:05Z</time></trkpt><trkpt lat="44.31521314427864" lon="11.469631168965064"><ele>186.0</ele><time>2026-05-03T08:53:06Z</time></trkpt><trkpt lat="44.31526715821924" lon="11.469434696837144"><ele>186.0</ele><time>2026-05-03T08:53:07Z</time></trkpt><trkpt lat="44.31531961855206" lon="11.469254099875974"><ele>185.25</ele><time>2026-05-03T08:53:08Z</time></trkpt><trkpt lat="44.31536903582489" lon="11.469084815567976"><ele>184.5</ele><time>2026-05-03T08:53:09Z</time></trkpt><trkpt lat="44.31541838066046" lon="11.46892791428601"><ele>183.75</ele><time>2026-05-03T08:53:10Z</time></trkpt><trkpt lat="44.315467818315796" lon="11.46877928430971"><ele>183.0</ele><time>2026-05-03T08:53:11Z</time></trkpt><trkpt lat="44.315510117782736" lon="11.468633730648614"><ele>183.0</ele><time>2026-05-03T08:53:12Z</time></trkpt><trkpt lat="44.315548378623454" lon="11.468493411504014"><ele>183.0</ele><time>2026-05-03T08:53:13Z</time></trkpt><trkpt lat="44.31558868497607" lon="11.468359854203381"><ele>183.0</ele><time>2026-05-03T08:53:14Z</time></trkpt><trkpt lat="44.31562456351115" lon="11.468237381935328"><ele>183.0</ele><time>2026-05-03T08:53:15Z</time></trkpt><trkpt lat="44.31566716509039" lon="11.468132543887956"><ele>183.0</ele><time>2026-05-03T08:53:16Z</time></trkpt><trkpt lat="44.315734267330626" lon="11.468037475683953"><ele>183.75</ele><time>2026-05-03T08:53:17Z</time></trkpt><trkpt lat="44.31582091121432" lon="11.467941846530373"><ele>184.5</ele><time>2026-05-03T08:53:18Z</time></trkpt><trkpt lat="44.315916879352415" lon="11.467831324161708"><ele>185.25</ele><time>2026-05-03T08:53:19Z</time></trkpt><trkpt lat="44.31601227825607" lon="11.467718143361932"><ele>186.0</ele><time>2026-05-03T08:53:20Z</time></trkpt><trkpt lat="44.31611277196154" lon="11.467595572618656"><ele>186.0</ele><time>2026-05-03T08:53:21Z</time></trkpt><trkpt lat="44.31621401338954" lon="11.467466009875203"><ele>186.0</ele><time>2026-05-03T08:53:22Z</time></trkpt><trkpt lat="44.31631068973334" lon="11.467326999439855"><ele>186.0</ele><time>2026-05-03T08:53:23Z</time></trkpt><trkpt lat="44.31639456429881" lon="11.467184231745295"><ele>186.0</ele><time>2026-05-03T08:53:24Z</time></trkpt><trkpt lat="44.316469303737044" lon="11.46701999607371"><ele>186.33333333333334</ele><time>2026-05-03T08:53:25Z</time></trkpt><trkpt lat="44.316531437606024" lon="11.466828922074415"><ele>186.66666666666669</ele><time>2026-05-03T08:53:26Z</time></trkpt><trkpt lat="44.316583548287" lon="11.466613922047205"><ele>187.0</ele><time>2026-05-03T08:53:27Z</time></trkpt><trkpt lat="44.31664223500694" lon="11.46640245647628"><ele>187.0</ele><time>2026-05-03T08:53:28Z</time></trkpt><trkpt lat="44.316691204518165" lon="11.466217383952749"><ele>187.0</ele><time>2026-05-03T08:53:29Z</time></trkpt><trkpt lat="44.31674205518919" lon="11.466054457166859"><ele>187.0</ele><time>2026-05-03T08:53:30Z</time></trkpt><trkpt lat="44.31677968859558" lon="11.465895666186821"><ele>187.0</ele><time>2026-05-03T08:53:31Z</time></trkpt><trkpt lat="44.31681966595106" lon="11.46575007193209"><ele>187.0</ele><time>2026-05-03T08:53:32Z</time></trkpt><trkpt lat="44.31686188441497" lon="11.465624171044283"><ele>187.0</ele><time>2026-05-03T08:53:33Z</time></trkpt><trkpt lat="44.31691841469765" lon="11.465513324831688"><ele>187.0</ele><time>2026-05-03T08:53:34Z</time></trkpt><trkpt lat="44.316983721494715" lon="11.465421852557425"><ele>187.0</ele><time>2026-05-03T08:53:35Z</time></trkpt><trkpt lat="44.31706138260349" lon="11.46536513988284"><ele>187.0</ele><time>2026-05-03T08:53:36Z</time></trkpt><trkpt lat="44.31716151409559" lon="11.465344147730157"><ele>187.5</ele><time>2026-05-03T08:53:37Z</time></trkpt><trkpt lat="44.31726665700702" lon="11.465354022096284"><ele>188.0</ele><time>2026-05-03T08:53:38Z</time></trkpt><trkpt lat="44.31738597278407" lon="11.465410311289277"><ele>188.5</ele><time>2026-05-03T08:53:39Z</time></trkpt><trkpt lat="44.31750476231237" lon="11.465481710795808"><ele>189.0</ele><time>2026-05-03T08:53:40Z</time></trkpt><trkpt lat="44.31762540781011" lon="11.465564638714591"><ele>189.5</ele><time>2026-05-03T08:53:41Z</time></trkpt><trkpt lat="44.31774541903049" lon="11.46560494443665"><ele>190.0</ele><time>2026-05-03T08:53:42Z</time></trkpt><trkpt lat="44.31786312354419" lon="11.465620931290319"><ele>190.5</ele><time>2026-05-03T08:53:43Z</time></trkpt><trkpt lat="44.31798114235845" lon="11.465605001807456"><ele>191.0</ele><time>2026-05-03T08:53:44Z</time></trkpt><trkpt lat="44.31810216844474" lon="11.465570623970013"><ele>192.75</ele><time>2026-05-03T08:53:45Z</time></trkpt><trkpt lat="44.31823102388361" lon="11.465534413379746"><ele>194.5</ele><time>2026-05-03T08:53:46Z</time></trkpt><trkpt lat="44.31836022479009" lon="11.465499924992745"><ele>196.25</ele><time>2026-05-03T08:53:47Z</time></trkpt><trkpt lat="44.31849232850238" lon="11.465473343659552"><ele>198.0</ele><time>2026-05-03T08:53:48Z</time></trkpt><trkpt lat="44.31862466907001" lon="11.465446580656678"><ele>197.25</ele><time>2026-05-03T08:53:49Z</time></trkpt><trkpt lat="44.31875641266303" lon="11.465415927513593"><ele>196.5</ele><time>2026-05-03T08:53:50Z</time></trkpt><trkpt lat="44.318885227370956" lon="11.465388562249244"><ele>195.75</ele><time>2026-05-03T08:53:51Z</time></trkpt><trkpt lat="44.31901391913507" lon="11.465360987478023"><ele>195.0</ele><time>2026-05-03T08:53:52Z</time></trkpt><trkpt lat="44.31914201494881" lon="11.465331210430124"><ele>195.0</ele><time>2026-05-03T08:53:53Z</time></trkpt><trkpt lat="44.31926972482046" lon="11.46530610555633"><ele>195.0</ele><time>2026-05-03T08:53:54Z</time></trkpt><trkpt lat="44.31939593964277" lon="11.465281159541009"><ele>195.0</ele><time>2026-05-03T08:53:55Z</time></trkpt><trkpt lat="44.319521650870044" lon="11.465250836414814"><ele>195.0</ele><time>2026-05-03T08:53:56Z</time></trkpt><trkpt lat="44.3196495660474" lon="11.465221681960715"><ele>195.25</ele><time>2026-05-03T08:53:57Z</time></trkpt><trkpt lat="44.31977806566124" lon="11.465191144581398"><ele>195.5</ele><time>2026-05-03T08:53:58Z</time></trkpt><trkpt lat="44.31990803429829" lon="11.465161668043903"><ele>195.75</ele><time>2026-05-03T08:53:59Z</time></trkpt><trkpt lat="44.32003241041514" lon="11.465134672595477"><ele>196.0</ele><time>2026-05-03T08:54:00Z</time></trkpt><trkpt lat="44.32015317457199" lon="11.465108802099524"><ele>196.0</ele><time>2026-05-03T08:54:01Z</time></trkpt><trkpt lat="44.320279540287295" lon="11.465078884879993"><ele>196.0</ele><time>2026-05-03T08:54:02Z</time></trkpt><trkpt lat="44.3204026707092" lon="11.465048904362435"><ele>196.0</ele><time>2026-05-03T08:54:03Z</time></trkpt><trkpt lat="44.3205262408542" lon="11.465012295948492"><ele>196.0</ele><time>2026-05-03T08:54:04Z</time></trkpt><trkpt lat="44.320641123181915" lon="11.464964034861188"><ele>196.5</ele><time>2026-05-03T08:54:05Z</time></trkpt><trkpt lat="44.3207584081271" lon="11.464911959408171"><ele>197.0</ele><time>2026-05-03T08:54:06Z</time></trkpt><trkpt lat="44.320877465014085" lon="11.464859086769897"><ele>197.5</ele><time>2026-05-03T08:54:07Z</time></trkpt><trkpt lat="44.320996482930546" lon="11.464811169667714"><ele>198.0</ele><time>2026-05-03T08:54:08Z</time></trkpt><trkpt lat="44.32111534630151" lon="11.464760391052705"><ele>198.0</ele><time>2026-05-03T08:54:09Z</time></trkpt><trkpt lat="44.321236805291186" lon="11.46470542294113"><ele>198.0</ele><time>2026-05-03T08:54:10Z</time></trkpt><trkpt lat="44.32136007479477" lon="11.464654317222655"><ele>198.0</ele><time>2026-05-03T08:54:11Z</time></trkpt><trkpt lat="44.321480661302886" lon="11.464599225371972"><ele>198.0</ele><time>2026-05-03T08:54:12Z</time></trkpt><trkpt lat="44.32161057783838" lon="11.464547254114974"><ele>199.5</ele><time>2026-05-03T08:54:13Z</time></trkpt><trkpt lat="44.3217406231241" lon="11.464498897204697"><ele>201.0</ele><time>2026-05-03T08:54:14Z</time></trkpt><trkpt lat="44.32187011943949" lon="11.464441795248309"><ele>202.5</ele><time>2026-05-03T08:54:15Z</time></trkpt><trkpt lat="44.322006844600985" lon="11.464374467373059"><ele>204.0</ele><time>2026-05-03T08:54:16Z</time></trkpt><trkpt lat="44.322150077178556" lon="11.464309583324164"><ele>203.0</ele><time>2026-05-03T08:54:17Z</time></trkpt><trkpt lat="44.322301190203596" lon="11.464249803161577"><ele>202.0</ele><time>2026-05-03T08:54:18Z</time></trkpt><trkpt lat="44.32245327366396" lon="11.46418791131323"><ele>201.0</ele><time>2026-05-03T08:54:19Z</time></trkpt><trkpt lat="44.322606186169686" lon="11.464122274788384"><ele>201.0</ele><time>2026-05-03T08:54:20Z</time></trkpt><trkpt lat="44.322757649958376" lon="11.464052591523252"><ele>201.0</ele><time>2026-05-03T08:54:21Z</time></trkpt><trkpt lat="44.32290897980469" lon="11.463981382903436"><ele>201.0</ele><time>2026-05-03T08:54:22Z</time></trkpt><trkpt lat="44.3230594632813" lon="11.463910712679324"><ele>203.0</ele><time>2026-05-03T08:54:23Z</time></trkpt><trkpt lat="44.323210053936606" lon="11.463846736534483"><ele>205.0</ele><time>2026-05-03T08:54:24Z</time></trkpt><trkpt lat="44.32336141828405" lon="11.463786575298867"><ele>207.0</ele><time>2026-05-03T08:54:25Z</time></trkpt><trkpt lat="44.32351231262702" lon="11.463721406088784"><ele>207.0</ele><time>2026-05-03T08:54:26Z</time></trkpt><trkpt lat="44.32365851978891" lon="11.46365593917785"><ele>207.0</ele><time>2026-05-03T08:54:27Z</time></trkpt><trkpt lat="44.323805361466626" lon="11.463591515100537"><ele>207.0</ele><time>2026-05-03T08:54:28Z</time></trkpt><trkpt lat="44.32395034744" lon="11.463528208347466"><ele>207.0</ele><time>2026-05-03T08:54:29Z</time></trkpt><trkpt lat="44.32409021775871" lon="11.463467266063786"><ele>207.0</ele><time>2026-05-03T08:54:30Z</time></trkpt><trkpt lat="44.32422875351521" lon="11.463413915644344"><ele>207.0</ele><time>2026-05-03T08:54:31Z</time></trkpt><trkpt lat="44.324371750844065" lon="11.463375502356715"><ele>207.0</ele><time>2026-05-03T08:54:32Z</time></trkpt><trkpt lat="44.3245109094336" lon="11.463363801700565"><ele>207.0</ele><time>2026-05-03T08:54:33Z</time></trkpt><trkpt lat="44.32464624093121" lon="11.46336922985508"><ele>207.0</ele><time>2026-05-03T08:54:34Z</time></trkpt><trkpt lat="44.32476677674394" lon="11.463386639748137"><ele>207.0</ele><time>2026-05-03T08:54:35Z</time></trkpt><trkpt lat="44.32487809386561" lon="11.46339834484534"><ele>207.0</ele><time>2026-05-03T08:54:36Z</time></trkpt><trkpt lat="44.324991406150666" lon="11.463390028616496"><ele>207.75</ele><time>2026-05-03T08:54:37Z</time></trkpt><trkpt lat="44.3250993566515" lon="11.463360221719459"><ele>208.5</ele><time>2026-05-03T08:54:38Z</time></trkpt><trkpt lat="44.32519632645631" lon="11.46329940289262"><ele>209.25</ele><time>2026-05-03T08:54:39Z</time></trkpt><trkpt lat="44.32528971048149" lon="11.463190562028094"><ele>210.0</ele><time>2026-05-03T08:54:40Z</time></trkpt><trkpt lat="44.32537688439773" lon="11.463047323543975"><ele>210.5</ele><time>2026-05-03T08:54:41Z</time></trkpt><trkpt lat="44.325465471704234" lon="11.462865685354252"><ele>211.0</ele><time>2026-05-03T08:54:42Z</time></trkpt><trkpt lat="44.3255400786892" lon="11.462725075817772"><ele>211.5</ele><time>2026-05-03T08:54:43Z</time></trkpt><trkpt lat="44.325630558012136" lon="11.462600482419337"><ele>212.0</ele><time>2026-05-03T08:54:44Z</time></trkpt><trkpt lat="44.32573412593695" lon="11.462475635712629"><ele>213.0</ele><time>2026-05-03T08:54:45Z</time></trkpt><trkpt lat="44.32584669909543" lon="11.46235036034935"><ele>214.0</ele><time>2026-05-03T08:54:46Z</time></trkpt><trkpt lat="44.325954571737654" lon="11.462242653733098"><ele>215.0</ele><time>2026-05-03T08:54:47Z</time></trkpt><trkpt lat="44.32605240575653" lon="11.462139053152617"><ele>216.0</ele><time>2026-05-03T08:54:48Z</time></trkpt><trkpt lat="44.326161729289176" lon="11.462040074868028"><ele>217.75</ele><time>2026-05-03T08:54:49Z</time></trkpt><trkpt lat="44.32627523186805" lon="11.461959978974505"><ele>219.5</ele><time>2026-05-03T08:54:50Z</time></trkpt><trkpt lat="44.32639018256282" lon="11.461899296108859"><ele>221.25</ele><time>2026-05-03T08:54:51Z</time></trkpt><trkpt lat="44.32652272539684" lon="11.461864280324557"><ele>223.0</ele><time>2026-05-03T08:54:52Z</time></trkpt><trkpt lat="44.32666092967376" lon="11.461845923072822"><ele>223.0</ele><time>2026-05-03T08:54:53Z</time></trkpt><trkpt lat="44.32680512568906" lon="11.461819639688413"><ele>223.0</ele><time>2026-05-03T08:54:54Z</time></trkpt><trkpt lat="44.326948848634466" lon="11.461782176243059"><ele>223.0</ele><time>2026-05-03T08:54:55Z</time></trkpt><trkpt lat="44.32708704975388" lon="11.461749744103379"><ele>223.0</ele><time>2026-05-03T08:54:56Z</time></trkpt><trkpt lat="44.32722250905275" lon="11.461731589469723"><ele>221.5</ele><time>2026-05-03T08:54:57Z</time></trkpt><trkpt lat="44.32734951758025" lon="11.46172570810675"><ele>220.0</ele><time>2026-05-03T08:54:58Z</time></trkpt><trkpt lat="44.32748070541403" lon="11.461731930962362"><ele>218.5</ele><time>2026-05-03T08:54:59Z</time></trkpt><trkpt lat="44.32760514197583" lon="11.46174865056756"><ele>217.0</ele><time>2026-05-03T08:55:00Z</time></trkpt><trkpt lat="44.32771664249044" lon="11.461781910461976"><ele>217.0</ele><time>2026-05-03T08:55:01Z</time></trkpt><trkpt lat="44.32782072096162" lon="11.4618232368695"><ele>217.0</ele><time>2026-05-03T08:55:02Z</time></trkpt><trkpt lat="44.327926019323215" lon="11.461871291865274"><ele>217.0</ele><time>2026-05-03T08:55:03Z</time></trkpt><trkpt lat="44.328024335800855" lon="11.461918869651283"><ele>217.0</ele><time>2026-05-03T08:55:04Z</time></trkpt><trkpt lat="44.32811589980631" lon="11.461963837164406"><ele>217.0</ele><time>2026-05-03T08:55:05Z</time></trkpt><trkpt lat="44.328200617459785" lon="11.462006750833384"><ele>217.66666666666666</ele><time>2026-05-03T08:55:06Z</time></trkpt><trkpt lat="44.32827715602255" lon="11.462043057706948"><ele>218.33333333333331</ele><time>2026-05-03T08:55:07Z</time></trkpt><trkpt lat="44.32835487141152" lon="11.462074240320584"><ele>219.0</ele><time>2026-05-03T08:55:08Z</time></trkpt><trkpt lat="44.3284298214389" lon="11.46207070561761"><ele>219.66666666666669</ele><time>2026-05-03T08:55:09Z</time></trkpt><trkpt lat="44.328503880124295" lon="11.462054543740207"><ele>220.33333333333334</ele><time>2026-05-03T08:55:10Z</time></trkpt><trkpt lat="44.32857145720672" lon="11.462034370152658"><ele>221.0</ele><time>2026-05-03T08:55:11Z</time></trkpt><trkpt lat="44.32868063529309" lon="11.461998172566087"><ele>221.0</ele><time>2026-05-03T08:55:13Z</time></trkpt><trkpt lat="44.32878192103639" lon="11.461964254933177"><ele>221.00000000000003</ele><time>2026-05-03T08:55:15Z</time></trkpt><trkpt lat="44.328913245447595" lon="11.461892272117419"><ele>221.00000000000003</ele><time>2026-05-03T08:55:17Z</time></trkpt><trkpt lat="44.32900011238743" lon="11.461871415852325"><ele>221.0</ele><time>2026-05-03T08:55:18Z</time></trkpt><trkpt lat="44.329095412144895" lon="11.46184994113392"><ele>221.0</ele><time>2026-05-03T08:55:19Z</time></trkpt><trkpt lat="44.32920762916723" lon="11.461822545614192"><ele>221.25</ele><time>2026-05-03T08:55:20Z</time></trkpt><trkpt lat="44.32933204833618" lon="11.461789480157064"><ele>221.5</ele><time>2026-05-03T08:55:21Z</time></trkpt><trkpt lat="44.329450746728234" lon="11.461725532675555"><ele>221.75</ele><time>2026-05-03T08:55:22Z</time></trkpt><trkpt lat="44.32955847115594" lon="11.46164466245766"><ele>222.0</ele><time>2026-05-03T08:55:23Z</time></trkpt><trkpt lat="44.32966426918903" lon="11.461548315293161"><ele>222.0</ele><time>2026-05-03T08:55:24Z</time></trkpt><trkpt lat="44.32976654380828" lon="11.461434225695992"><ele>222.0</ele><time>2026-05-03T08:55:25Z</time></trkpt><trkpt lat="44.329863478727425" lon="11.461309556683506"><ele>222.0</ele><time>2026-05-03T08:55:26Z</time></trkpt><trkpt lat="44.32996104051574" lon="11.461184305253674"><ele>222.0</ele><time>2026-05-03T08:55:27Z</time></trkpt><trkpt lat="44.33005747059554" lon="11.461055159568112"><ele>222.0</ele><time>2026-05-03T08:55:28Z</time></trkpt><trkpt lat="44.33016745701104" lon="11.46094737897612"><ele>222.0</ele><time>2026-05-03T08:55:29Z</time></trkpt><trkpt lat="44.33028551153986" lon="11.460851918894345"><ele>222.0</ele><time>2026-05-03T08:55:30Z</time></trkpt><trkpt lat="44.330406701067325" lon="11.46077454005942"><ele>222.0</ele><time>2026-05-03T08:55:31Z</time></trkpt><trkpt lat="44.330534516574225" lon="11.460702270620974"><ele>222.0</ele><time>2026-05-03T08:55:32Z</time></trkpt><trkpt lat="44.33065684458906" lon="11.460612773514205"><ele>222.0</ele><time>2026-05-03T08:55:33Z</time></trkpt><trkpt lat="44.33077098424705" lon="11.460521913949165"><ele>222.0</ele><time>2026-05-03T08:55:34Z</time></trkpt><trkpt lat="44.33087353316085" lon="11.46044628282018"><ele>222.0</ele><time>2026-05-03T08:55:35Z</time></trkpt><trkpt lat="44.33097152371021" lon="11.460403671164741"><ele>224.25</ele><time>2026-05-03T08:55:36Z</time></trkpt><trkpt lat="44.33108339607367" lon="11.460387328643673"><ele>226.5</ele><time>2026-05-03T08:55:37Z</time></trkpt><trkpt lat="44.3312110130268" lon="11.46040397354677"><ele>228.75</ele><time>2026-05-03T08:55:38Z</time></trkpt><trkpt lat="44.33136254333293" lon="11.460434841857435"><ele>231.0</ele><time>2026-05-03T08:55:39Z</time></trkpt><trkpt lat="44.33151504309633" lon="11.4604133673208"><ele>231.0</ele><time>2026-05-03T08:55:40Z</time></trkpt><trkpt lat="44.33167366779893" lon="11.460373935758556"><ele>231.0</ele><time>2026-05-03T08:55:41Z</time></trkpt><trkpt lat="44.33183905809269" lon="11.460343006703413"><ele>231.0</ele><time>2026-05-03T08:55:42Z</time></trkpt><trkpt lat="44.332002291231525" lon="11.46031920199611"><ele>231.0</ele><time>2026-05-03T08:55:43Z</time></trkpt><trkpt lat="44.33216041270489" lon="11.460293207311361"><ele>231.0</ele><time>2026-05-03T08:55:44Z</time></trkpt><trkpt lat="44.33231317621239" lon="11.460269968022814"><ele>231.0</ele><time>2026-05-03T08:55:45Z</time></trkpt><trkpt lat="44.33244872709111" lon="11.46025338821313"><ele>231.0</ele><time>2026-05-03T08:55:46Z</time></trkpt><trkpt lat="44.3325822232149" lon="11.460232832751915"><ele>231.5</ele><time>2026-05-03T08:55:47Z</time></trkpt><trkpt lat="44.332714016344305" lon="11.46020463364879"><ele>232.0</ele><time>2026-05-03T08:55:48Z</time></trkpt><trkpt lat="44.33283850251782" lon="11.460183746663503"><ele>232.5</ele><time>2026-05-03T08:55:49Z</time></trkpt><trkpt lat="44.332945981545095" lon="11.460155784887059"><ele>233.0</ele><time>2026-05-03T08:55:50Z</time></trkpt><trkpt lat="44.33306047802478" lon="11.460095246335017"><ele>233.5</ele><time>2026-05-03T08:55:51Z</time></trkpt><trkpt lat="44.33317121028848" lon="11.459999997061155"><ele>234.0</ele><time>2026-05-03T08:55:52Z</time></trkpt><trkpt lat="44.333271801580665" lon="11.459872405589575"><ele>234.5</ele><time>2026-05-03T08:55:53Z</time></trkpt><trkpt lat="44.33336080457104" lon="11.459728369616647"><ele>235.0</ele><time>2026-05-03T08:55:54Z</time></trkpt><trkpt lat="44.33344706721987" lon="11.459586436648385"><ele>235.75</ele><time>2026-05-03T08:55:55Z</time></trkpt><trkpt lat="44.33352600135968" lon="11.4594426490068"><ele>236.5</ele><time>2026-05-03T08:55:56Z</time></trkpt><trkpt lat="44.33359478631677" lon="11.459291019915893"><ele>237.25</ele><time>2026-05-03T08:55:57Z</time></trkpt><trkpt lat="44.33365534604863" lon="11.45912509368291"><ele>238.0</ele><time>2026-05-03T08:55:58Z</time></trkpt><trkpt lat="44.33370797852935" lon="11.45894672436894"><ele>239.25</ele><time>2026-05-03T08:55:59Z</time></trkpt><trkpt lat="44.3337401946053" lon="11.458758919129336"><ele>240.5</ele><time>2026-05-03T08:56:00Z</time></trkpt><trkpt lat="44.33375180858785" lon="11.458571278812432"><ele>241.75</ele><time>2026-05-03T08:56:01Z</time></trkpt><trkpt lat="44.33375847766076" lon="11.458396027764365"><ele>243.0</ele><time>2026-05-03T08:56:02Z</time></trkpt><trkpt lat="44.333773730783456" lon="11.45824145552743"><ele>243.0</ele><time>2026-05-03T08:56:03Z</time></trkpt><trkpt lat="44.33381064255109" lon="11.458116952914445"><ele>243.0</ele><time>2026-05-03T08:56:04Z</time></trkpt><trkpt lat="44.33387925498511" lon="11.457989731019948"><ele>243.0</ele><time>2026-05-03T08:56:05Z</time></trkpt><trkpt lat="44.333963545808274" lon="11.457853144039873"><ele>243.0</ele><time>2026-05-03T08:56:06Z</time></trkpt><trkpt lat="44.334058337088535" lon="11.457687239598156"><ele>243.0</ele><time>2026-05-03T08:56:07Z</time></trkpt><trkpt lat="44.334134978003206" lon="11.45749167483582"><ele>243.0</ele><time>2026-05-03T08:56:08Z</time></trkpt><trkpt lat="44.33420779738672" lon="11.457294231853833"><ele>243.0</ele><time>2026-05-03T08:56:09Z</time></trkpt><trkpt lat="44.334273605358916" lon="11.457101561229655"><ele>243.0</ele><time>2026-05-03T08:56:10Z</time></trkpt><trkpt lat="44.334337559114964" lon="11.4569296927713"><ele>243.0</ele><time>2026-05-03T08:56:11Z</time></trkpt><trkpt lat="44.33440796919816" lon="11.456784907377376"><ele>243.0</ele><time>2026-05-03T08:56:12Z</time></trkpt><trkpt lat="44.33446815301581" lon="11.456641423256375"><ele>243.0</ele><time>2026-05-03T08:56:13Z</time></trkpt><trkpt lat="44.334508196159824" lon="11.456475201828514"><ele>243.0</ele><time>2026-05-03T08:56:14Z</time></trkpt><trkpt lat="44.33451612405039" lon="11.45629366405891"><ele>243.0</ele><time>2026-05-03T08:56:15Z</time></trkpt><trkpt lat="44.33450432966362" lon="11.456091116234253"><ele>243.0</ele><time>2026-05-03T08:56:16Z</time></trkpt><trkpt lat="44.33446602792803" lon="11.455870606650667"><ele>243.0</ele><time>2026-05-03T08:56:17Z</time></trkpt><trkpt lat="44.33441260920127" lon="11.455636290626975"><ele>245.5</ele><time>2026-05-03T08:56:18Z</time></trkpt><trkpt lat="44.33437246343912" lon="11.455418646487487"><ele>248.0</ele><time>2026-05-03T08:56:19Z</time></trkpt><trkpt lat="44.33433083645586" lon="11.455229514392762"><ele>250.5</ele><time>2026-05-03T08:56:20Z</time></trkpt><trkpt lat="44.33429292115543" lon="11.45506302537776"><ele>253.0</ele><time>2026-05-03T08:56:21Z</time></trkpt><trkpt lat="44.334262401069054" lon="11.454916888536506"><ele>252.99999999999997</ele><time>2026-05-03T08:56:22Z</time></trkpt><trkpt lat="44.334236238907245" lon="11.454780570321482"><ele>253.0</ele><time>2026-05-03T08:56:23Z</time></trkpt><trkpt lat="44.33421178207771" lon="11.454654828051849"><ele>253.0</ele><time>2026-05-03T08:56:24Z</time></trkpt><trkpt lat="44.33418497075672" lon="11.454544832573442"><ele>253.0</ele><time>2026-05-03T08:56:25Z</time></trkpt><trkpt lat="44.33413399113839" lon="11.454475720227864"><ele>252.99999999999997</ele><time>2026-05-03T08:56:26Z</time></trkpt><trkpt lat="44.3340596726005" lon="11.454435641144286"><ele>253.0</ele><time>2026-05-03T08:56:27Z</time></trkpt><trkpt lat="44.333961676268395" lon="11.454454243795205"><ele>256.25</ele><time>2026-05-03T08:56:28Z</time></trkpt><trkpt lat="44.33384272543776" lon="11.454502060767885"><ele>259.5</ele><time>2026-05-03T08:56:29Z</time></trkpt><trkpt lat="44.33372035426192" lon="11.454568163758488"><ele>262.75</ele><time>2026-05-03T08:56:30Z</time></trkpt><trkpt lat="44.33358741232563" lon="11.454624357478417"><ele>266.0</ele><time>2026-05-03T08:56:31Z</time></trkpt><trkpt lat="44.33346094208256" lon="11.454733546466057"><ele>266.1666666666667</ele><time>2026-05-03T08:56:32Z</time></trkpt><trkpt lat="44.33336768785867" lon="11.454813202397531"><ele>266.33333333333337</ele><time>2026-05-03T08:56:33Z</time></trkpt><trkpt lat="44.33329475280935" lon="11.45486612218352"><ele>266.5</ele><time>2026-05-03T08:56:34Z</time></trkpt><trkpt lat="44.33322177969312" lon="11.454886373858706"><ele>266.6666666666667</ele><time>2026-05-03T08:56:35Z</time></trkpt><trkpt lat="44.33315425700073" lon="11.454858974238197"><ele>266.8333333333333</ele><time>2026-05-03T08:56:36Z</time></trkpt><trkpt lat="44.33309244363576" lon="11.454780759469015"><ele>267.0</ele><time>2026-05-03T08:56:37Z</time></trkpt><trkpt lat="44.33303942413517" lon="11.454662197029284"><ele>273.0</ele><time>2026-05-03T08:56:38Z</time></trkpt><trkpt lat="44.332998382476895" lon="11.454498479064984"><ele>279.0</ele><time>2026-05-03T08:56:39Z</time></trkpt><trkpt lat="44.33296265933262" lon="11.45430006784462"><ele>285.0</ele><time>2026-05-03T08:56:40Z</time></trkpt><trkpt lat="44.332933404260224" lon="11.454141732758696"><ele>291.0</ele><time>2026-05-03T08:56:41Z</time></trkpt><trkpt lat="44.3329029240147" lon="11.454023121815213"><ele>291.0</ele><time>2026-05-03T08:56:42Z</time></trkpt><trkpt lat="44.332854318966284" lon="11.453955208344816"><ele>291.0</ele><time>2026-05-03T08:56:43Z</time></trkpt><trkpt lat="44.33278063391015" lon="11.453933969220794"><ele>291.0</ele><time>2026-05-03T08:56:44Z</time></trkpt><trkpt lat="44.33270613074566" lon="11.453972302145324"><ele>291.0</ele><time>2026-05-03T08:56:45Z</time></trkpt><trkpt lat="44.332643390980614" lon="11.454058067080721"><ele>291.0</ele><time>2026-05-03T08:56:46Z</time></trkpt><trkpt lat="44.33261006848957" lon="11.454185980404251"><ele>291.0</ele><time>2026-05-03T08:56:47Z</time></trkpt><trkpt lat="44.33259284997666" lon="11.454348686339001"><ele>291.0</ele><time>2026-05-03T08:56:48Z</time></trkpt><trkpt lat="44.3325853562906" lon="11.45453204592541"><ele>291.0</ele><time>2026-05-03T08:56:49Z</time></trkpt><trkpt lat="44.3325823024528" lon="11.454687488136322"><ele>291.0</ele><time>2026-05-03T08:56:50Z</time></trkpt><trkpt lat="44.33257458551025" lon="11.454812567299395"><ele>291.0</ele><time>2026-05-03T08:56:51Z</time></trkpt><trkpt lat="44.33253859874659" lon="11.454898325368383"><ele>291.0</ele><time>2026-05-03T08:56:52Z</time></trkpt><trkpt lat="44.3324093151918" lon="11.45493734768757"><ele>291.25</ele><time>2026-05-03T08:56:54Z</time></trkpt><trkpt lat="44.332323046933865" lon="11.45490935574472"><ele>291.5</ele><time>2026-05-03T08:56:55Z</time></trkpt><trkpt lat="44.33222789864705" lon="11.454853725093411"><ele>291.75</ele><time>2026-05-03T08:56:56Z</time></trkpt><trkpt lat="44.332115046629625" lon="11.454765404164691"><ele>292.0</ele><time>2026-05-03T08:56:57Z</time></trkpt><trkpt lat="44.33201073887863" lon="11.454658474178762"><ele>297.0</ele><time>2026-05-03T08:56:58Z</time></trkpt><trkpt lat="44.33189809964395" lon="11.454583578507554"><ele>302.0</ele><time>2026-05-03T08:56:59Z</time></trkpt><trkpt lat="44.33177524054119" lon="11.454548536819129"><ele>307.0</ele><time>2026-05-03T08:57:00Z</time></trkpt><trkpt lat="44.331659712475016" lon="11.454534379615932"><ele>312.0</ele><time>2026-05-03T08:57:01Z</time></trkpt><trkpt lat="44.33155493480869" lon="11.454556229983476"><ele>312.0</ele><time>2026-05-03T08:57:02Z</time></trkpt><trkpt lat="44.3314413080444" lon="11.454605150558413"><ele>312.0</ele><time>2026-05-03T08:57:03Z</time></trkpt><trkpt lat="44.331330509857025" lon="11.454673022408674"><ele>312.0</ele><time>2026-05-03T08:57:04Z</time></trkpt><trkpt lat="44.331227121871876" lon="11.454765591001037"><ele>312.0</ele><time>2026-05-03T08:57:05Z</time></trkpt><trkpt lat="44.33112353807618" lon="11.45490214744088"><ele>316.0</ele><time>2026-05-03T08:57:06Z</time></trkpt><trkpt lat="44.331008774566264" lon="11.45506794429818"><ele>320.0</ele><time>2026-05-03T08:57:07Z</time></trkpt><trkpt lat="44.3308833729835" lon="11.455230113384742"><ele>324.0</ele><time>2026-05-03T08:57:08Z</time></trkpt><trkpt lat="44.33075588508729" lon="11.45538133744275"><ele>323.75</ele><time>2026-05-03T08:57:09Z</time></trkpt><trkpt lat="44.330634888862065" lon="11.455519834155234"><ele>323.5</ele><time>2026-05-03T08:57:10Z</time></trkpt><trkpt lat="44.33053266235049" lon="11.455641074547872"><ele>323.25</ele><time>2026-05-03T08:57:11Z</time></trkpt><trkpt lat="44.33043821725969" lon="11.455736052067326"><ele>323.0</ele><time>2026-05-03T08:57:12Z</time></trkpt><trkpt lat="44.330349011000244" lon="11.455811343050595"><ele>324.2</ele><time>2026-05-03T08:57:13Z</time></trkpt><trkpt lat="44.330276530265934" lon="11.455836402106703"><ele>325.4</ele><time>2026-05-03T08:57:14Z</time></trkpt><trkpt lat="44.330215214615684" lon="11.455797495854855"><ele>326.59999999999997</ele><time>2026-05-03T08:57:15Z</time></trkpt><trkpt lat="44.330159042540814" lon="11.455701173523499"><ele>327.79999999999995</ele><time>2026-05-03T08:57:16Z</time></trkpt><trkpt lat="44.330120929244835" lon="11.45556852221213"><ele>329.0</ele><time>2026-05-03T08:57:17Z</time></trkpt><trkpt lat="44.330083013849844" lon="11.455400682546658"><ele>331.6666666666667</ele><time>2026-05-03T08:57:18Z</time></trkpt><trkpt lat="44.33004818482857" lon="11.45520524049523"><ele>334.3333333333333</ele><time>2026-05-03T08:57:19Z</time></trkpt><trkpt lat="44.32999057591969" lon="11.45498504353279"><ele>337.0</ele><time>2026-05-03T08:57:20Z</time></trkpt><trkpt lat="44.32991171429328" lon="11.45476843129215"><ele>339.66666666666663</ele><time>2026-05-03T08:57:21Z</time></trkpt><trkpt lat="44.32982179619095" lon="11.454539403666075"><ele>342.3333333333333</ele><time>2026-05-03T08:57:22Z</time></trkpt><trkpt lat="44.32973139041968" lon="11.454328659453019"><ele>345.0</ele><time>2026-05-03T08:57:23Z</time></trkpt><trkpt lat="44.32964088862919" lon="11.454126365303983"><ele>346.0</ele><time>2026-05-03T08:57:24Z</time></trkpt><trkpt lat="44.32955218696531" lon="11.453931223854648"><ele>347.0</ele><time>2026-05-03T08:57:25Z</time></trkpt><trkpt lat="44.32946653558101" lon="11.453745719788444"><ele>348.0</ele><time>2026-05-03T08:57:26Z</time></trkpt><trkpt lat="44.32938519331379" lon="11.453570135320302"><ele>353.3333333333333</ele><time>2026-05-03T08:57:27Z</time></trkpt><trkpt lat="44.32929559660585" lon="11.453375952344286"><ele>358.66666666666663</ele><time>2026-05-03T08:57:28Z</time></trkpt><trkpt lat="44.32920131741983" lon="11.453176845339286"><ele>364.0</ele><time>2026-05-03T08:57:29Z</time></trkpt><trkpt lat="44.329121256033496" lon="11.45299806490989"><ele>365.0</ele><time>2026-05-03T08:57:30Z</time></trkpt><trkpt lat="44.3290577564506" lon="11.452847564506097"><ele>366.0</ele><time>2026-05-03T08:57:31Z</time></trkpt><trkpt lat="44.32900921660627" lon="11.452705512944318"><ele>367.0</ele><time>2026-05-03T08:57:32Z</time></trkpt><trkpt lat="44.3289643092153" lon="11.452559710099006"><ele>368.0</ele><time>2026-05-03T08:57:33Z</time></trkpt><trkpt lat="44.32894900918966" lon="11.452430858896692"><ele>369.0</ele><time>2026-05-03T08:57:34Z</time></trkpt><trkpt lat="44.32896548289143" lon="11.452285997874402"><ele>370.0</ele><time>2026-05-03T08:57:35Z</time></trkpt><trkpt lat="44.32900942755361" lon="11.452098469837583"><ele>371.0</ele><time>2026-05-03T08:57:36Z</time></trkpt><trkpt lat="44.329072290712375" lon="11.451924838951259"><ele>372.0</ele><time>2026-05-03T08:57:37Z</time></trkpt><trkpt lat="44.329130682851826" lon="11.451766094171687"><ele>373.0</ele><time>2026-05-03T08:57:38Z</time></trkpt><trkpt lat="44.32915463707383" lon="11.451634049747792"><ele>373.0</ele><time>2026-05-03T08:57:39Z</time></trkpt><trkpt lat="44.329143191907185" lon="11.451483413382192"><ele>373.0</ele><time>2026-05-03T08:57:40Z</time></trkpt><trkpt lat="44.32910747319563" lon="11.451320085776405"><ele>373.0</ele><time>2026-05-03T08:57:41Z</time></trkpt><trkpt lat="44.32905035523774" lon="11.451156511079088"><ele>373.0</ele><time>2026-05-03T08:57:42Z</time></trkpt><trkpt lat="44.32899475625794" lon="11.450994250256823"><ele>372.25</ele><time>2026-05-03T08:57:43Z</time></trkpt><trkpt lat="44.32895187519765" lon="11.450823523940501"><ele>371.5</ele><time>2026-05-03T08:57:44Z</time></trkpt><trkpt lat="44.32891196445161" lon="11.450646045573878"><ele>370.75</ele><time>2026-05-03T08:57:45Z</time></trkpt><trkpt lat="44.328869763620865" lon="11.450464084896204"><ele>370.0</ele><time>2026-05-03T08:57:46Z</time></trkpt><trkpt lat="44.32882069849399" lon="11.450279913592688"><ele>373.25</ele><time>2026-05-03T08:57:47Z</time></trkpt><trkpt lat="44.32877383383277" lon="11.450102013989483"><ele>376.5</ele><time>2026-05-03T08:57:48Z</time></trkpt><trkpt lat="44.328723814913175" lon="11.449927311430097"><ele>379.75</ele><time>2026-05-03T08:57:49Z</time></trkpt><trkpt lat="44.32867352500855" lon="11.449755752187725"><ele>383.0</ele><time>2026-05-03T08:57:50Z</time></trkpt><trkpt lat="44.328619891374714" lon="11.449587112431038"><ele>386.5</ele><time>2026-05-03T08:57:51Z</time></trkpt><trkpt lat="44.3285662074068" lon="11.449441355280136"><ele>390.0</ele><time>2026-05-03T08:57:52Z</time></trkpt><trkpt lat="44.32850165716533" lon="11.449315749565923"><ele>393.5</ele><time>2026-05-03T08:57:53Z</time></trkpt><trkpt lat="44.328409084071275" lon="11.449225346492453"><ele>397.0</ele><time>2026-05-03T08:57:54Z</time></trkpt><trkpt lat="44.32829870854681" lon="11.449176910349422"><ele>397.0</ele><time>2026-05-03T08:57:55Z</time></trkpt><trkpt lat="44.3282120867459" lon="11.449147618241561"><ele>397.0</ele><time>2026-05-03T08:57:56Z</time></trkpt><trkpt lat="44.32815237912877" lon="11.449071742972984"><ele>397.0</ele><time>2026-05-03T08:57:57Z</time></trkpt><trkpt lat="44.328109431944114" lon="11.448960200398242"><ele>397.0</ele><time>2026-05-03T08:57:58Z</time></trkpt><trkpt lat="44.328094130724466" lon="11.448812988009045"><ele>397.0</ele><time>2026-05-03T08:57:59Z</time></trkpt><trkpt lat="44.3280869906662" lon="11.44861807707251"><ele>398.0</ele><time>2026-05-03T08:58:00Z</time></trkpt><trkpt lat="44.32806967096038" lon="11.44840208844793"><ele>399.0</ele><time>2026-05-03T08:58:01Z</time></trkpt><trkpt lat="44.328046935581355" lon="11.448170945828789"><ele>400.0</ele><time>2026-05-03T08:58:02Z</time></trkpt><trkpt lat="44.32801718223588" lon="11.447932210413619"><ele>402.75</ele><time>2026-05-03T08:58:03Z</time></trkpt><trkpt lat="44.32799329036816" lon="11.44771263195257"><ele>405.5</ele><time>2026-05-03T08:58:04Z</time></trkpt><trkpt lat="44.32796730959434" lon="11.447505891442386"><ele>408.25</ele><time>2026-05-03T08:58:05Z</time></trkpt><trkpt lat="44.32794238705282" lon="11.447328589049707"><ele>411.0</ele><time>2026-05-03T08:58:06Z</time></trkpt><trkpt lat="44.32790460853368" lon="11.447144163926565"><ele>416.66666666666663</ele><time>2026-05-03T08:58:07Z</time></trkpt><trkpt lat="44.32783915161332" lon="11.446966241971264"><ele>422.3333333333333</ele><time>2026-05-03T08:58:08Z</time></trkpt><trkpt lat="44.327753021748734" lon="11.44678973356336"><ele>428.0</ele><time>2026-05-03T08:58:09Z</time></trkpt><trkpt lat="44.32766314239398" lon="11.446602666485985"><ele>428.0</ele><time>2026-05-03T08:58:10Z</time></trkpt><trkpt lat="44.327586368345976" lon="11.446400690419715"><ele>428.0</ele><time>2026-05-03T08:58:11Z</time></trkpt><trkpt lat="44.327525344443636" lon="11.446198941827891"><ele>428.0</ele><time>2026-05-03T08:58:12Z</time></trkpt><trkpt lat="44.32747561288215" lon="11.44603987459855"><ele>428.0</ele><time>2026-05-03T08:58:13Z</time></trkpt><trkpt lat="44.327408718671265" lon="11.445915680844609"><ele>431.0</ele><time>2026-05-03T08:58:14Z</time></trkpt><trkpt lat="44.32731283019557" lon="11.445795452189396"><ele>434.0</ele><time>2026-05-03T08:58:15Z</time></trkpt><trkpt lat="44.32718517567927" lon="11.44569144782618"><ele>437.0</ele><time>2026-05-03T08:58:16Z</time></trkpt><trkpt lat="44.327063763780075" lon="11.445604032295279"><ele>440.0</ele><time>2026-05-03T08:58:17Z</time></trkpt><trkpt lat="44.326976237974634" lon="11.445498306651068"><ele>444.25</ele><time>2026-05-03T08:58:18Z</time></trkpt><trkpt lat="44.32690654929713" lon="11.445372556544687"><ele>448.5</ele><time>2026-05-03T08:58:19Z</time></trkpt><trkpt lat="44.326840874019936" lon="11.445219013079145"><ele>452.75</ele><time>2026-05-03T08:58:20Z</time></trkpt><trkpt lat="44.32678399315771" lon="11.44505378003353"><ele>457.0</ele><time>2026-05-03T08:58:21Z</time></trkpt><trkpt lat="44.32671462038712" lon="11.444887464659066"><ele>457.0</ele><time>2026-05-03T08:58:22Z</time></trkpt><trkpt lat="44.32661055995419" lon="11.444750671250464"><ele>457.0</ele><time>2026-05-03T08:58:23Z</time></trkpt><trkpt lat="44.32651295218271" lon="11.444631053601398"><ele>457.0</ele><time>2026-05-03T08:58:24Z</time></trkpt><trkpt lat="44.326438676002816" lon="11.444503580450807"><ele>457.0</ele><time>2026-05-03T08:58:25Z</time></trkpt><trkpt lat="44.32638847612075" lon="11.444387802483522"><ele>457.25</ele><time>2026-05-03T08:58:26Z</time></trkpt><trkpt lat="44.32635695363875" lon="11.444236397068217"><ele>457.5</ele><time>2026-05-03T08:58:27Z</time></trkpt><trkpt lat="44.32632194568572" lon="11.44404064436411"><ele>457.75</ele><time>2026-05-03T08:58:28Z</time></trkpt><trkpt lat="44.32628380004737" lon="11.443820695337733"><ele>458.0</ele><time>2026-05-03T08:58:29Z</time></trkpt><trkpt lat="44.32624230183822" lon="11.443595546345412"><ele>461.66666666666663</ele><time>2026-05-03T08:58:30Z</time></trkpt><trkpt lat="44.32620021446308" lon="11.443410554800968"><ele>465.33333333333337</ele><time>2026-05-03T08:58:31Z</time></trkpt><trkpt lat="44.326149621355476" lon="11.443211762769632"><ele>469.0</ele><time>2026-05-03T08:58:32Z</time></trkpt><trkpt lat="44.32609222675348" lon="11.443003337547855"><ele>472.25</ele><time>2026-05-03T08:58:33Z</time></trkpt><trkpt lat="44.32603280205925" lon="11.4428318581742"><ele>475.5</ele><time>2026-05-03T08:58:34Z</time></trkpt><trkpt lat="44.32595917535808" lon="11.44268979357806"><ele>478.75</ele><time>2026-05-03T08:58:35Z</time></trkpt><trkpt lat="44.32585903970186" lon="11.442560443709384"><ele>482.0</ele><time>2026-05-03T08:58:36Z</time></trkpt><trkpt lat="44.325720757590496" lon="11.442423643453465"><ele>482.0</ele><time>2026-05-03T08:58:37Z</time></trkpt><trkpt lat="44.32556718976963" lon="11.442289185112875"><ele>482.0</ele><time>2026-05-03T08:58:38Z</time></trkpt><trkpt lat="44.325397882531846" lon="11.442156324920035"><ele>482.0</ele><time>2026-05-03T08:58:39Z</time></trkpt><trkpt lat="44.32524382956035" lon="11.442045912938413"><ele>484.25</ele><time>2026-05-03T08:58:40Z</time></trkpt><trkpt lat="44.32510738126267" lon="11.441944410876037"><ele>486.5</ele><time>2026-05-03T08:58:41Z</time></trkpt><trkpt lat="44.32498001580697" lon="11.44185027841689"><ele>488.75</ele><time>2026-05-03T08:58:42Z</time></trkpt><trkpt lat="44.324851813057805" lon="11.441747336452963"><ele>491.0</ele><time>2026-05-03T08:58:43Z</time></trkpt><trkpt lat="44.32473294999394" lon="11.441639619859535"><ele>490.75</ele><time>2026-05-03T08:58:44Z</time></trkpt><trkpt lat="44.32461664293204" lon="11.441508547643751"><ele>490.5</ele><time>2026-05-03T08:58:45Z</time></trkpt><trkpt lat="44.324510681939984" lon="11.441366718733127"><ele>490.25</ele><time>2026-05-03T08:58:46Z</time></trkpt><trkpt lat="44.32442921050402" lon="11.441240837590579"><ele>490.0</ele><time>2026-05-03T08:58:47Z</time></trkpt><trkpt lat="44.32435627904577" lon="11.44111253146271"><ele>491.5</ele><time>2026-05-03T08:58:48Z</time></trkpt><trkpt lat="44.32428436045912" lon="11.440978495594464"><ele>493.0</ele><time>2026-05-03T08:58:49Z</time></trkpt><trkpt lat="44.324214512802996" lon="11.440836931756591"><ele>494.5</ele><time>2026-05-03T08:58:50Z</time></trkpt><trkpt lat="44.32415311666066" lon="11.440685666241828"><ele>496.0</ele><time>2026-05-03T08:58:51Z</time></trkpt><trkpt lat="44.32408871140527" lon="11.440532889723201"><ele>495.0</ele><time>2026-05-03T08:58:52Z</time></trkpt><trkpt lat="44.32401352295379" lon="11.440397070701861"><ele>494.0</ele><time>2026-05-03T08:58:53Z</time></trkpt><trkpt lat="44.32392539457168" lon="11.440267122083577"><ele>493.0</ele><time>2026-05-03T08:58:54Z</time></trkpt><trkpt lat="44.32382841273535" lon="11.440157612815115"><ele>492.0</ele><time>2026-05-03T08:58:55Z</time></trkpt><trkpt lat="44.32372424243013" lon="11.440098316235934"><ele>494.25</ele><time>2026-05-03T08:58:56Z</time></trkpt><trkpt lat="44.32359807313864" lon="11.440054406474989"><ele>496.5</ele><time>2026-05-03T08:58:57Z</time></trkpt><trkpt lat="44.3234545966524" lon="11.44003278046258"><ele>498.75</ele><time>2026-05-03T08:58:58Z</time></trkpt><trkpt lat="44.3232935996158" lon="11.440015038213078"><ele>501.0</ele><time>2026-05-03T08:58:59Z</time></trkpt><trkpt lat="44.32312375564934" lon="11.439986766956386"><ele>503.0</ele><time>2026-05-03T08:59:00Z</time></trkpt><trkpt lat="44.32294636734888" lon="11.439950038107742"><ele>505.0</ele><time>2026-05-03T08:59:01Z</time></trkpt><trkpt lat="44.322787721632814" lon="11.439919255212113"><ele>507.0</ele><time>2026-05-03T08:59:02Z</time></trkpt><trkpt lat="44.322652171874246" lon="11.439929525731104"><ele>507.0</ele><time>2026-05-03T08:59:03Z</time></trkpt><trkpt lat="44.3225395041645" lon="11.43994708080446"><ele>507.00000000000006</ele><time>2026-05-03T08:59:04Z</time></trkpt><trkpt lat="44.32245209702619" lon="11.439945466373414"><ele>507.00000000000006</ele><time>2026-05-03T08:59:05Z</time></trkpt><trkpt lat="44.322387038429895" lon="11.439916501957885"><ele>507.0</ele><time>2026-05-03T08:59:06Z</time></trkpt><trkpt lat="44.322326178018734" lon="11.439848537424577"><ele>507.0</ele><time>2026-05-03T08:59:07Z</time></trkpt><trkpt lat="44.32226543068561" lon="11.439728714491737"><ele>510.5</ele><time>2026-05-03T08:59:08Z</time></trkpt><trkpt lat="44.32220066069171" lon="11.439570215562627"><ele>514.0</ele><time>2026-05-03T08:59:09Z</time></trkpt><trkpt lat="44.3221237120317" lon="11.439375700867547"><ele>517.5</ele><time>2026-05-03T08:59:10Z</time></trkpt><trkpt lat="44.32203646864186" lon="11.439215306385043"><ele>521.0</ele><time>2026-05-03T08:59:11Z</time></trkpt><trkpt lat="44.32193357858698" lon="11.439090295089093"><ele>521.0</ele><time>2026-05-03T08:59:12Z</time></trkpt><trkpt lat="44.32180966561192" lon="11.43897846210191"><ele>521.0</ele><time>2026-05-03T08:59:13Z</time></trkpt><trkpt lat="44.32165577808213" lon="11.438876235030023"><ele>521.0</ele><time>2026-05-03T08:59:14Z</time></trkpt><trkpt lat="44.32152598670554" lon="11.43882494472735"><ele>521.2</ele><time>2026-05-03T08:59:15Z</time></trkpt><trkpt lat="44.32142202873253" lon="11.438785903805918"><ele>521.4000000000001</ele><time>2026-05-03T08:59:16Z</time></trkpt><trkpt lat="44.32135113667919" lon="11.438761109380348"><ele>521.6</ele><time>2026-05-03T08:59:17Z</time></trkpt><trkpt lat="44.32129197572111" lon="11.43872401024804"><ele>521.8000000000001</ele><time>2026-05-03T08:59:19Z</time></trkpt><trkpt lat="44.32122840152721" lon="11.438611114416553"><ele>522.0</ele><time>2026-05-03T09:00:01Z</time></trkpt><trkpt lat="44.321208034333445" lon="11.43840565908632"><ele>522.0</ele><time>2026-05-03T09:00:03Z</time></trkpt><trkpt lat="44.32119068249298" lon="11.438265505453234"><ele>522.0</ele><time>2026-05-03T09:00:04Z</time></trkpt><trkpt lat="44.32116246696175" lon="11.438123682763816"><ele>522.0</ele><time>2026-05-03T09:00:05Z</time></trkpt><trkpt lat="44.32112339796812" lon="11.437970117324797"><ele>522.0</ele><time>2026-05-03T09:00:06Z</time></trkpt><trkpt lat="44.3210850141015" lon="11.437802327383388"><ele>523.0</ele><time>2026-05-03T09:00:07Z</time></trkpt><trkpt lat="44.321054227040214" lon="11.437620117871848"><ele>524.0</ele><time>2026-05-03T09:00:08Z</time></trkpt><trkpt lat="44.321029187019334" lon="11.437439386341994"><ele>525.0</ele><time>2026-05-03T09:00:09Z</time></trkpt><trkpt lat="44.32100468026896" lon="11.437273430302163"><ele>526.0</ele><time>2026-05-03T09:00:10Z</time></trkpt><trkpt lat="44.32096994862522" lon="11.43712462367012"><ele>526.75</ele><time>2026-05-03T09:00:11Z</time></trkpt><trkpt lat="44.320914572571105" lon="11.436973878294475"><ele>527.5</ele><time>2026-05-03T09:00:12Z</time></trkpt><trkpt lat="44.320852992449375" lon="11.436828911468567"><ele>528.25</ele><time>2026-05-03T09:00:13Z</time></trkpt><trkpt lat="44.32079464323883" lon="11.436699718947757"><ele>529.0</ele><time>2026-05-03T09:00:14Z</time></trkpt><trkpt lat="44.320730641421235" lon="11.436577291512705"><ele>529.0</ele><time>2026-05-03T09:00:15Z</time></trkpt><trkpt lat="44.32066702935461" lon="11.436457837330185"><ele>529.0</ele><time>2026-05-03T09:00:16Z</time></trkpt><trkpt lat="44.32060331356359" lon="11.436342680719008"><ele>529.0</ele><time>2026-05-03T09:00:17Z</time></trkpt><trkpt lat="44.32053722834798" lon="11.436230978974717"><ele>529.0</ele><time>2026-05-03T09:00:18Z</time></trkpt><trkpt lat="44.32047530333998" lon="11.436115577895853"><ele>529.0</ele><time>2026-05-03T09:00:19Z</time></trkpt><trkpt lat="44.32041758586653" lon="11.435997592256177"><ele>529.0</ele><time>2026-05-03T09:00:20Z</time></trkpt><trkpt lat="44.32037146986939" lon="11.435884047793605"><ele>529.0</ele><time>2026-05-03T09:00:21Z</time></trkpt><trkpt lat="44.320330144928306" lon="11.435767789952484"><ele>529.0</ele><time>2026-05-03T09:00:22Z</time></trkpt><trkpt lat="44.320293462930564" lon="11.43563810330693"><ele>529.0</ele><time>2026-05-03T09:00:23Z</time></trkpt><trkpt lat="44.320266299499835" lon="11.435487483425016"><ele>529.0</ele><time>2026-05-03T09:00:24Z</time></trkpt><trkpt lat="44.32024415050918" lon="11.435328005006115"><ele>529.0</ele><time>2026-05-03T09:00:25Z</time></trkpt><trkpt lat="44.320226291455725" lon="11.435167025735325"><ele>529.0</ele><time>2026-05-03T09:00:26Z</time></trkpt><trkpt lat="44.32021128799632" lon="11.435002896899984"><ele>529.0</ele><time>2026-05-03T09:00:27Z</time></trkpt><trkpt lat="44.320200407813196" lon="11.434838701310666"><ele>529.0</ele><time>2026-05-03T09:00:28Z</time></trkpt><trkpt lat="44.320191495176076" lon="11.434671634165406"><ele>529.25</ele><time>2026-05-03T09:00:29Z</time></trkpt><trkpt lat="44.3201899162547" lon="11.4345036669065"><ele>529.5</ele><time>2026-05-03T09:00:30Z</time></trkpt><trkpt lat="44.320202958491045" lon="11.434332357177926"><ele>529.75</ele><time>2026-05-03T09:00:31Z</time></trkpt><trkpt lat="44.320215855031805" lon="11.43415851027564"><ele>530.0</ele><time>2026-05-03T09:00:32Z</time></trkpt><trkpt lat="44.320226747929745" lon="11.433996734597134"><ele>530.0</ele><time>2026-05-03T09:00:33Z</time></trkpt><trkpt lat="44.3202323675031" lon="11.433840820474057"><ele>530.0</ele><time>2026-05-03T09:00:34Z</time></trkpt><trkpt lat="44.32022252083205" lon="11.433698861506427"><ele>530.0</ele><time>2026-05-03T09:00:35Z</time></trkpt><trkpt lat="44.32019627853456" lon="11.43357403860984"><ele>530.0</ele><time>2026-05-03T09:00:36Z</time></trkpt><trkpt lat="44.32016321744038" lon="11.433459274150746"><ele>530.0</ele><time>2026-05-03T09:00:37Z</time></trkpt><trkpt lat="44.32012466455362" lon="11.433330764323467"><ele>530.6</ele><time>2026-05-03T09:00:38Z</time></trkpt><trkpt lat="44.32008987634612" lon="11.433194413537732"><ele>531.2</ele><time>2026-05-03T09:00:39Z</time></trkpt><trkpt lat="44.32005879165742" lon="11.43305007809969"><ele>531.8</ele><time>2026-05-03T09:00:40Z</time></trkpt><trkpt lat="44.32003547764995" lon="11.4329318258774"><ele>532.4</ele><time>2026-05-03T09:00:41Z</time></trkpt><trkpt lat="44.32001509400888" lon="11.43282887473824"><ele>533.0</ele><time>2026-05-03T09:00:42Z</time></trkpt><trkpt lat="44.32000408985444" lon="11.43272205622163"><ele>534.0</ele><time>2026-05-03T09:00:43Z</time></trkpt><trkpt lat="44.31999308280184" lon="11.432599893242154"><ele>535.0</ele><time>2026-05-03T09:00:44Z</time></trkpt><trkpt lat="44.3199866288076" lon="11.432466732388521"><ele>536.0</ele><time>2026-05-03T09:00:45Z</time></trkpt><trkpt lat="44.31998542537534" lon="11.432331744794713"><ele>537.0</ele><time>2026-05-03T09:00:46Z</time></trkpt><trkpt lat="44.319988586950224" lon="11.432218034076934"><ele>538.0</ele><time>2026-05-03T09:00:47Z</time></trkpt><trkpt lat="44.31999394112135" lon="11.432104925582237"><ele>539.0</ele><time>2026-05-03T09:00:48Z</time></trkpt><trkpt lat="44.31999542390819" lon="11.432011496025"><ele>540.8</ele><time>2026-05-03T09:00:49Z</time></trkpt><trkpt lat="44.31998208691588" lon="11.431840226216618"><ele>542.5999999999999</ele><time>2026-05-03T09:00:51Z</time></trkpt><trkpt lat="44.31994693463418" lon="11.431737529307956"><ele>544.4</ele><time>2026-05-03T09:00:53Z</time></trkpt><trkpt lat="44.31987617820673" lon="11.43168966201455"><ele>546.1999999999999</ele><time>2026-05-03T09:00:55Z</time></trkpt><trkpt lat="44.31976584395461" lon="11.431682235071124"><ele>548.0</ele><time>2026-05-03T09:00:57Z</time></trkpt><trkpt lat="44.31970176219672" lon="11.431655784359034"><ele>548.0</ele><time>2026-05-03T09:00:58Z</time></trkpt><trkpt lat="44.31963461058407" lon="11.43163291310241"><ele>548.0</ele><time>2026-05-03T09:00:59Z</time></trkpt><trkpt lat="44.319562546087305" lon="11.431603643372057"><ele>548.0</ele><time>2026-05-03T09:01:00Z</time></trkpt><trkpt lat="44.31948468743304" lon="11.431569107503986"><ele>548.0</ele><time>2026-05-03T09:01:01Z</time></trkpt><trkpt lat="44.31939980106463" lon="11.431520536135684"><ele>548.0</ele><time>2026-05-03T09:01:02Z</time></trkpt><trkpt lat="44.31931594387386" lon="11.431458856867879"><ele>548.0</ele><time>2026-05-03T09:01:03Z</time></trkpt><trkpt lat="44.319236693530264" lon="11.431403879968855"><ele>548.0</ele><time>2026-05-03T09:01:04Z</time></trkpt><trkpt lat="44.31915671950644" lon="11.431356584415092"><ele>548.0</ele><time>2026-05-03T09:01:05Z</time></trkpt><trkpt lat="44.31907658338736" lon="11.431310329989282"><ele>548.0</ele><time>2026-05-03T09:01:06Z</time></trkpt><trkpt lat="44.31900038801451" lon="11.431260133148006"><ele>548.0</ele><time>2026-05-03T09:01:07Z</time></trkpt><trkpt lat="44.31891758777832" lon="11.431217153095156"><ele>548.0</ele><time>2026-05-03T09:01:08Z</time></trkpt><trkpt lat="44.31884119260837" lon="11.431182865290337"><ele>548.0</ele><time>2026-05-03T09:01:09Z</time></trkpt><trkpt lat="44.31877762978911" lon="11.431146660070603"><ele>548.0</ele><time>2026-05-03T09:01:10Z</time></trkpt><trkpt lat="44.318689453480715" lon="11.431033515534235"><ele>548.0</ele><time>2026-05-03T09:01:12Z</time></trkpt><trkpt lat="44.31865295630188" lon="11.430954328954579"><ele>548.0</ele><time>2026-05-03T09:01:13Z</time></trkpt><trkpt lat="44.318631579929814" lon="11.430858201877145"><ele>548.0</ele><time>2026-05-03T09:01:14Z</time></trkpt><trkpt lat="44.31861582997178" lon="11.430747303915574"><ele>548.0</ele><time>2026-05-03T09:01:15Z</time></trkpt><trkpt lat="44.31859657679753" lon="11.430614377350754"><ele>548.0</ele><time>2026-05-03T09:01:16Z</time></trkpt><trkpt lat="44.31858323997182" lon="11.430468379532147"><ele>544.5</ele><time>2026-05-03T09:01:17Z</time></trkpt><trkpt lat="44.31858267230285" lon="11.430300335038579"><ele>541.0</ele><time>2026-05-03T09:01:18Z</time></trkpt><trkpt lat="44.31859868080793" lon="11.430129074963437"><ele>537.5</ele><time>2026-05-03T09:01:19Z</time></trkpt><trkpt lat="44.318608469824305" lon="11.429949521931793"><ele>534.0</ele><time>2026-05-03T09:01:20Z</time></trkpt><trkpt lat="44.318620652212296" lon="11.429778649358402"><ele>534.6</ele><time>2026-05-03T09:01:21Z</time></trkpt><trkpt lat="44.3186267039114" lon="11.429630275837047"><ele>535.2</ele><time>2026-05-03T09:01:22Z</time></trkpt><trkpt lat="44.31862549166478" lon="11.42949890797468"><ele>535.8000000000001</ele><time>2026-05-03T09:01:23Z</time></trkpt><trkpt lat="44.31860804007253" lon="11.429357549789968"><ele>536.4</ele><time>2026-05-03T09:01:24Z</time></trkpt><trkpt lat="44.31856014535783" lon="11.42923894576719"><ele>537.0</ele><time>2026-05-03T09:01:25Z</time></trkpt><trkpt lat="44.31848662058206" lon="11.429125696331772"><ele>537.0</ele><time>2026-05-03T09:01:26Z</time></trkpt><trkpt lat="44.31838238062779" lon="11.429013603028059"><ele>537.0</ele><time>2026-05-03T09:01:27Z</time></trkpt><trkpt lat="44.31829532620783" lon="11.428916083827474"><ele>537.0</ele><time>2026-05-03T09:01:28Z</time></trkpt><trkpt lat="44.318219319668735" lon="11.428800840695926"><ele>537.0</ele><time>2026-05-03T09:01:29Z</time></trkpt><trkpt lat="44.318136483907956" lon="11.42868968013909"><ele>534.8000000000001</ele><time>2026-05-03T09:01:30Z</time></trkpt><trkpt lat="44.31804315417797" lon="11.428595989342117"><ele>532.6</ele><time>2026-05-03T09:01:31Z</time></trkpt><trkpt lat="44.317953793937015" lon="11.428510697136703"><ele>530.4000000000001</ele><time>2026-05-03T09:01:32Z</time></trkpt><trkpt lat="44.31786581885889" lon="11.428425941588795"><ele>528.2</ele><time>2026-05-03T09:01:33Z</time></trkpt><trkpt lat="44.317795771950884" lon="11.428382074119401"><ele>526.0</ele><time>2026-05-03T09:01:34Z</time></trkpt><trkpt lat="44.317675807718224" lon="11.428324273789352"><ele>526.0</ele><time>2026-05-03T09:01:36Z</time></trkpt><trkpt lat="44.317600003595736" lon="11.428265353077414"><ele>526.0</ele><time>2026-05-03T09:01:37Z</time></trkpt><trkpt lat="44.317501556108894" lon="11.428199910441666"><ele>526.0</ele><time>2026-05-03T09:01:38Z</time></trkpt><trkpt lat="44.3173890608403" lon="11.428121515764401"><ele>526.0</ele><time>2026-05-03T09:01:39Z</time></trkpt><trkpt lat="44.317272160672914" lon="11.428052712386593"><ele>526.0</ele><time>2026-05-03T09:01:40Z</time></trkpt><trkpt lat="44.31716568883241" lon="11.427969172354357"><ele>526.0</ele><time>2026-05-03T09:01:41Z</time></trkpt><trkpt lat="44.317086185552945" lon="11.427891446639302"><ele>526.0</ele><time>2026-05-03T09:01:42Z</time></trkpt><trkpt lat="44.317002724030495" lon="11.427773830415093"><ele>526.0</ele><time>2026-05-03T09:01:43Z</time></trkpt><trkpt lat="44.31693384178638" lon="11.42764396307798"><ele>526.0</ele><time>2026-05-03T09:01:44Z</time></trkpt><trkpt lat="44.31684706437755" lon="11.427521608826801"><ele>526.0</ele><time>2026-05-03T09:01:45Z</time></trkpt><trkpt lat="44.31674070200978" lon="11.42741666680839"><ele>526.0</ele><time>2026-05-03T09:01:46Z</time></trkpt><trkpt lat="44.316628787521964" lon="11.427323160696663"><ele>526.0</ele><time>2026-05-03T09:01:47Z</time></trkpt><trkpt lat="44.316513039403546" lon="11.427216040612503"><ele>526.0</ele><time>2026-05-03T09:01:48Z</time></trkpt><trkpt lat="44.316393987880545" lon="11.427099860644214"><ele>526.5</ele><time>2026-05-03T09:01:49Z</time></trkpt><trkpt lat="44.31627253089192" lon="11.426972499540804"><ele>527.0</ele><time>2026-05-03T09:01:50Z</time></trkpt><trkpt lat="44.31616334169515" lon="11.426857325167049"><ele>527.5</ele><time>2026-05-03T09:01:51Z</time></trkpt><trkpt lat="44.31604361125545" lon="11.426747042459688"><ele>528.0</ele><time>2026-05-03T09:01:52Z</time></trkpt><trkpt lat="44.31594582620695" lon="11.426653426870194"><ele>528.0</ele><time>2026-05-03T09:01:53Z</time></trkpt><trkpt lat="44.31582250344905" lon="11.426584655481953"><ele>528.0</ele><time>2026-05-03T09:01:54Z</time></trkpt><trkpt lat="44.31571094293701" lon="11.426504901844908"><ele>528.0</ele><time>2026-05-03T09:01:55Z</time></trkpt><trkpt lat="44.315625243582424" lon="11.426430203356723"><ele>528.0</ele><time>2026-05-03T09:01:56Z</time></trkpt><trkpt lat="44.315554091930444" lon="11.426352992855193"><ele>528.0</ele><time>2026-05-03T09:01:57Z</time></trkpt><trkpt lat="44.31549419677696" lon="11.426311996234821"><ele>530.6</ele><time>2026-05-03T09:01:58Z</time></trkpt><trkpt lat="44.315416209063386" lon="11.426279746899265"><ele>533.1999999999999</ele><time>2026-05-03T09:01:59Z</time></trkpt><trkpt lat="44.31533636515719" lon="11.426261198687929"><ele>535.8</ele><time>2026-05-03T09:02:00Z</time></trkpt><trkpt lat="44.31521265597108" lon="11.426250717049484"><ele>538.4</ele><time>2026-05-03T09:02:01Z</time></trkpt><trkpt lat="44.31508878106413" lon="11.426280610830311"><ele>541.0</ele><time>2026-05-03T09:02:02Z</time></trkpt><trkpt lat="44.314979978249184" lon="11.426300386268519"><ele>541.0</ele><time>2026-05-03T09:02:03Z</time></trkpt><trkpt lat="44.31487632123465" lon="11.426294744864503"><ele>541.0</ele><time>2026-05-03T09:02:04Z</time></trkpt><trkpt lat="44.31478124503202" lon="11.426261587585296"><ele>541.0</ele><time>2026-05-03T09:02:05Z</time></trkpt><trkpt lat="44.31470316164722" lon="11.426259217700874"><ele>541.0</ele><time>2026-05-03T09:02:06Z</time></trkpt><trkpt lat="44.31462254279271" lon="11.42628967164642"><ele>541.0</ele><time>2026-05-03T09:02:07Z</time></trkpt><trkpt lat="44.3145591251089" lon="11.426332365093423"><ele>541.0</ele><time>2026-05-03T09:02:08Z</time></trkpt><trkpt lat="44.31447182365852" lon="11.426414962261084"><ele>537.8</ele><time>2026-05-03T09:02:09Z</time></trkpt><trkpt lat="44.31439999714458" lon="11.426496115936683"><ele>534.6</ele><time>2026-05-03T09:02:10Z</time></trkpt><trkpt lat="44.314332210145125" lon="11.426553891079363"><ele>531.4</ele><time>2026-05-03T09:02:11Z</time></trkpt><trkpt lat="44.31426076969769" lon="11.426618806954824"><ele>528.2</ele><time>2026-05-03T09:02:12Z</time></trkpt><trkpt lat="44.31416893582258" lon="11.426648222636762"><ele>525.0</ele><time>2026-05-03T09:02:13Z</time></trkpt><trkpt lat="44.31403400641452" lon="11.426650659813347"><ele>525.0</ele><time>2026-05-03T09:02:14Z</time></trkpt><trkpt lat="44.31392075135072" lon="11.426674764979253"><ele>525.0</ele><time>2026-05-03T09:02:15Z</time></trkpt><trkpt lat="44.31382229774609" lon="11.426743188734118"><ele>525.0</ele><time>2026-05-03T09:02:16Z</time></trkpt><trkpt lat="44.31373906905496" lon="11.42681141478673"><ele>525.0</ele><time>2026-05-03T09:02:17Z</time></trkpt><trkpt lat="44.31363828518506" lon="11.426844129664712"><ele>525.0</ele><time>2026-05-03T09:02:18Z</time></trkpt><trkpt lat="44.313521646779165" lon="11.426862427495509"><ele>526.4</ele><time>2026-05-03T09:02:19Z</time></trkpt><trkpt lat="44.31342165120903" lon="11.426915560068904"><ele>527.8</ele><time>2026-05-03T09:02:20Z</time></trkpt><trkpt lat="44.31333142572998" lon="11.42698045401612"><ele>529.2</ele><time>2026-05-03T09:02:21Z</time></trkpt><trkpt lat="44.31322750388308" lon="11.42701628048531"><ele>530.6</ele><time>2026-05-03T09:02:22Z</time></trkpt><trkpt lat="44.31310603237885" lon="11.427031779988072"><ele>532.0</ele><time>2026-05-03T09:02:23Z</time></trkpt><trkpt lat="44.31298235139266" lon="11.4270295973234"><ele>533.0</ele><time>2026-05-03T09:02:24Z</time></trkpt><trkpt lat="44.31286567232878" lon="11.42703085222784"><ele>534.0</ele><time>2026-05-03T09:02:25Z</time></trkpt><trkpt lat="44.31274724521561" lon="11.427072342149023"><ele>535.0</ele><time>2026-05-03T09:02:26Z</time></trkpt><trkpt lat="44.31264067479712" lon="11.427131718343976"><ele>536.0</ele><time>2026-05-03T09:02:27Z</time></trkpt><trkpt lat="44.312553759889575" lon="11.427198399835538"><ele>531.6666666666666</ele><time>2026-05-03T09:02:28Z</time></trkpt><trkpt lat="44.3124885538137" lon="11.427290919208376"><ele>527.3333333333333</ele><time>2026-05-03T09:02:29Z</time></trkpt><trkpt lat="44.31244756923121" lon="11.427372336990233"><ele>523.0</ele><time>2026-05-03T09:02:30Z</time></trkpt><trkpt lat="44.31241199551104" lon="11.427465992890601"><ele>518.6666666666666</ele><time>2026-05-03T09:02:31Z</time></trkpt><trkpt lat="44.312382978699674" lon="11.427569621284263"><ele>514.3333333333334</ele><time>2026-05-03T09:02:32Z</time></trkpt><trkpt lat="44.31230497634669" lon="11.42770392176374"><ele>510.0</ele><time>2026-05-03T09:02:34Z</time></trkpt><trkpt lat="44.31224082632273" lon="11.42773109482543"><ele>509.2</ele><time>2026-05-03T09:02:35Z</time></trkpt><trkpt lat="44.31216603049235" lon="11.427731575485218"><ele>508.4</ele><time>2026-05-03T09:02:36Z</time></trkpt><trkpt lat="44.31207631190872" lon="11.427705622830041"><ele>507.6</ele><time>2026-05-03T09:02:37Z</time></trkpt><trkpt lat="44.311977527664524" lon="11.427668922188317"><ele>506.8</ele><time>2026-05-03T09:02:38Z</time></trkpt><trkpt lat="44.311874031024956" lon="11.427632941553481"><ele>506.0</ele><time>2026-05-03T09:02:39Z</time></trkpt><trkpt lat="44.311768823783005" lon="11.42759498720271"><ele>506.0</ele><time>2026-05-03T09:02:40Z</time></trkpt><trkpt lat="44.3116493033926" lon="11.427543295510956"><ele>506.0</ele><time>2026-05-03T09:02:41Z</time></trkpt><trkpt lat="44.311507679165885" lon="11.427462496100741"><ele>506.0</ele><time>2026-05-03T09:02:42Z</time></trkpt><trkpt lat="44.31137847685986" lon="11.42738986798286"><ele>506.0</ele><time>2026-05-03T09:02:43Z</time></trkpt><trkpt lat="44.311284887288096" lon="11.42731629414089"><ele>504.66666666666663</ele><time>2026-05-03T09:02:44Z</time></trkpt><trkpt lat="44.31120966027484" lon="11.427254624978026"><ele>503.3333333333333</ele><time>2026-05-03T09:02:45Z</time></trkpt><trkpt lat="44.31114198099116" lon="11.427186289438712"><ele>502.0</ele><time>2026-05-03T09:02:46Z</time></trkpt><trkpt lat="44.311088204115755" lon="11.427112074632733"><ele>500.66666666666663</ele><time>2026-05-03T09:02:47Z</time></trkpt><trkpt lat="44.31105052335381" lon="11.427030915991578"><ele>499.3333333333333</ele><time>2026-05-03T09:02:48Z</time></trkpt><trkpt lat="44.31102048476596" lon="11.426902314681103"><ele>498.0</ele><time>2026-05-03T09:02:49Z</time></trkpt><trkpt lat="44.310997725012896" lon="11.42672271533036"><ele>498.0</ele><time>2026-05-03T09:02:50Z</time></trkpt><trkpt lat="44.31098949942854" lon="11.42651598681485"><ele>498.0</ele><time>2026-05-03T09:02:51Z</time></trkpt><trkpt lat="44.31099238585513" lon="11.426323069620919"><ele>498.0</ele><time>2026-05-03T09:02:52Z</time></trkpt><trkpt lat="44.31098871122734" lon="11.426172263561211"><ele>498.0</ele><time>2026-05-03T09:02:53Z</time></trkpt><trkpt lat="44.310959060966894" lon="11.426015597393013"><ele>501.75</ele><time>2026-05-03T09:02:54Z</time></trkpt><trkpt lat="44.31091298594255" lon="11.425899084572087"><ele>505.5</ele><time>2026-05-03T09:02:55Z</time></trkpt><trkpt lat="44.310847904411" lon="11.425779529973884"><ele>509.25</ele><time>2026-05-03T09:02:56Z</time></trkpt><trkpt lat="44.31074604239432" lon="11.425647280893028"><ele>513.0</ele><time>2026-05-03T09:02:57Z</time></trkpt><trkpt lat="44.31064939642901" lon="11.425511513583452"><ele>513.6666666666666</ele><time>2026-05-03T09:02:58Z</time></trkpt><trkpt lat="44.31056128089594" lon="11.425346294002761"><ele>514.3333333333333</ele><time>2026-05-03T09:02:59Z</time></trkpt><trkpt lat="44.31046452006781" lon="11.425179922178327"><ele>515.0</ele><time>2026-05-03T09:03:00Z</time></trkpt><trkpt lat="44.3103265314399" lon="11.425000866645368"><ele>515.0</ele><time>2026-05-03T09:03:01Z</time></trkpt><trkpt lat="44.31019461350463" lon="11.424836602143683"><ele>515.0</ele><time>2026-05-03T09:03:02Z</time></trkpt><trkpt lat="44.31008130693127" lon="11.424705583815317"><ele>515.0</ele><time>2026-05-03T09:03:03Z</time></trkpt><trkpt lat="44.309969185826766" lon="11.424590959417392"><ele>515.3333333333333</ele><time>2026-05-03T09:03:04Z</time></trkpt><trkpt lat="44.30987922809031" lon="11.424512254901433"><ele>515.6666666666666</ele><time>2026-05-03T09:03:05Z</time></trkpt><trkpt lat="44.309799219249044" lon="11.424467327550678"><ele>516.0</ele><time>2026-05-03T09:03:06Z</time></trkpt><trkpt lat="44.30974001931799" lon="11.424425098786864"><ele>516.3333333333334</ele><time>2026-05-03T09:03:07Z</time></trkpt><trkpt lat="44.30963464741691" lon="11.42446500992703"><ele>516.6666666666667</ele><time>2026-05-03T09:03:09Z</time></trkpt><trkpt lat="44.309570438961636" lon="11.424527180516739"><ele>517.0</ele><time>2026-05-03T09:03:10Z</time></trkpt><trkpt lat="44.30950695033792" lon="11.42463511594703"><ele>514.25</ele><time>2026-05-03T09:03:11Z</time></trkpt><trkpt lat="44.30944504257746" lon="11.424769686338431"><ele>511.5</ele><time>2026-05-03T09:03:12Z</time></trkpt><trkpt lat="44.30935488868248" lon="11.424941764403561"><ele>508.75</ele><time>2026-05-03T09:03:13Z</time></trkpt><trkpt lat="44.30925883536104" lon="11.425112023033956"><ele>506.0</ele><time>2026-05-03T09:03:14Z</time></trkpt><trkpt lat="44.309145763364405" lon="11.425281728297113"><ele>506.0</ele><time>2026-05-03T09:03:15Z</time></trkpt><trkpt lat="44.3090475499626" lon="11.425456146865592"><ele>506.0</ele><time>2026-05-03T09:03:16Z</time></trkpt><trkpt lat="44.308951686830696" lon="11.425615228913392"><ele>506.0</ele><time>2026-05-03T09:03:17Z</time></trkpt><trkpt lat="44.30886370794999" lon="11.425763145421806"><ele>506.0</ele><time>2026-05-03T09:03:18Z</time></trkpt><trkpt lat="44.308775993331224" lon="11.425889610655586"><ele>503.8</ele><time>2026-05-03T09:03:19Z</time></trkpt><trkpt lat="44.308715346679236" lon="11.426015851895047"><ele>501.6</ele><time>2026-05-03T09:03:20Z</time></trkpt><trkpt lat="44.30864610662591" lon="11.426140291655273"><ele>499.4</ele><time>2026-05-03T09:03:21Z</time></trkpt><trkpt lat="44.308577282941485" lon="11.426250189438296"><ele>497.2</ele><time>2026-05-03T09:03:22Z</time></trkpt><trkpt lat="44.30849157593909" lon="11.42635559935882"><ele>495.0</ele><time>2026-05-03T09:03:23Z</time></trkpt><trkpt lat="44.308380692347065" lon="11.42645893178122"><ele>495.0</ele><time>2026-05-03T09:03:24Z</time></trkpt><trkpt lat="44.30823057720449" lon="11.426561386513162"><ele>495.0</ele><time>2026-05-03T09:03:25Z</time></trkpt><trkpt lat="44.30806748080245" lon="11.426694432413964"><ele>495.0</ele><time>2026-05-03T09:03:26Z</time></trkpt><trkpt lat="44.307910956285774" lon="11.426823587917438"><ele>494.25</ele><time>2026-05-03T09:03:27Z</time></trkpt><trkpt lat="44.30776725446194" lon="11.42693685706977"><ele>493.5</ele><time>2026-05-03T09:03:28Z</time></trkpt><trkpt lat="44.30762792043777" lon="11.427019733739263"><ele>492.75</ele><time>2026-05-03T09:03:29Z</time></trkpt><trkpt lat="44.30750683371343" lon="11.42709454720947"><ele>492.0</ele><time>2026-05-03T09:03:30Z</time></trkpt><trkpt lat="44.30739260827767" lon="11.42714627549758"><ele>491.5</ele><time>2026-05-03T09:03:31Z</time></trkpt><trkpt lat="44.307278481410215" lon="11.42716461870828"><ele>491.0</ele><time>2026-05-03T09:03:32Z</time></trkpt><trkpt lat="44.30715565919065" lon="11.427146136863827"><ele>490.5</ele><time>2026-05-03T09:03:33Z</time></trkpt><trkpt lat="44.307019742639135" lon="11.427102038156749"><ele>490.0</ele><time>2026-05-03T09:03:34Z</time></trkpt><trkpt lat="44.3068917956221" lon="11.427072167848728"><ele>492.0</ele><time>2026-05-03T09:03:35Z</time></trkpt><trkpt lat="44.306754710193985" lon="11.42708458580869"><ele>494.0</ele><time>2026-05-03T09:03:36Z</time></trkpt><trkpt lat="44.30658038334562" lon="11.427126023851722"><ele>496.0</ele><time>2026-05-03T09:03:37Z</time></trkpt><trkpt lat="44.3064251420188" lon="11.427166446223474"><ele>497.6</ele><time>2026-05-03T09:03:38Z</time></trkpt><trkpt lat="44.306323349966576" lon="11.427181934381087"><ele>499.20000000000005</ele><time>2026-05-03T09:03:39Z</time></trkpt><trkpt lat="44.30623880236732" lon="11.427175980275917"><ele>500.79999999999995</ele><time>2026-05-03T09:03:40Z</time></trkpt><trkpt lat="44.306140156289715" lon="11.427129581661463"><ele>502.4</ele><time>2026-05-03T09:03:41Z</time></trkpt><trkpt lat="44.306051245726934" lon="11.427057757914424"><ele>504.0</ele><time>2026-05-03T09:03:42Z</time></trkpt><trkpt lat="44.30597359411728" lon="11.426944879130573"><ele>504.25</ele><time>2026-05-03T09:03:43Z</time></trkpt><trkpt lat="44.30588504123319" lon="11.426820094521931"><ele>504.5</ele><time>2026-05-03T09:03:44Z</time></trkpt><trkpt lat="44.305784395175486" lon="11.426733364128209"><ele>504.75</ele><time>2026-05-03T09:03:45Z</time></trkpt><trkpt lat="44.30568567098428" lon="11.426682529314425"><ele>505.0</ele><time>2026-05-03T09:03:46Z</time></trkpt><trkpt lat="44.30558029231167" lon="11.42665543627645"><ele>507.25</ele><time>2026-05-03T09:03:47Z</time></trkpt><trkpt lat="44.30546705750617" lon="11.426643421858545"><ele>509.5</ele><time>2026-05-03T09:03:48Z</time></trkpt><trkpt lat="44.30534900401045" lon="11.426639332477693"><ele>511.75</ele><time>2026-05-03T09:03:49Z</time></trkpt><trkpt lat="44.30523235124025" lon="11.426628165161842"><ele>514.0</ele><time>2026-05-03T09:03:50Z</time></trkpt><trkpt lat="44.30512582608085" lon="11.426610261626584"><ele>514.0</ele><time>2026-05-03T09:03:51Z</time></trkpt><trkpt lat="44.30502199871619" lon="11.426590429039047"><ele>514.0</ele><time>2026-05-03T09:03:52Z</time></trkpt><trkpt lat="44.30492309622362" lon="11.426566933204205"><ele>514.0</ele><time>2026-05-03T09:03:53Z</time></trkpt><trkpt lat="44.30482460026106" lon="11.426524601911648"><ele>514.0</ele><time>2026-05-03T09:03:54Z</time></trkpt><trkpt lat="44.3047400364789" lon="11.426456942723112"><ele>514.0</ele><time>2026-05-03T09:03:55Z</time></trkpt><trkpt lat="44.304663029514444" lon="11.426360636547647"><ele>514.0</ele><time>2026-05-03T09:03:56Z</time></trkpt><trkpt lat="44.304593848438635" lon="11.42626114861173"><ele>514.0</ele><time>2026-05-03T09:03:57Z</time></trkpt><trkpt lat="44.304517607986156" lon="11.42617312577623"><ele>514.0</ele><time>2026-05-03T09:03:58Z</time></trkpt><trkpt lat="44.3044372409659" lon="11.426117519901482"><ele>514.0</ele><time>2026-05-03T09:03:59Z</time></trkpt><trkpt lat="44.3043515794298" lon="11.426108715170942"><ele>514.0</ele><time>2026-05-03T09:04:00Z</time></trkpt><trkpt lat="44.30425517292647" lon="11.426120458692933"><ele>514.0</ele><time>2026-05-03T09:04:01Z</time></trkpt><trkpt lat="44.3041433547538" lon="11.426108036153353"><ele>514.0</ele><time>2026-05-03T09:04:02Z</time></trkpt><trkpt lat="44.304046635463585" lon="11.426058761545955"><ele>514.0</ele><time>2026-05-03T09:04:03Z</time></trkpt><trkpt lat="44.30395887743673" lon="11.42602040095126"><ele>514.0</ele><time>2026-05-03T09:04:04Z</time></trkpt><trkpt lat="44.303855664819" lon="11.42598974948513"><ele>514.0</ele><time>2026-05-03T09:04:05Z</time></trkpt><trkpt lat="44.30375034147829" lon="11.425989847590635"><ele>512.3333333333334</ele><time>2026-05-03T09:04:06Z</time></trkpt><trkpt lat="44.303644940501535" lon="11.425997835174288"><ele>510.6666666666667</ele><time>2026-05-03T09:04:07Z</time></trkpt><trkpt lat="44.303549466976655" lon="11.426022102247357"><ele>509.0</ele><time>2026-05-03T09:04:08Z</time></trkpt><trkpt lat="44.30346628652393" lon="11.426044423150591"><ele>507.33333333333337</ele><time>2026-05-03T09:04:09Z</time></trkpt><trkpt lat="44.30339421816169" lon="11.426064164162632"><ele>505.6666666666667</ele><time>2026-05-03T09:04:10Z</time></trkpt><trkpt lat="44.303322380178074" lon="11.42608806704956"><ele>504.0</ele><time>2026-05-03T09:04:11Z</time></trkpt><trkpt lat="44.30319872406594" lon="11.426057038665402"><ele>504.0</ele><time>2026-05-03T09:04:13Z</time></trkpt><trkpt lat="44.30313827402407" lon="11.425989389316374"><ele>504.0</ele><time>2026-05-03T09:04:14Z</time></trkpt><trkpt lat="44.30307550761576" lon="11.425888787745443"><ele>504.0</ele><time>2026-05-03T09:04:15Z</time></trkpt><trkpt lat="44.303022092546705" lon="11.425788787796122"><ele>504.0</ele><time>2026-05-03T09:04:16Z</time></trkpt><trkpt lat="44.30294526622195" lon="11.425707113831375"><ele>504.0</ele><time>2026-05-03T09:04:17Z</time></trkpt><trkpt lat="44.30284829170566" lon="11.425636220069409"><ele>501.2</ele><time>2026-05-03T09:04:18Z</time></trkpt><trkpt lat="44.30276214020972" lon="11.425571853857232"><ele>498.4</ele><time>2026-05-03T09:04:19Z</time></trkpt><trkpt lat="44.30268450800556" lon="11.425498601274716"><ele>495.6</ele><time>2026-05-03T09:04:20Z</time></trkpt><trkpt lat="44.30259698595032" lon="11.42544920736582"><ele>492.8</ele><time>2026-05-03T09:04:21Z</time></trkpt><trkpt lat="44.30248981830798" lon="11.425385989136881"><ele>490.0</ele><time>2026-05-03T09:04:22Z</time></trkpt><trkpt lat="44.302378260522275" lon="11.425330677332845"><ele>490.0</ele><time>2026-05-03T09:04:23Z</time></trkpt><trkpt lat="44.30225890759776" lon="11.425305730297918"><ele>490.0</ele><time>2026-05-03T09:04:24Z</time></trkpt><trkpt lat="44.30212424103233" lon="11.42526946804654"><ele>490.0</ele><time>2026-05-03T09:04:25Z</time></trkpt><trkpt lat="44.30198186551764" lon="11.425223901085058"><ele>490.0</ele><time>2026-05-03T09:04:26Z</time></trkpt><trkpt lat="44.30184848027612" lon="11.425192255268184"><ele>489.0</ele><time>2026-05-03T09:04:27Z</time></trkpt><trkpt lat="44.30173729669589" lon="11.425168996735245"><ele>488.0</ele><time>2026-05-03T09:04:28Z</time></trkpt><trkpt lat="44.30164076879103" lon="11.425132158507195"><ele>487.0</ele><time>2026-05-03T09:04:29Z</time></trkpt><trkpt lat="44.301544375086124" lon="11.425101534159952"><ele>486.0</ele><time>2026-05-03T09:04:30Z</time></trkpt><trkpt lat="44.30144825018788" lon="11.425097963121223"><ele>485.0</ele><time>2026-05-03T09:04:31Z</time></trkpt><trkpt lat="44.301357963284616" lon="11.425127716466022"><ele>482.3333333333333</ele><time>2026-05-03T09:04:32Z</time></trkpt><trkpt lat="44.30126191422932" lon="11.425180980273053"><ele>479.66666666666663</ele><time>2026-05-03T09:04:33Z</time></trkpt><trkpt lat="44.3011677735159" lon="11.425242483370207"><ele>477.0</ele><time>2026-05-03T09:04:34Z</time></trkpt><trkpt lat="44.30110314163236" lon="11.42526887028144"><ele>474.33333333333337</ele><time>2026-05-03T09:04:35Z</time></trkpt><trkpt lat="44.30103961985477" lon="11.425274790249016"><ele>471.6666666666667</ele><time>2026-05-03T09:04:36Z</time></trkpt><trkpt lat="44.300955564088774" lon="11.425256049060513"><ele>469.0</ele><time>2026-05-03T09:04:37Z</time></trkpt><trkpt lat="44.300839549256175" lon="11.425230252249921"><ele>469.0</ele><time>2026-05-03T09:04:38Z</time></trkpt><trkpt lat="44.30069744612121" lon="11.42520647061937"><ele>469.0</ele><time>2026-05-03T09:04:39Z</time></trkpt><trkpt lat="44.3005388510179" lon="11.425178118363974"><ele>469.0</ele><time>2026-05-03T09:04:40Z</time></trkpt><trkpt lat="44.30037837534995" lon="11.42513847493341"><ele>464.6666666666667</ele><time>2026-05-03T09:04:41Z</time></trkpt><trkpt lat="44.30020638252733" lon="11.425077858853783"><ele>460.33333333333337</ele><time>2026-05-03T09:04:42Z</time></trkpt><trkpt lat="44.30002764722292" lon="11.424993148945788"><ele>456.0</ele><time>2026-05-03T09:04:43Z</time></trkpt><trkpt lat="44.29984544455685" lon="11.42490185767047"><ele>458.66666666666663</ele><time>2026-05-03T09:04:44Z</time></trkpt><trkpt lat="44.299680907423834" lon="11.42484425312323"><ele>461.3333333333333</ele><time>2026-05-03T09:04:45Z</time></trkpt><trkpt lat="44.2995280772649" lon="11.424801328206362"><ele>464.0</ele><time>2026-05-03T09:04:46Z</time></trkpt><trkpt lat="44.299384295050196" lon="11.42477763115658"><ele>464.0</ele><time>2026-05-03T09:04:47Z</time></trkpt><trkpt lat="44.29923398858699" lon="11.424768062298636"><ele>464.0</ele><time>2026-05-03T09:04:48Z</time></trkpt><trkpt lat="44.299094698522794" lon="11.424777051210903"><ele>464.0</ele><time>2026-05-03T09:04:49Z</time></trkpt><trkpt lat="44.298962947906695" lon="11.424798685017668"><ele>464.0</ele><time>2026-05-03T09:04:50Z</time></trkpt><trkpt lat="44.29883066490448" lon="11.424803128558958"><ele>464.0</ele><time>2026-05-03T09:04:51Z</time></trkpt><trkpt lat="44.29867810281282" lon="11.424766685007814"><ele>464.0</ele><time>2026-05-03T09:04:52Z</time></trkpt><trkpt lat="44.298505564830464" lon="11.424726154337428"><ele>464.0</ele><time>2026-05-03T09:04:53Z</time></trkpt><trkpt lat="44.29834461062821" lon="11.424701690946563"><ele>464.0</ele><time>2026-05-03T09:04:54Z</time></trkpt><trkpt lat="44.29820153493323" lon="11.42470029715928"><ele>464.0</ele><time>2026-05-03T09:04:55Z</time></trkpt><trkpt lat="44.29807382972056" lon="11.424712030114723"><ele>464.0</ele><time>2026-05-03T09:04:56Z</time></trkpt><trkpt lat="44.297966592546885" lon="11.424713937771994"><ele>464.0</ele><time>2026-05-03T09:04:57Z</time></trkpt><trkpt lat="44.297857402183276" lon="11.424742719144215"><ele>466.0</ele><time>2026-05-03T09:04:58Z</time></trkpt><trkpt lat="44.29775066208493" lon="11.424830712610037"><ele>468.0</ele><time>2026-05-03T09:04:59Z</time></trkpt><trkpt lat="44.297662313846814" lon="11.42491960996868"><ele>470.0</ele><time>2026-05-03T09:05:00Z</time></trkpt><trkpt lat="44.29759122908821" lon="11.424993331524892"><ele>472.0</ele><time>2026-05-03T09:05:01Z</time></trkpt><trkpt lat="44.29751679519412" lon="11.425022393981283"><ele>474.0</ele><time>2026-05-03T09:05:02Z</time></trkpt><trkpt lat="44.2974301657551" lon="11.425026034372834"><ele>474.0</ele><time>2026-05-03T09:05:03Z</time></trkpt><trkpt lat="44.29733566817709" lon="11.42499368691192"><ele>474.0</ele><time>2026-05-03T09:05:04Z</time></trkpt><trkpt lat="44.29724820172864" lon="11.424940248827689"><ele>474.0</ele><time>2026-05-03T09:05:05Z</time></trkpt><trkpt lat="44.297186420793956" lon="11.42491690108047"><ele>474.0</ele><time>2026-05-03T09:05:06Z</time></trkpt><trkpt lat="44.29712871865026" lon="11.424968738899922"><ele>474.0</ele><time>2026-05-03T09:05:07Z</time></trkpt><trkpt lat="44.29708243654944" lon="11.425054816987785"><ele>474.0</ele><time>2026-05-03T09:05:08Z</time></trkpt><trkpt lat="44.29706697144385" lon="11.425178421767564"><ele>473.0</ele><time>2026-05-03T09:05:09Z</time></trkpt><trkpt lat="44.29707898361536" lon="11.42532395052953"><ele>472.0</ele><time>2026-05-03T09:05:10Z</time></trkpt><trkpt lat="44.29706877323148" lon="11.425452231877683"><ele>471.0</ele><time>2026-05-03T09:05:11Z</time></trkpt><trkpt lat="44.29703367538999" lon="11.425563761743806"><ele>470.0</ele><time>2026-05-03T09:05:12Z</time></trkpt><trkpt lat="44.29696901598623" lon="11.425675927098835"><ele>469.0</ele><time>2026-05-03T09:05:13Z</time></trkpt><trkpt lat="44.296901265433284" lon="11.425762298528369"><ele>471.2</ele><time>2026-05-03T09:05:14Z</time></trkpt><trkpt lat="44.296830582264235" lon="11.42581182839768"><ele>473.4</ele><time>2026-05-03T09:05:15Z</time></trkpt><trkpt lat="44.29675530544758" lon="11.425833806824004"><ele>475.6</ele><time>2026-05-03T09:05:16Z</time></trkpt><trkpt lat="44.29665622419515" lon="11.42585338790421"><ele>477.8</ele><time>2026-05-03T09:05:17Z</time></trkpt><trkpt lat="44.29655542833191" lon="11.425878432045142"><ele>480.0</ele><time>2026-05-03T09:05:18Z</time></trkpt><trkpt lat="44.296459345209236" lon="11.425905612905524"><ele>481.0</ele><time>2026-05-03T09:05:19Z</time></trkpt><trkpt lat="44.29635854701848" lon="11.42593414461496"><ele>482.0</ele><time>2026-05-03T09:05:20Z</time></trkpt><trkpt lat="44.29625899958179" lon="11.425952009213846"><ele>483.0</ele><time>2026-05-03T09:05:21Z</time></trkpt><trkpt lat="44.29615756520872" lon="11.425961497786172"><ele>484.0</ele><time>2026-05-03T09:05:22Z</time></trkpt><trkpt lat="44.29605903259001" lon="11.425970625295522"><ele>485.0</ele><time>2026-05-03T09:05:23Z</time></trkpt><trkpt lat="44.295955174500754" lon="11.425981989283233"><ele>485.0</ele><time>2026-05-03T09:05:24Z</time></trkpt><trkpt lat="44.29584689075885" lon="11.426003173468967"><ele>485.0</ele><time>2026-05-03T09:05:25Z</time></trkpt><trkpt lat="44.29571486081792" lon="11.426039992390699"><ele>485.0</ele><time>2026-05-03T09:05:26Z</time></trkpt><trkpt lat="44.29557533377991" lon="11.426089368261367"><ele>485.0</ele><time>2026-05-03T09:05:27Z</time></trkpt><trkpt lat="44.295459761931795" lon="11.426134248203565"><ele>487.0</ele><time>2026-05-03T09:05:28Z</time></trkpt><trkpt lat="44.29536512342643" lon="11.426176823094922"><ele>489.0</ele><time>2026-05-03T09:05:29Z</time></trkpt><trkpt lat="44.295260516624126" lon="11.42619264146724"><ele>491.0</ele><time>2026-05-03T09:05:30Z</time></trkpt><trkpt lat="44.29512088682354" lon="11.426180324740523"><ele>493.0</ele><time>2026-05-03T09:05:31Z</time></trkpt><trkpt lat="44.29499072099634" lon="11.426176838322071"><ele>493.0</ele><time>2026-05-03T09:05:32Z</time></trkpt><trkpt lat="44.29485385758271" lon="11.426207479853938"><ele>492.99999999999994</ele><time>2026-05-03T09:05:33Z</time></trkpt><trkpt lat="44.29473525582375" lon="11.426261633949327"><ele>492.99999999999994</ele><time>2026-05-03T09:05:34Z</time></trkpt><trkpt lat="44.29464249114113" lon="11.426297292754947"><ele>493.0</ele><time>2026-05-03T09:05:35Z</time></trkpt><trkpt lat="44.294558468313475" lon="11.426289912263615"><ele>493.0</ele><time>2026-05-03T09:05:36Z</time></trkpt><trkpt lat="44.29449065310804" lon="11.426269714141402"><ele>494.75</ele><time>2026-05-03T09:05:37Z</time></trkpt><trkpt lat="44.294412801472305" lon="11.426418748893472"><ele>496.5</ele><time>2026-05-03T09:05:39Z</time></trkpt><trkpt lat="44.29437856395015" lon="11.426582661672946"><ele>498.25</ele><time>2026-05-03T09:05:40Z</time></trkpt><trkpt lat="44.294332959421276" lon="11.42675493827376"><ele>500.0</ele><time>2026-05-03T09:05:41Z</time></trkpt><trkpt lat="44.29428118035855" lon="11.426896180387788"><ele>500.0</ele><time>2026-05-03T09:05:42Z</time></trkpt><trkpt lat="44.294234574278285" lon="11.427067892306546"><ele>500.0</ele><time>2026-05-03T09:05:43Z</time></trkpt><trkpt lat="44.29420431621368" lon="11.427220753768243"><ele>500.0</ele><time>2026-05-03T09:05:44Z</time></trkpt><trkpt lat="44.294181146390706" lon="11.427331806535122"><ele>500.0</ele><time>2026-05-03T09:05:45Z</time></trkpt><trkpt lat="44.29414498973187" lon="11.427423546935783"><ele>500.0</ele><time>2026-05-03T09:05:46Z</time></trkpt><trkpt lat="44.294080200011635" lon="11.427487038682552"><ele>499.5</ele><time>2026-05-03T09:05:47Z</time></trkpt><trkpt lat="44.29400005959715" lon="11.42754717362805"><ele>499.0</ele><time>2026-05-03T09:05:48Z</time></trkpt><trkpt lat="44.2939030055966" lon="11.427627940744044"><ele>498.5</ele><time>2026-05-03T09:05:49Z</time></trkpt><trkpt lat="44.29378218514025" lon="11.427722349058353"><ele>498.0</ele><time>2026-05-03T09:05:50Z</time></trkpt><trkpt lat="44.29365314444236" lon="11.427806258807104"><ele>497.0</ele><time>2026-05-03T09:05:51Z</time></trkpt><trkpt lat="44.293501368364" lon="11.42788859464579"><ele>496.0</ele><time>2026-05-03T09:05:52Z</time></trkpt><trkpt lat="44.293381073069085" lon="11.427972229503265"><ele>495.0</ele><time>2026-05-03T09:05:53Z</time></trkpt><trkpt lat="44.29327126655965" lon="11.428045126526627"><ele>494.0</ele><time>2026-05-03T09:05:54Z</time></trkpt><trkpt lat="44.29317234087406" lon="11.428106167076884"><ele>492.2</ele><time>2026-05-03T09:05:55Z</time></trkpt><trkpt lat="44.29307565779263" lon="11.428142470655885"><ele>490.4</ele><time>2026-05-03T09:05:56Z</time></trkpt><trkpt lat="44.2929868113792" lon="11.428169068537072"><ele>488.6</ele><time>2026-05-03T09:05:57Z</time></trkpt><trkpt lat="44.292895548417846" lon="11.428160202564086"><ele>486.8</ele><time>2026-05-03T09:05:58Z</time></trkpt><trkpt lat="44.2927885999219" lon="11.428142473031485"><ele>485.0</ele><time>2026-05-03T09:05:59Z</time></trkpt><trkpt lat="44.29266420994596" lon="11.428100985289062"><ele>485.0</ele><time>2026-05-03T09:06:00Z</time></trkpt><trkpt lat="44.29255606157052" lon="11.42807176748425"><ele>485.0</ele><time>2026-05-03T09:06:01Z</time></trkpt><trkpt lat="44.292457231550806" lon="11.428049937829838"><ele>485.0</ele><time>2026-05-03T09:06:02Z</time></trkpt><trkpt lat="44.29235745997079" lon="11.428006722427243"><ele>485.0</ele><time>2026-05-03T09:06:03Z</time></trkpt><trkpt lat="44.2922609789402" lon="11.42793714758594"><ele>485.0</ele><time>2026-05-03T09:06:04Z</time></trkpt><trkpt lat="44.29218718986301" lon="11.42785721185451"><ele>485.8</ele><time>2026-05-03T09:06:05Z</time></trkpt><trkpt lat="44.29213047957406" lon="11.427762266900496"><ele>486.6</ele><time>2026-05-03T09:06:06Z</time></trkpt><trkpt lat="44.29206601419957" lon="11.42761073539686"><ele>487.4</ele><time>2026-05-03T09:06:07Z</time></trkpt><trkpt lat="44.29200184927474" lon="11.42746806931298"><ele>488.2</ele><time>2026-05-03T09:06:08Z</time></trkpt><trkpt lat="44.29192359763149" lon="11.427383484915058"><ele>489.0</ele><time>2026-05-03T09:06:09Z</time></trkpt><trkpt lat="44.29182282859025" lon="11.427323511210995"><ele>489.0</ele><time>2026-05-03T09:06:10Z</time></trkpt><trkpt lat="44.291713245160324" lon="11.427255454351148"><ele>489.0</ele><time>2026-05-03T09:06:11Z</time></trkpt><trkpt lat="44.291618171705935" lon="11.427217540094748"><ele>489.0</ele><time>2026-05-03T09:06:12Z</time></trkpt><trkpt lat="44.29152406391016" lon="11.427215294261176"><ele>489.0</ele><time>2026-05-03T09:06:13Z</time></trkpt><trkpt lat="44.291418305847856" lon="11.427239321655462"><ele>489.0</ele><time>2026-05-03T09:06:14Z</time></trkpt><trkpt lat="44.29131113704623" lon="11.427287099118557"><ele>489.6</ele><time>2026-05-03T09:06:15Z</time></trkpt><trkpt lat="44.29122889444883" lon="11.427384958255214"><ele>490.2</ele><time>2026-05-03T09:06:16Z</time></trkpt><trkpt lat="44.291144330960165" lon="11.427494982113394"><ele>490.80000000000007</ele><time>2026-05-03T09:06:17Z</time></trkpt><trkpt lat="44.29107660620583" lon="11.427627839333518"><ele>491.40000000000003</ele><time>2026-05-03T09:06:18Z</time></trkpt><trkpt lat="44.29101309748356" lon="11.427730304650888"><ele>492.0</ele><time>2026-05-03T09:06:19Z</time></trkpt><trkpt lat="44.290949500868166" lon="11.427787001688717"><ele>492.0</ele><time>2026-05-03T09:06:20Z</time></trkpt><trkpt lat="44.29087005607672" lon="11.427787095498047"><ele>492.00000000000006</ele><time>2026-05-03T09:06:21Z</time></trkpt><trkpt lat="44.29077563949896" lon="11.427745958003898"><ele>492.00000000000006</ele><time>2026-05-03T09:06:22Z</time></trkpt><trkpt lat="44.290678195668065" lon="11.427678002847934"><ele>492.0</ele><time>2026-05-03T09:06:23Z</time></trkpt><trkpt lat="44.29059474745334" lon="11.427578160248391"><ele>492.0</ele><time>2026-05-03T09:06:24Z</time></trkpt><trkpt lat="44.29046389872154" lon="11.427517995393968"><ele>493.6</ele><time>2026-05-03T09:06:25Z</time></trkpt><trkpt lat="44.29038933758254" lon="11.427512982826169"><ele>495.20000000000005</ele><time>2026-05-03T09:06:26Z</time></trkpt><trkpt lat="44.290293085781734" lon="11.427569743960104"><ele>496.8</ele><time>2026-05-03T09:06:27Z</time></trkpt><trkpt lat="44.29021080932129" lon="11.427644954176683"><ele>498.4</ele><time>2026-05-03T09:06:28Z</time></trkpt><trkpt lat="44.290130779480705" lon="11.427751231668294"><ele>500.0</ele><time>2026-05-03T09:06:29Z</time></trkpt><trkpt lat="44.290073753099136" lon="11.427912405704495"><ele>498.8</ele><time>2026-05-03T09:06:30Z</time></trkpt><trkpt lat="44.2900076367424" lon="11.428005471614147"><ele>497.6</ele><time>2026-05-03T09:06:31Z</time></trkpt><trkpt lat="44.28994145248812" lon="11.428028950508747"><ele>496.4</ele><time>2026-05-03T09:06:32Z</time></trkpt><trkpt lat="44.289848669398" lon="11.428041008151581"><ele>495.2</ele><time>2026-05-03T09:06:33Z</time></trkpt><trkpt lat="44.28973345085017" lon="11.42804971657261"><ele>494.0</ele><time>2026-05-03T09:06:34Z</time></trkpt><trkpt lat="44.28963534863097" lon="11.42807662307026"><ele>494.0</ele><time>2026-05-03T09:06:35Z</time></trkpt><trkpt lat="44.28953083683872" lon="11.428120595311405"><ele>494.0</ele><time>2026-05-03T09:06:36Z</time></trkpt><trkpt lat="44.289427002072514" lon="11.428169816172012"><ele>494.0</ele><time>2026-05-03T09:06:37Z</time></trkpt><trkpt lat="44.28934895408906" lon="11.428192686152629"><ele>494.0</ele><time>2026-05-03T09:06:38Z</time></trkpt><trkpt lat="44.289270984339296" lon="11.428184070259144"><ele>494.0</ele><time>2026-05-03T09:06:39Z</time></trkpt><trkpt lat="44.28920395540896" lon="11.428104161404221"><ele>493.99999999999994</ele><time>2026-05-03T09:06:40Z</time></trkpt><trkpt lat="44.28913859633488" lon="11.428029762872546"><ele>494.0</ele><time>2026-05-03T09:06:41Z</time></trkpt><trkpt lat="44.28907361717969" lon="11.427962190373485"><ele>494.0</ele><time>2026-05-03T09:06:42Z</time></trkpt><trkpt lat="44.28899119197493" lon="11.427953846468725"><ele>494.0</ele><time>2026-05-03T09:06:43Z</time></trkpt><trkpt lat="44.28889430785351" lon="11.427952047164377"><ele>493.99999999999994</ele><time>2026-05-03T09:06:44Z</time></trkpt><trkpt lat="44.288831200957965" lon="11.427928198546843"><ele>494.0</ele><time>2026-05-03T09:06:45Z</time></trkpt><trkpt lat="44.28877360934964" lon="11.427773511281252"><ele>493.79999999999995</ele><time>2026-05-03T09:06:47Z</time></trkpt><trkpt lat="44.28875388356577" lon="11.427631957340926"><ele>493.59999999999997</ele><time>2026-05-03T09:06:48Z</time></trkpt><trkpt lat="44.288736143323725" lon="11.427477063416811"><ele>493.4</ele><time>2026-05-03T09:06:49Z</time></trkpt><trkpt lat="44.28870643921269" lon="11.427374174499088"><ele>493.2</ele><time>2026-05-03T09:06:50Z</time></trkpt><trkpt lat="44.28866032213081" lon="11.42726410205473"><ele>493.0</ele><time>2026-05-03T09:06:51Z</time></trkpt><trkpt lat="44.288595317353206" lon="11.427152886608694"><ele>495.75</ele><time>2026-05-03T09:06:52Z</time></trkpt><trkpt lat="44.288516089670225" lon="11.427053930762973"><ele>498.5</ele><time>2026-05-03T09:06:53Z</time></trkpt><trkpt lat="44.28841620603284" lon="11.42695389097789"><ele>501.25</ele><time>2026-05-03T09:06:54Z</time></trkpt><trkpt lat="44.28831854337766" lon="11.426847308468409"><ele>504.0</ele><time>2026-05-03T09:06:55Z</time></trkpt><trkpt lat="44.28823665388153" lon="11.426752115062953"><ele>504.0</ele><time>2026-05-03T09:06:56Z</time></trkpt><trkpt lat="44.28815627795958" lon="11.426716532562038"><ele>504.0</ele><time>2026-05-03T09:06:57Z</time></trkpt><trkpt lat="44.288060554175246" lon="11.42668912163355"><ele>504.0</ele><time>2026-05-03T09:06:58Z</time></trkpt><trkpt lat="44.28794617014829" lon="11.426675111763982"><ele>504.0</ele><time>2026-05-03T09:06:59Z</time></trkpt><trkpt lat="44.28782325033945" lon="11.426664103676341"><ele>504.0</ele><time>2026-05-03T09:07:00Z</time></trkpt><trkpt lat="44.287722423901556" lon="11.42664018101359"><ele>504.2</ele><time>2026-05-03T09:07:01Z</time></trkpt><trkpt lat="44.287628480752325" lon="11.426648137103406"><ele>504.4</ele><time>2026-05-03T09:07:02Z</time></trkpt><trkpt lat="44.28751268156741" lon="11.42668180207308"><ele>504.6</ele><time>2026-05-03T09:07:03Z</time></trkpt><trkpt lat="44.28741614565271" lon="11.426754172045683"><ele>504.8</ele><time>2026-05-03T09:07:04Z</time></trkpt><trkpt lat="44.28733319356077" lon="11.426824335676494"><ele>505.0</ele><time>2026-05-03T09:07:05Z</time></trkpt><trkpt lat="44.28722722291889" lon="11.426846505709067"><ele>503.6</ele><time>2026-05-03T09:07:06Z</time></trkpt><trkpt lat="44.28712629288343" lon="11.426827375718995"><ele>502.2</ele><time>2026-05-03T09:07:07Z</time></trkpt><trkpt lat="44.28703036259704" lon="11.426798741893128"><ele>500.79999999999995</ele><time>2026-05-03T09:07:08Z</time></trkpt><trkpt lat="44.2869537025509" lon="11.426718303581433"><ele>499.4</ele><time>2026-05-03T09:07:09Z</time></trkpt><trkpt lat="44.28689034653743" lon="11.426624186754895"><ele>498.0</ele><time>2026-05-03T09:07:10Z</time></trkpt><trkpt lat="44.28683002051433" lon="11.426508770448638"><ele>498.0</ele><time>2026-05-03T09:07:11Z</time></trkpt><trkpt lat="44.28674903155275" lon="11.426379584079202"><ele>498.0</ele><time>2026-05-03T09:07:12Z</time></trkpt><trkpt lat="44.286646667427526" lon="11.426263692268824"><ele>498.0</ele><time>2026-05-03T09:07:13Z</time></trkpt><trkpt lat="44.28655377919181" lon="11.42617416761585"><ele>498.0</ele><time>2026-05-03T09:07:14Z</time></trkpt><trkpt lat="44.286465759925164" lon="11.426139540115443"><ele>500.79999999999995</ele><time>2026-05-03T09:07:15Z</time></trkpt><trkpt lat="44.286376143304615" lon="11.42610981969773"><ele>503.59999999999997</ele><time>2026-05-03T09:07:16Z</time></trkpt><trkpt lat="44.28628876893064" lon="11.426110364759076"><ele>506.40000000000003</ele><time>2026-05-03T09:07:17Z</time></trkpt><trkpt lat="44.28619065902989" lon="11.426136358895647"><ele>509.20000000000005</ele><time>2026-05-03T09:07:18Z</time></trkpt><trkpt lat="44.28610025904208" lon="11.426154583691664"><ele>512.0</ele><time>2026-05-03T09:07:19Z</time></trkpt><trkpt lat="44.28600854308661" lon="11.426149396698252"><ele>512.0</ele><time>2026-05-03T09:07:20Z</time></trkpt><trkpt lat="44.28587829021376" lon="11.426094817150691"><ele>512.0</ele><time>2026-05-03T09:07:21Z</time></trkpt><trkpt lat="44.285748629729994" lon="11.42602558691096"><ele>512.0</ele><time>2026-05-03T09:07:22Z</time></trkpt><trkpt lat="44.28564308114232" lon="11.425982499580881"><ele>512.0</ele><time>2026-05-03T09:07:23Z</time></trkpt><trkpt lat="44.285532375161765" lon="11.425945133325422"><ele>512.2</ele><time>2026-05-03T09:07:24Z</time></trkpt><trkpt lat="44.28543132304455" lon="11.425887025436941"><ele>512.4000000000001</ele><time>2026-05-03T09:07:25Z</time></trkpt><trkpt lat="44.28531933026834" lon="11.425860992732307"><ele>512.5999999999999</ele><time>2026-05-03T09:07:26Z</time></trkpt><trkpt lat="44.285239909420305" lon="11.425864074911274"><ele>512.8</ele><time>2026-05-03T09:07:27Z</time></trkpt><trkpt lat="44.285176161363715" lon="11.425913099941969"><ele>513.0</ele><time>2026-05-03T09:07:28Z</time></trkpt><trkpt lat="44.285117031202375" lon="11.426014474127001"><ele>513.0</ele><time>2026-05-03T09:07:29Z</time></trkpt><trkpt lat="44.28505760112588" lon="11.426159737827067"><ele>513.0</ele><time>2026-05-03T09:07:30Z</time></trkpt><trkpt lat="44.28498792291371" lon="11.426252915156182"><ele>513.0</ele><time>2026-05-03T09:07:31Z</time></trkpt><trkpt lat="44.2849105859354" lon="11.426300219528448"><ele>513.0</ele><time>2026-05-03T09:07:32Z</time></trkpt><trkpt lat="44.28482344045821" lon="11.426299946301725"><ele>513.0</ele><time>2026-05-03T09:07:33Z</time></trkpt><trkpt lat="44.284741545938644" lon="11.426275986398378"><ele>514.5714285714287</ele><time>2026-05-03T09:07:34Z</time></trkpt><trkpt lat="44.284670027172936" lon="11.426240753962016"><ele>516.1428571428571</ele><time>2026-05-03T09:07:35Z</time></trkpt><trkpt lat="44.28461139125868" lon="11.4262028660625"><ele>517.7142857142858</ele><time>2026-05-03T09:07:36Z</time></trkpt><trkpt lat="44.28456894732559" lon="11.426137451308994"><ele>519.2857142857143</ele><time>2026-05-03T09:07:37Z</time></trkpt><trkpt lat="44.284533221851994" lon="11.42605496820348"><ele>520.8571428571429</ele><time>2026-05-03T09:07:38Z</time></trkpt><trkpt lat="44.284514134886756" lon="11.425963835991496"><ele>522.4285714285714</ele><time>2026-05-03T09:07:39Z</time></trkpt><trkpt lat="44.28454819130872" lon="11.425831992623147"><ele>524.0</ele><time>2026-05-03T09:07:41Z</time></trkpt><trkpt lat="44.284597686624465" lon="11.425766007742384"><ele>524.0</ele><time>2026-05-03T09:07:42Z</time></trkpt><trkpt lat="44.28467486397289" lon="11.425680223638635"><ele>524.0</ele><time>2026-05-03T09:07:43Z</time></trkpt><trkpt lat="44.28474814834897" lon="11.425541259164905"><ele>524.0</ele><time>2026-05-03T09:07:44Z</time></trkpt><trkpt lat="44.28481704790339" lon="11.425354831500284"><ele>524.0</ele><time>2026-05-03T09:07:45Z</time></trkpt><trkpt lat="44.28487893846728" lon="11.425207319831605"><ele>524.2</ele><time>2026-05-03T09:07:46Z</time></trkpt><trkpt lat="44.28494148588476" lon="11.425112791562666"><ele>524.4</ele><time>2026-05-03T09:07:47Z</time></trkpt><trkpt lat="44.2850159332045" lon="11.425040145655686"><ele>524.6</ele><time>2026-05-03T09:07:48Z</time></trkpt><trkpt lat="44.285114441758395" lon="11.424995012828473"><ele>524.8</ele><time>2026-05-03T09:07:49Z</time></trkpt><trkpt lat="44.28522630305066" lon="11.424958563470003"><ele>525.0</ele><time>2026-05-03T09:07:50Z</time></trkpt><trkpt lat="44.28534033771252" lon="11.424902359119198"><ele>525.0</ele><time>2026-05-03T09:07:51Z</time></trkpt><trkpt lat="44.28545824743406" lon="11.424837394585744"><ele>525.0</ele><time>2026-05-03T09:07:52Z</time></trkpt><trkpt lat="44.28555075966917" lon="11.424811638005357"><ele>525.0</ele><time>2026-05-03T09:07:53Z</time></trkpt><trkpt lat="44.28563048012347" lon="11.424820304057434"><ele>525.0</ele><time>2026-05-03T09:07:54Z</time></trkpt><trkpt lat="44.285720838771255" lon="11.424845462411271"><ele>525.0</ele><time>2026-05-03T09:07:55Z</time></trkpt><trkpt lat="44.28582995042763" lon="11.424866302211495"><ele>525.3333333333334</ele><time>2026-05-03T09:07:56Z</time></trkpt><trkpt lat="44.28592117912944" lon="11.424846443503176"><ele>525.6666666666666</ele><time>2026-05-03T09:07:57Z</time></trkpt><trkpt lat="44.28598938485576" lon="11.424803390272384"><ele>526.0</ele><time>2026-05-03T09:07:58Z</time></trkpt><trkpt lat="44.28604166227975" lon="11.424734211055712"><ele>526.3333333333333</ele><time>2026-05-03T09:07:59Z</time></trkpt><trkpt lat="44.286087841021505" lon="11.42466385460894"><ele>526.6666666666666</ele><time>2026-05-03T09:08:00Z</time></trkpt><trkpt lat="44.286140469811755" lon="11.424584670634426"><ele>527.0</ele><time>2026-05-03T09:08:01Z</time></trkpt><trkpt lat="44.28618996922541" lon="11.424516243830803"><ele>527.3333333333333</ele><time>2026-05-03T09:08:02Z</time></trkpt><trkpt lat="44.286235390846215" lon="11.42443193435813"><ele>527.6666666666666</ele><time>2026-05-03T09:08:03Z</time></trkpt><trkpt lat="44.286274716337914" lon="11.424336760693945"><ele>528.0</ele><time>2026-05-03T09:08:05Z</time></trkpt><trkpt lat="44.28618747506635" lon="11.424299955194746"><ele>528.3333333333334</ele><time>2026-05-03T09:08:09Z</time></trkpt><trkpt lat="44.28609907223582" lon="11.424376903607284"><ele>528.6666666666667</ele><time>2026-05-03T09:08:10Z</time></trkpt><trkpt lat="44.286019787228554" lon="11.424452680083274"><ele>529.0</ele><time>2026-05-03T09:08:11Z</time></trkpt><trkpt lat="44.285954023153806" lon="11.42450757414614"><ele>529.0</ele><time>2026-05-03T09:08:12Z</time></trkpt><trkpt lat="44.28587375698506" lon="11.424536113169461"><ele>529.0</ele><time>2026-05-03T09:08:13Z</time></trkpt><trkpt lat="44.28574850840399" lon="11.424524037754601"><ele>529.0</ele><time>2026-05-03T09:08:14Z</time></trkpt><trkpt lat="44.28557560980593" lon="11.424478833967258"><ele>529.0</ele><time>2026-05-03T09:08:15Z</time></trkpt><trkpt lat="44.28537727153523" lon="11.424448402730128"><ele>528.3333333333334</ele><time>2026-05-03T09:08:16Z</time></trkpt><trkpt lat="44.28516690784085" lon="11.424445158017681"><ele>527.6666666666666</ele><time>2026-05-03T09:08:17Z</time></trkpt><trkpt lat="44.284951120992034" lon="11.42445141168205"><ele>527.0</ele><time>2026-05-03T09:08:18Z</time></trkpt><trkpt lat="44.28473580528796" lon="11.424476316255863"><ele>527.0</ele><time>2026-05-03T09:08:19Z</time></trkpt><trkpt lat="44.284540193124876" lon="11.42450694715211"><ele>527.0</ele><time>2026-05-03T09:08:20Z</time></trkpt><trkpt lat="44.28435678587614" lon="11.424542993975674"><ele>527.0</ele><time>2026-05-03T09:08:21Z</time></trkpt><trkpt lat="44.28418420552382" lon="11.42460074862029"><ele>529.0</ele><time>2026-05-03T09:08:22Z</time></trkpt><trkpt lat="44.28402747610122" lon="11.424661035376843"><ele>531.0</ele><time>2026-05-03T09:08:23Z</time></trkpt><trkpt lat="44.28384735901254" lon="11.424708435365831"><ele>533.0</ele><time>2026-05-03T09:08:24Z</time></trkpt><trkpt lat="44.28368005949585" lon="11.424740950838434"><ele>536.0</ele><time>2026-05-03T09:08:25Z</time></trkpt><trkpt lat="44.28354311906841" lon="11.42477305180164"><ele>539.0</ele><time>2026-05-03T09:08:26Z</time></trkpt><trkpt lat="44.28342119949253" lon="11.424794379792935"><ele>542.0</ele><time>2026-05-03T09:08:27Z</time></trkpt><trkpt lat="44.28331560024593" lon="11.424800026464853"><ele>545.0</ele><time>2026-05-03T09:08:28Z</time></trkpt><trkpt lat="44.283211905363785" lon="11.424790423534018"><ele>548.0</ele><time>2026-05-03T09:08:29Z</time></trkpt><trkpt lat="44.28308213774268" lon="11.424779971543094"><ele>551.0</ele><time>2026-05-03T09:08:30Z</time></trkpt><trkpt lat="44.282930224649185" lon="11.42478519473413"><ele>554.0</ele><time>2026-05-03T09:08:31Z</time></trkpt><trkpt lat="44.28279263764946" lon="11.42479189178567"><ele>557.0</ele><time>2026-05-03T09:08:32Z</time></trkpt><trkpt lat="44.28268820564628" lon="11.424761118472707"><ele>557.0</ele><time>2026-05-03T09:08:33Z</time></trkpt><trkpt lat="44.28260011115677" lon="11.424663088133533"><ele>557.0</ele><time>2026-05-03T09:08:34Z</time></trkpt><trkpt lat="44.282502356606095" lon="11.424551028087912"><ele>557.0</ele><time>2026-05-03T09:08:35Z</time></trkpt><trkpt lat="44.28238222260944" lon="11.424502863828813"><ele>557.0</ele><time>2026-05-03T09:08:36Z</time></trkpt><trkpt lat="44.28223511404787" lon="11.424519101166641"><ele>556.25</ele><time>2026-05-03T09:08:37Z</time></trkpt><trkpt lat="44.282100646685436" lon="11.424542975797289"><ele>555.5</ele><time>2026-05-03T09:08:38Z</time></trkpt><trkpt lat="44.28197994125906" lon="11.424500838310614"><ele>554.75</ele><time>2026-05-03T09:08:39Z</time></trkpt><trkpt lat="44.2818810040967" lon="11.424426761159785"><ele>554.0</ele><time>2026-05-03T09:08:40Z</time></trkpt><trkpt lat="44.28178941954233" lon="11.424302791151527"><ele>554.0</ele><time>2026-05-03T09:08:41Z</time></trkpt><trkpt lat="44.28169287998808" lon="11.42416497957626"><ele>554.0</ele><time>2026-05-03T09:08:42Z</time></trkpt><trkpt lat="44.281585576203646" lon="11.424046570335353"><ele>554.0</ele><time>2026-05-03T09:08:43Z</time></trkpt><trkpt lat="44.281467668703336" lon="11.423954867703106"><ele>554.0</ele><time>2026-05-03T09:08:44Z</time></trkpt><trkpt lat="44.28136700895637" lon="11.423878880486212"><ele>555.75</ele><time>2026-05-03T09:08:45Z</time></trkpt><trkpt lat="44.281273447790134" lon="11.423827276540388"><ele>557.5</ele><time>2026-05-03T09:08:46Z</time></trkpt><trkpt lat="44.28117205020772" lon="11.423820641482548"><ele>559.25</ele><time>2026-05-03T09:08:47Z</time></trkpt><trkpt lat="44.28105551919215" lon="11.423871332281298"><ele>561.0</ele><time>2026-05-03T09:08:48Z</time></trkpt><trkpt lat="44.28092928542904" lon="11.423966060568148"><ele>561.0</ele><time>2026-05-03T09:08:49Z</time></trkpt><trkpt lat="44.28077788520088" lon="11.424056193703507"><ele>561.0</ele><time>2026-05-03T09:08:50Z</time></trkpt><trkpt lat="44.28061476085125" lon="11.424101633055368"><ele>561.0</ele><time>2026-05-03T09:08:51Z</time></trkpt><trkpt lat="44.280445098764346" lon="11.424134368484856"><ele>561.25</ele><time>2026-05-03T09:08:52Z</time></trkpt><trkpt lat="44.280290010472015" lon="11.424197792575557"><ele>561.5</ele><time>2026-05-03T09:08:53Z</time></trkpt><trkpt lat="44.280164215161875" lon="11.424285304267569"><ele>561.75</ele><time>2026-05-03T09:08:54Z</time></trkpt><trkpt lat="44.28002661431279" lon="11.42434567525649"><ele>562.0</ele><time>2026-05-03T09:08:55Z</time></trkpt><trkpt lat="44.279940430622744" lon="11.424359270675417"><ele>562.0</ele><time>2026-05-03T09:08:56Z</time></trkpt><trkpt lat="44.27984238183869" lon="11.424335020493038"><ele>562.0</ele><time>2026-05-03T09:08:57Z</time></trkpt><trkpt lat="44.27973859192409" lon="11.424267735541685"><ele>562.0</ele><time>2026-05-03T09:08:58Z</time></trkpt><trkpt lat="44.279626217211415" lon="11.424167080180533"><ele>562.0</ele><time>2026-05-03T09:08:59Z</time></trkpt><trkpt lat="44.279516023443776" lon="11.424078863976716"><ele>563.25</ele><time>2026-05-03T09:09:00Z</time></trkpt><trkpt lat="44.27939203441704" lon="11.424044105743217"><ele>564.5</ele><time>2026-05-03T09:09:01Z</time></trkpt><trkpt lat="44.27923932909457" lon="11.424051388651863"><ele>565.75</ele><time>2026-05-03T09:09:02Z</time></trkpt><trkpt lat="44.27908101040418" lon="11.424069206750598"><ele>567.0</ele><time>2026-05-03T09:09:03Z</time></trkpt><trkpt lat="44.27894273151863" lon="11.424029761878243"><ele>567.75</ele><time>2026-05-03T09:09:04Z</time></trkpt><trkpt lat="44.27882836600392" lon="11.42395831127755"><ele>568.5</ele><time>2026-05-03T09:09:05Z</time></trkpt><trkpt lat="44.27873721773342" lon="11.423867055626202"><ele>569.25</ele><time>2026-05-03T09:09:06Z</time></trkpt><trkpt lat="44.278664316418144" lon="11.423770261511125"><ele>570.0</ele><time>2026-05-03T09:09:07Z</time></trkpt><trkpt lat="44.27860823615525" lon="11.423618083983534"><ele>570.0</ele><time>2026-05-03T09:09:08Z</time></trkpt><trkpt lat="44.278515289724446" lon="11.423469741362263"><ele>570.0</ele><time>2026-05-03T09:09:09Z</time></trkpt><trkpt lat="44.27835979890364" lon="11.42335082616829"><ele>570.0</ele><time>2026-05-03T09:09:10Z</time></trkpt><trkpt lat="44.27820192079241" lon="11.42328086736649"><ele>571.6666666666666</ele><time>2026-05-03T09:09:11Z</time></trkpt><trkpt lat="44.2780185178867" lon="11.423250854359434"><ele>573.3333333333333</ele><time>2026-05-03T09:09:12Z</time></trkpt><trkpt lat="44.27783640359413" lon="11.4232129066698"><ele>575.0</ele><time>2026-05-03T09:09:13Z</time></trkpt><trkpt lat="44.277690229331654" lon="11.423141367282275"><ele>575.0</ele><time>2026-05-03T09:09:14Z</time></trkpt><trkpt lat="44.27756917338338" lon="11.423052016440952"><ele>575.0</ele><time>2026-05-03T09:09:15Z</time></trkpt><trkpt lat="44.277425857654336" lon="11.422997925329188"><ele>575.0</ele><time>2026-05-03T09:09:16Z</time></trkpt><trkpt lat="44.27723630522539" lon="11.422999347590274"><ele>574.0</ele><time>2026-05-03T09:09:17Z</time></trkpt><trkpt lat="44.277061194408084" lon="11.42299917801021"><ele>573.0</ele><time>2026-05-03T09:09:18Z</time></trkpt><trkpt lat="44.27691451954356" lon="11.42299197880652"><ele>572.0</ele><time>2026-05-03T09:09:19Z</time></trkpt><trkpt lat="44.27678397600727" lon="11.422969408341181"><ele>571.75</ele><time>2026-05-03T09:09:20Z</time></trkpt><trkpt lat="44.276656349769496" lon="11.422928471188253"><ele>571.5</ele><time>2026-05-03T09:09:21Z</time></trkpt><trkpt lat="44.2765246438992" lon="11.42285296328533"><ele>571.25</ele><time>2026-05-03T09:09:22Z</time></trkpt><trkpt lat="44.27639947235124" lon="11.42272272715589"><ele>571.0</ele><time>2026-05-03T09:09:23Z</time></trkpt><trkpt lat="44.27626664824513" lon="11.42259927083266"><ele>571.75</ele><time>2026-05-03T09:09:24Z</time></trkpt><trkpt lat="44.27612750840492" lon="11.422494045557366"><ele>572.5</ele><time>2026-05-03T09:09:25Z</time></trkpt><trkpt lat="44.275990545874656" lon="11.422386319966032"><ele>573.25</ele><time>2026-05-03T09:09:26Z</time></trkpt><trkpt lat="44.27587814465367" lon="11.422289626387006"><ele>574.0</ele><time>2026-05-03T09:09:27Z</time></trkpt><trkpt lat="44.27578032155418" lon="11.422168330755722"><ele>575.0</ele><time>2026-05-03T09:09:28Z</time></trkpt><trkpt lat="44.275706070773474" lon="11.422047786900473"><ele>576.0</ele><time>2026-05-03T09:09:29Z</time></trkpt><trkpt lat="44.27564642253263" lon="11.421918590927925"><ele>577.0</ele><time>2026-05-03T09:09:30Z</time></trkpt><trkpt lat="44.27558089416877" lon="11.421787092063298"><ele>578.0</ele><time>2026-05-03T09:09:31Z</time></trkpt><trkpt lat="44.275501104393136" lon="11.421718831334363"><ele>579.0</ele><time>2026-05-03T09:09:32Z</time></trkpt><trkpt lat="44.2754177224537" lon="11.421686766719667"><ele>581.0</ele><time>2026-05-03T09:09:33Z</time></trkpt><trkpt lat="44.27529749380061" lon="11.421683120267511"><ele>583.0</ele><time>2026-05-03T09:09:34Z</time></trkpt><trkpt lat="44.275147029178214" lon="11.421702531042508"><ele>585.0</ele><time>2026-05-03T09:09:35Z</time></trkpt><trkpt lat="44.27496293685362" lon="11.421761162828018"><ele>585.0</ele><time>2026-05-03T09:09:36Z</time></trkpt><trkpt lat="44.27478507770365" lon="11.421799732739053"><ele>585.0</ele><time>2026-05-03T09:09:37Z</time></trkpt><trkpt lat="44.274646965347735" lon="11.421815778680802"><ele>585.0</ele><time>2026-05-03T09:09:38Z</time></trkpt><trkpt lat="44.2745317150358" lon="11.421853714530922"><ele>585.0</ele><time>2026-05-03T09:09:39Z</time></trkpt><trkpt lat="44.2744181464626" lon="11.421947823354452"><ele>585.25</ele><time>2026-05-03T09:09:40Z</time></trkpt><trkpt lat="44.274287965899134" lon="11.42207675384551"><ele>585.5</ele><time>2026-05-03T09:09:41Z</time></trkpt><trkpt lat="44.27414949124354" lon="11.422134412070783"><ele>585.75</ele><time>2026-05-03T09:09:42Z</time></trkpt><trkpt lat="44.27403036999638" lon="11.422182473047219"><ele>586.0</ele><time>2026-05-03T09:09:43Z</time></trkpt><trkpt lat="44.2739214562541" lon="11.422215357935302"><ele>585.25</ele><time>2026-05-03T09:09:44Z</time></trkpt><trkpt lat="44.2738091425421" lon="11.422203593338896"><ele>584.5</ele><time>2026-05-03T09:09:45Z</time></trkpt><trkpt lat="44.273678117835445" lon="11.422138604245434"><ele>583.75</ele><time>2026-05-03T09:09:46Z</time></trkpt><trkpt lat="44.27354460563866" lon="11.422046977373675"><ele>583.0</ele><time>2026-05-03T09:09:47Z</time></trkpt><trkpt lat="44.27338170441114" lon="11.422014678082014"><ele>583.0</ele><time>2026-05-03T09:09:48Z</time></trkpt><trkpt lat="44.273173844905344" lon="11.422029727323244"><ele>583.0</ele><time>2026-05-03T09:09:49Z</time></trkpt><trkpt lat="44.272958120263134" lon="11.422045942662699"><ele>583.0</ele><time>2026-05-03T09:09:50Z</time></trkpt><trkpt lat="44.27274864470804" lon="11.422044621258884"><ele>583.0</ele><time>2026-05-03T09:09:51Z</time></trkpt><trkpt lat="44.2725405184317" lon="11.42204104804168"><ele>583.0</ele><time>2026-05-03T09:09:52Z</time></trkpt><trkpt lat="44.272346616113936" lon="11.422051407668702"><ele>583.0</ele><time>2026-05-03T09:09:53Z</time></trkpt><trkpt lat="44.27217403200564" lon="11.422070221061933"><ele>583.6666666666667</ele><time>2026-05-03T09:09:54Z</time></trkpt><trkpt lat="44.272013401912325" lon="11.42208999766832"><ele>584.3333333333334</ele><time>2026-05-03T09:09:55Z</time></trkpt><trkpt lat="44.271861093233206" lon="11.422138756257743"><ele>585.0</ele><time>2026-05-03T09:09:56Z</time></trkpt><trkpt lat="44.2717027743999" lon="11.422192311774383"><ele>586.6666666666666</ele><time>2026-05-03T09:09:57Z</time></trkpt><trkpt lat="44.27154376529053" lon="11.42222420482363"><ele>588.3333333333333</ele><time>2026-05-03T09:09:58Z</time></trkpt><trkpt lat="44.271375222835175" lon="11.42223948197104"><ele>590.0</ele><time>2026-05-03T09:09:59Z</time></trkpt><trkpt lat="44.27120335351025" lon="11.422250919642643"><ele>590.0</ele><time>2026-05-03T09:10:00Z</time></trkpt><trkpt lat="44.27104157179071" lon="11.422247626392217"><ele>590.0</ele><time>2026-05-03T09:10:01Z</time></trkpt><trkpt lat="44.2708964396137" lon="11.422230536828346"><ele>590.0</ele><time>2026-05-03T09:10:02Z</time></trkpt><trkpt lat="44.27075456505066" lon="11.422219237928408"><ele>590.0</ele><time>2026-05-03T09:10:03Z</time></trkpt><trkpt lat="44.2706105039969" lon="11.422216061053984"><ele>590.0</ele><time>2026-05-03T09:10:04Z</time></trkpt><trkpt lat="44.27046726233496" lon="11.42223934696161"><ele>590.0</ele><time>2026-05-03T09:10:05Z</time></trkpt><trkpt lat="44.270340868397" lon="11.42227880946959"><ele>590.0</ele><time>2026-05-03T09:10:06Z</time></trkpt><trkpt lat="44.2702258801599" lon="11.422343195273301"><ele>591.75</ele><time>2026-05-03T09:10:07Z</time></trkpt><trkpt lat="44.270100694894985" lon="11.422426576820175"><ele>593.5</ele><time>2026-05-03T09:10:08Z</time></trkpt><trkpt lat="44.2699861682434" lon="11.42250563801418"><ele>595.25</ele><time>2026-05-03T09:10:09Z</time></trkpt><trkpt lat="44.269874883009635" lon="11.42256229471032"><ele>597.0</ele><time>2026-05-03T09:10:10Z</time></trkpt><trkpt lat="44.26977988367243" lon="11.422615271133678"><ele>597.6666666666666</ele><time>2026-05-03T09:10:11Z</time></trkpt><trkpt lat="44.26970926323336" lon="11.422718864973996"><ele>598.3333333333334</ele><time>2026-05-03T09:10:12Z</time></trkpt><trkpt lat="44.26966413276762" lon="11.422854414206643"><ele>599.0</ele><time>2026-05-03T09:10:13Z</time></trkpt><trkpt lat="44.269635330129574" lon="11.422952404970413"><ele>599.6666666666667</ele><time>2026-05-03T09:10:14Z</time></trkpt><trkpt lat="44.26958054208812" lon="11.423019991333737"><ele>600.3333333333334</ele><time>2026-05-03T09:10:15Z</time></trkpt><trkpt lat="44.26950198794277" lon="11.42303919487746"><ele>601.0</ele><time>2026-05-03T09:10:16Z</time></trkpt><trkpt lat="44.269402297394265" lon="11.423015808376958"><ele>601.0</ele><time>2026-05-03T09:10:17Z</time></trkpt><trkpt lat="44.2692580252287" lon="11.42300168377641"><ele>601.0</ele><time>2026-05-03T09:10:18Z</time></trkpt><trkpt lat="44.26909653735293" lon="11.422970031880656"><ele>601.0</ele><time>2026-05-03T09:10:19Z</time></trkpt><trkpt lat="44.268920749549466" lon="11.422939593801624"><ele>602.3333333333334</ele><time>2026-05-03T09:10:20Z</time></trkpt><trkpt lat="44.26873716613401" lon="11.422920304190535"><ele>603.6666666666666</ele><time>2026-05-03T09:10:21Z</time></trkpt><trkpt lat="44.26853884317815" lon="11.422911519204995"><ele>605.0</ele><time>2026-05-03T09:10:22Z</time></trkpt><trkpt lat="44.26832319758719" lon="11.422934664371342"><ele>605.0</ele><time>2026-05-03T09:10:23Z</time></trkpt><trkpt lat="44.26811787976487" lon="11.422955851146863"><ele>605.0</ele><time>2026-05-03T09:10:24Z</time></trkpt><trkpt lat="44.267918701470705" lon="11.422981565315505"><ele>605.0</ele><time>2026-05-03T09:10:25Z</time></trkpt><trkpt lat="44.26772189344854" lon="11.423007537466779"><ele>604.0</ele><time>2026-05-03T09:10:26Z</time></trkpt><trkpt lat="44.267549012181334" lon="11.423038191036786"><ele>603.0</ele><time>2026-05-03T09:10:27Z</time></trkpt><trkpt lat="44.26740119374347" lon="11.423115075590825"><ele>602.0</ele><time>2026-05-03T09:10:28Z</time></trkpt><trkpt lat="44.267253371238404" lon="11.42323796187963"><ele>602.0</ele><time>2026-05-03T09:10:29Z</time></trkpt><trkpt lat="44.2670955380019" lon="11.423406845410062"><ele>602.0</ele><time>2026-05-03T09:10:30Z</time></trkpt><trkpt lat="44.26692553149884" lon="11.423561077287754"><ele>602.0</ele><time>2026-05-03T09:10:31Z</time></trkpt><trkpt lat="44.26673541668642" lon="11.423661245486736"><ele>602.0</ele><time>2026-05-03T09:10:32Z</time></trkpt><trkpt lat="44.266537818409695" lon="11.423730641933473"><ele>602.0</ele><time>2026-05-03T09:10:33Z</time></trkpt><trkpt lat="44.26635833834997" lon="11.423770701593941"><ele>602.0</ele><time>2026-05-03T09:10:34Z</time></trkpt><trkpt lat="44.26617202721493" lon="11.42378641049735"><ele>603.6666666666666</ele><time>2026-05-03T09:10:35Z</time></trkpt><trkpt lat="44.26598342487277" lon="11.423795683531635"><ele>605.3333333333334</ele><time>2026-05-03T09:10:36Z</time></trkpt><trkpt lat="44.26578213409779" lon="11.423806677681695"><ele>607.0</ele><time>2026-05-03T09:10:37Z</time></trkpt><trkpt lat="44.2655841284116" lon="11.423809342889928"><ele>611.3333333333334</ele><time>2026-05-03T09:10:38Z</time></trkpt><trkpt lat="44.265391042088865" lon="11.42382572300939"><ele>615.6666666666666</ele><time>2026-05-03T09:10:39Z</time></trkpt><trkpt lat="44.26519989158509" lon="11.423836691130171"><ele>620.0</ele><time>2026-05-03T09:10:40Z</time></trkpt><trkpt lat="44.265017781389695" lon="11.423846921431116"><ele>620.0</ele><time>2026-05-03T09:10:41Z</time></trkpt><trkpt lat="44.26484673890168" lon="11.423844821823174"><ele>620.0</ele><time>2026-05-03T09:10:42Z</time></trkpt><trkpt lat="44.264705202597725" lon="11.423857672994341"><ele>620.0</ele><time>2026-05-03T09:10:43Z</time></trkpt><trkpt lat="44.264592177750885" lon="11.4238591833653"><ele>620.0</ele><time>2026-05-03T09:10:44Z</time></trkpt><trkpt lat="44.264496028286494" lon="11.423853888840824"><ele>620.5</ele><time>2026-05-03T09:10:45Z</time></trkpt><trkpt lat="44.26441416325711" lon="11.423839538589188"><ele>621.0</ele><time>2026-05-03T09:10:46Z</time></trkpt><trkpt lat="44.26433259849652" lon="11.423844769381626"><ele>621.5</ele><time>2026-05-03T09:10:47Z</time></trkpt><trkpt lat="44.26425677437859" lon="11.423848536178793"><ele>622.0</ele><time>2026-05-03T09:10:48Z</time></trkpt><trkpt lat="44.26418541346069" lon="11.423869962385384"><ele>622.5</ele><time>2026-05-03T09:10:49Z</time></trkpt><trkpt lat="44.264120015594564" lon="11.423893330337014"><ele>623.0</ele><time>2026-05-03T09:10:50Z</time></trkpt><trkpt lat="44.263999344212905" lon="11.423928291854802"><ele>624.1999999999999</ele><time>2026-05-03T09:10:52Z</time></trkpt><trkpt lat="44.26388046168271" lon="11.423914596673468"><ele>625.4</ele><time>2026-05-03T09:10:54Z</time></trkpt><trkpt lat="44.263802231633505" lon="11.423918151383711"><ele>626.5999999999999</ele><time>2026-05-03T09:10:55Z</time></trkpt><trkpt lat="44.26371381807699" lon="11.423932601472433"><ele>627.8</ele><time>2026-05-03T09:10:56Z</time></trkpt><trkpt lat="44.26361923784916" lon="11.42395576084686"><ele>629.0</ele><time>2026-05-03T09:10:57Z</time></trkpt><trkpt lat="44.26351712278512" lon="11.423981965228252"><ele>629.0</ele><time>2026-05-03T09:10:58Z</time></trkpt><trkpt lat="44.2634018280407" lon="11.424015959133532"><ele>629.0</ele><time>2026-05-03T09:10:59Z</time></trkpt><trkpt lat="44.26324741139416" lon="11.42405547766834"><ele>629.0</ele><time>2026-05-03T09:11:00Z</time></trkpt><trkpt lat="44.263078935693876" lon="11.424102600904973"><ele>629.0</ele><time>2026-05-03T09:11:01Z</time></trkpt><trkpt lat="44.26291865964836" lon="11.424156750071248"><ele>630.5</ele><time>2026-05-03T09:11:02Z</time></trkpt><trkpt lat="44.262776318637165" lon="11.424203446379554"><ele>632.0</ele><time>2026-05-03T09:11:03Z</time></trkpt><trkpt lat="44.262654989917856" lon="11.424237840566214"><ele>633.5</ele><time>2026-05-03T09:11:04Z</time></trkpt><trkpt lat="44.26256381880026" lon="11.424232614915017"><ele>635.0</ele><time>2026-05-03T09:11:05Z</time></trkpt><trkpt lat="44.262472815575734" lon="11.424260262559924"><ele>635.0</ele><time>2026-05-03T09:11:06Z</time></trkpt><trkpt lat="44.262394800274585" lon="11.424237148956093"><ele>635.0</ele><time>2026-05-03T09:11:07Z</time></trkpt><trkpt lat="44.26231832998624" lon="11.424190583222499"><ele>635.0</ele><time>2026-05-03T09:11:08Z</time></trkpt><trkpt lat="44.262223582381125" lon="11.424107406400557"><ele>635.0</ele><time>2026-05-03T09:11:09Z</time></trkpt><trkpt lat="44.26213289524917" lon="11.424018335900834"><ele>635.0</ele><time>2026-05-03T09:11:10Z</time></trkpt><trkpt lat="44.262049312834336" lon="11.423920857898386"><ele>636.75</ele><time>2026-05-03T09:11:11Z</time></trkpt><trkpt lat="44.26193962271885" lon="11.423816633540763"><ele>638.5</ele><time>2026-05-03T09:11:12Z</time></trkpt><trkpt lat="44.26181539970677" lon="11.42371701904342"><ele>640.25</ele><time>2026-05-03T09:11:13Z</time></trkpt><trkpt lat="44.2616779340028" lon="11.423603061236543"><ele>642.0</ele><time>2026-05-03T09:11:14Z</time></trkpt><trkpt lat="44.26154444916671" lon="11.423479150789872"><ele>646.3333333333334</ele><time>2026-05-03T09:11:15Z</time></trkpt><trkpt lat="44.26140609173828" lon="11.423361592228158"><ele>650.6666666666667</ele><time>2026-05-03T09:11:16Z</time></trkpt><trkpt lat="44.26127377501364" lon="11.423253485368237"><ele>655.0</ele><time>2026-05-03T09:11:17Z</time></trkpt><trkpt lat="44.26113930153257" lon="11.423136332135957"><ele>655.0</ele><time>2026-05-03T09:11:18Z</time></trkpt><trkpt lat="44.261010688419965" lon="11.423030887666155"><ele>655.0</ele><time>2026-05-03T09:11:19Z</time></trkpt><trkpt lat="44.26089972419112" lon="11.422932677362422"><ele>655.0</ele><time>2026-05-03T09:11:20Z</time></trkpt><trkpt lat="44.26080365096028" lon="11.422855735513735"><ele>655.0</ele><time>2026-05-03T09:11:21Z</time></trkpt><trkpt lat="44.26071565600043" lon="11.42282356733536"><ele>656.25</ele><time>2026-05-03T09:11:22Z</time></trkpt><trkpt lat="44.26060901270352" lon="11.422817548849753"><ele>657.5</ele><time>2026-05-03T09:11:23Z</time></trkpt><trkpt lat="44.26046678715747" lon="11.422824925002619"><ele>658.75</ele><time>2026-05-03T09:11:24Z</time></trkpt><trkpt lat="44.26029545915887" lon="11.422839980438523"><ele>660.0</ele><time>2026-05-03T09:11:25Z</time></trkpt><trkpt lat="44.26014041115996" lon="11.422844775451816"><ele>660.0</ele><time>2026-05-03T09:11:26Z</time></trkpt><trkpt lat="44.259998226522676" lon="11.42284893852448"><ele>660.0</ele><time>2026-05-03T09:11:27Z</time></trkpt><trkpt lat="44.259861358079895" lon="11.42285241448175"><ele>660.0</ele><time>2026-05-03T09:11:28Z</time></trkpt><trkpt lat="44.259729228357614" lon="11.422856926942366"><ele>660.0</ele><time>2026-05-03T09:11:29Z</time></trkpt><trkpt lat="44.25958905252755" lon="11.422854571761343"><ele>662.6666666666666</ele><time>2026-05-03T09:11:30Z</time></trkpt><trkpt lat="44.259425933320074" lon="11.422854084145174"><ele>665.3333333333333</ele><time>2026-05-03T09:11:31Z</time></trkpt><trkpt lat="44.25927232455123" lon="11.42285732756145"><ele>668.0</ele><time>2026-05-03T09:11:32Z</time></trkpt><trkpt lat="44.25910950223289" lon="11.422855390813316"><ele>670.3333333333333</ele><time>2026-05-03T09:11:33Z</time></trkpt><trkpt lat="44.25892775812984" lon="11.42285131898751"><ele>672.6666666666666</ele><time>2026-05-03T09:11:34Z</time></trkpt><trkpt lat="44.25874297863163" lon="11.422846004294165"><ele>675.0</ele><time>2026-05-03T09:11:35Z</time></trkpt><trkpt lat="44.2585718157087" lon="11.422849128174668"><ele>675.0</ele><time>2026-05-03T09:11:36Z</time></trkpt><trkpt lat="44.2584139765204" lon="11.42285517452209"><ele>675.0</ele><time>2026-05-03T09:11:37Z</time></trkpt><trkpt lat="44.25826428952045" lon="11.422850542343413"><ele>675.0</ele><time>2026-05-03T09:11:38Z</time></trkpt><trkpt lat="44.258103333905154" lon="11.422854283957674"><ele>677.0</ele><time>2026-05-03T09:11:39Z</time></trkpt><trkpt lat="44.25793835129395" lon="11.422860956664925"><ele>679.0</ele><time>2026-05-03T09:11:40Z</time></trkpt><trkpt lat="44.25778164497446" lon="11.422869173817247"><ele>681.0</ele><time>2026-05-03T09:11:41Z</time></trkpt><trkpt lat="44.25763233998002" lon="11.422873089722843"><ele>681.0</ele><time>2026-05-03T09:11:42Z</time></trkpt><trkpt lat="44.25751083132275" lon="11.422873994807938"><ele>681.0</ele><time>2026-05-03T09:11:43Z</time></trkpt><trkpt lat="44.257394740612234" lon="11.422850898286423"><ele>681.0</ele><time>2026-05-03T09:11:44Z</time></trkpt><trkpt lat="44.257245395045366" lon="11.42279794758303"><ele>681.0</ele><time>2026-05-03T09:11:45Z</time></trkpt><trkpt lat="44.25708195114649" lon="11.422744933561615"><ele>681.25</ele><time>2026-05-03T09:11:46Z</time></trkpt><trkpt lat="44.25693860356147" lon="11.422677161498433"><ele>681.5</ele><time>2026-05-03T09:11:47Z</time></trkpt><trkpt lat="44.256801887874325" lon="11.422630094715203"><ele>681.75</ele><time>2026-05-03T09:11:48Z</time></trkpt><trkpt lat="44.256694167627195" lon="11.422601826678596"><ele>682.0</ele><time>2026-05-03T09:11:49Z</time></trkpt><trkpt lat="44.256585835622246" lon="11.422586666916345"><ele>682.0</ele><time>2026-05-03T09:11:50Z</time></trkpt><trkpt lat="44.25648422283605" lon="11.42260721573523"><ele>682.0</ele><time>2026-05-03T09:11:51Z</time></trkpt><trkpt lat="44.25639668625425" lon="11.422664653756613"><ele>682.0</ele><time>2026-05-03T09:11:52Z</time></trkpt><trkpt lat="44.25630800804845" lon="11.422763879319474"><ele>682.0</ele><time>2026-05-03T09:11:53Z</time></trkpt><trkpt lat="44.25621438269533" lon="11.422892605788265"><ele>682.0</ele><time>2026-05-03T09:11:54Z</time></trkpt><trkpt lat="44.2561055517353" lon="11.423060867188592"><ele>682.8</ele><time>2026-05-03T09:11:55Z</time></trkpt><trkpt lat="44.256006295889385" lon="11.423190119779216"><ele>683.6</ele><time>2026-05-03T09:11:56Z</time></trkpt><trkpt lat="44.255910256835826" lon="11.423293127286913"><ele>684.4</ele><time>2026-05-03T09:11:57Z</time></trkpt><trkpt lat="44.255827630209644" lon="11.423363217704978"><ele>685.1999999999999</ele><time>2026-05-03T09:11:58Z</time></trkpt><trkpt lat="44.255747342634734" lon="11.423401437018052"><ele>686.0</ele><time>2026-05-03T09:11:59Z</time></trkpt><trkpt lat="44.25565063470793" lon="11.423406743779301"><ele>686.75</ele><time>2026-05-03T09:12:00Z</time></trkpt><trkpt lat="44.25553339994687" lon="11.42338328764585"><ele>687.5</ele><time>2026-05-03T09:12:01Z</time></trkpt><trkpt lat="44.255386049690195" lon="11.423347718010385"><ele>688.25</ele><time>2026-05-03T09:12:02Z</time></trkpt><trkpt lat="44.25524114037133" lon="11.423358808312983"><ele>689.0</ele><time>2026-05-03T09:12:03Z</time></trkpt><trkpt lat="44.255145060194515" lon="11.423347326819753"><ele>689.0</ele><time>2026-05-03T09:12:04Z</time></trkpt><trkpt lat="44.25506663881854" lon="11.423403251047478"><ele>689.0</ele><time>2026-05-03T09:12:05Z</time></trkpt><trkpt lat="44.25498277483939" lon="11.42349291364457"><ele>689.0</ele><time>2026-05-03T09:12:06Z</time></trkpt><trkpt lat="44.254896117939715" lon="11.423621824045615"><ele>689.0</ele><time>2026-05-03T09:12:07Z</time></trkpt><trkpt lat="44.25478940250822" lon="11.423776504753235"><ele>692.3333333333333</ele><time>2026-05-03T09:12:08Z</time></trkpt><trkpt lat="44.25466956746887" lon="11.423948961731321"><ele>695.6666666666666</ele><time>2026-05-03T09:12:09Z</time></trkpt><trkpt lat="44.2545353190144" lon="11.424117025739468"><ele>699.0</ele><time>2026-05-03T09:12:10Z</time></trkpt><trkpt lat="44.25437996688108" lon="11.42429203784993"><ele>699.0</ele><time>2026-05-03T09:12:11Z</time></trkpt><trkpt lat="44.25423664992992" lon="11.424460134926202"><ele>699.0</ele><time>2026-05-03T09:12:12Z</time></trkpt><trkpt lat="44.25410591871457" lon="11.424620763352253"><ele>699.0</ele><time>2026-05-03T09:12:13Z</time></trkpt><trkpt lat="44.25397889191185" lon="11.42477272217988"><ele>701.25</ele><time>2026-05-03T09:12:14Z</time></trkpt><trkpt lat="44.253854186469276" lon="11.424918810058669"><ele>703.5</ele><time>2026-05-03T09:12:15Z</time></trkpt><trkpt lat="44.253747672389395" lon="11.425044828371322"><ele>705.75</ele><time>2026-05-03T09:12:16Z</time></trkpt><trkpt lat="44.25364943753173" lon="11.42514195868448"><ele>708.0</ele><time>2026-05-03T09:12:17Z</time></trkpt><trkpt lat="44.25354178369125" lon="11.425212590834901"><ele>708.0</ele><time>2026-05-03T09:12:18Z</time></trkpt><trkpt lat="44.253418506616626" lon="11.42527749308626"><ele>708.0</ele><time>2026-05-03T09:12:19Z</time></trkpt><trkpt lat="44.253294808816165" lon="11.425345932476692"><ele>708.0</ele><time>2026-05-03T09:12:20Z</time></trkpt><trkpt lat="44.253145382891226" lon="11.425418524341856"><ele>708.0</ele><time>2026-05-03T09:12:21Z</time></trkpt><trkpt lat="44.252963156462144" lon="11.425480905312202"><ele>712.6666666666666</ele><time>2026-05-03T09:12:22Z</time></trkpt><trkpt lat="44.252758806909426" lon="11.425554724704158"><ele>717.3333333333333</ele><time>2026-05-03T09:12:23Z</time></trkpt><trkpt lat="44.252590092278446" lon="11.425619097443517"><ele>722.0</ele><time>2026-05-03T09:12:24Z</time></trkpt><trkpt lat="44.252443538824224" lon="11.425669866075882"><ele>722.0</ele><time>2026-05-03T09:12:25Z</time></trkpt><trkpt lat="44.25231191612387" lon="11.425706375859345"><ele>722.0</ele><time>2026-05-03T09:12:26Z</time></trkpt><trkpt lat="44.252179796337835" lon="11.425744382275239"><ele>722.0</ele><time>2026-05-03T09:12:27Z</time></trkpt><trkpt lat="44.25204700985229" lon="11.4258077884171"><ele>722.0</ele><time>2026-05-03T09:12:28Z</time></trkpt><trkpt lat="44.25192629681172" lon="11.425905288513782"><ele>722.0</ele><time>2026-05-03T09:12:29Z</time></trkpt><trkpt lat="44.25179197692817" lon="11.426026778220349"><ele>722.0</ele><time>2026-05-03T09:12:30Z</time></trkpt><trkpt lat="44.25164446313594" lon="11.426181340516191"><ele>722.0</ele><time>2026-05-03T09:12:31Z</time></trkpt><trkpt lat="44.25149534800453" lon="11.426342901401359"><ele>724.6666666666666</ele><time>2026-05-03T09:12:32Z</time></trkpt><trkpt lat="44.25134738301525" lon="11.426513923310125"><ele>727.3333333333334</ele><time>2026-05-03T09:12:33Z</time></trkpt><trkpt lat="44.25121130415395" lon="11.426656309291086"><ele>730.0</ele><time>2026-05-03T09:12:34Z</time></trkpt><trkpt lat="44.25108537411462" lon="11.426785201442044"><ele>730.0</ele><time>2026-05-03T09:12:35Z</time></trkpt><trkpt lat="44.25097957813373" lon="11.426908746420093"><ele>730.0</ele><time>2026-05-03T09:12:36Z</time></trkpt><trkpt lat="44.25088318022621" lon="11.427040933560924"><ele>730.0</ele><time>2026-05-03T09:12:37Z</time></trkpt><trkpt lat="44.25079914290874" lon="11.427177569707666"><ele>730.0</ele><time>2026-05-03T09:12:38Z</time></trkpt><trkpt lat="44.25072877510795" lon="11.42731662215273"><ele>730.2</ele><time>2026-05-03T09:12:39Z</time></trkpt><trkpt lat="44.250675176054095" lon="11.427461204385267"><ele>730.4</ele><time>2026-05-03T09:12:40Z</time></trkpt><trkpt lat="44.25064616738036" lon="11.427592466350923"><ele>730.5999999999999</ele><time>2026-05-03T09:12:41Z</time></trkpt><trkpt lat="44.250627112195566" lon="11.427716759833233"><ele>730.8</ele><time>2026-05-03T09:12:42Z</time></trkpt><trkpt lat="44.25059040376928" lon="11.427808018611984"><ele>731.0</ele><time>2026-05-03T09:12:43Z</time></trkpt><trkpt lat="44.25052936242987" lon="11.427884953947421"><ele>732.5</ele><time>2026-05-03T09:12:44Z</time></trkpt><trkpt lat="44.25045852622873" lon="11.427935829398482"><ele>734.0</ele><time>2026-05-03T09:12:45Z</time></trkpt><trkpt lat="44.25039400737887" lon="11.427981056262693"><ele>735.5</ele><time>2026-05-03T09:12:46Z</time></trkpt><trkpt lat="44.25032843297567" lon="11.428030698286662"><ele>737.0</ele><time>2026-05-03T09:12:47Z</time></trkpt><trkpt lat="44.25025296415026" lon="11.428051070769884"><ele>738.5</ele><time>2026-05-03T09:12:48Z</time></trkpt><trkpt lat="44.25017135613529" lon="11.428073688185073"><ele>740.0</ele><time>2026-05-03T09:12:49Z</time></trkpt><trkpt lat="44.250089551686195" lon="11.428107760122058"><ele>740.5</ele><time>2026-05-03T09:12:50Z</time></trkpt><trkpt lat="44.249928362309014" lon="11.428116654208985"><ele>741.0</ele><time>2026-05-03T09:12:52Z</time></trkpt><trkpt lat="44.2498556201331" lon="11.428099766088605"><ele>741.5</ele><time>2026-05-03T09:12:53Z</time></trkpt><trkpt lat="44.24975833364026" lon="11.42803077115149"><ele>742.0</ele><time>2026-05-03T09:12:55Z</time></trkpt><trkpt lat="44.24964767785877" lon="11.428010486815984"><ele>741.8333333333334</ele><time>2026-05-03T09:12:57Z</time></trkpt><trkpt lat="44.24957377552785" lon="11.427990796762215"><ele>741.6666666666667</ele><time>2026-05-03T09:12:58Z</time></trkpt><trkpt lat="44.249488598709576" lon="11.427975432879023"><ele>741.5</ele><time>2026-05-03T09:12:59Z</time></trkpt><trkpt lat="44.24940861225273" lon="11.42795142164756"><ele>741.3333333333334</ele><time>2026-05-03T09:13:00Z</time></trkpt><trkpt lat="44.24933958864991" lon="11.427916726538452"><ele>741.1666666666666</ele><time>2026-05-03T09:13:01Z</time></trkpt><trkpt lat="44.24927728661949" lon="11.427841333207166"><ele>741.0</ele><time>2026-05-03T09:13:03Z</time></trkpt><trkpt lat="44.24931862512005" lon="11.427774486152774"><ele>741.0</ele><time>2026-05-03T09:13:07Z</time></trkpt><trkpt lat="44.249429176602085" lon="11.427798868162174"><ele>741.0</ele><time>2026-05-03T09:13:09Z</time></trkpt><trkpt lat="44.2495204229125" lon="11.427802734576275"><ele>741.0</ele><time>2026-05-03T09:13:10Z</time></trkpt><trkpt lat="44.24959282656176" lon="11.427792128197062"><ele>741.0</ele><time>2026-05-03T09:13:11Z</time></trkpt><trkpt lat="44.24965510329612" lon="11.42776964846018"><ele>741.0</ele><time>2026-05-03T09:13:12Z</time></trkpt><trkpt lat="44.24971931315036" lon="11.427751203175937"><ele>741.0</ele><time>2026-05-03T09:13:13Z</time></trkpt><trkpt lat="44.24978871535371" lon="11.427736160560908"><ele>740.8571428571428</ele><time>2026-05-03T09:13:14Z</time></trkpt><trkpt lat="44.24985771123889" lon="11.427726743425685"><ele>740.7142857142858</ele><time>2026-05-03T09:13:15Z</time></trkpt><trkpt lat="44.249920821341114" lon="11.427723749617007"><ele>740.5714285714286</ele><time>2026-05-03T09:13:16Z</time></trkpt><trkpt lat="44.249985049445975" lon="11.427726470933498"><ele>740.4285714285713</ele><time>2026-05-03T09:13:17Z</time></trkpt><trkpt lat="44.2500611857172" lon="11.42772941706475"><ele>740.2857142857142</ele><time>2026-05-03T09:13:18Z</time></trkpt><trkpt lat="44.25013482631838" lon="11.427730410392408"><ele>740.1428571428571</ele><time>2026-05-03T09:13:19Z</time></trkpt><trkpt lat="44.25020248621298" lon="11.427725008390446"><ele>740.0</ele><time>2026-05-03T09:13:20Z</time></trkpt><trkpt lat="44.25026642882365" lon="11.427712077929412"><ele>740.0</ele><time>2026-05-03T09:13:21Z</time></trkpt><trkpt lat="44.250379265469405" lon="11.427715656011296"><ele>740.0</ele><time>2026-05-03T09:13:23Z</time></trkpt><trkpt lat="44.25048689436355" lon="11.42773972108936"><ele>740.0</ele><time>2026-05-03T09:13:25Z</time></trkpt><trkpt lat="44.250551516808606" lon="11.42776731486989"><ele>740.0</ele><time>2026-05-03T09:13:27Z</time></trkpt><trkpt lat="44.25060043336462" lon="11.42785788619234"><ele>740.0</ele><time>2026-05-03T09:13:31Z</time></trkpt><trkpt lat="44.25053269119906" lon="11.42784201871113"><ele>740.0</ele><time>2026-05-03T09:13:41Z</time></trkpt><trkpt lat="44.25045512002138" lon="11.42774093981844"><ele>740.0</ele><time>2026-05-03T09:13:43Z</time></trkpt><trkpt lat="44.250342712761466" lon="11.427725875345944"><ele>740.0</ele><time>2026-05-03T09:13:45Z</time></trkpt><trkpt lat="44.25023546627752" lon="11.427713783363156"><ele>740.0</ele><time>2026-05-03T09:13:46Z</time></trkpt><trkpt lat="44.250123150125525" lon="11.427719728041673"><ele>740.0</ele><time>2026-05-03T09:13:47Z</time></trkpt><trkpt lat="44.25002237475431" lon="11.427726465779465"><ele>740.0</ele><time>2026-05-03T09:13:48Z</time></trkpt><trkpt lat="44.24994477879858" lon="11.427733235131841"><ele>740.0</ele><time>2026-05-03T09:13:49Z</time></trkpt><trkpt lat="44.24986834612149" lon="11.427732126934693"><ele>740.0</ele><time>2026-05-03T09:13:50Z</time></trkpt><trkpt lat="44.24977343483417" lon="11.427740207809624"><ele>740.0</ele><time>2026-05-03T09:13:51Z</time></trkpt><trkpt lat="44.24967065588683" lon="11.427755110674726"><ele>740.0</ele><time>2026-05-03T09:13:52Z</time></trkpt><trkpt lat="44.24958032488764" lon="11.427772567601497"><ele>740.0</ele><time>2026-05-03T09:13:53Z</time></trkpt><trkpt lat="44.24949989357958" lon="11.42778615509212"><ele>740.0</ele><time>2026-05-03T09:13:54Z</time></trkpt><trkpt lat="44.24942201459396" lon="11.427800458435984"><ele>740.1666666666666</ele><time>2026-05-03T09:13:55Z</time></trkpt><trkpt lat="44.24934687519977" lon="11.427812533609087"><ele>740.3333333333333</ele><time>2026-05-03T09:13:56Z</time></trkpt><trkpt lat="44.249282714899" lon="11.427821641118221"><ele>740.5</ele><time>2026-05-03T09:13:57Z</time></trkpt><trkpt lat="44.24921357675786" lon="11.427832006633047"><ele>740.6666666666666</ele><time>2026-05-03T09:13:58Z</time></trkpt><trkpt lat="44.24913820708179" lon="11.427849224884536"><ele>740.8333333333334</ele><time>2026-05-03T09:13:59Z</time></trkpt><trkpt lat="44.24904587318127" lon="11.427839475529813"><ele>741.0</ele><time>2026-05-03T09:14:01Z</time></trkpt><trkpt lat="44.24903581148593" lon="11.427735029556933"><ele>741.0</ele><time>2026-05-03T09:14:04Z</time></trkpt><trkpt lat="44.249105425131425" lon="11.427672621441348"><ele>741.0</ele><time>2026-05-03T09:14:06Z</time></trkpt><trkpt lat="44.24919476052871" lon="11.427632854043017"><ele>741.0</ele><time>2026-05-03T09:14:07Z</time></trkpt><trkpt lat="44.24927111842311" lon="11.427616252834483"><ele>741.0</ele><time>2026-05-03T09:14:08Z</time></trkpt><trkpt lat="44.24937038434064" lon="11.427575668466645"><ele>741.0</ele><time>2026-05-03T09:14:10Z</time></trkpt><trkpt lat="44.24943176791107" lon="11.42753065348467"><ele>741.0</ele><time>2026-05-03T09:14:20Z</time></trkpt><trkpt lat="44.24940609872167" lon="11.427663189636839"><ele>741.0</ele><time>2026-05-03T09:16:03Z</time></trkpt><trkpt lat="44.24939790822551" lon="11.427558787896329"><ele>741.0</ele><time>2026-05-03T09:16:05Z</time></trkpt><trkpt lat="44.24939893405075" lon="11.427466314343883"><ele>741.0</ele><time>2026-05-03T09:16:22Z</time></trkpt><trkpt lat="44.24930911914512" lon="11.427546518183"><ele>741.0</ele><time>2026-05-03T09:16:24Z</time></trkpt><trkpt lat="44.24920983155263" lon="11.427647953487316"><ele>741.0</ele><time>2026-05-03T09:16:26Z</time></trkpt><trkpt lat="44.24908549160501" lon="11.427723244465492"><ele>741.0</ele><time>2026-05-03T09:16:28Z</time></trkpt><trkpt lat="44.24900287146629" lon="11.427795304298392"><ele>741.0</ele><time>2026-05-03T09:16:30Z</time></trkpt><trkpt lat="44.24893723843191" lon="11.427845120370355"><ele>741.0</ele><time>2026-05-03T09:16:32Z</time></trkpt><trkpt lat="44.24882289911114" lon="11.427932710799647"><ele>741.0</ele><time>2026-05-03T09:16:34Z</time></trkpt><trkpt lat="44.24874713350011" lon="11.427957406459798"><ele>741.0</ele><time>2026-05-03T09:16:35Z</time></trkpt><trkpt lat="44.24865987826073" lon="11.427969235373055"><ele>739.6666666666666</ele><time>2026-05-03T09:16:36Z</time></trkpt><trkpt lat="44.24858113477774" lon="11.427968874484868"><ele>738.3333333333334</ele><time>2026-05-03T09:16:37Z</time></trkpt><trkpt lat="44.24850440768511" lon="11.427963380404066"><ele>737.0</ele><time>2026-05-03T09:16:38Z</time></trkpt><trkpt lat="44.248430731816285" lon="11.427954680698637"><ele>735.6666666666667</ele><time>2026-05-03T09:16:39Z</time></trkpt><trkpt lat="44.248356284613934" lon="11.427920513339828"><ele>734.3333333333334</ele><time>2026-05-03T09:16:40Z</time></trkpt><trkpt lat="44.24829197269609" lon="11.427858931987362"><ele>733.0</ele><time>2026-05-03T09:16:41Z</time></trkpt><trkpt lat="44.24823416253037" lon="11.427790998575919"><ele>733.0</ele><time>2026-05-03T09:16:42Z</time></trkpt><trkpt lat="44.248181288341705" lon="11.427719210369634"><ele>733.0</ele><time>2026-05-03T09:16:43Z</time></trkpt><trkpt lat="44.248122310704275" lon="11.4276208096594"><ele>733.0</ele><time>2026-05-03T09:16:44Z</time></trkpt><trkpt lat="44.24808405219373" lon="11.427501499033028"><ele>733.0</ele><time>2026-05-03T09:16:45Z</time></trkpt><trkpt lat="44.248047998595965" lon="11.427375083892047"><ele>733.0</ele><time>2026-05-03T09:16:46Z</time></trkpt><trkpt lat="44.24801051287097" lon="11.427216822777952"><ele>733.4</ele><time>2026-05-03T09:16:47Z</time></trkpt><trkpt lat="44.24797577080957" lon="11.427047295197992"><ele>733.8</ele><time>2026-05-03T09:16:48Z</time></trkpt><trkpt lat="44.2479309344036" lon="11.426911138252994"><ele>734.2</ele><time>2026-05-03T09:16:49Z</time></trkpt><trkpt lat="44.24787680298478" lon="11.426811824917989"><ele>734.6</ele><time>2026-05-03T09:16:50Z</time></trkpt><trkpt lat="44.24781139471782" lon="11.426747664560988"><ele>735.0</ele><time>2026-05-03T09:16:51Z</time></trkpt><trkpt lat="44.247723190471724" lon="11.426685449414476"><ele>735.0</ele><time>2026-05-03T09:16:52Z</time></trkpt><trkpt lat="44.24761388473277" lon="11.42663314689407"><ele>735.0</ele><time>2026-05-03T09:16:53Z</time></trkpt><trkpt lat="44.2474802024035" lon="11.426588151899901"><ele>735.0</ele><time>2026-05-03T09:16:54Z</time></trkpt><trkpt lat="44.247326927799655" lon="11.426550823539028"><ele>735.0</ele><time>2026-05-03T09:16:55Z</time></trkpt><trkpt lat="44.24719798516543" lon="11.42650844123287"><ele>735.25</ele><time>2026-05-03T09:16:56Z</time></trkpt><trkpt lat="44.24707009349447" lon="11.426442646970038"><ele>735.5</ele><time>2026-05-03T09:16:57Z</time></trkpt><trkpt lat="44.24693290886028" lon="11.426353275217902"><ele>735.75</ele><time>2026-05-03T09:16:58Z</time></trkpt><trkpt lat="44.246800283473405" lon="11.42628740224785"><ele>736.0</ele><time>2026-05-03T09:16:59Z</time></trkpt><trkpt lat="44.24665726928818" lon="11.426223793350328"><ele>736.0</ele><time>2026-05-03T09:17:00Z</time></trkpt><trkpt lat="44.246510897060126" lon="11.426167164936318"><ele>736.0</ele><time>2026-05-03T09:17:01Z</time></trkpt><trkpt lat="44.246375043367244" lon="11.426124466382252"><ele>736.0</ele><time>2026-05-03T09:17:02Z</time></trkpt><trkpt lat="44.246253520494875" lon="11.426097355481982"><ele>736.0</ele><time>2026-05-03T09:17:03Z</time></trkpt><trkpt lat="44.24614402278111" lon="11.42608582920948"><ele>736.5999999999999</ele><time>2026-05-03T09:17:04Z</time></trkpt><trkpt lat="44.246024737009925" lon="11.426079757073335"><ele>737.2</ele><time>2026-05-03T09:17:05Z</time></trkpt><trkpt lat="44.24590912778987" lon="11.426067946814955"><ele>737.8</ele><time>2026-05-03T09:17:06Z</time></trkpt><trkpt lat="44.24580160834312" lon="11.42606066321396"><ele>738.4000000000001</ele><time>2026-05-03T09:17:07Z</time></trkpt><trkpt lat="44.24569776295481" lon="11.42604844823969"><ele>739.0</ele><time>2026-05-03T09:17:08Z</time></trkpt><trkpt lat="44.245592038043306" lon="11.426043081169178"><ele>739.2</ele><time>2026-05-03T09:17:09Z</time></trkpt><trkpt lat="44.245498464262624" lon="11.426045620637629"><ele>739.4000000000001</ele><time>2026-05-03T09:17:10Z</time></trkpt><trkpt lat="44.24540693013979" lon="11.426060670988976"><ele>739.6</ele><time>2026-05-03T09:17:11Z</time></trkpt><trkpt lat="44.24530331217592" lon="11.426070141215568"><ele>739.8</ele><time>2026-05-03T09:17:12Z</time></trkpt><trkpt lat="44.24518485133672" lon="11.42606221458201"><ele>740.0</ele><time>2026-05-03T09:17:13Z</time></trkpt><trkpt lat="44.24505867672116" lon="11.426056298388882"><ele>740.0</ele><time>2026-05-03T09:17:14Z</time></trkpt><trkpt lat="44.24491489941005" lon="11.426057549077209"><ele>740.0</ele><time>2026-05-03T09:17:15Z</time></trkpt><trkpt lat="44.24475895006673" lon="11.426045791098003"><ele>740.0</ele><time>2026-05-03T09:17:16Z</time></trkpt><trkpt lat="44.24461669791593" lon="11.426019296293287"><ele>740.0</ele><time>2026-05-03T09:17:17Z</time></trkpt><trkpt lat="44.24446760591681" lon="11.425983821788353"><ele>739.0</ele><time>2026-05-03T09:17:18Z</time></trkpt><trkpt lat="44.244304158993124" lon="11.425930827337663"><ele>738.0</ele><time>2026-05-03T09:17:19Z</time></trkpt><trkpt lat="44.24412103623017" lon="11.425856875857553"><ele>737.0</ele><time>2026-05-03T09:17:20Z</time></trkpt><trkpt lat="44.24393680714036" lon="11.425785935216306"><ele>736.0</ele><time>2026-05-03T09:17:21Z</time></trkpt><trkpt lat="44.24374636634265" lon="11.42571921440856"><ele>735.0</ele><time>2026-05-03T09:17:22Z</time></trkpt><trkpt lat="44.243566043822526" lon="11.425660028956518"><ele>734.0</ele><time>2026-05-03T09:17:23Z</time></trkpt><trkpt lat="44.24338374745012" lon="11.425611560444432"><ele>734.0</ele><time>2026-05-03T09:17:24Z</time></trkpt><trkpt lat="44.243217805877826" lon="11.425564519038918"><ele>734.0</ele><time>2026-05-03T09:17:25Z</time></trkpt><trkpt lat="44.243062137144975" lon="11.42552005067016"><ele>734.0</ele><time>2026-05-03T09:17:26Z</time></trkpt><trkpt lat="44.24293113046021" lon="11.42547612438489"><ele>733.75</ele><time>2026-05-03T09:17:27Z</time></trkpt><trkpt lat="44.24281244450987" lon="11.425428479699114"><ele>733.5</ele><time>2026-05-03T09:17:28Z</time></trkpt><trkpt lat="44.24270175607959" lon="11.425365539609242"><ele>733.25</ele><time>2026-05-03T09:17:29Z</time></trkpt><trkpt lat="44.24259631398974" lon="11.425290317507006"><ele>733.0</ele><time>2026-05-03T09:17:30Z</time></trkpt><trkpt lat="44.24249633666587" lon="11.4251903267281"><ele>733.0</ele><time>2026-05-03T09:17:31Z</time></trkpt><trkpt lat="44.242404070951686" lon="11.425055473337562"><ele>733.0</ele><time>2026-05-03T09:17:32Z</time></trkpt><trkpt lat="44.24231524436095" lon="11.424891746761121"><ele>733.0</ele><time>2026-05-03T09:17:33Z</time></trkpt><trkpt lat="44.24221778636575" lon="11.424716903553513"><ele>733.0</ele><time>2026-05-03T09:17:34Z</time></trkpt><trkpt lat="44.24213000477798" lon="11.42457643811293"><ele>733.0</ele><time>2026-05-03T09:17:35Z</time></trkpt><trkpt lat="44.24202453624625" lon="11.424467987289658"><ele>733.0</ele><time>2026-05-03T09:17:36Z</time></trkpt><trkpt lat="44.24188493579724" lon="11.424359265403115"><ele>733.0</ele><time>2026-05-03T09:17:37Z</time></trkpt><trkpt lat="44.24171574025406" lon="11.424234184703087"><ele>733.0</ele><time>2026-05-03T09:17:38Z</time></trkpt><trkpt lat="44.241530821834395" lon="11.424088211487565"><ele>733.0</ele><time>2026-05-03T09:17:38.999Z</time></trkpt><trkpt lat="44.24133699518566" lon="11.42394729349189"><ele>733.0</ele><time>2026-05-03T09:17:39.999Z</time></trkpt><trkpt lat="44.241141795955365" lon="11.423800132716371"><ele>732.3333333333334</ele><time>2026-05-03T09:17:40.999Z</time></trkpt><trkpt lat="44.240970312914136" lon="11.423667830415175"><ele>731.6666666666666</ele><time>2026-05-03T09:17:41.999Z</time></trkpt><trkpt lat="44.2408117165641" lon="11.423552807702677"><ele>731.0</ele><time>2026-05-03T09:17:42.999Z</time></trkpt><trkpt lat="44.240672268594416" lon="11.423435014641544"><ele>731.5</ele><time>2026-05-03T09:17:43.999Z</time></trkpt><trkpt lat="44.24056279103955" lon="11.423329662138377"><ele>732.0</ele><time>2026-05-03T09:17:44.999Z</time></trkpt><trkpt lat="44.240462429864195" lon="11.423213255652545"><ele>732.5</ele><time>2026-05-03T09:17:45.999Z</time></trkpt><trkpt lat="44.24036398233971" lon="11.423077130934397"><ele>733.0</ele><time>2026-05-03T09:17:46.999Z</time></trkpt><trkpt lat="44.240279701662" lon="11.422918758865364"><ele>733.0</ele><time>2026-05-03T09:17:47.999Z</time></trkpt><trkpt lat="44.24019682608025" lon="11.422738951212013"><ele>733.0</ele><time>2026-05-03T09:17:48.999Z</time></trkpt><trkpt lat="44.240144521500916" lon="11.422571085195742"><ele>733.0</ele><time>2026-05-03T09:17:49.999Z</time></trkpt><trkpt lat="44.24009302138548" lon="11.422407539438462"><ele>733.0</ele><time>2026-05-03T09:17:50.999Z</time></trkpt><trkpt lat="44.24001412285772" lon="11.42226535297999"><ele>732.25</ele><time>2026-05-03T09:17:51.999Z</time></trkpt><trkpt lat="44.23992492643366" lon="11.422086709266841"><ele>731.5</ele><time>2026-05-03T09:17:52.999Z</time></trkpt><trkpt lat="44.23984721517718" lon="11.421911639380106"><ele>730.75</ele><time>2026-05-03T09:17:53.999Z</time></trkpt><trkpt lat="44.23976732102445" lon="11.421768927955211"><ele>730.0</ele><time>2026-05-03T09:17:54.999Z</time></trkpt><trkpt lat="44.239684575037316" lon="11.421669194301424"><ele>730.0</ele><time>2026-05-03T09:17:55.999Z</time></trkpt><trkpt lat="44.23956909128038" lon="11.421574995193941"><ele>730.0</ele><time>2026-05-03T09:17:56.999Z</time></trkpt><trkpt lat="44.23943649662746" lon="11.421483119665996"><ele>730.0</ele><time>2026-05-03T09:17:57.999Z</time></trkpt><trkpt lat="44.23930969073569" lon="11.421422679852164"><ele>730.0</ele><time>2026-05-03T09:17:58.999Z</time></trkpt><trkpt lat="44.239194286307445" lon="11.421378445618215"><ele>730.0</ele><time>2026-05-03T09:17:59.999Z</time></trkpt><trkpt lat="44.239078818551064" lon="11.421368176828073"><ele>730.0</ele><time>2026-05-03T09:18:00.999Z</time></trkpt><trkpt lat="44.23895594512797" lon="11.421361647792803"><ele>730.0</ele><time>2026-05-03T09:18:02Z</time></trkpt><trkpt lat="44.23883456189632" lon="11.421352057311605"><ele>730.0</ele><time>2026-05-03T09:18:03Z</time></trkpt><trkpt lat="44.23869245625089" lon="11.421355171041862"><ele>730.25</ele><time>2026-05-03T09:18:04Z</time></trkpt><trkpt lat="44.23855285621959" lon="11.421383886542955"><ele>730.5</ele><time>2026-05-03T09:18:05Z</time></trkpt><trkpt lat="44.238418357238416" lon="11.421409486587804"><ele>730.75</ele><time>2026-05-03T09:18:06Z</time></trkpt><trkpt lat="44.23828940494141" lon="11.421403046976923"><ele>731.0</ele><time>2026-05-03T09:18:07Z</time></trkpt><trkpt lat="44.23816743045884" lon="11.421376095455667"><ele>731.25</ele><time>2026-05-03T09:18:08Z</time></trkpt><trkpt lat="44.23804553815979" lon="11.421384936618178"><ele>731.5</ele><time>2026-05-03T09:18:09Z</time></trkpt><trkpt lat="44.23792042126332" lon="11.421435477896013"><ele>731.75</ele><time>2026-05-03T09:18:10Z</time></trkpt><trkpt lat="44.2377997555988" lon="11.4214515573889"><ele>732.0</ele><time>2026-05-03T09:18:11Z</time></trkpt><trkpt lat="44.23769275791957" lon="11.421426236447202"><ele>732.0</ele><time>2026-05-03T09:18:12Z</time></trkpt><trkpt lat="44.2376000608902" lon="11.421380067531116"><ele>732.0</ele><time>2026-05-03T09:18:13Z</time></trkpt><trkpt lat="44.237521432227275" lon="11.421299398263852"><ele>732.0</ele><time>2026-05-03T09:18:14Z</time></trkpt><trkpt lat="44.23743885263624" lon="11.421181720513758"><ele>732.0</ele><time>2026-05-03T09:18:15Z</time></trkpt><trkpt lat="44.23735434368151" lon="11.421037584310529"><ele>732.0</ele><time>2026-05-03T09:18:16Z</time></trkpt><trkpt lat="44.23725022052309" lon="11.420925922282624"><ele>734.6</ele><time>2026-05-03T09:18:17Z</time></trkpt><trkpt lat="44.23715605613422" lon="11.420864796553062"><ele>737.2</ele><time>2026-05-03T09:18:18Z</time></trkpt><trkpt lat="44.23707170020298" lon="11.420810295658093"><ele>739.8</ele><time>2026-05-03T09:18:19Z</time></trkpt><trkpt lat="44.23698871885135" lon="11.42074573436334"><ele>742.4</ele><time>2026-05-03T09:18:20Z</time></trkpt><trkpt lat="44.23690116746131" lon="11.420701482133289"><ele>745.0</ele><time>2026-05-03T09:18:21Z</time></trkpt><trkpt lat="44.23679751766927" lon="11.420695476693627"><ele>745.0</ele><time>2026-05-03T09:18:22Z</time></trkpt><trkpt lat="44.236667410266314" lon="11.420707532453402"><ele>745.0</ele><time>2026-05-03T09:18:23Z</time></trkpt><trkpt lat="44.23651459449148" lon="11.42072855793018"><ele>745.0</ele><time>2026-05-03T09:18:24Z</time></trkpt><trkpt lat="44.23637617224978" lon="11.42072618821949"><ele>745.0</ele><time>2026-05-03T09:18:25Z</time></trkpt><trkpt lat="44.23626451517359" lon="11.420723425427024"><ele>745.8</ele><time>2026-05-03T09:18:26Z</time></trkpt><trkpt lat="44.236157261452014" lon="11.420705787598656"><ele>746.6</ele><time>2026-05-03T09:18:27Z</time></trkpt><trkpt lat="44.236050231244164" lon="11.42067615194589"><ele>747.4000000000001</ele><time>2026-05-03T09:18:28Z</time></trkpt><trkpt lat="44.235946095874844" lon="11.42062093831764"><ele>748.2</ele><time>2026-05-03T09:18:29Z</time></trkpt><trkpt lat="44.235848168236195" lon="11.420542167001333"><ele>749.0</ele><time>2026-05-03T09:18:30Z</time></trkpt><trkpt lat="44.23573753570785" lon="11.420421889994905"><ele>749.0</ele><time>2026-05-03T09:18:31Z</time></trkpt><trkpt lat="44.2356441998983" lon="11.420343467752485"><ele>749.0</ele><time>2026-05-03T09:18:32Z</time></trkpt><trkpt lat="44.23555144665579" lon="11.420326734442007"><ele>749.0</ele><time>2026-05-03T09:18:33Z</time></trkpt><trkpt lat="44.23544160020869" lon="11.42033624434607"><ele>749.0</ele><time>2026-05-03T09:18:34Z</time></trkpt><trkpt lat="44.23533644460136" lon="11.42033212648308"><ele>749.0</ele><time>2026-05-03T09:18:35Z</time></trkpt><trkpt lat="44.23525714897174" lon="11.420298474787092"><ele>751.8000000000001</ele><time>2026-05-03T09:18:36Z</time></trkpt><trkpt lat="44.235186914035296" lon="11.420236956690967"><ele>754.6</ele><time>2026-05-03T09:18:37Z</time></trkpt><trkpt lat="44.23511402465383" lon="11.42015247541748"><ele>757.4</ele><time>2026-05-03T09:18:38Z</time></trkpt><trkpt lat="44.235051331916836" lon="11.420044180467437"><ele>760.2</ele><time>2026-05-03T09:18:39Z</time></trkpt><trkpt lat="44.2349909567121" lon="11.419920987558507"><ele>763.0</ele><time>2026-05-03T09:18:40Z</time></trkpt><trkpt lat="44.23495194229185" lon="11.419808827268653"><ele>763.0</ele><time>2026-05-03T09:18:41Z</time></trkpt><trkpt lat="44.234937490028294" lon="11.419691589288648"><ele>763.0</ele><time>2026-05-03T09:18:42Z</time></trkpt><trkpt lat="44.23493952985481" lon="11.419532832430711"><ele>763.0</ele><time>2026-05-03T09:18:43Z</time></trkpt><trkpt lat="44.23494203187046" lon="11.419331206763122"><ele>763.0</ele><time>2026-05-03T09:18:44Z</time></trkpt><trkpt lat="44.23491358277159" lon="11.419148898030176"><ele>762.6666666666667</ele><time>2026-05-03T09:18:45Z</time></trkpt><trkpt lat="44.234864191596586" lon="11.418971022395846"><ele>762.3333333333334</ele><time>2026-05-03T09:18:46Z</time></trkpt><trkpt lat="44.23481013641924" lon="11.418770092003372"><ele>762.0</ele><time>2026-05-03T09:18:47Z</time></trkpt><trkpt lat="44.23476212491882" lon="11.418554564770055"><ele>762.0</ele><time>2026-05-03T09:18:48Z</time></trkpt><trkpt lat="44.23470122315698" lon="11.4183701421848"><ele>762.0</ele><time>2026-05-03T09:18:49Z</time></trkpt><trkpt lat="44.23461367290379" lon="11.418181522638656"><ele>762.0</ele><time>2026-05-03T09:18:50Z</time></trkpt><trkpt lat="44.23451178858419" lon="11.417970957346885"><ele>762.0</ele><time>2026-05-03T09:18:51Z</time></trkpt><trkpt lat="44.23442499559658" lon="11.417768592118009"><ele>762.0</ele><time>2026-05-03T09:18:52Z</time></trkpt><trkpt lat="44.2343484361424" lon="11.41759496856065"><ele>762.0</ele><time>2026-05-03T09:18:53Z</time></trkpt><trkpt lat="44.234291984805665" lon="11.41745327387651"><ele>762.0</ele><time>2026-05-03T09:18:54Z</time></trkpt><trkpt lat="44.23423362918062" lon="11.41733237743476"><ele>762.0</ele><time>2026-05-03T09:18:55Z</time></trkpt><trkpt lat="44.23416504591187" lon="11.417220482746"><ele>762.0</ele><time>2026-05-03T09:18:56Z</time></trkpt><trkpt lat="44.234069396001274" lon="11.41713277930874"><ele>762.0</ele><time>2026-05-03T09:18:57Z</time></trkpt><trkpt lat="44.23397348989402" lon="11.417052155701418"><ele>762.0</ele><time>2026-05-03T09:18:58Z</time></trkpt><trkpt lat="44.23390580550572" lon="11.416957928453733"><ele>762.0</ele><time>2026-05-03T09:18:59Z</time></trkpt><trkpt lat="44.23384868056031" lon="11.416831930157201"><ele>761.25</ele><time>2026-05-03T09:19:00Z</time></trkpt><trkpt lat="44.23379280432869" lon="11.416668421464884"><ele>760.5</ele><time>2026-05-03T09:19:01Z</time></trkpt><trkpt lat="44.2337171722752" lon="11.416483433105794"><ele>759.75</ele><time>2026-05-03T09:19:02Z</time></trkpt><trkpt lat="44.233650613552335" lon="11.416312260867334"><ele>759.0</ele><time>2026-05-03T09:19:03Z</time></trkpt><trkpt lat="44.23359105784698" lon="11.41614323318644"><ele>759.0</ele><time>2026-05-03T09:19:04Z</time></trkpt><trkpt lat="44.233548759785094" lon="11.41596073569649"><ele>759.0</ele><time>2026-05-03T09:19:05Z</time></trkpt><trkpt lat="44.23352575821701" lon="11.415771229342162"><ele>759.0</ele><time>2026-05-03T09:19:06Z</time></trkpt><trkpt lat="44.23351454572993" lon="11.415570132286996"><ele>759.0</ele><time>2026-05-03T09:19:07Z</time></trkpt><trkpt lat="44.23350421533131" lon="11.415360590116194"><ele>760.75</ele><time>2026-05-03T09:19:08Z</time></trkpt><trkpt lat="44.233486105547236" lon="11.41514325138286"><ele>762.5</ele><time>2026-05-03T09:19:09Z</time></trkpt><trkpt lat="44.23346324406111" lon="11.414956465813459"><ele>764.25</ele><time>2026-05-03T09:19:10Z</time></trkpt><trkpt lat="44.233442257887056" lon="11.414813322277846"><ele>766.0</ele><time>2026-05-03T09:19:11Z</time></trkpt><trkpt lat="44.23340020427094" lon="11.414665391551429"><ele>766.5999999999999</ele><time>2026-05-03T09:19:12Z</time></trkpt><trkpt lat="44.23334534531233" lon="11.414541292003756"><ele>767.2</ele><time>2026-05-03T09:19:13Z</time></trkpt><trkpt lat="44.23328434278523" lon="11.414437749231555"><ele>767.8</ele><time>2026-05-03T09:19:14Z</time></trkpt><trkpt lat="44.23321820435874" lon="11.41436984616838"><ele>768.4000000000001</ele><time>2026-05-03T09:19:15Z</time></trkpt><trkpt lat="44.23314992918472" lon="11.414328027834049"><ele>769.0</ele><time>2026-05-03T09:19:16Z</time></trkpt><trkpt lat="44.23306314497451" lon="11.414260259388413"><ele>769.0</ele><time>2026-05-03T09:19:17Z</time></trkpt><trkpt lat="44.23297493960474" lon="11.414136097253202"><ele>769.0</ele><time>2026-05-03T09:19:18Z</time></trkpt><trkpt lat="44.23286146124681" lon="11.413967725350135"><ele>769.0</ele><time>2026-05-03T09:19:19Z</time></trkpt><trkpt lat="44.232738083935914" lon="11.413834834075852"><ele>769.0</ele><time>2026-05-03T09:19:20Z</time></trkpt><trkpt lat="44.23261108996718" lon="11.413726962668921"><ele>770.0</ele><time>2026-05-03T09:19:21Z</time></trkpt><trkpt lat="44.23250728852731" lon="11.413638236871558"><ele>771.0</ele><time>2026-05-03T09:19:22Z</time></trkpt><trkpt lat="44.232418465139055" lon="11.41356501267716"><ele>772.0</ele><time>2026-05-03T09:19:23Z</time></trkpt><trkpt lat="44.23232452287498" lon="11.41352586405436"><ele>773.0</ele><time>2026-05-03T09:19:24Z</time></trkpt><trkpt lat="44.23222115993363" lon="11.41347482416697"><ele>774.0</ele><time>2026-05-03T09:19:25Z</time></trkpt><trkpt lat="44.232104585418895" lon="11.41343797689937"><ele>774.0</ele><time>2026-05-03T09:19:26Z</time></trkpt><trkpt lat="44.23200330968167" lon="11.413410966301042"><ele>774.0</ele><time>2026-05-03T09:19:27Z</time></trkpt><trkpt lat="44.231904586047875" lon="11.413406397203262"><ele>774.0</ele><time>2026-05-03T09:19:28Z</time></trkpt><trkpt lat="44.23182882567588" lon="11.413409182081846"><ele>774.0</ele><time>2026-05-03T09:19:29Z</time></trkpt><trkpt lat="44.23168599476891" lon="11.413355404341974"><ele>774.0</ele><time>2026-05-03T09:19:31Z</time></trkpt><trkpt lat="44.23156105309743" lon="11.41324469145199"><ele>771.3333333333334</ele><time>2026-05-03T09:19:32Z</time></trkpt><trkpt lat="44.23142491180438" lon="11.413108562062607"><ele>768.6666666666667</ele><time>2026-05-03T09:19:33Z</time></trkpt><trkpt lat="44.23130536709127" lon="11.41297529546341"><ele>766.0</ele><time>2026-05-03T09:19:34Z</time></trkpt><trkpt lat="44.23117906165715" lon="11.412843710853368"><ele>766.0</ele><time>2026-05-03T09:19:35Z</time></trkpt><trkpt lat="44.23104605410047" lon="11.412737946714627"><ele>766.0</ele><time>2026-05-03T09:19:36Z</time></trkpt><trkpt lat="44.23089509405249" lon="11.412652647236223"><ele>766.0</ele><time>2026-05-03T09:19:37Z</time></trkpt><trkpt lat="44.230739339119715" lon="11.412556826574813"><ele>766.25</ele><time>2026-05-03T09:19:38Z</time></trkpt><trkpt lat="44.23060285374945" lon="11.412450964753733"><ele>766.5</ele><time>2026-05-03T09:19:39Z</time></trkpt><trkpt lat="44.230482798168666" lon="11.412355919114983"><ele>766.75</ele><time>2026-05-03T09:19:40Z</time></trkpt><trkpt lat="44.230364273214946" lon="11.412231952394764"><ele>767.0</ele><time>2026-05-03T09:19:41Z</time></trkpt><trkpt lat="44.23023444424445" lon="11.412081896787111"><ele>767.0</ele><time>2026-05-03T09:19:42Z</time></trkpt><trkpt lat="44.23014587732157" lon="11.411977393935803"><ele>767.0</ele><time>2026-05-03T09:19:43Z</time></trkpt><trkpt lat="44.23007446742265" lon="11.411895197308187"><ele>767.0</ele><time>2026-05-03T09:19:44Z</time></trkpt><trkpt lat="44.229986312118676" lon="11.411824687599509"><ele>767.0</ele><time>2026-05-03T09:19:45Z</time></trkpt><trkpt lat="44.22988211940025" lon="11.411783615680724"><ele>767.0</ele><time>2026-05-03T09:19:46Z</time></trkpt><trkpt lat="44.22974153837599" lon="11.41174370762958"><ele>768.0</ele><time>2026-05-03T09:19:47Z</time></trkpt><trkpt lat="44.22961585959302" lon="11.411717594839022"><ele>769.0</ele><time>2026-05-03T09:19:48Z</time></trkpt><trkpt lat="44.22950339001857" lon="11.411685627792638"><ele>770.0</ele><time>2026-05-03T09:19:49Z</time></trkpt><trkpt lat="44.22940169122034" lon="11.411635293517229"><ele>771.0</ele><time>2026-05-03T09:19:50Z</time></trkpt><trkpt lat="44.22929178529575" lon="11.411530773659345"><ele>771.0</ele><time>2026-05-03T09:19:51Z</time></trkpt><trkpt lat="44.22916354413823" lon="11.411402451653311"><ele>771.0</ele><time>2026-05-03T09:19:52Z</time></trkpt><trkpt lat="44.229051131773" lon="11.41130087905049"><ele>771.0</ele><time>2026-05-03T09:19:53Z</time></trkpt><trkpt lat="44.228953084142496" lon="11.411195500930233"><ele>771.0</ele><time>2026-05-03T09:19:54Z</time></trkpt><trkpt lat="44.228870340934115" lon="11.41110626533381"><ele>771.4</ele><time>2026-05-03T09:19:55Z</time></trkpt><trkpt lat="44.228797920162606" lon="11.41101916625149"><ele>771.8</ele><time>2026-05-03T09:19:56Z</time></trkpt><trkpt lat="44.22873966442099" lon="11.410919067717414"><ele>772.1999999999999</ele><time>2026-05-03T09:19:57Z</time></trkpt><trkpt lat="44.22868441162785" lon="11.410803895043585"><ele>772.5999999999999</ele><time>2026-05-03T09:19:58Z</time></trkpt><trkpt lat="44.22865460234405" lon="11.410684684203657"><ele>773.0</ele><time>2026-05-03T09:19:59Z</time></trkpt><trkpt lat="44.22864146486665" lon="11.410555142570436"><ele>774.2</ele><time>2026-05-03T09:20:00Z</time></trkpt><trkpt lat="44.22865788273118" lon="11.410440619906113"><ele>775.4</ele><time>2026-05-03T09:20:01Z</time></trkpt><trkpt lat="44.22867605113893" lon="11.410321638341788"><ele>776.6</ele><time>2026-05-03T09:20:02Z</time></trkpt><trkpt lat="44.228674217512655" lon="11.410193552304142"><ele>777.8000000000001</ele><time>2026-05-03T09:20:03Z</time></trkpt><trkpt lat="44.22866137173909" lon="11.410059851182488"><ele>779.0</ele><time>2026-05-03T09:20:04Z</time></trkpt><trkpt lat="44.2286491708332" lon="11.40992461963109"><ele>779.0000000000001</ele><time>2026-05-03T09:20:05Z</time></trkpt><trkpt lat="44.228635543488735" lon="11.409811426594722"><ele>779.0</ele><time>2026-05-03T09:20:06Z</time></trkpt><trkpt lat="44.22862408960638" lon="11.409722597884329"><ele>779.0</ele><time>2026-05-03T09:20:07Z</time></trkpt><trkpt lat="44.22858903800782" lon="11.409552145076699"><ele>779.0</ele><time>2026-05-03T09:20:09Z</time></trkpt><trkpt lat="44.22854270650406" lon="11.409474340730537"><ele>779.0000000000001</ele><time>2026-05-03T09:20:10Z</time></trkpt><trkpt lat="44.228471646012146" lon="11.40940468789033"><ele>779.0</ele><time>2026-05-03T09:20:11Z</time></trkpt><trkpt lat="44.228391565160905" lon="11.40935366048408"><ele>779.8333333333334</ele><time>2026-05-03T09:20:12Z</time></trkpt><trkpt lat="44.22831797618943" lon="11.409303259420271"><ele>780.6666666666667</ele><time>2026-05-03T09:20:13Z</time></trkpt><trkpt lat="44.22824704727886" lon="11.409253299757665"><ele>781.5</ele><time>2026-05-03T09:20:14Z</time></trkpt><trkpt lat="44.228181931316634" lon="11.409204977805517"><ele>782.3333333333333</ele><time>2026-05-03T09:20:15Z</time></trkpt><trkpt lat="44.22813360362648" lon="11.409134386276357"><ele>783.1666666666666</ele><time>2026-05-03T09:20:16Z</time></trkpt><trkpt lat="44.22810455141348" lon="11.409045565437628"><ele>784.0</ele><time>2026-05-03T09:20:17Z</time></trkpt><trkpt lat="44.22806086318411" lon="11.408945419730284"><ele>782.6</ele><time>2026-05-03T09:20:18Z</time></trkpt><trkpt lat="44.22801327493053" lon="11.40880975813812"><ele>781.2</ele><time>2026-05-03T09:20:19Z</time></trkpt><trkpt lat="44.227960343149554" lon="11.40869107541858"><ele>779.8000000000001</ele><time>2026-05-03T09:20:20Z</time></trkpt><trkpt lat="44.2279151485262" lon="11.408585242849625"><ele>778.4000000000001</ele><time>2026-05-03T09:20:21Z</time></trkpt><trkpt lat="44.227871947321" lon="11.408492130698994"><ele>777.0</ele><time>2026-05-03T09:20:22Z</time></trkpt><trkpt lat="44.227835499690286" lon="11.408346164817484"><ele>777.0</ele><time>2026-05-03T09:20:24Z</time></trkpt><trkpt lat="44.22783291618848" lon="11.408250119193967"><ele>777.0</ele><time>2026-05-03T09:20:25Z</time></trkpt><trkpt lat="44.227800226107014" lon="11.408169262035956"><ele>777.0</ele><time>2026-05-03T09:20:26Z</time></trkpt><trkpt lat="44.227741131889665" lon="11.408100355055605"><ele>777.0</ele><time>2026-05-03T09:20:27Z</time></trkpt><trkpt lat="44.22768765684848" lon="11.408028054946605"><ele>777.0</ele><time>2026-05-03T09:20:28Z</time></trkpt><trkpt lat="44.227610352186126" lon="11.407954770546752"><ele>777.0</ele><time>2026-05-03T09:20:30Z</time></trkpt><trkpt lat="44.22753875225629" lon="11.407862841852504"><ele>777.0</ele><time>2026-05-03T09:20:37Z</time></trkpt><trkpt lat="44.22747124629632" lon="11.407787669502692"><ele>777.0</ele><time>2026-05-03T09:20:39Z</time></trkpt><trkpt lat="44.22739129393648" lon="11.407722594390037"><ele>777.0</ele><time>2026-05-03T09:20:41Z</time></trkpt><trkpt lat="44.2272835491044" lon="11.407691400170746"><ele>777.0</ele><time>2026-05-03T09:20:43Z</time></trkpt><trkpt lat="44.22717845835411" lon="11.407600794720961"><ele>777.0</ele><time>2026-05-03T09:20:45Z</time></trkpt><trkpt lat="44.22712065972667" lon="11.407536963417984"><ele>777.0</ele><time>2026-05-03T09:20:46Z</time></trkpt><trkpt lat="44.22702911448288" lon="11.407495818059255"><ele>777.0</ele><time>2026-05-03T09:20:47Z</time></trkpt><trkpt lat="44.22692965353988" lon="11.407448127341784"><ele>777.0</ele><time>2026-05-03T09:20:48Z</time></trkpt><trkpt lat="44.226847776301604" lon="11.407393359812952"><ele>777.0</ele><time>2026-05-03T09:20:49Z</time></trkpt><trkpt lat="44.22677844408842" lon="11.407348774796452"><ele>777.0</ele><time>2026-05-03T09:20:50Z</time></trkpt><trkpt lat="44.22671883637173" lon="11.407314573553212"><ele>777.0</ele><time>2026-05-03T09:20:51Z</time></trkpt><trkpt lat="44.22666304934364" lon="11.407268422654527"><ele>778.1666666666666</ele><time>2026-05-03T09:20:52Z</time></trkpt><trkpt lat="44.22661228833906" lon="11.407134824597929"><ele>779.3333333333333</ele><time>2026-05-03T09:20:54Z</time></trkpt><trkpt lat="44.226608917635" lon="11.406987386722012"><ele>780.5</ele><time>2026-05-03T09:20:56Z</time></trkpt><trkpt lat="44.226596191386484" lon="11.406889537537516"><ele>781.6666666666666</ele><time>2026-05-03T09:20:57Z</time></trkpt><trkpt lat="44.22656993179565" lon="11.406783889439737"><ele>782.8333333333333</ele><time>2026-05-03T09:20:58Z</time></trkpt><trkpt lat="44.22655085791175" lon="11.406672326766246"><ele>784.0</ele><time>2026-05-03T09:20:59Z</time></trkpt><trkpt lat="44.22653060888734" lon="11.406576992500167"><ele>784.0</ele><time>2026-05-03T09:21:00Z</time></trkpt><trkpt lat="44.22648593388295" lon="11.406399278349072"><ele>784.0</ele><time>2026-05-03T09:21:02Z</time></trkpt><trkpt lat="44.22645554960237" lon="11.406287110393937"><ele>784.0</ele><time>2026-05-03T09:21:03Z</time></trkpt><trkpt lat="44.22642468297075" lon="11.406173147663509"><ele>784.0</ele><time>2026-05-03T09:21:04Z</time></trkpt><trkpt lat="44.22639505958622" lon="11.406056135295314"><ele>784.0</ele><time>2026-05-03T09:21:05Z</time></trkpt><trkpt lat="44.22637090228251" lon="11.405936010108237"><ele>784.3333333333333</ele><time>2026-05-03T09:21:06Z</time></trkpt><trkpt lat="44.22634835660638" lon="11.405828204360331"><ele>784.6666666666666</ele><time>2026-05-03T09:21:07Z</time></trkpt><trkpt lat="44.22632514807248" lon="11.405732613683117"><ele>785.0</ele><time>2026-05-03T09:21:08Z</time></trkpt><trkpt lat="44.22634851047758" lon="11.405614417013577"><ele>785.3333333333333</ele><time>2026-05-03T09:21:10Z</time></trkpt><trkpt lat="44.2263309092019" lon="11.405441027348564"><ele>785.6666666666666</ele><time>2026-05-03T09:21:12Z</time></trkpt><trkpt lat="44.22631456229121" lon="11.405336834487283"><ele>786.0</ele><time>2026-05-03T09:21:13Z</time></trkpt><trkpt lat="44.226257340517705" lon="11.405185219949963"><ele>786.8333333333334</ele><time>2026-05-03T09:21:15Z</time></trkpt><trkpt lat="44.226249891505894" lon="11.405097867377457"><ele>787.6666666666667</ele><time>2026-05-03T09:21:16Z</time></trkpt><trkpt lat="44.226268432210176" lon="11.405007272851996"><ele>788.5</ele><time>2026-05-03T09:21:17Z</time></trkpt><trkpt lat="44.22625094103399" lon="11.404817896813269"><ele>789.3333333333334</ele><time>2026-05-03T09:21:19Z</time></trkpt><trkpt lat="44.22622279348286" lon="11.404697473870902"><ele>790.1666666666667</ele><time>2026-05-03T09:21:20Z</time></trkpt><trkpt lat="44.22620056653728" lon="11.404610738843289"><ele>791.0</ele><time>2026-05-03T09:21:21Z</time></trkpt><trkpt lat="44.22617756271732" lon="11.404496462154382"><ele>791.1999999999999</ele><time>2026-05-03T09:21:22Z</time></trkpt><trkpt lat="44.22615175637997" lon="11.40433101571128"><ele>791.4</ele><time>2026-05-03T09:21:23Z</time></trkpt><trkpt lat="44.226126426369774" lon="11.404197751751061"><ele>791.6</ele><time>2026-05-03T09:21:24Z</time></trkpt><trkpt lat="44.226103967658666" lon="11.404058895977366"><ele>791.8</ele><time>2026-05-03T09:21:25Z</time></trkpt><trkpt lat="44.226079467544004" lon="11.403903750264002"><ele>792.0</ele><time>2026-05-03T09:21:26Z</time></trkpt><trkpt lat="44.22606575634852" lon="11.403754899479903"><ele>792.0</ele><time>2026-05-03T09:21:27Z</time></trkpt><trkpt lat="44.22606347639696" lon="11.403631400838654"><ele>792.0</ele><time>2026-05-03T09:21:28.001Z</time></trkpt><trkpt lat="44.22604250182417" lon="11.403534609304602"><ele>792.0</ele><time>2026-05-03T09:21:30.001Z</time></trkpt><trkpt lat="44.225996569698" lon="11.40344084737247"><ele>792.0</ele><time>2026-05-03T09:21:59Z</time></trkpt><trkpt lat="44.22593003493727" lon="11.403328142498442"><ele>792.0</ele><time>2026-05-03T09:22:02Z</time></trkpt><trkpt lat="44.22588178531406" lon="11.403262077202879"><ele>792.0</ele><time>2026-05-03T09:22:04Z</time></trkpt><trkpt lat="44.22581720515376" lon="11.403210771008672"><ele>792.0</ele><time>2026-05-03T09:22:06Z</time></trkpt><trkpt lat="44.225763344849845" lon="11.40314051700026"><ele>792.0</ele><time>2026-05-03T09:22:08Z</time></trkpt><trkpt lat="44.22570879758777" lon="11.403085219890938"><ele>792.0</ele><time>2026-05-03T09:22:11Z</time></trkpt><trkpt lat="44.22567379644384" lon="11.40300104253695"><ele>792.0</ele><time>2026-05-03T09:22:19Z</time></trkpt><trkpt lat="44.22563671997963" lon="11.402928611905168"><ele>792.0</ele><time>2026-05-03T09:22:23Z</time></trkpt><trkpt lat="44.22558239204463" lon="11.402851387267225"><ele>792.0</ele><time>2026-05-03T09:22:27Z</time></trkpt><trkpt lat="44.22555329228416" lon="11.402772144945398"><ele>792.0</ele><time>2026-05-03T09:22:33Z</time></trkpt><trkpt lat="44.22551506045968" lon="11.4026675193784"><ele>793.3333333333334</ele><time>2026-05-03T09:22:36Z</time></trkpt><trkpt lat="44.225465847191174" lon="11.402544371703696"><ele>794.6666666666667</ele><time>2026-05-03T09:22:38Z</time></trkpt><trkpt lat="44.22542684494198" lon="11.402470438636962"><ele>796.0</ele><time>2026-05-03T09:22:39Z</time></trkpt><trkpt lat="44.22539876360909" lon="11.402377900475674"><ele>797.3333333333334</ele><time>2026-05-03T09:22:40Z</time></trkpt><trkpt lat="44.22537020587753" lon="11.402299461604997"><ele>798.6666666666667</ele><time>2026-05-03T09:22:41Z</time></trkpt><trkpt lat="44.22531186514826" lon="11.40222017486275"><ele>800.0</ele><time>2026-05-03T09:22:43Z</time></trkpt><trkpt lat="44.225246420465616" lon="11.402145111375637"><ele>800.0000000000001</ele><time>2026-05-03T09:22:45Z</time></trkpt><trkpt lat="44.2251866015247" lon="11.402075619612969"><ele>800.0</ele><time>2026-05-03T09:22:47Z</time></trkpt><trkpt lat="44.225143144061455" lon="11.401979108799509"><ele>800.0</ele><time>2026-05-03T09:22:50Z</time></trkpt><trkpt lat="44.22510896807711" lon="11.401899945334074"><ele>800.0</ele><time>2026-05-03T09:22:52Z</time></trkpt><trkpt lat="44.22505512321969" lon="11.401767912261468"><ele>800.0000000000001</ele><time>2026-05-03T09:22:55Z</time></trkpt><trkpt lat="44.225017325549075" lon="11.40166256078687"><ele>800.0</ele><time>2026-05-03T09:22:57Z</time></trkpt><trkpt lat="44.22500254565353" lon="11.401571569635095"><ele>800.0</ele><time>2026-05-03T09:22:58Z</time></trkpt><trkpt lat="44.224979368588315" lon="11.401402625396818"><ele>800.0</ele><time>2026-05-03T09:23:01Z</time></trkpt><trkpt lat="44.22495365021271" lon="11.401272820364158"><ele>800.0</ele><time>2026-05-03T09:23:02Z</time></trkpt><trkpt lat="44.224943931188186" lon="11.40118169907235"><ele>800.0</ele><time>2026-05-03T09:23:03Z</time></trkpt><trkpt lat="44.2248797555104" lon="11.401044959893936"><ele>800.0</ele><time>2026-05-03T09:23:12Z</time></trkpt><trkpt lat="44.22484489614142" lon="11.400936541699421"><ele>800.1666666666667</ele><time>2026-05-03T09:23:14.001Z</time></trkpt><trkpt lat="44.224829441368804" lon="11.400846488000148"><ele>800.3333333333334</ele><time>2026-05-03T09:23:16.001Z</time></trkpt><trkpt lat="44.22486673764783" lon="11.400752308834804"><ele>800.5</ele><time>2026-05-03T09:23:19.001Z</time></trkpt><trkpt lat="44.22489834856214" lon="11.400675351380164"><ele>800.6666666666667</ele><time>2026-05-03T09:23:22.001Z</time></trkpt><trkpt lat="44.2249315559144" lon="11.400599132971388"><ele>800.8333333333334</ele><time>2026-05-03T09:23:24.001Z</time></trkpt><trkpt lat="44.224973686894266" lon="11.400421301627512"><ele>801.0</ele><time>2026-05-03T09:23:26.001Z</time></trkpt><trkpt lat="44.22498638835261" lon="11.400303398743189"><ele>801.6666666666666</ele><time>2026-05-03T09:23:27.001Z</time></trkpt><trkpt lat="44.2249977625228" lon="11.400201889600309"><ele>802.3333333333333</ele><time>2026-05-03T09:23:28.001Z</time></trkpt><trkpt lat="44.22500129836201" lon="11.400104283776"><ele>803.0</ele><time>2026-05-03T09:23:29.001Z</time></trkpt><trkpt lat="44.2250169809434" lon="11.400011030657435"><ele>803.6666666666666</ele><time>2026-05-03T09:23:30.001Z</time></trkpt><trkpt lat="44.22508899886046" lon="11.399883766922164"><ele>804.3333333333333</ele><time>2026-05-03T09:23:32.001Z</time></trkpt><trkpt lat="44.22511447696355" lon="11.399799953985502"><ele>805.0</ele><time>2026-05-03T09:23:33.001Z</time></trkpt><trkpt lat="44.225180340797586" lon="11.399727940359547"><ele>805.6</ele><time>2026-05-03T09:23:34.001Z</time></trkpt><trkpt lat="44.22525593535605" lon="11.3996644834453"><ele>806.2</ele><time>2026-05-03T09:23:35.001Z</time></trkpt><trkpt lat="44.22532117310086" lon="11.399615099846372"><ele>806.8</ele><time>2026-05-03T09:23:36.001Z</time></trkpt><trkpt lat="44.22540584017296" lon="11.399506710223218"><ele>807.4</ele><time>2026-05-03T09:23:38.001Z</time></trkpt><trkpt lat="44.22540295582141" lon="11.399371000120713"><ele>808.0</ele><time>2026-05-03T09:23:40.001Z</time></trkpt><trkpt lat="44.22533440419144" lon="11.399239749290869"><ele>807.9999999999999</ele><time>2026-05-03T09:23:42.001Z</time></trkpt><trkpt lat="44.2252605083605" lon="11.399177706659145"><ele>808.0</ele><time>2026-05-03T09:23:44.001Z</time></trkpt><trkpt lat="44.225230726747924" lon="11.399068736508092"><ele>808.0</ele><time>2026-05-03T09:23:56.001Z</time></trkpt><trkpt lat="44.22520329953099" lon="11.398975634425959"><ele>808.0</ele><time>2026-05-03T09:24:00Z</time></trkpt><trkpt lat="44.225211137225834" lon="11.398880995456153"><ele>807.9999999999999</ele><time>2026-05-03T09:24:02Z</time></trkpt><trkpt lat="44.22520292934482" lon="11.398713757678767"><ele>808.0</ele><time>2026-05-03T09:24:04Z</time></trkpt><trkpt lat="44.22517675347824" lon="11.398568009094035"><ele>807.9999999999999</ele><time>2026-05-03T09:24:06Z</time></trkpt><trkpt lat="44.22509466850336" lon="11.39849617107283"><ele>808.0</ele><time>2026-05-03T09:24:08Z</time></trkpt><trkpt lat="44.22497353221797" lon="11.398500482260172"><ele>808.0</ele><time>2026-05-03T09:24:10Z</time></trkpt><trkpt lat="44.224909074322895" lon="11.398520199592596"><ele>808.0</ele><time>2026-05-03T09:24:11Z</time></trkpt><trkpt lat="44.22483869225513" lon="11.398523386317324"><ele>807.9999999999999</ele><time>2026-05-03T09:24:12Z</time></trkpt><trkpt lat="44.224757035436376" lon="11.39850742520151"><ele>808.0</ele><time>2026-05-03T09:24:13Z</time></trkpt><trkpt lat="44.22469192862273" lon="11.398467931223179"><ele>807.9999999999999</ele><time>2026-05-03T09:24:14Z</time></trkpt><trkpt lat="44.224635768288884" lon="11.398423181533406"><ele>808.0</ele><time>2026-05-03T09:24:15Z</time></trkpt><trkpt lat="44.22458072329508" lon="11.398333132489237"><ele>808.0</ele><time>2026-05-03T09:24:16Z</time></trkpt><trkpt lat="44.22447179960246" lon="11.398336910540825"><ele>808.0</ele><time>2026-05-03T09:24:18Z</time></trkpt><trkpt lat="44.22436813672421" lon="11.398351136335409"><ele>807.9999999999999</ele><time>2026-05-03T09:24:19Z</time></trkpt><trkpt lat="44.224296710365884" lon="11.398380879397855"><ele>808.0</ele><time>2026-05-03T09:24:20Z</time></trkpt><trkpt lat="44.22417638096048" lon="11.398399470156319"><ele>808.0</ele><time>2026-05-03T09:24:22Z</time></trkpt><trkpt lat="44.22409871730745" lon="11.39846822829857"><ele>808.0</ele><time>2026-05-03T09:24:23Z</time></trkpt><trkpt lat="44.22401834518945" lon="11.398476534922002"><ele>808.0</ele><time>2026-05-03T09:24:24Z</time></trkpt><trkpt lat="44.223896519371934" lon="11.398467639387972"><ele>808.0</ele><time>2026-05-03T09:24:26Z</time></trkpt><trkpt lat="44.22379221990391" lon="11.398471357723356"><ele>808.0</ele><time>2026-05-03T09:24:28Z</time></trkpt><trkpt lat="44.2236743630857" lon="11.39853658712115"><ele>808.1666666666666</ele><time>2026-05-03T09:24:30Z</time></trkpt><trkpt lat="44.22361224035012" lon="11.398519744388048"><ele>808.3333333333333</ele><time>2026-05-03T09:24:31Z</time></trkpt><trkpt lat="44.22353927772341" lon="11.39852478238996"><ele>808.5</ele><time>2026-05-03T09:24:32Z</time></trkpt><trkpt lat="44.22345348408161" lon="11.398530232716487"><ele>808.6666666666667</ele><time>2026-05-03T09:24:33Z</time></trkpt><trkpt lat="44.223379382419" lon="11.398523023741937"><ele>808.8333333333334</ele><time>2026-05-03T09:24:34Z</time></trkpt><trkpt lat="44.223297596050905" lon="11.398488884755894"><ele>809.0</ele><time>2026-05-03T09:24:35Z</time></trkpt><trkpt lat="44.223213913922486" lon="11.398435032424489"><ele>809.3333333333334</ele><time>2026-05-03T09:24:36Z</time></trkpt><trkpt lat="44.223138900478176" lon="11.39843089807814"><ele>809.6666666666667</ele><time>2026-05-03T09:24:37Z</time></trkpt><trkpt lat="44.223079012837744" lon="11.398462637061641"><ele>810.0</ele><time>2026-05-03T09:24:38Z</time></trkpt><trkpt lat="44.22301795386816" lon="11.39855238051627"><ele>810.3333333333333</ele><time>2026-05-03T09:24:39Z</time></trkpt><trkpt lat="44.222943900424475" lon="11.398655805218807"><ele>810.6666666666666</ele><time>2026-05-03T09:24:40Z</time></trkpt><trkpt lat="44.22287136778124" lon="11.398732584824957"><ele>811.0</ele><time>2026-05-03T09:24:41Z</time></trkpt><trkpt lat="44.222788252294926" lon="11.398785720923136"><ele>811.5999999999999</ele><time>2026-05-03T09:24:42Z</time></trkpt><trkpt lat="44.22272206566012" lon="11.398850563872992"><ele>812.2</ele><time>2026-05-03T09:24:43Z</time></trkpt><trkpt lat="44.222674004933644" lon="11.398915657775397"><ele>812.8</ele><time>2026-05-03T09:24:44Z</time></trkpt><trkpt lat="44.22256768674539" lon="11.398988809036513"><ele>813.4000000000001</ele><time>2026-05-03T09:24:46Z</time></trkpt><trkpt lat="44.222484697354176" lon="11.39896888814902"><ele>814.0</ele><time>2026-05-03T09:24:47Z</time></trkpt><trkpt lat="44.22238116108972" lon="11.398932979458115"><ele>813.4999999999999</ele><time>2026-05-03T09:24:48Z</time></trkpt><trkpt lat="44.222278033028324" lon="11.398905919277269"><ele>813.0</ele><time>2026-05-03T09:24:49Z</time></trkpt><trkpt lat="44.22218984603424" lon="11.398855226889182"><ele>812.5</ele><time>2026-05-03T09:24:50Z</time></trkpt><trkpt lat="44.22211432452945" lon="11.398786927916028"><ele>812.0</ele><time>2026-05-03T09:24:51Z</time></trkpt><trkpt lat="44.222049786295614" lon="11.398713053892097"><ele>811.4999999999999</ele><time>2026-05-03T09:24:52Z</time></trkpt><trkpt lat="44.22199189064876" lon="11.398650740548591"><ele>811.0</ele><time>2026-05-03T09:24:53Z</time></trkpt><trkpt lat="44.22189025404031" lon="11.398523908780643"><ele>811.0</ele><time>2026-05-03T09:24:55Z</time></trkpt><trkpt lat="44.22182784968861" lon="11.398457517450113"><ele>811.0</ele><time>2026-05-03T09:24:56Z</time></trkpt><trkpt lat="44.221755125981346" lon="11.39840756301764"><ele>811.0</ele><time>2026-05-03T09:24:57Z</time></trkpt><trkpt lat="44.2216596503733" lon="11.398341397953166"><ele>811.0</ele><time>2026-05-03T09:24:58Z</time></trkpt><trkpt lat="44.221559914528115" lon="11.39827677419052"><ele>811.0</ele><time>2026-05-03T09:24:59Z</time></trkpt><trkpt lat="44.22147655020615" lon="11.398196317073824"><ele>810.4</ele><time>2026-05-03T09:25:00Z</time></trkpt><trkpt lat="44.22139880041117" lon="11.398098216504017"><ele>809.8</ele><time>2026-05-03T09:25:01Z</time></trkpt><trkpt lat="44.22132604550619" lon="11.398004445374687"><ele>809.1999999999999</ele><time>2026-05-03T09:25:02Z</time></trkpt><trkpt lat="44.221261214633216" lon="11.39790745219634"><ele>808.5999999999999</ele><time>2026-05-03T09:25:03Z</time></trkpt><trkpt lat="44.22117588905843" lon="11.397809883503989"><ele>808.0</ele><time>2026-05-03T09:25:05Z</time></trkpt><trkpt lat="44.22111663010448" lon="11.397773523701892"><ele>808.0</ele><time>2026-05-03T09:25:06Z</time></trkpt><trkpt lat="44.221035146579375" lon="11.39769662074852"><ele>808.0</ele><time>2026-05-03T09:25:07Z</time></trkpt><trkpt lat="44.2209376817672" lon="11.397571953562837"><ele>808.0</ele><time>2026-05-03T09:25:08.001Z</time></trkpt><trkpt lat="44.22085237212455" lon="11.397461095599033"><ele>808.0</ele><time>2026-05-03T09:25:09.001Z</time></trkpt><trkpt lat="44.220789073254835" lon="11.397371853161943"><ele>808.0</ele><time>2026-05-03T09:25:10.001Z</time></trkpt><trkpt lat="44.220734718479136" lon="11.397281253944852"><ele>807.4</ele><time>2026-05-03T09:25:11.001Z</time></trkpt><trkpt lat="44.22069998779971" lon="11.397168118444164"><ele>806.8</ele><time>2026-05-03T09:25:12.001Z</time></trkpt><trkpt lat="44.22066795670157" lon="11.397026121400678"><ele>806.2</ele><time>2026-05-03T09:25:13.001Z</time></trkpt><trkpt lat="44.220613110528774" lon="11.396884562806743"><ele>805.6</ele><time>2026-05-03T09:25:14.001Z</time></trkpt><trkpt lat="44.22055808976799" lon="11.396773173419293"><ele>805.0</ele><time>2026-05-03T09:25:15.001Z</time></trkpt><trkpt lat="44.22051543190908" lon="11.396685707213438"><ele>804.8571428571429</ele><time>2026-05-03T09:25:16.001Z</time></trkpt><trkpt lat="44.220472771650606" lon="11.39661778826271"><ele>804.7142857142858</ele><time>2026-05-03T09:25:17.001Z</time></trkpt><trkpt lat="44.22043318019196" lon="11.396527763769045"><ele>804.5714285714286</ele><time>2026-05-03T09:25:18.001Z</time></trkpt><trkpt lat="44.22038961805889" lon="11.39643872482165"><ele>804.4285714285714</ele><time>2026-05-03T09:25:19.001Z</time></trkpt><trkpt lat="44.220349062344866" lon="11.396366124367937"><ele>804.2857142857143</ele><time>2026-05-03T09:25:20.001Z</time></trkpt><trkpt lat="44.220310136243874" lon="11.396292311046578"><ele>804.1428571428571</ele><time>2026-05-03T09:25:21.001Z</time></trkpt><trkpt lat="44.22027119715295" lon="11.396203645228297"><ele>804.0</ele><time>2026-05-03T09:25:22.001Z</time></trkpt><trkpt lat="44.2202336610435" lon="11.396104479147468"><ele>804.8333333333334</ele><time>2026-05-03T09:25:23.001Z</time></trkpt><trkpt lat="44.22020371092315" lon="11.396014764815243"><ele>805.6666666666667</ele><time>2026-05-03T09:25:24.001Z</time></trkpt><trkpt lat="44.2201810701417" lon="11.395867237667074"><ele>806.5</ele><time>2026-05-03T09:25:26.001Z</time></trkpt><trkpt lat="44.2201201231432" lon="11.395807054082619"><ele>807.3333333333334</ele><time>2026-05-03T09:25:28.001Z</time></trkpt><trkpt lat="44.220114115778536" lon="11.395707564013295"><ele>808.1666666666667</ele><time>2026-05-03T09:25:31.001Z</time></trkpt><trkpt lat="44.2201142978894" lon="11.395585548397328"><ele>809.0</ele><time>2026-05-03T09:25:33.001Z</time></trkpt><trkpt lat="44.220134669330605" lon="11.39540632003691"><ele>809.0</ele><time>2026-05-03T09:25:35.001Z</time></trkpt><trkpt lat="44.22012937131318" lon="11.39531420571497"><ele>809.0</ele><time>2026-05-03T09:25:36.001Z</time></trkpt><trkpt lat="44.220157137590434" lon="11.395225336758191"><ele>809.0</ele><time>2026-05-03T09:25:40.001Z</time></trkpt><trkpt lat="44.2201218124356" lon="11.3951412437346"><ele>809.0</ele><time>2026-05-03T09:25:43.001Z</time></trkpt><trkpt lat="44.220072427497385" lon="11.395071754124626"><ele>809.0</ele><time>2026-05-03T09:25:44.001Z</time></trkpt><trkpt lat="44.22002092371226" lon="11.394995741113307"><ele>809.0</ele><time>2026-05-03T09:25:45.001Z</time></trkpt><trkpt lat="44.21998053951617" lon="11.394926124900566"><ele>809.0</ele><time>2026-05-03T09:25:46.001Z</time></trkpt><trkpt lat="44.219967121468976" lon="11.394831197839036"><ele>809.0</ele><time>2026-05-03T09:25:48.001Z</time></trkpt><trkpt lat="44.21997136779328" lon="11.394691422905955"><ele>809.0</ele><time>2026-05-03T09:25:50.001Z</time></trkpt><trkpt lat="44.219920833900154" lon="11.394563005308745"><ele>809.0</ele><time>2026-05-03T09:25:52.001Z</time></trkpt><trkpt lat="44.21985777283668" lon="11.394524259722871"><ele>809.0</ele><time>2026-05-03T09:25:53.001Z</time></trkpt><trkpt lat="44.2197906736694" lon="11.39452321586957"><ele>809.0</ele><time>2026-05-03T09:25:54.001Z</time></trkpt><trkpt lat="44.21968108833588" lon="11.394531200306139"><ele>809.0000000000001</ele><time>2026-05-03T09:25:56.001Z</time></trkpt><trkpt lat="44.21961219490056" lon="11.394497876078088"><ele>809.0</ele><time>2026-05-03T09:25:58.001Z</time></trkpt><trkpt lat="44.219529808819644" lon="11.394461610575883"><ele>809.0</ele><time>2026-05-03T09:26:04Z</time></trkpt><trkpt lat="44.219462008388966" lon="11.394404396223758"><ele>809.0</ele><time>2026-05-03T09:26:06Z</time></trkpt><trkpt lat="44.21939637739481" lon="11.39436291792883"><ele>809.0000000000001</ele><time>2026-05-03T09:26:07Z</time></trkpt><trkpt lat="44.21931128070419" lon="11.394333802205113"><ele>809.0</ele><time>2026-05-03T09:26:08Z</time></trkpt><trkpt lat="44.21923296636493" lon="11.394320056078374"><ele>809.0000000000001</ele><time>2026-05-03T09:26:09Z</time></trkpt><trkpt lat="44.219158963980234" lon="11.39431099965516"><ele>809.0</ele><time>2026-05-03T09:26:10Z</time></trkpt><trkpt lat="44.21908610208169" lon="11.39431097088718"><ele>809.0</ele><time>2026-05-03T09:26:11Z</time></trkpt><trkpt lat="44.21901726021758" lon="11.394318844284186"><ele>809.0</ele><time>2026-05-03T09:26:12Z</time></trkpt><trkpt lat="44.21895512348539" lon="11.394382595257014"><ele>809.0000000000001</ele><time>2026-05-03T09:26:13Z</time></trkpt><trkpt lat="44.21886874686436" lon="11.394367817688819"><ele>809.0</ele><time>2026-05-03T09:26:15Z</time></trkpt><trkpt lat="44.218764111169115" lon="11.394338190358258"><ele>810.1666666666667</ele><time>2026-05-03T09:26:17Z</time></trkpt><trkpt lat="44.218697085823116" lon="11.394335669031523"><ele>811.3333333333334</ele><time>2026-05-03T09:26:18Z</time></trkpt><trkpt lat="44.21862718272222" lon="11.394335572302817"><ele>812.5</ele><time>2026-05-03T09:26:19Z</time></trkpt><trkpt lat="44.21854934557102" lon="11.39438010210637"><ele>813.6666666666667</ele><time>2026-05-03T09:26:21Z</time></trkpt><trkpt lat="44.21848807840398" lon="11.394466032682669"><ele>814.8333333333334</ele><time>2026-05-03T09:26:22Z</time></trkpt><trkpt lat="44.21842378523941" lon="11.394518366090324"><ele>816.0</ele><time>2026-05-03T09:26:23Z</time></trkpt><trkpt lat="44.21836019153774" lon="11.394577754547273"><ele>816.0</ele><time>2026-05-03T09:26:24Z</time></trkpt><trkpt lat="44.218304331685005" lon="11.39465236409589"><ele>816.0</ele><time>2026-05-03T09:26:25Z</time></trkpt><trkpt lat="44.21822559286711" lon="11.394748067711605"><ele>816.0</ele><time>2026-05-03T09:26:27Z</time></trkpt><trkpt lat="44.218170549561634" lon="11.394811046898178"><ele>816.0</ele><time>2026-05-03T09:26:28Z</time></trkpt><trkpt lat="44.218042001630835" lon="11.394793847378496"><ele>816.0</ele><time>2026-05-03T09:26:30Z</time></trkpt><trkpt lat="44.21797140113534" lon="11.394718424281038"><ele>818.5999999999999</ele><time>2026-05-03T09:26:32Z</time></trkpt><trkpt lat="44.21792831498974" lon="11.394588526349171"><ele>821.2</ele><time>2026-05-03T09:26:34Z</time></trkpt><trkpt lat="44.21787858402823" lon="11.394452811551146"><ele>823.8</ele><time>2026-05-03T09:26:36Z</time></trkpt><trkpt lat="44.217759251678395" lon="11.394376430108775"><ele>826.4000000000001</ele><time>2026-05-03T09:26:38Z</time></trkpt><trkpt lat="44.21766402013834" lon="11.394351916047674"><ele>829.0</ele><time>2026-05-03T09:26:39Z</time></trkpt><trkpt lat="44.21755966602126" lon="11.394354641706293"><ele>829.0</ele><time>2026-05-03T09:26:40Z</time></trkpt><trkpt lat="44.21747927168881" lon="11.394400885188212"><ele>829.0</ele><time>2026-05-03T09:26:41Z</time></trkpt><trkpt lat="44.21737450022415" lon="11.394485480900137"><ele>829.0</ele><time>2026-05-03T09:26:42Z</time></trkpt><trkpt lat="44.21728961531176" lon="11.394534425811367"><ele>829.0</ele><time>2026-05-03T09:26:43Z</time></trkpt><trkpt lat="44.217210461802566" lon="11.394550050739996"><ele>829.0</ele><time>2026-05-03T09:26:44Z</time></trkpt><trkpt lat="44.21712736912905" lon="11.394552106491357"><ele>829.3333333333333</ele><time>2026-05-03T09:26:45Z</time></trkpt><trkpt lat="44.217044881491994" lon="11.394551091175458"><ele>829.6666666666666</ele><time>2026-05-03T09:26:46Z</time></trkpt><trkpt lat="44.21696087849299" lon="11.39454118749852"><ele>830.0</ele><time>2026-05-03T09:26:47Z</time></trkpt><trkpt lat="44.21687872530515" lon="11.394518178996758"><ele>830.3333333333333</ele><time>2026-05-03T09:26:48Z</time></trkpt><trkpt lat="44.21678951101527" lon="11.39447482464483"><ele>830.6666666666666</ele><time>2026-05-03T09:26:49Z</time></trkpt><trkpt lat="44.21670264519888" lon="11.394424377728214"><ele>831.0</ele><time>2026-05-03T09:26:50Z</time></trkpt><trkpt lat="44.21662083868877" lon="11.394364683303678"><ele>831.0</ele><time>2026-05-03T09:26:51Z</time></trkpt><trkpt lat="44.2165393564933" lon="11.394307050450008"><ele>831.0</ele><time>2026-05-03T09:26:52Z</time></trkpt><trkpt lat="44.216474070249596" lon="11.394249701108137"><ele>831.0</ele><time>2026-05-03T09:26:53Z</time></trkpt><trkpt lat="44.21642235784302" lon="11.394190552836161"><ele>831.0</ele><time>2026-05-03T09:26:54Z</time></trkpt><trkpt lat="44.21636935289335" lon="11.394065303222003"><ele>831.0</ele><time>2026-05-03T09:26:56Z</time></trkpt><trkpt lat="44.21636257511935" lon="11.393904298166825"><ele>834.0</ele><time>2026-05-03T09:26:58Z</time></trkpt><trkpt lat="44.21633642921445" lon="11.393816543020517"><ele>837.0</ele><time>2026-05-03T09:26:59Z</time></trkpt><trkpt lat="44.216303889207914" lon="11.39373442927199"><ele>840.0</ele><time>2026-05-03T09:27:00Z</time></trkpt><trkpt lat="44.21623703326626" lon="11.39362053261635"><ele>843.0</ele><time>2026-05-03T09:27:02Z</time></trkpt><trkpt lat="44.21614917175793" lon="11.393579557673261"><ele>846.0</ele><time>2026-05-03T09:27:05Z</time></trkpt><trkpt lat="44.21605470953029" lon="11.39347035025867"><ele>846.0</ele><time>2026-05-03T09:27:07Z</time></trkpt><trkpt lat="44.21599878695117" lon="11.393389117263279"><ele>846.0</ele><time>2026-05-03T09:27:08Z</time></trkpt><trkpt lat="44.21595386223456" lon="11.393283553512337"><ele>846.0</ele><time>2026-05-03T09:27:09Z</time></trkpt><trkpt lat="44.215921851359234" lon="11.393166312367159"><ele>846.0</ele><time>2026-05-03T09:27:10Z</time></trkpt><trkpt lat="44.21587770416358" lon="11.3930367353968"><ele>846.0</ele><time>2026-05-03T09:27:11Z</time></trkpt><trkpt lat="44.21581161360869" lon="11.39291451453287"><ele>845.8</ele><time>2026-05-03T09:27:12Z</time></trkpt><trkpt lat="44.21574153489499" lon="11.392773579580968"><ele>845.5999999999999</ele><time>2026-05-03T09:27:13Z</time></trkpt><trkpt lat="44.21568325206704" lon="11.39263967043508"><ele>845.4</ele><time>2026-05-03T09:27:14Z</time></trkpt><trkpt lat="44.2156277957922" lon="11.392544977368399"><ele>845.2</ele><time>2026-05-03T09:27:15Z</time></trkpt><trkpt lat="44.21555209444519" lon="11.392439869379762"><ele>845.0</ele><time>2026-05-03T09:27:17Z</time></trkpt><trkpt lat="44.21549335122169" lon="11.392373660091007"><ele>844.8</ele><time>2026-05-03T09:27:18Z</time></trkpt><trkpt lat="44.215439423896854" lon="11.392229260139969"><ele>844.6</ele><time>2026-05-03T09:27:20.001Z</time></trkpt><trkpt lat="44.2153620274591" lon="11.392153066707527"><ele>844.4000000000001</ele><time>2026-05-03T09:27:21.001Z</time></trkpt><trkpt lat="44.21524407204461" lon="11.392075623147276"><ele>844.2</ele><time>2026-05-03T09:27:22.001Z</time></trkpt><trkpt lat="44.21514840075667" lon="11.392021819750543"><ele>844.0</ele><time>2026-05-03T09:27:23.001Z</time></trkpt><trkpt lat="44.21507571023685" lon="11.391969433837"><ele>843.9999999999999</ele><time>2026-05-03T09:27:24.001Z</time></trkpt><trkpt lat="44.21501610771038" lon="11.39190977530431"><ele>844.0</ele><time>2026-05-03T09:27:25.001Z</time></trkpt><trkpt lat="44.21494561518758" lon="11.391848442076084"><ele>844.0</ele><time>2026-05-03T09:27:26.001Z</time></trkpt><trkpt lat="44.214884655987234" lon="11.39179049693801"><ele>844.0</ele><time>2026-05-03T09:27:27.001Z</time></trkpt><trkpt lat="44.214806780643706" lon="11.391732047222815"><ele>843.9999999999999</ele><time>2026-05-03T09:27:28.001Z</time></trkpt><trkpt lat="44.21472801510403" lon="11.391648799442919"><ele>844.0</ele><time>2026-05-03T09:27:29.001Z</time></trkpt><trkpt lat="44.214624860464895" lon="11.391531201365527"><ele>845.6</ele><time>2026-05-03T09:27:30.001Z</time></trkpt><trkpt lat="44.21451981423463" lon="11.391458098611519"><ele>847.2</ele><time>2026-05-03T09:27:31.001Z</time></trkpt><trkpt lat="44.21442662985638" lon="11.39141791145255"><ele>848.8000000000001</ele><time>2026-05-03T09:27:32.001Z</time></trkpt><trkpt lat="44.21433270854375" lon="11.391393769688571"><ele>850.4000000000001</ele><time>2026-05-03T09:27:33.001Z</time></trkpt><trkpt lat="44.214243152555355" lon="11.39139489085237"><ele>852.0</ele><time>2026-05-03T09:27:34.001Z</time></trkpt><trkpt lat="44.21414166748673" lon="11.391401173138759"><ele>852.0</ele><time>2026-05-03T09:27:35.001Z</time></trkpt><trkpt lat="44.21406032792942" lon="11.391405404051714"><ele>852.0</ele><time>2026-05-03T09:27:36.001Z</time></trkpt><trkpt lat="44.213990262561616" lon="11.391389452324098"><ele>852.0</ele><time>2026-05-03T09:27:37.001Z</time></trkpt><trkpt lat="44.21391907948107" lon="11.391365769480688"><ele>852.0</ele><time>2026-05-03T09:27:38.001Z</time></trkpt><trkpt lat="44.213836343977306" lon="11.391347274983616"><ele>852.0</ele><time>2026-05-03T09:27:39.001Z</time></trkpt><trkpt lat="44.21375476481408" lon="11.391343459966762"><ele>852.0</ele><time>2026-05-03T09:27:40.001Z</time></trkpt><trkpt lat="44.2136792350743" lon="11.391358695713441"><ele>852.4000000000001</ele><time>2026-05-03T09:27:41.001Z</time></trkpt><trkpt lat="44.21357705105474" lon="11.391352872517706"><ele>852.8000000000001</ele><time>2026-05-03T09:27:43.001Z</time></trkpt><trkpt lat="44.21348066991108" lon="11.391261288029705"><ele>853.2</ele><time>2026-05-03T09:27:45.001Z</time></trkpt><trkpt lat="44.21342185939953" lon="11.391179386624492"><ele>853.6</ele><time>2026-05-03T09:27:46.001Z</time></trkpt><trkpt lat="44.21334562701412" lon="11.391084983034593"><ele>854.0</ele><time>2026-05-03T09:27:47.001Z</time></trkpt><trkpt lat="44.21325598615313" lon="11.390976766701604"><ele>854.0</ele><time>2026-05-03T09:27:48.001Z</time></trkpt><trkpt lat="44.213169104075114" lon="11.390883356283032"><ele>854.0000000000001</ele><time>2026-05-03T09:27:49.001Z</time></trkpt><trkpt lat="44.21308952253163" lon="11.390822677006833"><ele>854.0000000000001</ele><time>2026-05-03T09:27:50.001Z</time></trkpt><trkpt lat="44.213005691256356" lon="11.390748179115937"><ele>854.0</ele><time>2026-05-03T09:27:51.001Z</time></trkpt><trkpt lat="44.21293705560619" lon="11.39064463635672"><ele>854.0</ele><time>2026-05-03T09:27:52.001Z</time></trkpt><trkpt lat="44.2128768324863" lon="11.390570535439672"><ele>855.0</ele><time>2026-05-03T09:27:53.001Z</time></trkpt><trkpt lat="44.21277742895279" lon="11.390468036147231"><ele>856.0000000000001</ele><time>2026-05-03T09:27:55.001Z</time></trkpt><trkpt lat="44.21274778975542" lon="11.390325930393367"><ele>857.0000000000001</ele><time>2026-05-03T09:28:05.001Z</time></trkpt><trkpt lat="44.212697335095974" lon="11.390175461567535"><ele>858.0</ele><time>2026-05-03T09:28:07.001Z</time></trkpt><trkpt lat="44.21264855942344" lon="11.390070398501829"><ele>859.0</ele><time>2026-05-03T09:28:08.001Z</time></trkpt><trkpt lat="44.21259084692119" lon="11.389956270883298"><ele>858.9999999999999</ele><time>2026-05-03T09:28:09Z</time></trkpt><trkpt lat="44.21255140601417" lon="11.389846861468625"><ele>859.0</ele><time>2026-05-03T09:28:10Z</time></trkpt><trkpt lat="44.21251825775338" lon="11.389746606003502"><ele>859.0</ele><time>2026-05-03T09:28:11Z</time></trkpt><trkpt lat="44.21248523687105" lon="11.389653643442589"><ele>859.0</ele><time>2026-05-03T09:28:12Z</time></trkpt><trkpt lat="44.21245003767919" lon="11.389564824142916"><ele>858.9999999999999</ele><time>2026-05-03T09:28:13Z</time></trkpt><trkpt lat="44.21241422122114" lon="11.389472169013564"><ele>859.0</ele><time>2026-05-03T09:28:14Z</time></trkpt><trkpt lat="44.21237410964507" lon="11.389384739605958"><ele>859.4999999999999</ele><time>2026-05-03T09:28:15Z</time></trkpt><trkpt lat="44.21233153002541" lon="11.389298035873571"><ele>860.0</ele><time>2026-05-03T09:28:16Z</time></trkpt><trkpt lat="44.21229363377145" lon="11.389184694682276"><ele>860.5</ele><time>2026-05-03T09:28:18Z</time></trkpt><trkpt lat="44.21223708551937" lon="11.389136008459477"><ele>861.0</ele><time>2026-05-03T09:28:22Z</time></trkpt><trkpt lat="44.21218432844025" lon="11.389072566265016"><ele>861.4999999999999</ele><time>2026-05-03T09:28:24Z</time></trkpt><trkpt lat="44.212099418614315" lon="11.388991198377976"><ele>862.0</ele><time>2026-05-03T09:28:27Z</time></trkpt><trkpt lat="44.21203002652169" lon="11.388921108840051"><ele>862.1666666666666</ele><time>2026-05-03T09:28:29Z</time></trkpt><trkpt lat="44.21196348258597" lon="11.388875450469754"><ele>862.3333333333333</ele><time>2026-05-03T09:28:31Z</time></trkpt><trkpt lat="44.211894382874554" lon="11.388805862921846"><ele>862.5</ele><time>2026-05-03T09:28:33Z</time></trkpt><trkpt lat="44.211823431447755" lon="11.38870146369112"><ele>862.6666666666667</ele><time>2026-05-03T09:28:36Z</time></trkpt><trkpt lat="44.21173907824951" lon="11.388707586908094"><ele>862.8333333333334</ele><time>2026-05-03T09:28:38Z</time></trkpt><trkpt lat="44.21167076714509" lon="11.388693769360954"><ele>863.0</ele><time>2026-05-03T09:28:40Z</time></trkpt><trkpt lat="44.2116028714182" lon="11.38870148263284"><ele>863.5000000000001</ele><time>2026-05-03T09:28:49Z</time></trkpt><trkpt lat="44.21152487688643" lon="11.388712063027542"><ele>864.0</ele><time>2026-05-03T09:28:52Z</time></trkpt><trkpt lat="44.21145238835906" lon="11.388726690157071"><ele>864.5</ele><time>2026-05-03T09:29:03Z</time></trkpt><trkpt lat="44.211367397332644" lon="11.388699409709613"><ele>865.0</ele><time>2026-05-03T09:29:05Z</time></trkpt><trkpt lat="44.21127922288138" lon="11.388679822897817"><ele>865.5000000000001</ele><time>2026-05-03T09:29:07Z</time></trkpt><trkpt lat="44.21119670959967" lon="11.38869174437837"><ele>866.0</ele><time>2026-05-03T09:29:09Z</time></trkpt><trkpt lat="44.21112368381439" lon="11.388682976067775"><ele>865.1666666666667</ele><time>2026-05-03T09:29:11Z</time></trkpt><trkpt lat="44.211020980264095" lon="11.388671195703502"><ele>864.3333333333334</ele><time>2026-05-03T09:29:13Z</time></trkpt><trkpt lat="44.21094505422917" lon="11.388641780959"><ele>863.5</ele><time>2026-05-03T09:29:15Z</time></trkpt><trkpt lat="44.21086351326575" lon="11.388654164356458"><ele>862.6666666666667</ele><time>2026-05-03T09:29:22Z</time></trkpt><trkpt lat="44.21079563338858" lon="11.388608183789842"><ele>861.8333333333334</ele><time>2026-05-03T09:29:24Z</time></trkpt><trkpt lat="44.21070729835984" lon="11.388550235480942"><ele>861.0</ele><time>2026-05-03T09:29:26Z</time></trkpt><trkpt lat="44.210635232048396" lon="11.388519639335053"><ele>861.0</ele><time>2026-05-03T09:29:28Z</time></trkpt><trkpt lat="44.21054933526661" lon="11.388488421572438"><ele>860.9999999999999</ele><time>2026-05-03T09:29:30Z</time></trkpt><trkpt lat="44.21044258010518" lon="11.38845130045779"><ele>860.9999999999999</ele><time>2026-05-03T09:29:32Z</time></trkpt><trkpt lat="44.2103274069078" lon="11.388367317752738"><ele>861.0</ele><time>2026-05-03T09:29:34Z</time></trkpt><trkpt lat="44.2102570090869" lon="11.388328330530086"><ele>861.0</ele><time>2026-05-03T09:29:35Z</time></trkpt><trkpt lat="44.210188931099104" lon="11.388292422516779"><ele>861.0</ele><time>2026-05-03T09:29:36Z</time></trkpt><trkpt lat="44.21010997708326" lon="11.388258017040195"><ele>861.0</ele><time>2026-05-03T09:29:37Z</time></trkpt><trkpt lat="44.209992858339746" lon="11.388217136476161"><ele>861.0</ele><time>2026-05-03T09:29:38Z</time></trkpt><trkpt lat="44.20985295583218" lon="11.388165448619855"><ele>861.0</ele><time>2026-05-03T09:29:39Z</time></trkpt><trkpt lat="44.20969760810868" lon="11.388128122428093"><ele>861.3333333333333</ele><time>2026-05-03T09:29:40Z</time></trkpt><trkpt lat="44.20953128881162" lon="11.388094507370594"><ele>861.6666666666666</ele><time>2026-05-03T09:29:41Z</time></trkpt><trkpt lat="44.20934360012231" lon="11.388048649728708"><ele>862.0</ele><time>2026-05-03T09:29:42Z</time></trkpt><trkpt lat="44.209158169420675" lon="11.387996134765874"><ele>862.0</ele><time>2026-05-03T09:29:43Z</time></trkpt><trkpt lat="44.208996087109185" lon="11.387949211577387"><ele>862.0</ele><time>2026-05-03T09:29:44Z</time></trkpt><trkpt lat="44.208850928013085" lon="11.387910472335996"><ele>862.0</ele><time>2026-05-03T09:29:45Z</time></trkpt><trkpt lat="44.20870833194351" lon="11.387883538523631"><ele>864.0</ele><time>2026-05-03T09:29:46Z</time></trkpt><trkpt lat="44.20855694092927" lon="11.387879572775379"><ele>866.0</ele><time>2026-05-03T09:29:47Z</time></trkpt><trkpt lat="44.208392973563186" lon="11.387906892938348"><ele>868.0</ele><time>2026-05-03T09:29:48Z</time></trkpt><trkpt lat="44.20821473269399" lon="11.387943158515494"><ele>870.6666666666666</ele><time>2026-05-03T09:29:49.001Z</time></trkpt><trkpt lat="44.208040296312575" lon="11.387976542851783"><ele>873.3333333333333</ele><time>2026-05-03T09:29:50.001Z</time></trkpt><trkpt lat="44.20789167403522" lon="11.387995628313691"><ele>876.0</ele><time>2026-05-03T09:29:51.001Z</time></trkpt><trkpt lat="44.20775941487444" lon="11.3880160027642"><ele>877.0</ele><time>2026-05-03T09:29:52.001Z</time></trkpt><trkpt lat="44.20764958656268" lon="11.388060290169486"><ele>877.9999999999999</ele><time>2026-05-03T09:29:53.001Z</time></trkpt><trkpt lat="44.20755847048082" lon="11.388131731314102"><ele>878.9999999999999</ele><time>2026-05-03T09:29:54.001Z</time></trkpt><trkpt lat="44.20748931555735" lon="11.38821208955664"><ele>880.0</ele><time>2026-05-03T09:29:55.001Z</time></trkpt><trkpt lat="44.20742158760827" lon="11.388272079657975"><ele>881.0</ele><time>2026-05-03T09:29:57.001Z</time></trkpt><trkpt lat="44.207347850351525" lon="11.388241291733003"><ele>882.4</ele><time>2026-05-03T09:29:59.001Z</time></trkpt><trkpt lat="44.207239291409245" lon="11.38822399210665"><ele>883.8</ele><time>2026-05-03T09:30:01.001Z</time></trkpt><trkpt lat="44.20713741488011" lon="11.388174422949637"><ele>885.1999999999999</ele><time>2026-05-03T09:30:03.001Z</time></trkpt><trkpt lat="44.2070188390252" lon="11.388145411925299"><ele>886.5999999999999</ele><time>2026-05-03T09:30:05.001Z</time></trkpt><trkpt lat="44.2069224477817" lon="11.388119857925618"><ele>888.0</ele><time>2026-05-03T09:30:07.001Z</time></trkpt><trkpt lat="44.20680925208142" lon="11.388080473480708"><ele>888.0</ele><time>2026-05-03T09:30:09.001Z</time></trkpt><trkpt lat="44.206692564622536" lon="11.388055822569335"><ele>888.0</ele><time>2026-05-03T09:30:11.001Z</time></trkpt><trkpt lat="44.20662815760366" lon="11.38803493076082"><ele>888.0</ele><time>2026-05-03T09:30:12.001Z</time></trkpt><trkpt lat="44.20656539986884" lon="11.388022644358113"><ele>888.0</ele><time>2026-05-03T09:30:13.001Z</time></trkpt><trkpt lat="44.20650117852041" lon="11.38803069962072"><ele>888.0</ele><time>2026-05-03T09:30:14Z</time></trkpt><trkpt lat="44.206432175163656" lon="11.388038602049813"><ele>888.0</ele><time>2026-05-03T09:30:15Z</time></trkpt><trkpt lat="44.20634046555056" lon="11.388036986718785"><ele>889.1666666666666</ele><time>2026-05-03T09:30:16Z</time></trkpt><trkpt lat="44.2062424408512" lon="11.388031890668893"><ele>890.3333333333333</ele><time>2026-05-03T09:30:17Z</time></trkpt><trkpt lat="44.206154380595166" lon="11.388022639889195"><ele>891.5</ele><time>2026-05-03T09:30:18Z</time></trkpt><trkpt lat="44.20606805155848" lon="11.388015356967356"><ele>892.6666666666666</ele><time>2026-05-03T09:30:19Z</time></trkpt><trkpt lat="44.20598721334854" lon="11.387996575414913"><ele>893.8333333333333</ele><time>2026-05-03T09:30:20Z</time></trkpt><trkpt lat="44.20589655579741" lon="11.387973360432566"><ele>895.0</ele><time>2026-05-03T09:30:21Z</time></trkpt><trkpt lat="44.20580880723053" lon="11.387955197122333"><ele>895.0</ele><time>2026-05-03T09:30:22Z</time></trkpt><trkpt lat="44.20572818029837" lon="11.387942353685073"><ele>895.0</ele><time>2026-05-03T09:30:23Z</time></trkpt><trkpt lat="44.20561921621033" lon="11.3878876331699"><ele>895.0</ele><time>2026-05-03T09:30:25Z</time></trkpt><trkpt lat="44.20552677713514" lon="11.38778047207453"><ele>895.0</ele><time>2026-05-03T09:30:27Z</time></trkpt><trkpt lat="44.20547950636353" lon="11.38771808618899"><ele>895.0</ele><time>2026-05-03T09:30:28Z</time></trkpt><trkpt lat="44.20538183761833" lon="11.387626105685415"><ele>897.3333333333333</ele><time>2026-05-03T09:30:30Z</time></trkpt><trkpt lat="44.20531349179277" lon="11.387580993403226"><ele>899.6666666666666</ele><time>2026-05-03T09:30:31Z</time></trkpt><trkpt lat="44.20524604060712" lon="11.387517664432854"><ele>902.0</ele><time>2026-05-03T09:30:32Z</time></trkpt><trkpt lat="44.20517494050797" lon="11.387449170653172"><ele>904.3333333333333</ele><time>2026-05-03T09:30:33Z</time></trkpt><trkpt lat="44.205106458515395" lon="11.387391369096356"><ele>906.6666666666666</ele><time>2026-05-03T09:30:34Z</time></trkpt><trkpt lat="44.205047226080595" lon="11.38734092439356"><ele>909.0</ele><time>2026-05-03T09:30:35Z</time></trkpt><trkpt lat="44.20498775811785" lon="11.387298815380396"><ele>909.0</ele><time>2026-05-03T09:30:36Z</time></trkpt><trkpt lat="44.20492592554019" lon="11.387257137580713"><ele>909.0000000000001</ele><time>2026-05-03T09:30:37Z</time></trkpt><trkpt lat="44.20483197152637" lon="11.387204927490274"><ele>909.0000000000001</ele><time>2026-05-03T09:30:39Z</time></trkpt><trkpt lat="44.20470021571136" lon="11.387220931474621"><ele>909.0</ele><time>2026-05-03T09:30:41Z</time></trkpt><trkpt lat="44.2046325709226" lon="11.387234053850307"><ele>909.0</ele><time>2026-05-03T09:30:42Z</time></trkpt><trkpt lat="44.20452622139532" lon="11.38718247642741"><ele>911.2</ele><time>2026-05-03T09:30:44Z</time></trkpt><trkpt lat="44.20449172475549" lon="11.387030803671484"><ele>913.4000000000001</ele><time>2026-05-03T09:30:46Z</time></trkpt><trkpt lat="44.20446227362544" lon="11.386875118982829"><ele>915.6</ele><time>2026-05-03T09:30:48Z</time></trkpt><trkpt lat="44.20440641815345" lon="11.386799114275036"><ele>917.8</ele><time>2026-05-03T09:30:49Z</time></trkpt><trkpt lat="44.204351214077995" lon="11.386717945618804"><ele>920.0</ele><time>2026-05-03T09:30:50Z</time></trkpt><trkpt lat="44.204315725165344" lon="11.386644692803797"><ele>920.0000000000001</ele><time>2026-05-03T09:30:51Z</time></trkpt><trkpt lat="44.204254946006415" lon="11.386528946061746"><ele>920.0</ele><time>2026-05-03T09:30:53Z</time></trkpt><trkpt lat="44.20421091847558" lon="11.386411369238035"><ele>920.0</ele><time>2026-05-03T09:30:55Z</time></trkpt><trkpt lat="44.20415480708583" lon="11.386312514556844"><ele>920.0</ele><time>2026-05-03T09:30:57Z</time></trkpt><trkpt lat="44.20410383963057" lon="11.386221411645302"><ele>920.0000000000001</ele><time>2026-05-03T09:31:06Z</time></trkpt><trkpt lat="44.204058092596945" lon="11.38614223585416"><ele>920.0</ele><time>2026-05-03T09:31:10Z</time></trkpt><trkpt lat="44.20400392412721" lon="11.386057118714072"><ele>920.8</ele><time>2026-05-03T09:31:12Z</time></trkpt><trkpt lat="44.20388409793032" lon="11.385898336895103"><ele>921.6</ele><time>2026-05-03T09:31:14Z</time></trkpt><trkpt lat="44.20379561464788" lon="11.385807952330579"><ele>922.4000000000001</ele><time>2026-05-03T09:31:16Z</time></trkpt><trkpt lat="44.20372552028039" lon="11.38574579423621"><ele>923.2</ele><time>2026-05-03T09:31:18Z</time></trkpt><trkpt lat="44.20365933397761" lon="11.38566115551441"><ele>924.0</ele><time>2026-05-03T09:31:20Z</time></trkpt><trkpt lat="44.20360878207858" lon="11.385539366100941"><ele>924.2</ele><time>2026-05-03T09:31:22Z</time></trkpt><trkpt lat="44.20356483773313" lon="11.385466706736123"><ele>924.4000000000001</ele><time>2026-05-03T09:31:23Z</time></trkpt><trkpt lat="44.20346892241706" lon="11.385387979094233"><ele>924.6</ele><time>2026-05-03T09:31:25Z</time></trkpt><trkpt lat="44.20339101051298" lon="11.385333821887896"><ele>924.8</ele><time>2026-05-03T09:31:27Z</time></trkpt><trkpt lat="44.20328636270781" lon="11.38530085162044"><ele>925.0</ele><time>2026-05-03T09:31:29Z</time></trkpt><trkpt lat="44.203198074478244" lon="11.38525525738652"><ele>925.4</ele><time>2026-05-03T09:31:31Z</time></trkpt><trkpt lat="44.20312690201891" lon="11.385090362438362"><ele>925.8</ele><time>2026-05-03T09:31:33Z</time></trkpt><trkpt lat="44.20305374160584" lon="11.385024520886875"><ele>926.2</ele><time>2026-05-03T09:31:36Z</time></trkpt><trkpt lat="44.202987227948114" lon="11.384964577827482"><ele>926.6</ele><time>2026-05-03T09:31:38Z</time></trkpt><trkpt lat="44.20289197818837" lon="11.384899477922197"><ele>927.0</ele><time>2026-05-03T09:31:41Z</time></trkpt><trkpt lat="44.20276263930744" lon="11.384770224933442"><ele>927.8</ele><time>2026-05-03T09:31:42Z</time></trkpt><trkpt lat="44.20267335785975" lon="11.384666975753312"><ele>928.6</ele><time>2026-05-03T09:31:44Z</time></trkpt><trkpt lat="44.20258759725612" lon="11.384551307348886"><ele>929.3999999999999</ele><time>2026-05-03T09:31:46Z</time></trkpt><trkpt lat="44.20253903550459" lon="11.384470299640906"><ele>930.1999999999999</ele><time>2026-05-03T09:31:47Z</time></trkpt><trkpt lat="44.20250750609274" lon="11.384388426566911"><ele>931.0</ele><time>2026-05-03T09:31:48Z</time></trkpt><trkpt lat="44.2024839660808" lon="11.384261197295594"><ele>931.0</ele><time>2026-05-03T09:31:50Z</time></trkpt><trkpt lat="44.20243027122282" lon="11.384125299358786"><ele>930.9999999999999</ele><time>2026-05-03T09:31:52Z</time></trkpt><trkpt lat="44.202374784855664" lon="11.383975241657335"><ele>930.9999999999999</ele><time>2026-05-03T09:31:54Z</time></trkpt><trkpt lat="44.20231715143946" lon="11.383832191868564"><ele>931.0</ele><time>2026-05-03T09:31:56Z</time></trkpt><trkpt lat="44.202247785588895" lon="11.383757134316701"><ele>931.0</ele><time>2026-05-03T09:31:58Z</time></trkpt><trkpt lat="44.20221249938436" lon="11.383676766323658"><ele>931.5999999999999</ele><time>2026-05-03T09:31:59Z</time></trkpt><trkpt lat="44.202185763016814" lon="11.383567954716874"><ele>932.1999999999999</ele><time>2026-05-03T09:32:00Z</time></trkpt><trkpt lat="44.20215411290014" lon="11.38347888314185"><ele>932.8000000000001</ele><time>2026-05-03T09:32:01Z</time></trkpt><trkpt lat="44.20207362704109" lon="11.383346691251795"><ele>933.4000000000001</ele><time>2026-05-03T09:32:03Z</time></trkpt><trkpt lat="44.20205302660766" lon="11.38320318557926"><ele>934.0</ele><time>2026-05-03T09:32:05Z</time></trkpt><trkpt lat="44.20199181553035" lon="11.383097507134355"><ele>934.0</ele><time>2026-05-03T09:32:07Z</time></trkpt><trkpt lat="44.20189301558177" lon="11.382994652121166"><ele>934.0000000000001</ele><time>2026-05-03T09:32:09.001Z</time></trkpt><trkpt lat="44.20184095567879" lon="11.38293868096988"><ele>934.0000000000001</ele><time>2026-05-03T09:32:10.001Z</time></trkpt><trkpt lat="44.201784028328234" lon="11.382851838472517"><ele>934.0</ele><time>2026-05-03T09:32:14.001Z</time></trkpt><trkpt lat="44.201694789745375" lon="11.382738726967062"><ele>934.0</ele><time>2026-05-03T09:32:16.001Z</time></trkpt><trkpt lat="44.20165251573318" lon="11.382644634738186"><ele>933.25</ele><time>2026-05-03T09:32:17.001Z</time></trkpt><trkpt lat="44.2014966004189" lon="11.382527861855714"><ele>932.5</ele><time>2026-05-03T09:32:48Z</time></trkpt><trkpt lat="44.201416333397894" lon="11.382446250561387"><ele>931.75</ele><time>2026-05-03T09:32:50Z</time></trkpt><trkpt lat="44.20134728630031" lon="11.382331103619128"><ele>931.0</ele><time>2026-05-03T09:32:52Z</time></trkpt><trkpt lat="44.20130384077945" lon="11.382237760851412"><ele>932.0</ele><time>2026-05-03T09:32:54Z</time></trkpt><trkpt lat="44.201259119987746" lon="11.3821539297891"><ele>932.9999999999999</ele><time>2026-05-03T09:32:56Z</time></trkpt><trkpt lat="44.201186233175136" lon="11.382035680450945"><ele>933.9999999999999</ele><time>2026-05-03T09:32:58Z</time></trkpt><trkpt lat="44.201097537477224" lon="11.38199198481585"><ele>935.0</ele><time>2026-05-03T09:33:00Z</time></trkpt><trkpt lat="44.201018747551004" lon="11.381885461402494"><ele>936.0</ele><time>2026-05-03T09:33:02Z</time></trkpt><trkpt lat="44.20095071255424" lon="11.38179995275278"><ele>936.0</ele><time>2026-05-03T09:33:06Z</time></trkpt><trkpt lat="44.20087208036754" lon="11.381708284626644"><ele>936.0</ele><time>2026-05-03T09:33:08Z</time></trkpt><trkpt lat="44.200781524501465" lon="11.381614210663793"><ele>936.0</ele><time>2026-05-03T09:33:10Z</time></trkpt><trkpt lat="44.20063480051697" lon="11.381472833364446"><ele>936.0</ele><time>2026-05-03T09:33:13Z</time></trkpt><trkpt lat="44.20055763925424" lon="11.381374162362022"><ele>936.8</ele><time>2026-05-03T09:33:15Z</time></trkpt><trkpt lat="44.200490227960955" lon="11.38129021470885"><ele>937.5999999999999</ele><time>2026-05-03T09:33:17Z</time></trkpt><trkpt lat="44.200418715748164" lon="11.381211742862092"><ele>938.4</ele><time>2026-05-03T09:33:19Z</time></trkpt><trkpt lat="44.20034890347821" lon="11.381139653110308"><ele>939.2</ele><time>2026-05-03T09:33:21Z</time></trkpt><trkpt lat="44.2002881525833" lon="11.381067084723657"><ele>940.0</ele><time>2026-05-03T09:33:23Z</time></trkpt><trkpt lat="44.200202331982894" lon="11.38097732694173"><ele>940.0</ele><time>2026-05-03T09:33:25Z</time></trkpt><trkpt lat="44.200117743537014" lon="11.380878227037373"><ele>940.0</ele><time>2026-05-03T09:33:27Z</time></trkpt><trkpt lat="44.20006247148815" lon="11.380821386202227"><ele>940.0</ele><time>2026-05-03T09:33:29Z</time></trkpt><trkpt lat="44.199978918592315" lon="11.38074961306865"><ele>940.0</ele><time>2026-05-03T09:33:31Z</time></trkpt><trkpt lat="44.19990700325238" lon="11.380645227073215"><ele>940.0</ele><time>2026-05-03T09:33:33Z</time></trkpt><trkpt lat="44.19985420192291" lon="11.380547459939166"><ele>941.4</ele><time>2026-05-03T09:33:35Z</time></trkpt><trkpt lat="44.199804482982636" lon="11.38042319975839"><ele>942.8</ele><time>2026-05-03T09:33:37Z</time></trkpt><trkpt lat="44.199741436034685" lon="11.380291050770007"><ele>944.2</ele><time>2026-05-03T09:33:39Z</time></trkpt><trkpt lat="44.199705346149" lon="11.380217919657207"><ele>945.6</ele><time>2026-05-03T09:33:41Z</time></trkpt><trkpt lat="44.19966237414977" lon="11.380073921546071"><ele>947.0</ele><time>2026-05-03T09:33:43Z</time></trkpt><trkpt lat="44.19960988959321" lon="11.379939475213982"><ele>947.0</ele><time>2026-05-03T09:33:45Z</time></trkpt><trkpt lat="44.199551202754776" lon="11.379803973525846"><ele>947.0</ele><time>2026-05-03T09:33:47Z</time></trkpt><trkpt lat="44.19951599931031" lon="11.379648573885303"><ele>947.0</ele><time>2026-05-03T09:33:49Z</time></trkpt><trkpt lat="44.199493287305785" lon="11.379564871821517"><ele>947.0</ele><time>2026-05-03T09:33:50Z</time></trkpt><trkpt lat="44.19944201301147" lon="11.379503609423516"><ele>947.0</ele><time>2026-05-03T09:33:52Z</time></trkpt><trkpt lat="44.19938854055482" lon="11.379396221683152"><ele>948.0</ele><time>2026-05-03T09:33:54Z</time></trkpt><trkpt lat="44.199356453419824" lon="11.379282665665777"><ele>949.0</ele><time>2026-05-03T09:33:56Z</time></trkpt><trkpt lat="44.19929377422145" lon="11.379137174069662"><ele>950.0</ele><time>2026-05-03T09:33:58Z</time></trkpt><trkpt lat="44.19928879340035" lon="11.379008789780425"><ele>951.0</ele><time>2026-05-03T09:34:00Z</time></trkpt><trkpt lat="44.19925946850512" lon="11.378881914942934"><ele>952.0</ele><time>2026-05-03T09:34:02Z</time></trkpt><trkpt lat="44.1992112355004" lon="11.37879826567387"><ele>952.4999999999999</ele><time>2026-05-03T09:34:04Z</time></trkpt><trkpt lat="44.19919607494197" lon="11.378708287289689"><ele>953.0</ele><time>2026-05-03T09:34:08Z</time></trkpt><trkpt lat="44.199176201931415" lon="11.37862108848959"><ele>953.5</ele><time>2026-05-03T09:34:11Z</time></trkpt><trkpt lat="44.19914580841897" lon="11.378462588254756"><ele>954.0</ele><time>2026-05-03T09:34:13Z</time></trkpt><trkpt lat="44.19913885841706" lon="11.378358842756706"><ele>954.4999999999999</ele><time>2026-05-03T09:34:16Z</time></trkpt><trkpt lat="44.199163462977864" lon="11.378440039638779"><ele>955.0</ele><time>2026-05-03T09:41:49Z</time></trkpt><trkpt lat="44.19917273735809" lon="11.378528235417066"><ele>954.9999999999999</ele><time>2026-05-03T09:41:51Z</time></trkpt><trkpt lat="44.19920363865246" lon="11.378648835430425"><ele>955.0</ele><time>2026-05-03T09:41:54Z</time></trkpt><trkpt lat="44.199225462274484" lon="11.378754242199928"><ele>954.9999999999999</ele><time>2026-05-03T09:41:59Z</time></trkpt><trkpt lat="44.19925306588947" lon="11.378849038262143"><ele>954.9999999999999</ele><time>2026-05-03T09:42:01Z</time></trkpt><trkpt lat="44.19929128435416" lon="11.378919625161458"><ele>955.0</ele><time>2026-05-03T09:42:04Z</time></trkpt><trkpt lat="44.19930775349825" lon="11.37901991753357"><ele>954.9999999999999</ele><time>2026-05-03T09:42:07Z</time></trkpt><trkpt lat="44.19931173153073" lon="11.379114565546782"><ele>954.9999999999999</ele><time>2026-05-03T09:42:11Z</time></trkpt><trkpt lat="44.19933340641351" lon="11.379206404911738"><ele>954.4</ele><time>2026-05-03T09:42:14Z</time></trkpt><trkpt lat="44.19937200114848" lon="11.379297138220723"><ele>953.8</ele><time>2026-05-03T09:42:17Z</time></trkpt><trkpt lat="44.1993996208655" lon="11.379389350256844"><ele>953.2</ele><time>2026-05-03T09:42:19Z</time></trkpt><trkpt lat="44.199442943335725" lon="11.379493597306816"><ele>952.6</ele><time>2026-05-03T09:42:22Z</time></trkpt><trkpt lat="44.19953470480812" lon="11.379650980402403"><ele>952.0</ele><time>2026-05-03T09:42:25Z</time></trkpt><trkpt lat="44.19954286277583" lon="11.379776771106794"><ele>951.1666666666666</ele><time>2026-05-03T09:42:27Z</time></trkpt><trkpt lat="44.199578142250495" lon="11.379884021286575"><ele>950.3333333333333</ele><time>2026-05-03T09:42:29Z</time></trkpt><trkpt lat="44.19961492110458" lon="11.379968525745902"><ele>949.5</ele><time>2026-05-03T09:42:32Z</time></trkpt><trkpt lat="44.19966864595926" lon="11.380091981182124"><ele>948.6666666666667</ele><time>2026-05-03T09:42:34Z</time></trkpt><trkpt lat="44.19971733140485" lon="11.380179957043051"><ele>947.8333333333334</ele><time>2026-05-03T09:42:36Z</time></trkpt><trkpt lat="44.19974091479143" lon="11.380266284617926"><ele>947.0</ele><time>2026-05-03T09:42:38Z</time></trkpt><trkpt lat="44.199779225175575" lon="11.380362930802237"><ele>947.0</ele><time>2026-05-03T09:42:41Z</time></trkpt><trkpt lat="44.199828534263055" lon="11.380474945447101"><ele>947.0</ele><time>2026-05-03T09:42:43Z</time></trkpt><trkpt lat="44.19988731521568" lon="11.380571551306753"><ele>947.0</ele><time>2026-05-03T09:42:45Z</time></trkpt><trkpt lat="44.199954999685026" lon="11.380681192355382"><ele>947.0</ele><time>2026-05-03T09:42:47Z</time></trkpt><trkpt lat="44.20001397745209" lon="11.380778664577885"><ele>947.0</ele><time>2026-05-03T09:42:50Z</time></trkpt><trkpt lat="44.20007086545494" lon="11.380850175129513"><ele>945.6</ele><time>2026-05-03T09:42:52Z</time></trkpt><trkpt lat="44.20012647334528" lon="11.380901789688043"><ele>944.2</ele><time>2026-05-03T09:42:54Z</time></trkpt><trkpt lat="44.200210128909255" lon="11.38099272425731"><ele>942.8</ele><time>2026-05-03T09:42:56Z</time></trkpt><trkpt lat="44.20029041954638" lon="11.381079501473737"><ele>941.4</ele><time>2026-05-03T09:42:58Z</time></trkpt><trkpt lat="44.20035830683526" lon="11.38116549195877"><ele>940.0</ele><time>2026-05-03T09:43:00Z</time></trkpt><trkpt lat="44.200428418764304" lon="11.38124023449266"><ele>940.0</ele><time>2026-05-03T09:43:02Z</time></trkpt><trkpt lat="44.20048861248898" lon="11.381299598461451"><ele>940.0</ele><time>2026-05-03T09:43:04Z</time></trkpt><trkpt lat="44.20055499907659" lon="11.381375063267376"><ele>940.0</ele><time>2026-05-03T09:43:07Z</time></trkpt><trkpt lat="44.20061542432977" lon="11.381432891219898"><ele>940.0</ele><time>2026-05-03T09:43:09Z</time></trkpt><trkpt lat="44.20069427946942" lon="11.381509970882883"><ele>940.0</ele><time>2026-05-03T09:43:11Z</time></trkpt><trkpt lat="44.20080921266182" lon="11.381635631130932"><ele>939.2</ele><time>2026-05-03T09:43:14Z</time></trkpt><trkpt lat="44.200881495717354" lon="11.38171681495574"><ele>938.4</ele><time>2026-05-03T09:43:16Z</time></trkpt><trkpt lat="44.200957581155706" lon="11.38180483854484"><ele>937.5999999999999</ele><time>2026-05-03T09:43:18Z</time></trkpt><trkpt lat="44.20102647057931" lon="11.381889560784455"><ele>936.8</ele><time>2026-05-03T09:43:21Z</time></trkpt><trkpt lat="44.20111373997377" lon="11.381952495934147"><ele>936.0</ele><time>2026-05-03T09:43:23Z</time></trkpt><trkpt lat="44.20118604604099" lon="11.382034408932212"><ele>936.0</ele><time>2026-05-03T09:43:25Z</time></trkpt><trkpt lat="44.20124430375795" lon="11.38209975275131"><ele>936.0</ele><time>2026-05-03T09:43:28Z</time></trkpt><trkpt lat="44.2013086920232" lon="11.382176404810822"><ele>936.0</ele><time>2026-05-03T09:43:29Z</time></trkpt><trkpt lat="44.20134591413303" lon="11.38225246955796"><ele>936.0</ele><time>2026-05-03T09:43:31Z</time></trkpt><trkpt lat="44.20139618894879" lon="11.382354924227833"><ele>936.0</ele><time>2026-05-03T09:43:33Z</time></trkpt><trkpt lat="44.20144900228624" lon="11.382463433680561"><ele>936.0</ele><time>2026-05-03T09:43:35Z</time></trkpt><trkpt lat="44.201520727439764" lon="11.382534640960879"><ele>935.6666666666666</ele><time>2026-05-03T09:43:37Z</time></trkpt><trkpt lat="44.20157704734231" lon="11.38258349396709"><ele>935.3333333333333</ele><time>2026-05-03T09:43:39Z</time></trkpt><trkpt lat="44.20161810477362" lon="11.382652440571235"><ele>935.0</ele><time>2026-05-03T09:43:51Z</time></trkpt><trkpt lat="44.201701207764465" lon="11.382706011610816"><ele>934.6666666666666</ele><time>2026-05-03T09:43:56Z</time></trkpt><trkpt lat="44.20173380236264" lon="11.382795093797938"><ele>934.3333333333333</ele><time>2026-05-03T09:43:58Z</time></trkpt><trkpt lat="44.201786873799" lon="11.382867282309807"><ele>934.0</ele><time>2026-05-03T09:44:00Z</time></trkpt><trkpt lat="44.20186281101981" lon="11.382933313522283"><ele>933.9999999999999</ele><time>2026-05-03T09:44:03Z</time></trkpt><trkpt lat="44.20190506150099" lon="11.383006996295478"><ele>934.0</ele><time>2026-05-03T09:44:06Z</time></trkpt><trkpt lat="44.201994608244256" lon="11.383098098403517"><ele>934.0</ele><time>2026-05-03T09:44:08Z</time></trkpt><trkpt lat="44.202049189919876" lon="11.383165692621281"><ele>934.0</ele><time>2026-05-03T09:44:10Z</time></trkpt><trkpt lat="44.202080604603076" lon="11.383257690928176"><ele>933.9999999999999</ele><time>2026-05-03T09:44:12Z</time></trkpt><trkpt lat="44.202105295462346" lon="11.383369256873468"><ele>934.0</ele><time>2026-05-03T09:44:14Z</time></trkpt><trkpt lat="44.20213040678885" lon="11.383471098252183"><ele>934.0</ele><time>2026-05-03T09:44:16Z</time></trkpt><trkpt lat="44.20218697518158" lon="11.383576197372259"><ele>934.0000000000001</ele><time>2026-05-03T09:44:18Z</time></trkpt><trkpt lat="44.20222994902434" lon="11.38366433476658"><ele>934.0000000000001</ele><time>2026-05-03T09:44:20Z</time></trkpt><trkpt lat="44.20226586206153" lon="11.383794877573486"><ele>934.0</ele><time>2026-05-03T09:44:22Z</time></trkpt><trkpt lat="44.20235146138992" lon="11.383882972078185"><ele>934.0</ele><time>2026-05-03T09:44:24Z</time></trkpt><trkpt lat="44.20242101735502" lon="11.384000218476393"><ele>933.4999999999999</ele><time>2026-05-03T09:44:26Z</time></trkpt><trkpt lat="44.20246514961787" lon="11.38412977695572"><ele>933.0</ele><time>2026-05-03T09:44:28Z</time></trkpt><trkpt lat="44.202511704814405" lon="11.384244139743299"><ele>932.5</ele><time>2026-05-03T09:44:30Z</time></trkpt><trkpt lat="44.20255389804184" lon="11.384341269081855"><ele>932.0</ele><time>2026-05-03T09:44:32Z</time></trkpt><trkpt lat="44.20259543496968" lon="11.38444298465219"><ele>931.4999999999999</ele><time>2026-05-03T09:44:34Z</time></trkpt><trkpt lat="44.20262236725025" lon="11.384544590745731"><ele>931.0</ele><time>2026-05-03T09:44:36Z</time></trkpt><trkpt lat="44.20267111231903" lon="11.384630480685903"><ele>930.1999999999999</ele><time>2026-05-03T09:44:39Z</time></trkpt><trkpt lat="44.202727262008224" lon="11.38470986764167"><ele>929.3999999999999</ele><time>2026-05-03T09:44:42Z</time></trkpt><trkpt lat="44.202817367364716" lon="11.384823178458435"><ele>928.6</ele><time>2026-05-03T09:44:44Z</time></trkpt><trkpt lat="44.20291497715878" lon="11.384899221278046"><ele>927.8</ele><time>2026-05-03T09:44:46Z</time></trkpt><trkpt lat="44.203002216130976" lon="11.384961919863684"><ele>927.0</ele><time>2026-05-03T09:44:48Z</time></trkpt><trkpt lat="44.2030613963008" lon="11.385014498155641"><ele>927.0</ele><time>2026-05-03T09:44:50Z</time></trkpt><trkpt lat="44.2031218028481" lon="11.385094932273244"><ele>927.0</ele><time>2026-05-03T09:44:52Z</time></trkpt><trkpt lat="44.20319707361416" lon="11.385202550649407"><ele>927.0</ele><time>2026-05-03T09:44:55Z</time></trkpt><trkpt lat="44.203251554355504" lon="11.385285512825106"><ele>927.0</ele><time>2026-05-03T09:44:57Z</time></trkpt><trkpt lat="44.203321264695255" lon="11.385351254003323"><ele>927.0</ele><time>2026-05-03T09:44:58Z</time></trkpt><trkpt lat="44.203420776028324" lon="11.385401674187593"><ele>926.6666666666666</ele><time>2026-05-03T09:45:00Z</time></trkpt><trkpt lat="44.20350799158212" lon="11.385411619408503"><ele>926.3333333333333</ele><time>2026-05-03T09:45:02Z</time></trkpt><trkpt lat="44.203582709590044" lon="11.385477264696043"><ele>926.0</ele><time>2026-05-03T09:45:04Z</time></trkpt><trkpt lat="44.20364812843673" lon="11.385560591304545"><ele>925.6666666666666</ele><time>2026-05-03T09:45:06Z</time></trkpt><trkpt lat="44.20372111643138" lon="11.38565166649758"><ele>925.3333333333333</ele><time>2026-05-03T09:45:08Z</time></trkpt><trkpt lat="44.20375893444873" lon="11.3857515505987"><ele>925.0</ele><time>2026-05-03T09:45:10Z</time></trkpt><trkpt lat="44.20380107585538" lon="11.385840745177994"><ele>924.8333333333333</ele><time>2026-05-03T09:45:12Z</time></trkpt><trkpt lat="44.20386433817306" lon="11.385919016280246"><ele>924.6666666666666</ele><time>2026-05-03T09:45:14Z</time></trkpt><trkpt lat="44.20393877693806" lon="11.38598093198995"><ele>924.5</ele><time>2026-05-03T09:45:16Z</time></trkpt><trkpt lat="44.20403613906507" lon="11.386058619422194"><ele>924.3333333333333</ele><time>2026-05-03T09:45:18Z</time></trkpt><trkpt lat="44.20406161706556" lon="11.386140336046688"><ele>924.1666666666666</ele><time>2026-05-03T09:45:21Z</time></trkpt><trkpt lat="44.20410926114484" lon="11.386217466979652"><ele>924.0</ele><time>2026-05-03T09:45:26Z</time></trkpt><trkpt lat="44.20416623277137" lon="11.386326072481165"><ele>923.3333333333334</ele><time>2026-05-03T09:45:32Z</time></trkpt><trkpt lat="44.204219368981065" lon="11.386433145841773"><ele>922.6666666666667</ele><time>2026-05-03T09:45:34Z</time></trkpt><trkpt lat="44.20426635280543" lon="11.386559004704615"><ele>922.0</ele><time>2026-05-03T09:45:36Z</time></trkpt><trkpt lat="44.2043152192741" lon="11.386650664936214"><ele>921.3333333333334</ele><time>2026-05-03T09:45:38Z</time></trkpt><trkpt lat="44.20436396041153" lon="11.386720697018827"><ele>920.6666666666667</ele><time>2026-05-03T09:45:41Z</time></trkpt><trkpt lat="44.20440548857458" lon="11.386801824622346"><ele>920.0</ele><time>2026-05-03T09:45:42Z</time></trkpt><trkpt lat="44.204466326298814" lon="11.386864041848307"><ele>920.0</ele><time>2026-05-03T09:45:43Z</time></trkpt><trkpt lat="44.20452327199346" lon="11.38696954208558"><ele>920.0</ele><time>2026-05-03T09:45:45Z</time></trkpt><trkpt lat="44.204568229498534" lon="11.387097742738078"><ele>920.0</ele><time>2026-05-03T09:45:47Z</time></trkpt><trkpt lat="44.20458332193558" lon="11.387207666872364"><ele>920.0</ele><time>2026-05-03T09:45:49Z</time></trkpt><trkpt lat="44.204666393173675" lon="11.387262214080378"><ele>920.0</ele><time>2026-05-03T09:45:51Z</time></trkpt><trkpt lat="44.204750886255304" lon="11.387233095753519"><ele>917.8</ele><time>2026-05-03T09:45:53Z</time></trkpt><trkpt lat="44.20485491632504" lon="11.38721011950008"><ele>915.6</ele><time>2026-05-03T09:45:55Z</time></trkpt><trkpt lat="44.20492632390035" lon="11.387220464393907"><ele>913.4000000000001</ele><time>2026-05-03T09:45:58Z</time></trkpt><trkpt lat="44.20501241419297" lon="11.3872919973365"><ele>911.2</ele><time>2026-05-03T09:46:01Z</time></trkpt><trkpt lat="44.20511179537476" lon="11.38736299976559"><ele>909.0</ele><time>2026-05-03T09:46:03Z</time></trkpt><trkpt lat="44.2051830550622" lon="11.387458864739118"><ele>909.0</ele><time>2026-05-03T09:46:05Z</time></trkpt><trkpt lat="44.205311398129155" lon="11.387528164615043"><ele>909.0</ele><time>2026-05-03T09:46:07Z</time></trkpt><trkpt lat="44.205406773006594" lon="11.387626498970471"><ele>909.0</ele><time>2026-05-03T09:46:09Z</time></trkpt><trkpt lat="44.20549329976303" lon="11.387710247586229"><ele>909.0</ele><time>2026-05-03T09:46:11Z</time></trkpt><trkpt lat="44.205569250068145" lon="11.387775197018868"><ele>909.0</ele><time>2026-05-03T09:46:13Z</time></trkpt><trkpt lat="44.20564564678781" lon="11.387849363420747"><ele>909.0000000000001</ele><time>2026-05-03T09:46:15Z</time></trkpt><trkpt lat="44.205731396873155" lon="11.38794246344538"><ele>909.0000000000001</ele><time>2026-05-03T09:46:17Z</time></trkpt><trkpt lat="44.20582469639602" lon="11.38800508807791"><ele>909.0</ele><time>2026-05-03T09:46:19Z</time></trkpt><trkpt lat="44.20594702742905" lon="11.388014696985143"><ele>909.0</ele><time>2026-05-03T09:46:21Z</time></trkpt><trkpt lat="44.20603187810702" lon="11.38802500324651"><ele>906.6666666666666</ele><time>2026-05-03T09:46:22Z</time></trkpt><trkpt lat="44.206110170039516" lon="11.388036220220547"><ele>904.3333333333333</ele><time>2026-05-03T09:46:23Z</time></trkpt><trkpt lat="44.20618918595959" lon="11.388048656472396"><ele>902.0</ele><time>2026-05-03T09:46:24Z</time></trkpt><trkpt lat="44.20627871752262" lon="11.388058191248563"><ele>899.6666666666666</ele><time>2026-05-03T09:46:25Z</time></trkpt><trkpt lat="44.20636285812992" lon="11.388033808355328"><ele>897.3333333333333</ele><time>2026-05-03T09:46:26Z</time></trkpt><trkpt lat="44.206432270697306" lon="11.388031404645487"><ele>895.0</ele><time>2026-05-03T09:46:27Z</time></trkpt><trkpt lat="44.20654249231257" lon="11.388031891895878"><ele>893.6</ele><time>2026-05-03T09:46:29Z</time></trkpt><trkpt lat="44.20666693779174" lon="11.388030637370017"><ele>892.2</ele><time>2026-05-03T09:46:31Z</time></trkpt><trkpt lat="44.20676811330608" lon="11.388064628703116"><ele>890.8</ele><time>2026-05-03T09:46:33Z</time></trkpt><trkpt lat="44.20686241416383" lon="11.38809745624137"><ele>889.4</ele><time>2026-05-03T09:46:35Z</time></trkpt><trkpt lat="44.20696396883505" lon="11.388139486841006"><ele>888.0</ele><time>2026-05-03T09:46:37Z</time></trkpt><trkpt lat="44.207057898301024" lon="11.388160852930522"><ele>888.0</ele><time>2026-05-03T09:46:40Z</time></trkpt><trkpt lat="44.20713234696833" lon="11.388175311780824"><ele>888.0</ele><time>2026-05-03T09:46:42Z</time></trkpt><trkpt lat="44.20722415094876" lon="11.38819226445068"><ele>888.0</ele><time>2026-05-03T09:46:43Z</time></trkpt><trkpt lat="44.20730103020227" lon="11.388222216489343"><ele>888.0</ele><time>2026-05-03T09:46:45Z</time></trkpt><trkpt lat="44.20739060901977" lon="11.388250106840491"><ele>888.0</ele><time>2026-05-03T09:46:48Z</time></trkpt><trkpt lat="44.2074560998861" lon="11.38825931182515"><ele>888.0</ele><time>2026-05-03T09:46:53Z</time></trkpt><trkpt lat="44.207431700440814" lon="11.388348076220332"><ele>888.0</ele><time>2026-05-03T09:46:55Z</time></trkpt><trkpt lat="44.20730569358694" lon="11.388425005635087"><ele>888.0</ele><time>2026-05-03T09:46:57Z</time></trkpt><trkpt lat="44.20723807878946" lon="11.388434291450078"><ele>888.0</ele><time>2026-05-03T09:46:58Z</time></trkpt><trkpt lat="44.207153883457806" lon="11.388433235099328"><ele>888.0</ele><time>2026-05-03T09:46:59Z</time></trkpt><trkpt lat="44.20707273986966" lon="11.388414274046132"><ele>888.0</ele><time>2026-05-03T09:47:00Z</time></trkpt><trkpt lat="44.20697578260799" lon="11.388385191267673"><ele>888.0</ele><time>2026-05-03T09:47:01Z</time></trkpt><trkpt lat="44.20685171747166" lon="11.388358865273226"><ele>888.0</ele><time>2026-05-03T09:47:02Z</time></trkpt><trkpt lat="44.20675003065876" lon="11.388385499752028"><ele>888.0</ele><time>2026-05-03T09:47:03Z</time></trkpt><trkpt lat="44.2066618953332" lon="11.38838894287026"><ele>888.0</ele><time>2026-05-03T09:47:04Z</time></trkpt><trkpt lat="44.20657866190455" lon="11.388368638332954"><ele>888.0</ele><time>2026-05-03T09:47:05Z</time></trkpt><trkpt lat="44.20648203599587" lon="11.388332977301614"><ele>889.4</ele><time>2026-05-03T09:47:06Z</time></trkpt><trkpt lat="44.20638408200283" lon="11.388295407440715"><ele>890.8</ele><time>2026-05-03T09:47:07Z</time></trkpt><trkpt lat="44.20628439016966" lon="11.388275994775285"><ele>892.2</ele><time>2026-05-03T09:47:08Z</time></trkpt><trkpt lat="44.20618158627359" lon="11.38826373350588"><ele>893.6</ele><time>2026-05-03T09:47:09Z</time></trkpt><trkpt lat="44.20608071851745" lon="11.388246284907472"><ele>895.0</ele><time>2026-05-03T09:47:10Z</time></trkpt><trkpt lat="44.20597908292497" lon="11.388220169606525"><ele>894.9999999999999</ele><time>2026-05-03T09:47:11Z</time></trkpt><trkpt lat="44.20588632244791" lon="11.388196221396488"><ele>895.0</ele><time>2026-05-03T09:47:12Z</time></trkpt><trkpt lat="44.205809303798155" lon="11.388183183388227"><ele>895.0</ele><time>2026-05-03T09:47:13Z</time></trkpt><trkpt lat="44.205736043899094" lon="11.388178183816098"><ele>895.0</ele><time>2026-05-03T09:47:14Z</time></trkpt><trkpt lat="44.20565316388945" lon="11.388174232474457"><ele>894.9999999999999</ele><time>2026-05-03T09:47:15Z</time></trkpt><trkpt lat="44.20555791787245" lon="11.388172778101993"><ele>895.0</ele><time>2026-05-03T09:47:16Z</time></trkpt><trkpt lat="44.205456608559615" lon="11.388194577037947"><ele>897.0</ele><time>2026-05-03T09:47:17Z</time></trkpt><trkpt lat="44.205351781979715" lon="11.388238863501595"><ele>899.0</ele><time>2026-05-03T09:47:18Z</time></trkpt><trkpt lat="44.20524619023298" lon="11.388296906965957"><ele>901.0</ele><time>2026-05-03T09:47:19Z</time></trkpt><trkpt lat="44.20514217035417" lon="11.388359637698363"><ele>903.0</ele><time>2026-05-03T09:47:20Z</time></trkpt><trkpt lat="44.20504079815504" lon="11.388436193868708"><ele>903.0</ele><time>2026-05-03T09:47:21Z</time></trkpt><trkpt lat="44.204942206463286" lon="11.388531975250524"><ele>903.0</ele><time>2026-05-03T09:47:22Z</time></trkpt><trkpt lat="44.204861727333665" lon="11.388663306009152"><ele>903.0</ele><time>2026-05-03T09:47:23Z</time></trkpt><trkpt lat="44.204792434962094" lon="11.388815982315112"><ele>903.0</ele><time>2026-05-03T09:47:24Z</time></trkpt><trkpt lat="44.20471935976812" lon="11.388949853343867"><ele>903.0</ele><time>2026-05-03T09:47:25Z</time></trkpt><trkpt lat="44.20464536160941" lon="11.389052788771293"><ele>903.0</ele><time>2026-05-03T09:47:26Z</time></trkpt><trkpt lat="44.20458019158061" lon="11.389141313774921"><ele>903.0</ele><time>2026-05-03T09:47:27Z</time></trkpt><trkpt lat="44.204525864440534" lon="11.389224631915349"><ele>903.0</ele><time>2026-05-03T09:47:28Z</time></trkpt><trkpt lat="44.204470750616565" lon="11.389302605910633"><ele>903.0</ele><time>2026-05-03T09:47:29Z</time></trkpt><trkpt lat="44.20441427021389" lon="11.389360034703497"><ele>903.0</ele><time>2026-05-03T09:47:30Z</time></trkpt><trkpt lat="44.204352838038346" lon="11.389402968690662"><ele>903.0</ele><time>2026-05-03T09:47:31Z</time></trkpt><trkpt lat="44.20429247086929" lon="11.38942974887492"><ele>903.0</ele><time>2026-05-03T09:47:32Z</time></trkpt><trkpt lat="44.20422904873735" lon="11.389421505918689"><ele>903.0</ele><time>2026-05-03T09:47:33Z</time></trkpt><trkpt lat="44.20416322195575" lon="11.389369858915092"><ele>903.0</ele><time>2026-05-03T09:47:34Z</time></trkpt><trkpt lat="44.20410246643048" lon="11.389273528313058"><ele>903.0</ele><time>2026-05-03T09:47:35Z</time></trkpt><trkpt lat="44.204043444087674" lon="11.389162387218079"><ele>903.0</ele><time>2026-05-03T09:47:36Z</time></trkpt><trkpt lat="44.20398382311922" lon="11.389055094421904"><ele>901.0</ele><time>2026-05-03T09:47:37Z</time></trkpt><trkpt lat="44.20392049117592" lon="11.388955916724983"><ele>899.0</ele><time>2026-05-03T09:47:38Z</time></trkpt><trkpt lat="44.203851666341784" lon="11.388855064185133"><ele>897.0</ele><time>2026-05-03T09:47:39Z</time></trkpt><trkpt lat="44.2037843270217" lon="11.388756239334574"><ele>895.0</ele><time>2026-05-03T09:47:40Z</time></trkpt><trkpt lat="44.2037240212856" lon="11.388651315974487"><ele>893.0</ele><time>2026-05-03T09:47:41Z</time></trkpt><trkpt lat="44.203669103053535" lon="11.388543036096301"><ele>893.0</ele><time>2026-05-03T09:47:42Z</time></trkpt><trkpt lat="44.203611777360145" lon="11.388427176840537"><ele>893.0</ele><time>2026-05-03T09:47:43Z</time></trkpt><trkpt lat="44.20355282657954" lon="11.388317956160366"><ele>893.0</ele><time>2026-05-03T09:47:44Z</time></trkpt><trkpt lat="44.20348982907023" lon="11.388209487052064"><ele>893.0</ele><time>2026-05-03T09:47:45Z</time></trkpt><trkpt lat="44.203413303481554" lon="11.388112587398039"><ele>893.0</ele><time>2026-05-03T09:47:46Z</time></trkpt><trkpt lat="44.20332306171198" lon="11.388034783333136"><ele>894.2</ele><time>2026-05-03T09:47:47Z</time></trkpt><trkpt lat="44.203224746518174" lon="11.387979757559682"><ele>895.4</ele><time>2026-05-03T09:47:48Z</time></trkpt><trkpt lat="44.2031227862684" lon="11.387945058917367"><ele>896.6000000000001</ele><time>2026-05-03T09:47:49Z</time></trkpt><trkpt lat="44.20301894900002" lon="11.387917298531969"><ele>897.8000000000001</ele><time>2026-05-03T09:47:50Z</time></trkpt><trkpt lat="44.20291697553665" lon="11.387890168559851"><ele>899.0</ele><time>2026-05-03T09:47:51Z</time></trkpt><trkpt lat="44.20281406289192" lon="11.387853127036863"><ele>896.6</ele><time>2026-05-03T09:47:52Z</time></trkpt><trkpt lat="44.20271739505341" lon="11.387804777779717"><ele>894.2</ele><time>2026-05-03T09:47:53Z</time></trkpt><trkpt lat="44.20261366657939" lon="11.387756515049706"><ele>891.8000000000001</ele><time>2026-05-03T09:47:54Z</time></trkpt><trkpt lat="44.20250564717756" lon="11.387713738485003"><ele>889.4000000000001</ele><time>2026-05-03T09:47:55Z</time></trkpt><trkpt lat="44.202399854105" lon="11.387672839189081"><ele>887.0</ele><time>2026-05-03T09:47:56Z</time></trkpt><trkpt lat="44.20229239617266" lon="11.387637833600417"><ele>884.6</ele><time>2026-05-03T09:47:57Z</time></trkpt><trkpt lat="44.20218516541742" lon="11.387597139673371"><ele>882.2</ele><time>2026-05-03T09:47:58Z</time></trkpt><trkpt lat="44.20208091703982" lon="11.387551280590815"><ele>879.8</ele><time>2026-05-03T09:47:59Z</time></trkpt><trkpt lat="44.20197576524166" lon="11.387505271956032"><ele>877.4</ele><time>2026-05-03T09:48:00Z</time></trkpt><trkpt lat="44.2018705811035" lon="11.387463433431522"><ele>875.0</ele><time>2026-05-03T09:48:01Z</time></trkpt><trkpt lat="44.2017724296301" lon="11.387430946879716"><ele>875.0000000000001</ele><time>2026-05-03T09:48:02Z</time></trkpt><trkpt lat="44.20168336257756" lon="11.38739892787039"><ele>875.0</ele><time>2026-05-03T09:48:03Z</time></trkpt><trkpt lat="44.20159461907821" lon="11.387370452122312"><ele>875.0</ele><time>2026-05-03T09:48:04Z</time></trkpt><trkpt lat="44.20151345356509" lon="11.38734284448691"><ele>875.0</ele><time>2026-05-03T09:48:05Z</time></trkpt><trkpt lat="44.2014428527434" lon="11.387307124589693"><ele>875.0000000000001</ele><time>2026-05-03T09:48:06Z</time></trkpt><trkpt lat="44.20135641889841" lon="11.387253907589415"><ele>875.0</ele><time>2026-05-03T09:48:07Z</time></trkpt><trkpt lat="44.20125839677019" lon="11.387179169745092"><ele>876.0</ele><time>2026-05-03T09:48:08Z</time></trkpt><trkpt lat="44.20115801858649" lon="11.387068334835664"><ele>877.0</ele><time>2026-05-03T09:48:09Z</time></trkpt><trkpt lat="44.20105724038521" lon="11.386964187382764"><ele>878.0</ele><time>2026-05-03T09:48:10Z</time></trkpt><trkpt lat="44.20094796634867" lon="11.38686423082908"><ele>879.0</ele><time>2026-05-03T09:48:11Z</time></trkpt><trkpt lat="44.20082502666757" lon="11.386776477918643"><ele>879.0</ele><time>2026-05-03T09:48:12Z</time></trkpt><trkpt lat="44.2006862639073" lon="11.386731686972263"><ele>879.0</ele><time>2026-05-03T09:48:13Z</time></trkpt><trkpt lat="44.20054454275874" lon="11.386733278231342"><ele>879.0</ele><time>2026-05-03T09:48:14Z</time></trkpt><trkpt lat="44.20041166828913" lon="11.386768065290877"><ele>879.0</ele><time>2026-05-03T09:48:15Z</time></trkpt><trkpt lat="44.20029267328981" lon="11.38679685962571"><ele>876.5</ele><time>2026-05-03T09:48:16Z</time></trkpt><trkpt lat="44.2001847563693" lon="11.386780503001525"><ele>874.0</ele><time>2026-05-03T09:48:17Z</time></trkpt><trkpt lat="44.20008222999362" lon="11.386717947391537"><ele>871.5</ele><time>2026-05-03T09:48:18Z</time></trkpt><trkpt lat="44.19998233545931" lon="11.386623539692847"><ele>869.0</ele><time>2026-05-03T09:48:19Z</time></trkpt><trkpt lat="44.1998946218846" lon="11.386485240378702"><ele>866.6666666666667</ele><time>2026-05-03T09:48:20Z</time></trkpt><trkpt lat="44.19981372801587" lon="11.3862977853829"><ele>864.3333333333333</ele><time>2026-05-03T09:48:21Z</time></trkpt><trkpt lat="44.19974503199791" lon="11.386089711321102"><ele>862.0</ele><time>2026-05-03T09:48:22Z</time></trkpt><trkpt lat="44.199703048670855" lon="11.385870672085003"><ele>862.0</ele><time>2026-05-03T09:48:23Z</time></trkpt><trkpt lat="44.199677585637076" lon="11.38565493427236"><ele>862.0</ele><time>2026-05-03T09:48:24Z</time></trkpt><trkpt lat="44.19964219084235" lon="11.385437754555785"><ele>862.0</ele><time>2026-05-03T09:48:25Z</time></trkpt><trkpt lat="44.1995871927579" lon="11.385224036722557"><ele>863.6666666666666</ele><time>2026-05-03T09:48:26Z</time></trkpt><trkpt lat="44.19951806846403" lon="11.385015065292468"><ele>865.3333333333333</ele><time>2026-05-03T09:48:27Z</time></trkpt><trkpt lat="44.19943324812842" lon="11.384811751162921"><ele>867.0</ele><time>2026-05-03T09:48:28Z</time></trkpt><trkpt lat="44.199330400790544" lon="11.384621706270336"><ele>867.6666666666667</ele><time>2026-05-03T09:48:29Z</time></trkpt><trkpt lat="44.19920955163704" lon="11.384445366755234"><ele>868.3333333333334</ele><time>2026-05-03T09:48:30Z</time></trkpt><trkpt lat="44.19907605690326" lon="11.384287532222528"><ele>869.0</ele><time>2026-05-03T09:48:31Z</time></trkpt><trkpt lat="44.198931533995186" lon="11.384144703586186"><ele>869.0</ele><time>2026-05-03T09:48:32Z</time></trkpt><trkpt lat="44.19877837031373" lon="11.384031204829226"><ele>869.0</ele><time>2026-05-03T09:48:33Z</time></trkpt><trkpt lat="44.198633999864064" lon="11.383956409049413"><ele>869.0</ele><time>2026-05-03T09:48:34Z</time></trkpt><trkpt lat="44.198481246606846" lon="11.383937389885554"><ele>869.0</ele><time>2026-05-03T09:48:35Z</time></trkpt><trkpt lat="44.198318061489914" lon="11.383970985213649"><ele>869.0</ele><time>2026-05-03T09:48:36Z</time></trkpt><trkpt lat="44.198167215947166" lon="11.384036578747628"><ele>869.0</ele><time>2026-05-03T09:48:37Z</time></trkpt><trkpt lat="44.198033954021774" lon="11.38408634974246"><ele>869.25</ele><time>2026-05-03T09:48:38Z</time></trkpt><trkpt lat="44.19790523954206" lon="11.384109056851633"><ele>869.5</ele><time>2026-05-03T09:48:39Z</time></trkpt><trkpt lat="44.19778221001549" lon="11.38412032732894"><ele>869.75</ele><time>2026-05-03T09:48:40Z</time></trkpt><trkpt lat="44.197665613899005" lon="11.384110179824189"><ele>870.0</ele><time>2026-05-03T09:48:41Z</time></trkpt><trkpt lat="44.197558906340745" lon="11.384052656358742"><ele>870.0</ele><time>2026-05-03T09:48:42Z</time></trkpt><trkpt lat="44.197448472976035" lon="11.383940757517204"><ele>870.0</ele><time>2026-05-03T09:48:43Z</time></trkpt><trkpt lat="44.197339855449854" lon="11.383786998339925"><ele>870.0</ele><time>2026-05-03T09:48:44Z</time></trkpt><trkpt lat="44.19723792793804" lon="11.383596765402945"><ele>870.6666666666667</ele><time>2026-05-03T09:48:45Z</time></trkpt><trkpt lat="44.19713412607901" lon="11.383412323760243"><ele>871.3333333333334</ele><time>2026-05-03T09:48:46Z</time></trkpt><trkpt lat="44.19701118220692" lon="11.383248784308627"><ele>872.0</ele><time>2026-05-03T09:48:47Z</time></trkpt><trkpt lat="44.196861549720005" lon="11.383104417289644"><ele>870.3333333333334</ele><time>2026-05-03T09:48:48Z</time></trkpt><trkpt lat="44.19669912054319" lon="11.382992659409133"><ele>868.6666666666667</ele><time>2026-05-03T09:48:49Z</time></trkpt><trkpt lat="44.19656234723266" lon="11.38288817831321"><ele>867.0</ele><time>2026-05-03T09:48:50Z</time></trkpt><trkpt lat="44.196460617659504" lon="11.38276801480675"><ele>867.0</ele><time>2026-05-03T09:48:51Z</time></trkpt><trkpt lat="44.19639339621043" lon="11.382609236856347"><ele>867.0</ele><time>2026-05-03T09:48:52Z</time></trkpt><trkpt lat="44.19634635647001" lon="11.382402712469144"><ele>867.0</ele><time>2026-05-03T09:48:53Z</time></trkpt><trkpt lat="44.19630927402571" lon="11.382166049899379"><ele>868.6666666666667</ele><time>2026-05-03T09:48:54Z</time></trkpt><trkpt lat="44.19628004144324" lon="11.381907888445017"><ele>870.3333333333334</ele><time>2026-05-03T09:48:55Z</time></trkpt><trkpt lat="44.19624800077689" lon="11.381655473280233"><ele>872.0</ele><time>2026-05-03T09:48:56Z</time></trkpt><trkpt lat="44.196200974158" lon="11.381434456870661"><ele>874.3333333333334</ele><time>2026-05-03T09:48:57Z</time></trkpt><trkpt lat="44.196127891806654" lon="11.381242280067514"><ele>876.6666666666667</ele><time>2026-05-03T09:48:58Z</time></trkpt><trkpt lat="44.19602373235827" lon="11.381062779235705"><ele>879.0</ele><time>2026-05-03T09:48:59Z</time></trkpt><trkpt lat="44.19588326737546" lon="11.380887446726826"><ele>879.0</ele><time>2026-05-03T09:49:00Z</time></trkpt><trkpt lat="44.19571851372186" lon="11.380728239762758"><ele>879.0</ele><time>2026-05-03T09:49:01Z</time></trkpt><trkpt lat="44.19554985981991" lon="11.380572560287098"><ele>879.0</ele><time>2026-05-03T09:49:02Z</time></trkpt><trkpt lat="44.195394981649955" lon="11.380417646181582"><ele>880.6666666666667</ele><time>2026-05-03T09:49:03Z</time></trkpt><trkpt lat="44.19525616337751" lon="11.380264758694816"><ele>882.3333333333334</ele><time>2026-05-03T09:49:04Z</time></trkpt><trkpt lat="44.19511657447055" lon="11.380125313346815"><ele>884.0</ele><time>2026-05-03T09:49:05Z</time></trkpt><trkpt lat="44.19495169758407" lon="11.38001641502083"><ele>882.3333333333334</ele><time>2026-05-03T09:49:06Z</time></trkpt><trkpt lat="44.19477308298029" lon="11.379936195535242"><ele>880.6666666666667</ele><time>2026-05-03T09:49:07Z</time></trkpt><trkpt lat="44.19459255470321" lon="11.37985969351048"><ele>879.0</ele><time>2026-05-03T09:49:08Z</time></trkpt><trkpt lat="44.19441553608631" lon="11.379777760889711"><ele>879.0</ele><time>2026-05-03T09:49:09Z</time></trkpt><trkpt lat="44.194240164017614" lon="11.379696601149544"><ele>879.0</ele><time>2026-05-03T09:49:10Z</time></trkpt><trkpt lat="44.194066235713656" lon="11.379614423528047"><ele>879.0</ele><time>2026-05-03T09:49:11Z</time></trkpt><trkpt lat="44.19389927701502" lon="11.379529795953175"><ele>880.5</ele><time>2026-05-03T09:49:12Z</time></trkpt><trkpt lat="44.19374599681809" lon="11.37945100942297"><ele>882.0</ele><time>2026-05-03T09:49:13Z</time></trkpt><trkpt lat="44.193605871579535" lon="11.37938517648496"><ele>883.5</ele><time>2026-05-03T09:49:14Z</time></trkpt><trkpt lat="44.193474201103236" lon="11.379326507139277"><ele>885.0</ele><time>2026-05-03T09:49:15Z</time></trkpt><trkpt lat="44.1933565590395" lon="11.379258645316357"><ele>885.0</ele><time>2026-05-03T09:49:16Z</time></trkpt><trkpt lat="44.193260787382016" lon="11.379151552345565"><ele>885.0</ele><time>2026-05-03T09:49:17Z</time></trkpt><trkpt lat="44.193187743752496" lon="11.379022254317857"><ele>885.0</ele><time>2026-05-03T09:49:18Z</time></trkpt><trkpt lat="44.193134020138544" lon="11.378857648368049"><ele>885.0</ele><time>2026-05-03T09:49:19Z</time></trkpt><trkpt lat="44.19309445626734" lon="11.378648539028037"><ele>885.3333333333333</ele><time>2026-05-03T09:49:20Z</time></trkpt><trkpt lat="44.19304979365108" lon="11.378409800205294"><ele>885.6666666666666</ele><time>2026-05-03T09:49:21Z</time></trkpt><trkpt lat="44.192950544543976" lon="11.378193709015944"><ele>886.0</ele><time>2026-05-03T09:49:22Z</time></trkpt><trkpt lat="44.19281990718016" lon="11.378012495745681"><ele>886.0</ele><time>2026-05-03T09:49:23Z</time></trkpt><trkpt lat="44.192705652205106" lon="11.377862519794547"><ele>886.0</ele><time>2026-05-03T09:49:24Z</time></trkpt><trkpt lat="44.19262076303199" lon="11.37772067876358"><ele>886.0</ele><time>2026-05-03T09:49:25Z</time></trkpt><trkpt lat="44.19256197421814" lon="11.377568850941653"><ele>886.0</ele><time>2026-05-03T09:49:26Z</time></trkpt><trkpt lat="44.1925358450826" lon="11.377410531877036"><ele>886.0</ele><time>2026-05-03T09:49:27Z</time></trkpt><trkpt lat="44.192544754875854" lon="11.377246699114814"><ele>886.0</ele><time>2026-05-03T09:49:28Z</time></trkpt><trkpt lat="44.19259461108272" lon="11.377065950595389"><ele>886.0</ele><time>2026-05-03T09:49:29Z</time></trkpt><trkpt lat="44.19267303419845" lon="11.376879239133455"><ele>886.0</ele><time>2026-05-03T09:49:30Z</time></trkpt><trkpt lat="44.19275184921608" lon="11.376692239369342"><ele>886.25</ele><time>2026-05-03T09:49:31Z</time></trkpt><trkpt lat="44.192783628105715" lon="11.376516946281056"><ele>886.5</ele><time>2026-05-03T09:49:32Z</time></trkpt><trkpt lat="44.192772480658924" lon="11.376341843961518"><ele>886.75</ele><time>2026-05-03T09:49:33Z</time></trkpt><trkpt lat="44.19272179748977" lon="11.37615434386953"><ele>887.0</ele><time>2026-05-03T09:49:34Z</time></trkpt><trkpt lat="44.19263367013192" lon="11.37596128066096"><ele>887.0</ele><time>2026-05-03T09:49:35Z</time></trkpt><trkpt lat="44.19252360614376" lon="11.375766661600556"><ele>887.0</ele><time>2026-05-03T09:49:36Z</time></trkpt><trkpt lat="44.19241362602091" lon="11.375554356018403"><ele>887.0</ele><time>2026-05-03T09:49:37Z</time></trkpt><trkpt lat="44.19231241355596" lon="11.3753374352715"><ele>884.0</ele><time>2026-05-03T09:49:38Z</time></trkpt><trkpt lat="44.19222270728948" lon="11.37512119905543"><ele>881.0</ele><time>2026-05-03T09:49:39Z</time></trkpt><trkpt lat="44.19214462676825" lon="11.374911008230693"><ele>878.0</ele><time>2026-05-03T09:49:40Z</time></trkpt><trkpt lat="44.1920842401074" lon="11.37468851345701"><ele>881.0</ele><time>2026-05-03T09:49:41Z</time></trkpt><trkpt lat="44.192044827946" lon="11.374442264338057"><ele>884.0</ele><time>2026-05-03T09:49:42Z</time></trkpt><trkpt lat="44.19200752308341" lon="11.374191965008729"><ele>887.0</ele><time>2026-05-03T09:49:43Z</time></trkpt><trkpt lat="44.19194697719443" lon="11.37396514819418"><ele>890.0</ele><time>2026-05-03T09:49:44Z</time></trkpt><trkpt lat="44.191860150319364" lon="11.37376114781225"><ele>893.0</ele><time>2026-05-03T09:49:45Z</time></trkpt><trkpt lat="44.19175639585012" lon="11.37357922629107"><ele>896.0</ele><time>2026-05-03T09:49:46Z</time></trkpt><trkpt lat="44.19163941180242" lon="11.373412695715947"><ele>896.0</ele><time>2026-05-03T09:49:47Z</time></trkpt><trkpt lat="44.19152847736213" lon="11.373231151261066"><ele>896.0</ele><time>2026-05-03T09:49:48Z</time></trkpt><trkpt lat="44.19142730631818" lon="11.373030857264542"><ele>896.0</ele><time>2026-05-03T09:49:49Z</time></trkpt><trkpt lat="44.19133455019766" lon="11.372821000729846"><ele>891.6666666666667</ele><time>2026-05-03T09:49:50Z</time></trkpt><trkpt lat="44.19125073616788" lon="11.372600793587859"><ele>887.3333333333333</ele><time>2026-05-03T09:49:51Z</time></trkpt><trkpt lat="44.19116665362528" lon="11.372379031827519"><ele>883.0</ele><time>2026-05-03T09:49:52Z</time></trkpt><trkpt lat="44.19108345170381" lon="11.372158719069997"><ele>883.0</ele><time>2026-05-03T09:49:53Z</time></trkpt><trkpt lat="44.19100582949107" lon="11.371936073519333"><ele>883.0</ele><time>2026-05-03T09:49:54Z</time></trkpt><trkpt lat="44.190942539372756" lon="11.371712600441827"><ele>883.0</ele><time>2026-05-03T09:49:55Z</time></trkpt><trkpt lat="44.19089692928487" lon="11.37148963226116"><ele>885.6666666666666</ele><time>2026-05-03T09:49:56Z</time></trkpt><trkpt lat="44.19086789366409" lon="11.371272064116765"><ele>888.3333333333333</ele><time>2026-05-03T09:49:57Z</time></trkpt><trkpt lat="44.190835644388095" lon="11.371063686102694"><ele>891.0</ele><time>2026-05-03T09:49:58Z</time></trkpt><trkpt lat="44.190780220493835" lon="11.370879089040248"><ele>891.0</ele><time>2026-05-03T09:49:59Z</time></trkpt><trkpt lat="44.19070095133657" lon="11.370693583346435"><ele>891.0</ele><time>2026-05-03T09:50:00Z</time></trkpt><trkpt lat="44.19059007622798" lon="11.37051924654769"><ele>891.0</ele><time>2026-05-03T09:50:01Z</time></trkpt><trkpt lat="44.19046412230911" lon="11.370344667444561"><ele>888.6666666666667</ele><time>2026-05-03T09:50:02Z</time></trkpt><trkpt lat="44.1903565519679" lon="11.370180212909093"><ele>886.3333333333334</ele><time>2026-05-03T09:50:03Z</time></trkpt><trkpt lat="44.190277798380556" lon="11.37000189966512"><ele>884.0</ele><time>2026-05-03T09:50:04Z</time></trkpt><trkpt lat="44.19021517245687" lon="11.369763065488996"><ele>885.6666666666667</ele><time>2026-05-03T09:50:05Z</time></trkpt><trkpt lat="44.19015209480257" lon="11.36951456397341"><ele>887.3333333333333</ele><time>2026-05-03T09:50:06Z</time></trkpt><trkpt lat="44.19009277192542" lon="11.369300513162198"><ele>889.0</ele><time>2026-05-03T09:50:07Z</time></trkpt><trkpt lat="44.190023603270795" lon="11.36910113484038"><ele>889.0</ele><time>2026-05-03T09:50:08Z</time></trkpt><trkpt lat="44.189927584299674" lon="11.368907254670285"><ele>889.0</ele><time>2026-05-03T09:50:09Z</time></trkpt><trkpt lat="44.189804779519044" lon="11.36872704003348"><ele>889.0</ele><time>2026-05-03T09:50:10Z</time></trkpt><trkpt lat="44.18965976088283" lon="11.368559385000005"><ele>887.6666666666666</ele><time>2026-05-03T09:50:11Z</time></trkpt><trkpt lat="44.18950729098006" lon="11.368394602653686"><ele>886.3333333333333</ele><time>2026-05-03T09:50:12Z</time></trkpt><trkpt lat="44.18935242474532" lon="11.36822642047505"><ele>885.0</ele><time>2026-05-03T09:50:13Z</time></trkpt><trkpt lat="44.18920711076106" lon="11.368062246792162"><ele>884.6666666666667</ele><time>2026-05-03T09:50:14Z</time></trkpt><trkpt lat="44.18907554038296" lon="11.367915392299548"><ele>884.3333333333334</ele><time>2026-05-03T09:50:15Z</time></trkpt><trkpt lat="44.18895147252726" lon="11.367781310024156"><ele>884.0</ele><time>2026-05-03T09:50:16Z</time></trkpt><trkpt lat="44.18883576683566" lon="11.367633659400541"><ele>884.5</ele><time>2026-05-03T09:50:17Z</time></trkpt><trkpt lat="44.188740317218986" lon="11.367476857198888"><ele>885.0</ele><time>2026-05-03T09:50:18Z</time></trkpt><trkpt lat="44.18865593315357" lon="11.367315107321012"><ele>885.5</ele><time>2026-05-03T09:50:19Z</time></trkpt><trkpt lat="44.18858332877883" lon="11.367168246790223"><ele>886.0</ele><time>2026-05-03T09:50:20Z</time></trkpt><trkpt lat="44.188523252259785" lon="11.367043618661581"><ele>885.9999999999999</ele><time>2026-05-03T09:50:21Z</time></trkpt><trkpt lat="44.188456514507216" lon="11.366947497111784"><ele>886.0</ele><time>2026-05-03T09:50:22Z</time></trkpt><trkpt lat="44.18837653917572" lon="11.366892236643091"><ele>886.0</ele><time>2026-05-03T09:50:23Z</time></trkpt><trkpt lat="44.18828504335405" lon="11.366859241058224"><ele>886.0</ele><time>2026-05-03T09:50:24Z</time></trkpt><trkpt lat="44.188202560650055" lon="11.36685081320309"><ele>885.9999999999999</ele><time>2026-05-03T09:50:25Z</time></trkpt><trkpt lat="44.18812759922532" lon="11.366849487898078"><ele>886.0</ele><time>2026-05-03T09:50:26Z</time></trkpt><trkpt lat="44.188063472529876" lon="11.366853243646142"><ele>885.8333333333333</ele><time>2026-05-03T09:50:27Z</time></trkpt><trkpt lat="44.187960187033944" lon="11.366815895116515"><ele>885.6666666666666</ele><time>2026-05-03T09:50:29Z</time></trkpt><trkpt lat="44.18791493352866" lon="11.366750736360144"><ele>885.5</ele><time>2026-05-03T09:50:30Z</time></trkpt><trkpt lat="44.18786365742463" lon="11.366686090489456"><ele>885.3333333333333</ele><time>2026-05-03T09:50:31Z</time></trkpt><trkpt lat="44.1878035546171" lon="11.366570214784803"><ele>885.1666666666666</ele><time>2026-05-03T09:50:33Z</time></trkpt><trkpt lat="44.18774356010997" lon="11.366504503142435"><ele>885.0</ele><time>2026-05-03T09:50:34Z</time></trkpt><trkpt lat="44.18767142206356" lon="11.366429719503232"><ele>886.6</ele><time>2026-05-03T09:50:35Z</time></trkpt><trkpt lat="44.187613746461345" lon="11.366332715760281"><ele>888.2</ele><time>2026-05-03T09:50:36Z</time></trkpt><trkpt lat="44.18755423687662" lon="11.366215730070396"><ele>889.8</ele><time>2026-05-03T09:50:37Z</time></trkpt><trkpt lat="44.187497409554794" lon="11.366115049121627"><ele>891.4</ele><time>2026-05-03T09:50:38Z</time></trkpt><trkpt lat="44.18744173082191" lon="11.366044465262684"><ele>893.0</ele><time>2026-05-03T09:50:39Z</time></trkpt><trkpt lat="44.18733729254912" lon="11.36599893090621"><ele>893.0</ele><time>2026-05-03T09:50:41Z</time></trkpt><trkpt lat="44.18727215936476" lon="11.36599244120554"><ele>893.0</ele><time>2026-05-03T09:50:42Z</time></trkpt><trkpt lat="44.18719132935723" lon="11.365961294723794"><ele>893.0</ele><time>2026-05-03T09:50:43Z</time></trkpt><trkpt lat="44.187102547609115" lon="11.365903093958003"><ele>893.0</ele><time>2026-05-03T09:50:44Z</time></trkpt><trkpt lat="44.187003148640805" lon="11.365834816897436"><ele>893.0</ele><time>2026-05-03T09:50:45Z</time></trkpt><trkpt lat="44.18691148607148" lon="11.365780388308924"><ele>893.0000000000001</ele><time>2026-05-03T09:50:46Z</time></trkpt><trkpt lat="44.18682266497172" lon="11.365732117108326"><ele>893.0</ele><time>2026-05-03T09:50:47Z</time></trkpt><trkpt lat="44.186740256074714" lon="11.36568789296587"><ele>893.0</ele><time>2026-05-03T09:50:48Z</time></trkpt><trkpt lat="44.18665390669395" lon="11.365650135039433"><ele>893.0</ele><time>2026-05-03T09:50:49Z</time></trkpt><trkpt lat="44.18657222787097" lon="11.365605954284892"><ele>893.0000000000001</ele><time>2026-05-03T09:50:50Z</time></trkpt><trkpt lat="44.18651100945958" lon="11.36553921536153"><ele>893.0</ele><time>2026-05-03T09:50:51Z</time></trkpt><trkpt lat="44.186460953567966" lon="11.365454062943561"><ele>892.4</ele><time>2026-05-03T09:50:52Z</time></trkpt><trkpt lat="44.18640373701293" lon="11.365368448676515"><ele>891.8</ele><time>2026-05-03T09:50:53Z</time></trkpt><trkpt lat="44.186357769099814" lon="11.365275454055555"><ele>891.2</ele><time>2026-05-03T09:50:54Z</time></trkpt><trkpt lat="44.1863113534329" lon="11.365143825360212"><ele>890.6</ele><time>2026-05-03T09:50:55Z</time></trkpt><trkpt lat="44.18627096724294" lon="11.36499851637583"><ele>890.0</ele><time>2026-05-03T09:50:56Z</time></trkpt><trkpt lat="44.18623817512816" lon="11.364851930878572"><ele>890.0000000000001</ele><time>2026-05-03T09:50:57Z</time></trkpt><trkpt lat="44.186193508913085" lon="11.364711192332233"><ele>890.0</ele><time>2026-05-03T09:50:58Z</time></trkpt><trkpt lat="44.18615681188102" lon="11.36459511882546"><ele>890.0</ele><time>2026-05-03T09:50:59Z</time></trkpt><trkpt lat="44.18612155836484" lon="11.364493644427212"><ele>890.0</ele><time>2026-05-03T09:51:00Z</time></trkpt><trkpt lat="44.18607214562139" lon="11.364418887149474"><ele>890.0000000000001</ele><time>2026-05-03T09:51:01Z</time></trkpt><trkpt lat="44.18601170928531" lon="11.364356571302798"><ele>890.0</ele><time>2026-05-03T09:51:02Z</time></trkpt><trkpt lat="44.18592341633147" lon="11.364287159199158"><ele>889.8</ele><time>2026-05-03T09:51:03Z</time></trkpt><trkpt lat="44.185829770009974" lon="11.364223911048517"><ele>889.6</ele><time>2026-05-03T09:51:04Z</time></trkpt><trkpt lat="44.18574835554868" lon="11.364153220416878"><ele>889.4000000000001</ele><time>2026-05-03T09:51:05Z</time></trkpt><trkpt lat="44.185664650440394" lon="11.36407691820189"><ele>889.2</ele><time>2026-05-03T09:51:06Z</time></trkpt><trkpt lat="44.18558587909663" lon="11.363996758698217"><ele>889.0</ele><time>2026-05-03T09:51:07Z</time></trkpt><trkpt lat="44.18550198501609" lon="11.36391128941007"><ele>891.0</ele><time>2026-05-03T09:51:08Z</time></trkpt><trkpt lat="44.18542170434782" lon="11.363816846823056"><ele>893.0000000000001</ele><time>2026-05-03T09:51:09Z</time></trkpt><trkpt lat="44.18535672867715" lon="11.363722420545812"><ele>895.0000000000001</ele><time>2026-05-03T09:51:10Z</time></trkpt><trkpt lat="44.1853063977978" lon="11.363638548025069"><ele>897.0</ele><time>2026-05-03T09:51:11Z</time></trkpt><trkpt lat="44.18524096469509" lon="11.36357827007651"><ele>899.0</ele><time>2026-05-03T09:51:12Z</time></trkpt><trkpt lat="44.18515692717042" lon="11.363518060878773"><ele>899.0</ele><time>2026-05-03T09:51:13Z</time></trkpt><trkpt lat="44.185076101406636" lon="11.36345043378034"><ele>899.0000000000001</ele><time>2026-05-03T09:51:14Z</time></trkpt><trkpt lat="44.184999951575534" lon="11.363374506415369"><ele>899.0000000000001</ele><time>2026-05-03T09:51:15Z</time></trkpt><trkpt lat="44.18493455594083" lon="11.363303023138812"><ele>899.0</ele><time>2026-05-03T09:51:16Z</time></trkpt><trkpt lat="44.184886862775805" lon="11.363187579841679"><ele>899.0</ele><time>2026-05-03T09:51:18Z</time></trkpt><trkpt lat="44.18491780299914" lon="11.362993780674033"><ele>899.4000000000001</ele><time>2026-05-03T09:51:20Z</time></trkpt><trkpt lat="44.184908194869884" lon="11.362869813720938"><ele>899.8000000000001</ele><time>2026-05-03T09:51:21Z</time></trkpt><trkpt lat="44.184883008066045" lon="11.362751638918924"><ele>900.1999999999999</ele><time>2026-05-03T09:51:22Z</time></trkpt><trkpt lat="44.18485433127361" lon="11.362611668186007"><ele>900.5999999999999</ele><time>2026-05-03T09:51:23Z</time></trkpt><trkpt lat="44.18481999407861" lon="11.362438076215296"><ele>901.0</ele><time>2026-05-03T09:51:24Z</time></trkpt><trkpt lat="44.18478019307772" lon="11.362245013229225"><ele>909.6666666666666</ele><time>2026-05-03T09:51:25Z</time></trkpt><trkpt lat="44.18473263467771" lon="11.362020882329062"><ele>918.3333333333333</ele><time>2026-05-03T09:51:26Z</time></trkpt><trkpt lat="44.184684062115814" lon="11.361754666313443"><ele>927.0</ele><time>2026-05-03T09:51:27Z</time></trkpt><trkpt lat="44.184649867825" lon="11.36147192708202"><ele>930.6666666666667</ele><time>2026-05-03T09:51:28Z</time></trkpt><trkpt lat="44.18465790479879" lon="11.361176437534288"><ele>934.3333333333334</ele><time>2026-05-03T09:51:29Z</time></trkpt><trkpt lat="44.1846854631303" lon="11.36088121188234"><ele>938.0</ele><time>2026-05-03T09:51:30Z</time></trkpt><trkpt lat="44.18473318736633" lon="11.360596381245374"><ele>942.0</ele><time>2026-05-03T09:51:31Z</time></trkpt><trkpt lat="44.18479968900975" lon="11.36031032114138"><ele>946.0</ele><time>2026-05-03T09:51:32Z</time></trkpt><trkpt lat="44.18488101362604" lon="11.360037325737332"><ele>950.0</ele><time>2026-05-03T09:51:33Z</time></trkpt><trkpt lat="44.18493795357765" lon="11.359750468541735"><ele>937.3333333333334</ele><time>2026-05-03T09:51:34Z</time></trkpt><trkpt lat="44.18499807682026" lon="11.35946138102548"><ele>924.6666666666667</ele><time>2026-05-03T09:51:35Z</time></trkpt><trkpt lat="44.185053901049315" lon="11.359176346385347"><ele>912.0</ele><time>2026-05-03T09:51:36Z</time></trkpt><trkpt lat="44.18510063858853" lon="11.358887222263617"><ele>914.3333333333333</ele><time>2026-05-03T09:51:37Z</time></trkpt><trkpt lat="44.18512991784991" lon="11.358608690008625"><ele>916.6666666666666</ele><time>2026-05-03T09:51:38Z</time></trkpt><trkpt lat="44.185143546646586" lon="11.358353912224866"><ele>919.0</ele><time>2026-05-03T09:51:39Z</time></trkpt><trkpt lat="44.18515169200057" lon="11.358115474527489"><ele>920.25</ele><time>2026-05-03T09:51:40Z</time></trkpt><trkpt lat="44.18515840225321" lon="11.357922337002764"><ele>921.5</ele><time>2026-05-03T09:51:41Z</time></trkpt><trkpt lat="44.185192231708676" lon="11.357761018207897"><ele>922.75</ele><time>2026-05-03T09:51:42Z</time></trkpt><trkpt lat="44.18527600275024" lon="11.357625984108171"><ele>924.0</ele><time>2026-05-03T09:51:43Z</time></trkpt><trkpt lat="44.18539034738604" lon="11.357525281863232"><ele>924.0</ele><time>2026-05-03T09:51:44Z</time></trkpt><trkpt lat="44.18551077679391" lon="11.35747036273952"><ele>924.0</ele><time>2026-05-03T09:51:45Z</time></trkpt><trkpt lat="44.18561266165182" lon="11.357378751757192"><ele>924.0</ele><time>2026-05-03T09:51:46Z</time></trkpt><trkpt lat="44.18567267667363" lon="11.357205409726076"><ele>924.0</ele><time>2026-05-03T09:51:47Z</time></trkpt><trkpt lat="44.185688045353565" lon="11.357000402744056"><ele>922.6666666666667</ele><time>2026-05-03T09:51:48Z</time></trkpt><trkpt lat="44.18566720626799" lon="11.35677932995458"><ele>921.3333333333334</ele><time>2026-05-03T09:51:49Z</time></trkpt><trkpt lat="44.185613614771086" lon="11.356547621534077"><ele>920.0</ele><time>2026-05-03T09:51:50Z</time></trkpt><trkpt lat="44.18553081001362" lon="11.356357155700568"><ele>916.3333333333334</ele><time>2026-05-03T09:51:51Z</time></trkpt><trkpt lat="44.18542430446179" lon="11.356191668084254"><ele>912.6666666666667</ele><time>2026-05-03T09:51:52Z</time></trkpt><trkpt lat="44.18529108522315" lon="11.356034640325117"><ele>909.0</ele><time>2026-05-03T09:51:53Z</time></trkpt><trkpt lat="44.18513043529915" lon="11.35588608967776"><ele>909.0</ele><time>2026-05-03T09:51:54Z</time></trkpt><trkpt lat="44.1849427900168" lon="11.35574006985696"><ele>909.0</ele><time>2026-05-03T09:51:55Z</time></trkpt><trkpt lat="44.184758667711066" lon="11.355593089936146"><ele>909.0</ele><time>2026-05-03T09:51:56Z</time></trkpt><trkpt lat="44.184585716495604" lon="11.355441260816406"><ele>908.3333333333333</ele><time>2026-05-03T09:51:57Z</time></trkpt><trkpt lat="44.18442784219266" lon="11.355275288604314"><ele>907.6666666666666</ele><time>2026-05-03T09:51:58Z</time></trkpt><trkpt lat="44.18429244843465" lon="11.355051255408732"><ele>907.0</ele><time>2026-05-03T09:51:59Z</time></trkpt><trkpt lat="44.184172039253326" lon="11.354772896871886"><ele>905.5</ele><time>2026-05-03T09:52:00Z</time></trkpt><trkpt lat="44.184057251126646" lon="11.354467453959666"><ele>904.0</ele><time>2026-05-03T09:52:01Z</time></trkpt><trkpt lat="44.18393997378748" lon="11.354185358866172"><ele>906.0</ele><time>2026-05-03T09:52:02Z</time></trkpt><trkpt lat="44.18382931082233" lon="11.353922008192223"><ele>908.0</ele><time>2026-05-03T09:52:03Z</time></trkpt><trkpt lat="44.18372186993943" lon="11.353665984041722"><ele>910.0</ele><time>2026-05-03T09:52:04Z</time></trkpt><trkpt lat="44.18361844756857" lon="11.353423988506474"><ele>910.0</ele><time>2026-05-03T09:52:05Z</time></trkpt><trkpt lat="44.18351864009109" lon="11.353184603159571"><ele>910.0</ele><time>2026-05-03T09:52:06Z</time></trkpt><trkpt lat="44.18342090737017" lon="11.352953512497306"><ele>910.0</ele><time>2026-05-03T09:52:07Z</time></trkpt><trkpt lat="44.18331757702556" lon="11.352742138666803"><ele>910.3333333333333</ele><time>2026-05-03T09:52:08Z</time></trkpt><trkpt lat="44.18320234849129" lon="11.352576925245247"><ele>910.6666666666667</ele><time>2026-05-03T09:52:09Z</time></trkpt><trkpt lat="44.183059765834926" lon="11.352457474867526"><ele>911.0</ele><time>2026-05-03T09:52:10Z</time></trkpt><trkpt lat="44.182890143139126" lon="11.352366472352426"><ele>911.0</ele><time>2026-05-03T09:52:11Z</time></trkpt><trkpt lat="44.18273166841398" lon="11.35230712779974"><ele>911.0</ele><time>2026-05-03T09:52:12Z</time></trkpt><trkpt lat="44.18260286923811" lon="11.352223271862266"><ele>911.0</ele><time>2026-05-03T09:52:13Z</time></trkpt><trkpt lat="44.18250638955363" lon="11.352077037342825"><ele>911.0</ele><time>2026-05-03T09:52:14Z</time></trkpt><trkpt lat="44.18245051950574" lon="11.351888386142528"><ele>907.0</ele><time>2026-05-03T09:52:15Z</time></trkpt><trkpt lat="44.18243288349463" lon="11.351685763535144"><ele>903.0</ele><time>2026-05-03T09:52:16Z</time></trkpt><trkpt lat="44.18246279359428" lon="11.35146736027383"><ele>899.0</ele><time>2026-05-03T09:52:17Z</time></trkpt><trkpt lat="44.182516437521464" lon="11.351239045551505"><ele>897.3333333333334</ele><time>2026-05-03T09:52:18Z</time></trkpt><trkpt lat="44.18253215479493" lon="11.351025838565617"><ele>895.6666666666667</ele><time>2026-05-03T09:52:19Z</time></trkpt><trkpt lat="44.182481511815446" lon="11.350807781928564"><ele>894.0</ele><time>2026-05-03T09:52:20Z</time></trkpt><trkpt lat="44.18237340093709" lon="11.35057517585644"><ele>902.3333333333333</ele><time>2026-05-03T09:52:21Z</time></trkpt><trkpt lat="44.182249731974565" lon="11.350330008994527"><ele>910.6666666666666</ele><time>2026-05-03T09:52:22Z</time></trkpt><trkpt lat="44.18218225083069" lon="11.350067340141914"><ele>919.0</ele><time>2026-05-03T09:52:23Z</time></trkpt><trkpt lat="44.18216212697484" lon="11.349802770442045"><ele>915.0</ele><time>2026-05-03T09:52:24Z</time></trkpt><trkpt lat="44.182154393568766" lon="11.349525376271773"><ele>911.0</ele><time>2026-05-03T09:52:25Z</time></trkpt><trkpt lat="44.18213265868277" lon="11.349258515072405"><ele>907.0</ele><time>2026-05-03T09:52:26Z</time></trkpt><trkpt lat="44.182100525760774" lon="11.349019050281546"><ele>901.3333333333333</ele><time>2026-05-03T09:52:27Z</time></trkpt><trkpt lat="44.18204126732934" lon="11.348808497677782"><ele>895.6666666666667</ele><time>2026-05-03T09:52:28Z</time></trkpt><trkpt lat="44.181943750731044" lon="11.34862006140202"><ele>890.0</ele><time>2026-05-03T09:52:29Z</time></trkpt><trkpt lat="44.18180218019945" lon="11.348456046922836"><ele>890.0</ele><time>2026-05-03T09:52:30Z</time></trkpt><trkpt lat="44.18161670782537" lon="11.348318234350291"><ele>890.0</ele><time>2026-05-03T09:52:31Z</time></trkpt><trkpt lat="44.181415736955444" lon="11.348181317072099"><ele>890.0</ele><time>2026-05-03T09:52:32Z</time></trkpt><trkpt lat="44.18122983325665" lon="11.348018806471527"><ele>888.6666666666667</ele><time>2026-05-03T09:52:33Z</time></trkpt><trkpt lat="44.18105391980388" lon="11.347858776728055"><ele>887.3333333333333</ele><time>2026-05-03T09:52:34Z</time></trkpt><trkpt lat="44.18087071581626" lon="11.347738754653895"><ele>886.0</ele><time>2026-05-03T09:52:35Z</time></trkpt><trkpt lat="44.18067732614112" lon="11.347672077500846"><ele>890.0</ele><time>2026-05-03T09:52:36Z</time></trkpt><trkpt lat="44.18047987761321" lon="11.347659138427893"><ele>894.0</ele><time>2026-05-03T09:52:37Z</time></trkpt><trkpt lat="44.180299766262344" lon="11.347671877057891"><ele>898.0</ele><time>2026-05-03T09:52:38Z</time></trkpt><trkpt lat="44.18012633686435" lon="11.347681206263891"><ele>898.0</ele><time>2026-05-03T09:52:39Z</time></trkpt><trkpt lat="44.17997138075384" lon="11.347668899578514"><ele>898.0</ele><time>2026-05-03T09:52:40Z</time></trkpt><trkpt lat="44.17984554133543" lon="11.347626847648154"><ele>898.0</ele><time>2026-05-03T09:52:41Z</time></trkpt><trkpt lat="44.179742113977" lon="11.347543153810218"><ele>898.0</ele><time>2026-05-03T09:52:42Z</time></trkpt><trkpt lat="44.17967505545658" lon="11.347403291525243"><ele>898.8</ele><time>2026-05-03T09:52:43Z</time></trkpt><trkpt lat="44.179636733727406" lon="11.347249285946157"><ele>899.5999999999999</ele><time>2026-05-03T09:52:44Z</time></trkpt><trkpt lat="44.1796034091401" lon="11.34711139329583"><ele>900.4000000000001</ele><time>2026-05-03T09:52:45Z</time></trkpt><trkpt lat="44.17954474385023" lon="11.346998955788248"><ele>901.2</ele><time>2026-05-03T09:52:46Z</time></trkpt><trkpt lat="44.17946680965581" lon="11.34693178985543"><ele>902.0</ele><time>2026-05-03T09:52:47Z</time></trkpt><trkpt lat="44.17938029196832" lon="11.346893695734359"><ele>902.0</ele><time>2026-05-03T09:52:48Z</time></trkpt><trkpt lat="44.17925170622648" lon="11.346878617922131"><ele>902.0</ele><time>2026-05-03T09:52:49Z</time></trkpt><trkpt lat="44.17911084851709" lon="11.346871767479202"><ele>902.0</ele><time>2026-05-03T09:52:50Z</time></trkpt><trkpt lat="44.17898905806974" lon="11.34685716207329"><ele>902.0</ele><time>2026-05-03T09:52:51Z</time></trkpt><trkpt lat="44.1788717975968" lon="11.34683571581134"><ele>905.2</ele><time>2026-05-03T09:52:52Z</time></trkpt><trkpt lat="44.17875833599691" lon="11.346816598462386"><ele>908.4000000000001</ele><time>2026-05-03T09:52:53Z</time></trkpt><trkpt lat="44.178655387581315" lon="11.346789636226184"><ele>911.5999999999999</ele><time>2026-05-03T09:52:54Z</time></trkpt><trkpt lat="44.17856581087567" lon="11.346729470431427"><ele>914.8</ele><time>2026-05-03T09:52:55Z</time></trkpt><trkpt lat="44.17850181321909" lon="11.346637614528749"><ele>918.0</ele><time>2026-05-03T09:52:56Z</time></trkpt><trkpt lat="44.178452281084176" lon="11.346516763391525"><ele>918.0</ele><time>2026-05-03T09:52:57Z</time></trkpt><trkpt lat="44.17841990122831" lon="11.346384310027556"><ele>918.0</ele><time>2026-05-03T09:52:58Z</time></trkpt><trkpt lat="44.178410313201084" lon="11.346246693409384"><ele>918.0</ele><time>2026-05-03T09:52:59Z</time></trkpt><trkpt lat="44.17838504872558" lon="11.346114065310712"><ele>918.0</ele><time>2026-05-03T09:53:00Z</time></trkpt><trkpt lat="44.17833274983012" lon="11.34602174260634"><ele>918.0</ele><time>2026-05-03T09:53:01Z</time></trkpt><trkpt lat="44.17826260664859" lon="11.345955082851878"><ele>918.5</ele><time>2026-05-03T09:53:02Z</time></trkpt><trkpt lat="44.17817344672702" lon="11.345898041020662"><ele>919.0</ele><time>2026-05-03T09:53:03Z</time></trkpt><trkpt lat="44.17806985085048" lon="11.345854288037579"><ele>919.5</ele><time>2026-05-03T09:53:04Z</time></trkpt><trkpt lat="44.17795027874717" lon="11.345835155691827"><ele>920.0</ele><time>2026-05-03T09:53:05Z</time></trkpt><trkpt lat="44.177825659463075" lon="11.345829661684657"><ele>920.0</ele><time>2026-05-03T09:53:06Z</time></trkpt><trkpt lat="44.177699072253446" lon="11.345820067086567"><ele>920.0</ele><time>2026-05-03T09:53:07Z</time></trkpt><trkpt lat="44.17757633083597" lon="11.345805145372545"><ele>920.0</ele><time>2026-05-03T09:53:08Z</time></trkpt><trkpt lat="44.177462444495646" lon="11.345784767457042"><ele>920.0</ele><time>2026-05-03T09:53:09Z</time></trkpt><trkpt lat="44.1773515328444" lon="11.345753211523446"><ele>921.75</ele><time>2026-05-03T09:53:10Z</time></trkpt><trkpt lat="44.17725058321879" lon="11.34567869012955"><ele>923.5</ele><time>2026-05-03T09:53:11Z</time></trkpt><trkpt lat="44.177158857203324" lon="11.34557252594665"><ele>925.25</ele><time>2026-05-03T09:53:12Z</time></trkpt><trkpt lat="44.17707599121735" lon="11.345450325258957"><ele>927.0</ele><time>2026-05-03T09:53:13Z</time></trkpt><trkpt lat="44.17699639139717" lon="11.345327670519273"><ele>927.0</ele><time>2026-05-03T09:53:14Z</time></trkpt><trkpt lat="44.17690647288322" lon="11.34520453678564"><ele>927.0</ele><time>2026-05-03T09:53:15Z</time></trkpt><trkpt lat="44.17679315971916" lon="11.34508471989625"><ele>927.0</ele><time>2026-05-03T09:53:16Z</time></trkpt><trkpt lat="44.17665674801517" lon="11.344974207214069"><ele>927.0</ele><time>2026-05-03T09:53:17Z</time></trkpt><trkpt lat="44.176523473878895" lon="11.344868804524468"><ele>926.3333333333333</ele><time>2026-05-03T09:53:18Z</time></trkpt><trkpt lat="44.17638720246491" lon="11.344767359744106"><ele>925.6666666666666</ele><time>2026-05-03T09:53:19Z</time></trkpt><trkpt lat="44.176238120514356" lon="11.344673547595367"><ele>925.0</ele><time>2026-05-03T09:53:20Z</time></trkpt><trkpt lat="44.17608954179827" lon="11.344586248384164"><ele>925.0</ele><time>2026-05-03T09:53:21Z</time></trkpt><trkpt lat="44.17593691805585" lon="11.344503044808166"><ele>925.0</ele><time>2026-05-03T09:53:22Z</time></trkpt><trkpt lat="44.17576141444185" lon="11.344421044351463"><ele>925.0</ele><time>2026-05-03T09:53:23Z</time></trkpt><trkpt lat="44.175557989810756" lon="11.344354542381911"><ele>928.6666666666666</ele><time>2026-05-03T09:53:24Z</time></trkpt><trkpt lat="44.175355112796765" lon="11.344308289497352"><ele>932.3333333333333</ele><time>2026-05-03T09:53:25Z</time></trkpt><trkpt lat="44.17516674530555" lon="11.344259551382983"><ele>936.0</ele><time>2026-05-03T09:53:26Z</time></trkpt><trkpt lat="44.1749853106161" lon="11.344206728580547"><ele>939.3333333333333</ele><time>2026-05-03T09:53:27Z</time></trkpt><trkpt lat="44.17481697244854" lon="11.344157276269476"><ele>942.6666666666666</ele><time>2026-05-03T09:53:28Z</time></trkpt><trkpt lat="44.17464735138897" lon="11.344101844916066"><ele>946.0</ele><time>2026-05-03T09:53:29Z</time></trkpt><trkpt lat="44.17447737932347" lon="11.344036821364314"><ele>946.0</ele><time>2026-05-03T09:53:30Z</time></trkpt><trkpt lat="44.174331100610516" lon="11.34395429056399"><ele>946.0</ele><time>2026-05-03T09:53:31Z</time></trkpt><trkpt lat="44.174189218729474" lon="11.343852689070031"><ele>946.0</ele><time>2026-05-03T09:53:32Z</time></trkpt><trkpt lat="44.17405177065653" lon="11.343721065405"><ele>949.6666666666666</ele><time>2026-05-03T09:53:33Z</time></trkpt><trkpt lat="44.17392595778599" lon="11.343572911550714"><ele>953.3333333333333</ele><time>2026-05-03T09:53:34Z</time></trkpt><trkpt lat="44.17381611972314" lon="11.343396286203465"><ele>957.0</ele><time>2026-05-03T09:53:35Z</time></trkpt><trkpt lat="44.17371510456968" lon="11.343201174426309"><ele>956.0</ele><time>2026-05-03T09:53:36Z</time></trkpt><trkpt lat="44.17362161631808" lon="11.3429921862679"><ele>955.0</ele><time>2026-05-03T09:53:37Z</time></trkpt><trkpt lat="44.17353086538586" lon="11.34278744265736"><ele>954.0</ele><time>2026-05-03T09:53:38Z</time></trkpt><trkpt lat="44.17345130038161" lon="11.342599087807226"><ele>954.0</ele><time>2026-05-03T09:53:39Z</time></trkpt><trkpt lat="44.17338071135032" lon="11.342424780955236"><ele>954.0</ele><time>2026-05-03T09:53:40Z</time></trkpt><trkpt lat="44.17332334081557" lon="11.342264524811695"><ele>954.0</ele><time>2026-05-03T09:53:41Z</time></trkpt><trkpt lat="44.17328657610581" lon="11.342109036600366"><ele>954.0</ele><time>2026-05-03T09:53:42Z</time></trkpt><trkpt lat="44.17328826835204" lon="11.341952085179159"><ele>954.0</ele><time>2026-05-03T09:53:43Z</time></trkpt><trkpt lat="44.173328285719954" lon="11.341788142553716"><ele>954.0</ele><time>2026-05-03T09:53:44Z</time></trkpt><trkpt lat="44.17340616795098" lon="11.34163850720735"><ele>954.0</ele><time>2026-05-03T09:53:45Z</time></trkpt><trkpt lat="44.173502459254266" lon="11.341520429169444"><ele>954.0</ele><time>2026-05-03T09:53:46Z</time></trkpt><trkpt lat="44.173615908756325" lon="11.341424268592917"><ele>957.25</ele><time>2026-05-03T09:53:47Z</time></trkpt><trkpt lat="44.17374207767827" lon="11.341323930049361"><ele>960.5</ele><time>2026-05-03T09:53:48Z</time></trkpt><trkpt lat="44.17386036634089" lon="11.341189767035447"><ele>963.75</ele><time>2026-05-03T09:53:49Z</time></trkpt><trkpt lat="44.173943036272426" lon="11.341035048232083"><ele>967.0</ele><time>2026-05-03T09:53:50Z</time></trkpt><trkpt lat="44.1739754103042" lon="11.340867391924093"><ele>967.0</ele><time>2026-05-03T09:53:51Z</time></trkpt><trkpt lat="44.17397508130139" lon="11.340707377463978"><ele>967.0</ele><time>2026-05-03T09:53:52Z</time></trkpt><trkpt lat="44.17394475251004" lon="11.340564859634645"><ele>967.0</ele><time>2026-05-03T09:53:53Z</time></trkpt><trkpt lat="44.17388625585272" lon="11.340425324508026"><ele>967.0</ele><time>2026-05-03T09:53:54Z</time></trkpt><trkpt lat="44.17379267906163" lon="11.340299576866247"><ele>967.25</ele><time>2026-05-03T09:53:55Z</time></trkpt><trkpt lat="44.17368496085016" lon="11.34019017276903"><ele>967.5</ele><time>2026-05-03T09:53:56Z</time></trkpt><trkpt lat="44.1735924689513" lon="11.34007906642424"><ele>967.75</ele><time>2026-05-03T09:53:57Z</time></trkpt><trkpt lat="44.17351341918511" lon="11.339952899747713"><ele>968.0</ele><time>2026-05-03T09:53:58Z</time></trkpt><trkpt lat="44.17344537918266" lon="11.339826927894263"><ele>967.4</ele><time>2026-05-03T09:53:59Z</time></trkpt><trkpt lat="44.173376981903296" lon="11.339703810336053"><ele>966.8</ele><time>2026-05-03T09:54:00Z</time></trkpt><trkpt lat="44.17331733612542" lon="11.339586702361991"><ele>966.2</ele><time>2026-05-03T09:54:01Z</time></trkpt><trkpt lat="44.17326506742597" lon="11.339476337451956"><ele>965.6</ele><time>2026-05-03T09:54:02Z</time></trkpt><trkpt lat="44.173223176155076" lon="11.339379803044705"><ele>965.0</ele><time>2026-05-03T09:54:03Z</time></trkpt><trkpt lat="44.173181853431835" lon="11.339287819418743"><ele>965.0000000000001</ele><time>2026-05-03T09:54:04Z</time></trkpt><trkpt lat="44.17314317707533" lon="11.339199590213918"><ele>965.0</ele><time>2026-05-03T09:54:05Z</time></trkpt><trkpt lat="44.173109270286254" lon="11.339124612629755"><ele>965.0</ele><time>2026-05-03T09:54:06Z</time></trkpt><trkpt lat="44.173072839897145" lon="11.339044288669395"><ele>965.0</ele><time>2026-05-03T09:54:07Z</time></trkpt><trkpt lat="44.173035367600534" lon="11.338968838746357"><ele>965.0000000000001</ele><time>2026-05-03T09:54:08Z</time></trkpt><trkpt lat="44.1729800662712" lon="11.338835240135463"><ele>965.0</ele><time>2026-05-03T09:54:10Z</time></trkpt><trkpt lat="44.17297714245777" lon="11.338708853391907"><ele>961.0</ele><time>2026-05-03T09:54:12Z</time></trkpt><trkpt lat="44.173012868315055" lon="11.338596632783549"><ele>961.0</ele><time>2026-05-03T09:54:14Z</time></trkpt><trkpt lat="44.17306983979869" lon="11.338528921213895"><ele>961.0</ele><time>2026-05-03T09:54:27Z</time></trkpt><trkpt lat="44.17312342430747" lon="11.338474651569628"><ele>961.0</ele><time>2026-05-03T09:54:35Z</time></trkpt><trkpt lat="44.17312342430747" lon="11.338474651569628"><ele>961.0</ele><time>2026-05-03T09:54:35Z</time></trkpt><trkpt lat="44.17312342430747" lon="11.338474651569628"><ele>961.0</ele><time>2026-05-03T09:54:35Z</time></trkpt></trkseg></trk></gpx>